<?xml version="1.0" encoding="UTF-8" standalone="no" ?>
<gpx xmlns="http://www.topografix.com/GPX/1/1" xmlns:xsi="http://www.w3.org/2001/XMLSchema-instance" xsi:schemaLocation="http://www.topografix.com/GPX/1/1 http://www.topografix.com/GPX/1/1/gpx.xsd" version="1.1" creator="VisuGPX - https://www.visugpx.com">
  <metadata>
    <name>GR 400, étape 05</name>
    <desc><![CDATA[Du Refuge de Cabrespine au parvis de la chapelle de ND de Consolation (au dessus de Thiézac).]]></desc>
  </metadata>
  <trk>
    <name><![CDATA[GR 400 étape 05_1]]></name>
    <extensions>
      <line xmlns="http://www.topografix.com/GPX/gpx_style/0/2">
        <color>0000FF</color>
        <width>4</width>
      </line>
    </extensions>
    <trkseg>
      <trkpt lat="45.07637" lon="2.61359">
        <ele>1350.9</ele>
        <time>2021-09-12T05:13:07.000Z</time>
      </trkpt>
      <trkpt lat="45.07631" lon="2.61355">
        <ele>1348.3</ele>
        <time>2021-09-12T05:13:13.000Z</time>
      </trkpt>
      <trkpt lat="45.07624" lon="2.61358">
        <ele>1346.7</ele>
        <time>2021-09-12T05:13:32.000Z</time>
      </trkpt>
      <trkpt lat="45.07618" lon="2.61359">
        <ele>1345.1</ele>
        <time>2021-09-12T05:13:40.000Z</time>
      </trkpt>
      <trkpt lat="45.07612" lon="2.61352">
        <ele>1341.7</ele>
        <time>2021-09-12T05:13:48.000Z</time>
      </trkpt>
      <trkpt lat="45.0761" lon="2.61343">
        <ele>1339.1</ele>
        <time>2021-09-12T05:13:55.000Z</time>
      </trkpt>
      <trkpt lat="45.07607" lon="2.61333">
        <ele>1335.9</ele>
        <time>2021-09-12T05:14:01.000Z</time>
      </trkpt>
      <trkpt lat="45.07606" lon="2.61323">
        <ele>1333.7</ele>
        <time>2021-09-12T05:14:07.000Z</time>
      </trkpt>
      <trkpt lat="45.07609" lon="2.61314">
        <ele>1333</ele>
        <time>2021-09-12T05:14:14.000Z</time>
      </trkpt>
      <trkpt lat="45.07614" lon="2.61308">
        <ele>1333.7</ele>
        <time>2021-09-12T05:14:20.000Z</time>
      </trkpt>
      <trkpt lat="45.07613" lon="2.61299">
        <ele>1331.7</ele>
        <time>2021-09-12T05:14:28.000Z</time>
      </trkpt>
      <trkpt lat="45.07608" lon="2.61292">
        <ele>1328.6</ele>
        <time>2021-09-12T05:14:35.000Z</time>
      </trkpt>
      <trkpt lat="45.07602" lon="2.61286">
        <ele>1325.3</ele>
        <time>2021-09-12T05:14:41.000Z</time>
      </trkpt>
      <trkpt lat="45.07597" lon="2.61279">
        <ele>1322</ele>
        <time>2021-09-12T05:14:47.000Z</time>
      </trkpt>
      <trkpt lat="45.07591" lon="2.61275">
        <ele>1319</ele>
        <time>2021-09-12T05:14:56.000Z</time>
      </trkpt>
      <trkpt lat="45.07585" lon="2.61269">
        <ele>1315.5</ele>
        <time>2021-09-12T05:15:03.000Z</time>
      </trkpt>
      <trkpt lat="45.07579" lon="2.61263">
        <ele>1311.7</ele>
        <time>2021-09-12T05:15:09.000Z</time>
      </trkpt>
      <trkpt lat="45.07579" lon="2.61253">
        <ele>1309.7</ele>
        <time>2021-09-12T05:15:42.000Z</time>
      </trkpt>
      <trkpt lat="45.07575" lon="2.61245">
        <ele>1307.3</ele>
        <time>2021-09-12T05:15:50.000Z</time>
      </trkpt>
      <trkpt lat="45.07571" lon="2.61238">
        <ele>1305.5</ele>
        <time>2021-09-12T05:15:57.000Z</time>
      </trkpt>
      <trkpt lat="45.07567" lon="2.61228">
        <ele>1303.7</ele>
        <time>2021-09-12T05:16:03.000Z</time>
      </trkpt>
      <trkpt lat="45.07567" lon="2.61219">
        <ele>1303.7</ele>
        <time>2021-09-12T05:16:09.000Z</time>
      </trkpt>
      <trkpt lat="45.07569" lon="2.61208">
        <ele>1304.6</ele>
        <time>2021-09-12T05:16:16.000Z</time>
      </trkpt>
      <trkpt lat="45.07571" lon="2.61199">
        <ele>1305.6</ele>
        <time>2021-09-12T05:16:22.000Z</time>
      </trkpt>
      <trkpt lat="45.07573" lon="2.6119">
        <ele>1306.6</ele>
        <time>2021-09-12T05:16:28.000Z</time>
      </trkpt>
      <trkpt lat="45.07576" lon="2.6118">
        <ele>1308.1</ele>
        <time>2021-09-12T05:16:34.000Z</time>
      </trkpt>
      <trkpt lat="45.07577" lon="2.6117">
        <ele>1308.7</ele>
        <time>2021-09-12T05:16:40.000Z</time>
      </trkpt>
      <trkpt lat="45.07577" lon="2.61161">
        <ele>1309.2</ele>
        <time>2021-09-12T05:16:45.000Z</time>
      </trkpt>
      <trkpt lat="45.0758" lon="2.61151">
        <ele>1311.5</ele>
        <time>2021-09-12T05:16:51.000Z</time>
      </trkpt>
      <trkpt lat="45.07581" lon="2.6114">
        <ele>1312.8</ele>
        <time>2021-09-12T05:16:57.000Z</time>
      </trkpt>
      <trkpt lat="45.07584" lon="2.61129">
        <ele>1314.8</ele>
        <time>2021-09-12T05:17:03.000Z</time>
      </trkpt>
      <trkpt lat="45.07586" lon="2.61119">
        <ele>1315.9</ele>
        <time>2021-09-12T05:17:18.000Z</time>
      </trkpt>
      <trkpt lat="45.07585" lon="2.6111">
        <ele>1316.4</ele>
        <time>2021-09-12T05:17:25.000Z</time>
      </trkpt>
      <trkpt lat="45.07586" lon="2.61099">
        <ele>1317.3</ele>
        <time>2021-09-12T05:17:41.000Z</time>
      </trkpt>
      <trkpt lat="45.07587" lon="2.61089">
        <ele>1318.1</ele>
        <time>2021-09-12T05:17:48.000Z</time>
      </trkpt>
      <trkpt lat="45.07585" lon="2.6108">
        <ele>1319.3</ele>
        <time>2021-09-12T05:18:15.000Z</time>
      </trkpt>
      <trkpt lat="45.07585" lon="2.6107">
        <ele>1322.4</ele>
        <time>2021-09-12T05:18:21.000Z</time>
      </trkpt>
      <trkpt lat="45.07585" lon="2.61061">
        <ele>1325.3</ele>
        <time>2021-09-12T05:18:27.000Z</time>
      </trkpt>
      <trkpt lat="45.07586" lon="2.6105">
        <ele>1328.8</ele>
        <time>2021-09-12T05:18:33.000Z</time>
      </trkpt>
      <trkpt lat="45.07584" lon="2.6104">
        <ele>1332</ele>
        <time>2021-09-12T05:18:40.000Z</time>
      </trkpt>
      <trkpt lat="45.07584" lon="2.6103">
        <ele>1335.2</ele>
        <time>2021-09-12T05:18:46.000Z</time>
      </trkpt>
      <trkpt lat="45.07585" lon="2.61021">
        <ele>1338.1</ele>
        <time>2021-09-12T05:18:53.000Z</time>
      </trkpt>
      <trkpt lat="45.07584" lon="2.61012">
        <ele>1341</ele>
        <time>2021-09-12T05:19:00.000Z</time>
      </trkpt>
      <trkpt lat="45.07583" lon="2.61002">
        <ele>1344.2</ele>
        <time>2021-09-12T05:19:06.000Z</time>
      </trkpt>
      <trkpt lat="45.07581" lon="2.60992">
        <ele>1345.1</ele>
        <time>2021-09-12T05:19:13.000Z</time>
      </trkpt>
      <trkpt lat="45.07581" lon="2.60982">
        <ele>1346.4</ele>
        <time>2021-09-12T05:19:23.000Z</time>
      </trkpt>
      <trkpt lat="45.07579" lon="2.60972">
        <ele>1347</ele>
        <time>2021-09-12T05:19:31.000Z</time>
      </trkpt>
      <trkpt lat="45.07578" lon="2.60961">
        <ele>1348.1</ele>
        <time>2021-09-12T05:19:37.000Z</time>
      </trkpt>
      <trkpt lat="45.07576" lon="2.6095">
        <ele>1348.9</ele>
        <time>2021-09-12T05:19:45.000Z</time>
      </trkpt>
      <trkpt lat="45.07576" lon="2.60941">
        <ele>1350.1</ele>
        <time>2021-09-12T05:19:53.000Z</time>
      </trkpt>
      <trkpt lat="45.07571" lon="2.60932">
        <ele>1349.6</ele>
        <time>2021-09-12T05:20:00.000Z</time>
      </trkpt>
      <trkpt lat="45.07572" lon="2.60922">
        <ele>1351.4</ele>
        <time>2021-09-12T05:20:08.000Z</time>
      </trkpt>
      <trkpt lat="45.07572" lon="2.60913">
        <ele>1352.3</ele>
        <time>2021-09-12T05:20:16.000Z</time>
      </trkpt>
      <trkpt lat="45.0757" lon="2.60903">
        <ele>1352</ele>
        <time>2021-09-12T05:20:21.000Z</time>
      </trkpt>
      <trkpt lat="45.0757" lon="2.60894">
        <ele>1352.2</ele>
        <time>2021-09-12T05:20:28.000Z</time>
      </trkpt>
      <trkpt lat="45.07569" lon="2.60884">
        <ele>1352.2</ele>
        <time>2021-09-12T05:20:36.000Z</time>
      </trkpt>
      <trkpt lat="45.07569" lon="2.60874">
        <ele>1352.6</ele>
        <time>2021-09-12T05:20:41.000Z</time>
      </trkpt>
      <trkpt lat="45.07568" lon="2.60865">
        <ele>1352.5</ele>
        <time>2021-09-12T05:20:48.000Z</time>
      </trkpt>
      <trkpt lat="45.07566" lon="2.60855">
        <ele>1352.3</ele>
        <time>2021-09-12T05:20:56.000Z</time>
      </trkpt>
      <trkpt lat="45.07562" lon="2.60837">
        <ele>1351.7</ele>
        <time>2021-09-12T05:21:22.000Z</time>
      </trkpt>
      <trkpt lat="45.07557" lon="2.60827">
        <ele>1350.3</ele>
        <time>2021-09-12T05:21:47.000Z</time>
      </trkpt>
      <trkpt lat="45.07556" lon="2.60817">
        <ele>1349.9</ele>
        <time>2021-09-12T05:22:32.000Z</time>
      </trkpt>
      <trkpt lat="45.07552" lon="2.60809">
        <ele>1348.7</ele>
        <time>2021-09-12T05:22:38.000Z</time>
      </trkpt>
      <trkpt lat="45.07546" lon="2.60802">
        <ele>1347.2</ele>
        <time>2021-09-12T05:22:44.000Z</time>
      </trkpt>
      <trkpt lat="45.07539" lon="2.60797">
        <ele>1345.6</ele>
        <time>2021-09-12T05:22:49.000Z</time>
      </trkpt>
      <trkpt lat="45.07535" lon="2.60789">
        <ele>1344.8</ele>
        <time>2021-09-12T05:22:56.000Z</time>
      </trkpt>
      <trkpt lat="45.0753" lon="2.60782">
        <ele>1343.9</ele>
        <time>2021-09-12T05:23:02.000Z</time>
      </trkpt>
      <trkpt lat="45.07526" lon="2.60774">
        <ele>1343.3</ele>
        <time>2021-09-12T05:23:43.000Z</time>
      </trkpt>
      <trkpt lat="45.07522" lon="2.60764">
        <ele>1342.9</ele>
        <time>2021-09-12T05:23:49.000Z</time>
      </trkpt>
      <trkpt lat="45.07517" lon="2.60755">
        <ele>1342.4</ele>
        <time>2021-09-12T05:23:54.000Z</time>
      </trkpt>
      <trkpt lat="45.07511" lon="2.60745">
        <ele>1341.9</ele>
        <time>2021-09-12T05:24:00.000Z</time>
      </trkpt>
      <trkpt lat="45.07506" lon="2.60735">
        <ele>1341.6</ele>
        <time>2021-09-12T05:24:06.000Z</time>
      </trkpt>
      <trkpt lat="45.07501" lon="2.60723">
        <ele>1341.7</ele>
        <time>2021-09-12T05:24:12.000Z</time>
      </trkpt>
      <trkpt lat="45.07495" lon="2.60714">
        <ele>1340.2</ele>
        <time>2021-09-12T05:24:18.000Z</time>
      </trkpt>
      <trkpt lat="45.07491" lon="2.60706">
        <ele>1339.2</ele>
        <time>2021-09-12T05:24:25.000Z</time>
      </trkpt>
      <trkpt lat="45.07488" lon="2.60697">
        <ele>1338.9</ele>
        <time>2021-09-12T05:24:31.000Z</time>
      </trkpt>
      <trkpt lat="45.07486" lon="2.60688">
        <ele>1339.1</ele>
        <time>2021-09-12T05:24:37.000Z</time>
      </trkpt>
      <trkpt lat="45.07483" lon="2.60679">
        <ele>1339</ele>
        <time>2021-09-12T05:24:42.000Z</time>
      </trkpt>
      <trkpt lat="45.0748" lon="2.60666">
        <ele>1339.6</ele>
        <time>2021-09-12T05:24:48.000Z</time>
      </trkpt>
      <trkpt lat="45.07478" lon="2.60654">
        <ele>1340.9</ele>
        <time>2021-09-12T05:24:54.000Z</time>
      </trkpt>
      <trkpt lat="45.07478" lon="2.60642">
        <ele>1342.8</ele>
        <time>2021-09-12T05:25:00.000Z</time>
      </trkpt>
      <trkpt lat="45.0748" lon="2.60633">
        <ele>1344.7</ele>
        <time>2021-09-12T05:25:06.000Z</time>
      </trkpt>
      <trkpt lat="45.07481" lon="2.60623">
        <ele>1346.5</ele>
        <time>2021-09-12T05:25:12.000Z</time>
      </trkpt>
      <trkpt lat="45.07481" lon="2.60613">
        <ele>1348.1</ele>
        <time>2021-09-12T05:25:19.000Z</time>
      </trkpt>
      <trkpt lat="45.0748" lon="2.60603">
        <ele>1349.4</ele>
        <time>2021-09-12T05:25:28.000Z</time>
      </trkpt>
      <trkpt lat="45.0748" lon="2.60594">
        <ele>1350.8</ele>
        <time>2021-09-12T05:25:37.000Z</time>
      </trkpt>
      <trkpt lat="45.07485" lon="2.60588">
        <ele>1352.9</ele>
        <time>2021-09-12T05:25:43.000Z</time>
      </trkpt>
      <trkpt lat="45.07487" lon="2.60579">
        <ele>1354.3</ele>
        <time>2021-09-12T05:25:49.000Z</time>
      </trkpt>
      <trkpt lat="45.07485" lon="2.60569">
        <ele>1354.4</ele>
        <time>2021-09-12T05:25:56.000Z</time>
      </trkpt>
      <trkpt lat="45.07484" lon="2.60553">
        <ele>1355</ele>
        <time>2021-09-12T05:27:01.000Z</time>
      </trkpt>
      <trkpt lat="45.07486" lon="2.60543">
        <ele>1356.1</ele>
        <time>2021-09-12T05:27:09.000Z</time>
      </trkpt>
      <trkpt lat="45.07487" lon="2.60533">
        <ele>1357</ele>
        <time>2021-09-12T05:27:15.000Z</time>
      </trkpt>
      <trkpt lat="45.07487" lon="2.60523">
        <ele>1357.6</ele>
        <time>2021-09-12T05:27:21.000Z</time>
      </trkpt>
      <trkpt lat="45.07489" lon="2.60513">
        <ele>1359</ele>
        <time>2021-09-12T05:27:27.000Z</time>
      </trkpt>
      <trkpt lat="45.07491" lon="2.60503">
        <ele>1360.3</ele>
        <time>2021-09-12T05:30:59.000Z</time>
      </trkpt>
      <trkpt lat="45.07493" lon="2.60494">
        <ele>1361.3</ele>
        <time>2021-09-12T05:31:06.000Z</time>
      </trkpt>
      <trkpt lat="45.07493" lon="2.60482">
        <ele>1361.2</ele>
        <time>2021-09-12T05:31:11.000Z</time>
      </trkpt>
      <trkpt lat="45.07494" lon="2.6047">
        <ele>1361.6</ele>
        <time>2021-09-12T05:31:17.000Z</time>
      </trkpt>
      <trkpt lat="45.07494" lon="2.60461">
        <ele>1361.6</ele>
        <time>2021-09-12T05:31:23.000Z</time>
      </trkpt>
      <trkpt lat="45.07495" lon="2.60451">
        <ele>1361.9</ele>
        <time>2021-09-12T05:31:29.000Z</time>
      </trkpt>
      <trkpt lat="45.07494" lon="2.60441">
        <ele>1361.5</ele>
        <time>2021-09-12T05:31:36.000Z</time>
      </trkpt>
      <trkpt lat="45.07494" lon="2.6043">
        <ele>1361.5</ele>
        <time>2021-09-12T05:31:42.000Z</time>
      </trkpt>
      <trkpt lat="45.07494" lon="2.60421">
        <ele>1361.4</ele>
        <time>2021-09-12T05:31:48.000Z</time>
      </trkpt>
      <trkpt lat="45.07492" lon="2.6041">
        <ele>1360.4</ele>
        <time>2021-09-12T05:31:53.000Z</time>
      </trkpt>
      <trkpt lat="45.07491" lon="2.60399">
        <ele>1359.8</ele>
        <time>2021-09-12T05:31:59.000Z</time>
      </trkpt>
      <trkpt lat="45.07493" lon="2.60389">
        <ele>1360.4</ele>
        <time>2021-09-12T05:32:09.000Z</time>
      </trkpt>
      <trkpt lat="45.07492" lon="2.6038">
        <ele>1359.8</ele>
        <time>2021-09-12T05:32:16.000Z</time>
      </trkpt>
      <trkpt lat="45.0749" lon="2.60371">
        <ele>1358.8</ele>
        <time>2021-09-12T05:32:50.000Z</time>
      </trkpt>
      <trkpt lat="45.0749" lon="2.60362">
        <ele>1358.7</ele>
        <time>2021-09-12T05:32:56.000Z</time>
      </trkpt>
      <trkpt lat="45.07488" lon="2.60351">
        <ele>1357.7</ele>
        <time>2021-09-12T05:33:01.000Z</time>
      </trkpt>
      <trkpt lat="45.07485" lon="2.60342">
        <ele>1356.4</ele>
        <time>2021-09-12T05:33:07.000Z</time>
      </trkpt>
      <trkpt lat="45.07483" lon="2.60331">
        <ele>1355.6</ele>
        <time>2021-09-12T05:33:12.000Z</time>
      </trkpt>
      <trkpt lat="45.07481" lon="2.6032">
        <ele>1355.7</ele>
        <time>2021-09-12T05:33:17.000Z</time>
      </trkpt>
      <trkpt lat="45.07478" lon="2.60309">
        <ele>1355.4</ele>
        <time>2021-09-12T05:33:23.000Z</time>
      </trkpt>
      <trkpt lat="45.07477" lon="2.60298">
        <ele>1355.9</ele>
        <time>2021-09-12T05:33:29.000Z</time>
      </trkpt>
      <trkpt lat="45.07476" lon="2.60288">
        <ele>1356.4</ele>
        <time>2021-09-12T05:33:35.000Z</time>
      </trkpt>
      <trkpt lat="45.07475" lon="2.60278">
        <ele>1356.8</ele>
        <time>2021-09-12T05:33:41.000Z</time>
      </trkpt>
      <trkpt lat="45.07475" lon="2.60268">
        <ele>1357.7</ele>
        <time>2021-09-12T05:33:47.000Z</time>
      </trkpt>
      <trkpt lat="45.07476" lon="2.60258">
        <ele>1358.7</ele>
        <time>2021-09-12T05:33:53.000Z</time>
      </trkpt>
      <trkpt lat="45.07477" lon="2.60248">
        <ele>1360.1</ele>
        <time>2021-09-12T05:34:01.000Z</time>
      </trkpt>
      <trkpt lat="45.07479" lon="2.60238">
        <ele>1362.7</ele>
        <time>2021-09-12T05:34:09.000Z</time>
      </trkpt>
      <trkpt lat="45.07481" lon="2.60229">
        <ele>1365.1</ele>
        <time>2021-09-12T05:34:17.000Z</time>
      </trkpt>
      <trkpt lat="45.07485" lon="2.6022">
        <ele>1367.9</ele>
        <time>2021-09-12T05:34:24.000Z</time>
      </trkpt>
      <trkpt lat="45.07489" lon="2.60212">
        <ele>1370.4</ele>
        <time>2021-09-12T05:34:29.000Z</time>
      </trkpt>
      <trkpt lat="45.07491" lon="2.60202">
        <ele>1372.8</ele>
        <time>2021-09-12T05:34:52.000Z</time>
      </trkpt>
      <trkpt lat="45.07492" lon="2.60192">
        <ele>1374.9</ele>
        <time>2021-09-12T05:34:59.000Z</time>
      </trkpt>
      <trkpt lat="45.07493" lon="2.60182">
        <ele>1377</ele>
        <time>2021-09-12T05:35:05.000Z</time>
      </trkpt>
      <trkpt lat="45.07492" lon="2.60172">
        <ele>1378.7</ele>
        <time>2021-09-12T05:35:13.000Z</time>
      </trkpt>
      <trkpt lat="45.07492" lon="2.60162">
        <ele>1380.8</ele>
        <time>2021-09-12T05:35:19.000Z</time>
      </trkpt>
      <trkpt lat="45.07494" lon="2.60153">
        <ele>1383.1</ele>
        <time>2021-09-12T05:35:26.000Z</time>
      </trkpt>
      <trkpt lat="45.0749" lon="2.60144">
        <ele>1384.6</ele>
        <time>2021-09-12T05:35:35.000Z</time>
      </trkpt>
      <trkpt lat="45.07486" lon="2.60135">
        <ele>1386.1</ele>
        <time>2021-09-12T05:35:41.000Z</time>
      </trkpt>
      <trkpt lat="45.0749" lon="2.60126">
        <ele>1388.6</ele>
        <time>2021-09-12T05:35:49.000Z</time>
      </trkpt>
      <trkpt lat="45.07491" lon="2.60117">
        <ele>1390.8</ele>
        <time>2021-09-12T05:35:57.000Z</time>
      </trkpt>
      <trkpt lat="45.07493" lon="2.60108">
        <ele>1393</ele>
        <time>2021-09-12T05:36:04.000Z</time>
      </trkpt>
      <trkpt lat="45.07491" lon="2.60097">
        <ele>1395.3</ele>
        <time>2021-09-12T05:36:12.000Z</time>
      </trkpt>
      <trkpt lat="45.07487" lon="2.60089">
        <ele>1396.8</ele>
        <time>2021-09-12T05:36:39.000Z</time>
      </trkpt>
      <trkpt lat="45.07486" lon="2.6008">
        <ele>1398.6</ele>
        <time>2021-09-12T05:36:49.000Z</time>
      </trkpt>
      <trkpt lat="45.07488" lon="2.6007">
        <ele>1400.7</ele>
        <time>2021-09-12T05:36:56.000Z</time>
      </trkpt>
      <trkpt lat="45.0749" lon="2.6006">
        <ele>1402.6</ele>
        <time>2021-09-12T05:37:03.000Z</time>
      </trkpt>
      <trkpt lat="45.07494" lon="2.60052">
        <ele>1404.2</ele>
        <time>2021-09-12T05:37:09.000Z</time>
      </trkpt>
      <trkpt lat="45.07496" lon="2.60043">
        <ele>1405.8</ele>
        <time>2021-09-12T05:37:21.000Z</time>
      </trkpt>
      <trkpt lat="45.07499" lon="2.60034">
        <ele>1407.3</ele>
        <time>2021-09-12T05:41:30.000Z</time>
      </trkpt>
      <trkpt lat="45.07499" lon="2.60024">
        <ele>1409</ele>
        <time>2021-09-12T05:41:36.000Z</time>
      </trkpt>
      <trkpt lat="45.07498" lon="2.60015">
        <ele>1410.6</ele>
        <time>2021-09-12T05:41:42.000Z</time>
      </trkpt>
      <trkpt lat="45.07499" lon="2.60005">
        <ele>1412.2</ele>
        <time>2021-09-12T05:41:51.000Z</time>
      </trkpt>
      <trkpt lat="45.07501" lon="2.59996">
        <ele>1412.6</ele>
        <time>2021-09-12T05:42:32.000Z</time>
      </trkpt>
      <trkpt lat="45.075" lon="2.59987">
        <ele>1412.7</ele>
        <time>2021-09-12T05:42:37.000Z</time>
      </trkpt>
      <trkpt lat="45.07499" lon="2.59978">
        <ele>1412.6</ele>
        <time>2021-09-12T05:42:43.000Z</time>
      </trkpt>
      <trkpt lat="45.07498" lon="2.59968">
        <ele>1412.5</ele>
        <time>2021-09-12T05:42:49.000Z</time>
      </trkpt>
      <trkpt lat="45.07498" lon="2.59959">
        <ele>1412.3</ele>
        <time>2021-09-12T05:42:54.000Z</time>
      </trkpt>
      <trkpt lat="45.07497" lon="2.5995">
        <ele>1412.3</ele>
        <time>2021-09-12T05:43:03.000Z</time>
      </trkpt>
      <trkpt lat="45.07498" lon="2.5994">
        <ele>1411.9</ele>
        <time>2021-09-12T05:43:53.000Z</time>
      </trkpt>
      <trkpt lat="45.07497" lon="2.5993">
        <ele>1412</ele>
        <time>2021-09-12T05:43:58.000Z</time>
      </trkpt>
      <trkpt lat="45.07496" lon="2.5992">
        <ele>1412</ele>
        <time>2021-09-12T05:44:03.000Z</time>
      </trkpt>
      <trkpt lat="45.07495" lon="2.5991">
        <ele>1411.9</ele>
        <time>2021-09-12T05:44:08.000Z</time>
      </trkpt>
      <trkpt lat="45.07494" lon="2.59897">
        <ele>1411.5</ele>
        <time>2021-09-12T05:44:14.000Z</time>
      </trkpt>
      <trkpt lat="45.07493" lon="2.59883">
        <ele>1411.2</ele>
        <time>2021-09-12T05:44:20.000Z</time>
      </trkpt>
      <trkpt lat="45.07493" lon="2.59872">
        <ele>1410.7</ele>
        <time>2021-09-12T05:44:51.000Z</time>
      </trkpt>
      <trkpt lat="45.07491" lon="2.59862">
        <ele>1410.7</ele>
        <time>2021-09-12T05:44:59.000Z</time>
      </trkpt>
      <trkpt lat="45.07492" lon="2.59851">
        <ele>1410</ele>
        <time>2021-09-12T05:45:15.000Z</time>
      </trkpt>
      <trkpt lat="45.0749" lon="2.59841">
        <ele>1410.1</ele>
        <time>2021-09-12T05:45:20.000Z</time>
      </trkpt>
      <trkpt lat="45.07487" lon="2.5983">
        <ele>1410.2</ele>
        <time>2021-09-12T05:45:26.000Z</time>
      </trkpt>
      <trkpt lat="45.07485" lon="2.59818">
        <ele>1409.6</ele>
        <time>2021-09-12T05:45:32.000Z</time>
      </trkpt>
      <trkpt lat="45.07484" lon="2.59807">
        <ele>1408.7</ele>
        <time>2021-09-12T05:45:38.000Z</time>
      </trkpt>
      <trkpt lat="45.07482" lon="2.59795">
        <ele>1408</ele>
        <time>2021-09-12T05:45:44.000Z</time>
      </trkpt>
      <trkpt lat="45.07482" lon="2.59785">
        <ele>1407</ele>
        <time>2021-09-12T05:45:50.000Z</time>
      </trkpt>
      <trkpt lat="45.07479" lon="2.59777">
        <ele>1406.9</ele>
        <time>2021-09-12T05:45:55.000Z</time>
      </trkpt>
      <trkpt lat="45.07476" lon="2.59766">
        <ele>1406.5</ele>
        <time>2021-09-12T05:46:01.000Z</time>
      </trkpt>
      <trkpt lat="45.07474" lon="2.59757">
        <ele>1406</ele>
        <time>2021-09-12T05:46:08.000Z</time>
      </trkpt>
      <trkpt lat="45.07474" lon="2.59747">
        <ele>1405</ele>
        <time>2021-09-12T05:46:14.000Z</time>
      </trkpt>
      <trkpt lat="45.07474" lon="2.59736">
        <ele>1403.9</ele>
        <time>2021-09-12T05:46:19.000Z</time>
      </trkpt>
      <trkpt lat="45.07471" lon="2.59723">
        <ele>1403.4</ele>
        <time>2021-09-12T05:46:25.000Z</time>
      </trkpt>
      <trkpt lat="45.07469" lon="2.59712">
        <ele>1402.7</ele>
        <time>2021-09-12T05:46:31.000Z</time>
      </trkpt>
      <trkpt lat="45.07466" lon="2.59701">
        <ele>1402.3</ele>
        <time>2021-09-12T05:46:37.000Z</time>
      </trkpt>
      <trkpt lat="45.07464" lon="2.59691">
        <ele>1401.8</ele>
        <time>2021-09-12T05:46:43.000Z</time>
      </trkpt>
      <trkpt lat="45.07461" lon="2.59679">
        <ele>1401.2</ele>
        <time>2021-09-12T05:46:49.000Z</time>
      </trkpt>
      <trkpt lat="45.07456" lon="2.59669">
        <ele>1401.2</ele>
        <time>2021-09-12T05:46:55.000Z</time>
      </trkpt>
      <trkpt lat="45.07453" lon="2.59659">
        <ele>1400.7</ele>
        <time>2021-09-12T05:47:01.000Z</time>
      </trkpt>
      <trkpt lat="45.07451" lon="2.5965">
        <ele>1400.1</ele>
        <time>2021-09-12T05:47:07.000Z</time>
      </trkpt>
      <trkpt lat="45.0745" lon="2.59637">
        <ele>1398.8</ele>
        <time>2021-09-12T05:47:13.000Z</time>
      </trkpt>
      <trkpt lat="45.07449" lon="2.59625">
        <ele>1397.6</ele>
        <time>2021-09-12T05:47:19.000Z</time>
      </trkpt>
      <trkpt lat="45.07449" lon="2.59615">
        <ele>1396.4</ele>
        <time>2021-09-12T05:47:24.000Z</time>
      </trkpt>
      <trkpt lat="45.07447" lon="2.59605">
        <ele>1395.5</ele>
        <time>2021-09-12T05:47:31.000Z</time>
      </trkpt>
      <trkpt lat="45.07442" lon="2.59597">
        <ele>1395.3</ele>
        <time>2021-09-12T05:47:36.000Z</time>
      </trkpt>
      <trkpt lat="45.07437" lon="2.59588">
        <ele>1394.9</ele>
        <time>2021-09-12T05:47:42.000Z</time>
      </trkpt>
      <trkpt lat="45.07432" lon="2.59581">
        <ele>1394.4</ele>
        <time>2021-09-12T05:47:48.000Z</time>
      </trkpt>
      <trkpt lat="45.07425" lon="2.59569">
        <ele>1392.6</ele>
        <time>2021-09-12T05:47:54.000Z</time>
      </trkpt>
      <trkpt lat="45.0742" lon="2.5956">
        <ele>1391</ele>
        <time>2021-09-12T05:48:15.000Z</time>
      </trkpt>
      <trkpt lat="45.07414" lon="2.59553">
        <ele>1389.8</ele>
        <time>2021-09-12T05:48:21.000Z</time>
      </trkpt>
      <trkpt lat="45.07409" lon="2.59547">
        <ele>1388.4</ele>
        <time>2021-09-12T05:48:25.000Z</time>
      </trkpt>
      <trkpt lat="45.07402" lon="2.59539">
        <ele>1386.5</ele>
        <time>2021-09-12T05:48:30.000Z</time>
      </trkpt>
      <trkpt lat="45.07396" lon="2.59532">
        <ele>1384.9</ele>
        <time>2021-09-12T05:48:36.000Z</time>
      </trkpt>
      <trkpt lat="45.07391" lon="2.59525">
        <ele>1383.2</ele>
        <time>2021-09-12T05:48:42.000Z</time>
      </trkpt>
      <trkpt lat="45.07386" lon="2.5952">
        <ele>1382</ele>
        <time>2021-09-12T05:48:49.000Z</time>
      </trkpt>
      <trkpt lat="45.07379" lon="2.59516">
        <ele>1381</ele>
        <time>2021-09-12T05:49:28.000Z</time>
      </trkpt>
      <trkpt lat="45.07373" lon="2.59512">
        <ele>1380</ele>
        <time>2021-09-12T05:49:36.000Z</time>
      </trkpt>
      <trkpt lat="45.07366" lon="2.59509">
        <ele>1379.3</ele>
        <time>2021-09-12T05:49:43.000Z</time>
      </trkpt>
      <trkpt lat="45.0736" lon="2.59504">
        <ele>1378</ele>
        <time>2021-09-12T05:49:52.000Z</time>
      </trkpt>
      <trkpt lat="45.07355" lon="2.59499">
        <ele>1376.7</ele>
        <time>2021-09-12T05:49:57.000Z</time>
      </trkpt>
      <trkpt lat="45.07348" lon="2.59494">
        <ele>1375.3</ele>
        <time>2021-09-12T05:50:02.000Z</time>
      </trkpt>
      <trkpt lat="45.0734" lon="2.59493">
        <ele>1375</ele>
        <time>2021-09-12T05:50:07.000Z</time>
      </trkpt>
      <trkpt lat="45.07334" lon="2.5949">
        <ele>1374.2</ele>
        <time>2021-09-12T05:50:11.000Z</time>
      </trkpt>
      <trkpt lat="45.07324" lon="2.59487">
        <ele>1374.1</ele>
        <time>2021-09-12T05:50:17.000Z</time>
      </trkpt>
      <trkpt lat="45.07316" lon="2.59485">
        <ele>1374.2</ele>
        <time>2021-09-12T05:50:23.000Z</time>
      </trkpt>
      <trkpt lat="45.07309" lon="2.59482">
        <ele>1374</ele>
        <time>2021-09-12T05:50:29.000Z</time>
      </trkpt>
      <trkpt lat="45.07302" lon="2.59481">
        <ele>1374.3</ele>
        <time>2021-09-12T05:50:35.000Z</time>
      </trkpt>
      <trkpt lat="45.07295" lon="2.59484">
        <ele>1375.6</ele>
        <time>2021-09-12T05:50:59.000Z</time>
      </trkpt>
      <trkpt lat="45.07287" lon="2.59484">
        <ele>1376.2</ele>
        <time>2021-09-12T05:51:05.000Z</time>
      </trkpt>
      <trkpt lat="45.07278" lon="2.59485">
        <ele>1377.1</ele>
        <time>2021-09-12T05:51:11.000Z</time>
      </trkpt>
      <trkpt lat="45.07268" lon="2.59485">
        <ele>1377.9</ele>
        <time>2021-09-12T05:51:17.000Z</time>
      </trkpt>
      <trkpt lat="45.07259" lon="2.59485">
        <ele>1378.6</ele>
        <time>2021-09-12T05:51:23.000Z</time>
      </trkpt>
      <trkpt lat="45.07252" lon="2.59485">
        <ele>1379.1</ele>
        <time>2021-09-12T05:51:29.000Z</time>
      </trkpt>
      <trkpt lat="45.07242" lon="2.59485">
        <ele>1380.1</ele>
        <time>2021-09-12T05:51:35.000Z</time>
      </trkpt>
      <trkpt lat="45.07232" lon="2.59485">
        <ele>1381</ele>
        <time>2021-09-12T05:51:41.000Z</time>
      </trkpt>
      <trkpt lat="45.07223" lon="2.59483">
        <ele>1381.6</ele>
        <time>2021-09-12T05:51:47.000Z</time>
      </trkpt>
      <trkpt lat="45.07213" lon="2.59482">
        <ele>1382.4</ele>
        <time>2021-09-12T05:51:53.000Z</time>
      </trkpt>
      <trkpt lat="45.07205" lon="2.59481">
        <ele>1383.1</ele>
        <time>2021-09-12T05:51:59.000Z</time>
      </trkpt>
      <trkpt lat="45.07198" lon="2.59477">
        <ele>1383.3</ele>
        <time>2021-09-12T05:52:05.000Z</time>
      </trkpt>
      <trkpt lat="45.07192" lon="2.59471">
        <ele>1383.1</ele>
        <time>2021-09-12T05:52:12.000Z</time>
      </trkpt>
      <trkpt lat="45.07186" lon="2.59466">
        <ele>1383.1</ele>
        <time>2021-09-12T05:52:18.000Z</time>
      </trkpt>
      <trkpt lat="45.07178" lon="2.5946">
        <ele>1383.3</ele>
        <time>2021-09-12T05:52:23.000Z</time>
      </trkpt>
      <trkpt lat="45.0717" lon="2.59452">
        <ele>1383.4</ele>
        <time>2021-09-12T05:52:29.000Z</time>
      </trkpt>
      <trkpt lat="45.07161" lon="2.59446">
        <ele>1383.1</ele>
        <time>2021-09-12T05:52:35.000Z</time>
      </trkpt>
      <trkpt lat="45.07154" lon="2.59439">
        <ele>1382.4</ele>
        <time>2021-09-12T05:52:41.000Z</time>
      </trkpt>
      <trkpt lat="45.07147" lon="2.59433">
        <ele>1381.8</ele>
        <time>2021-09-12T05:53:03.000Z</time>
      </trkpt>
      <trkpt lat="45.07142" lon="2.59426">
        <ele>1381.1</ele>
        <time>2021-09-12T05:53:10.000Z</time>
      </trkpt>
      <trkpt lat="45.07136" lon="2.59434">
        <ele>1381.9</ele>
        <time>2021-09-12T05:53:54.000Z</time>
      </trkpt>
      <trkpt lat="45.07132" lon="2.59427">
        <ele>1381.3</ele>
        <time>2021-09-12T05:55:09.000Z</time>
      </trkpt>
      <trkpt lat="45.07126" lon="2.59422">
        <ele>1380.9</ele>
        <time>2021-09-12T05:55:19.000Z</time>
      </trkpt>
      <trkpt lat="45.0712" lon="2.59416">
        <ele>1380.5</ele>
        <time>2021-09-12T05:55:31.000Z</time>
      </trkpt>
      <trkpt lat="45.07114" lon="2.59412">
        <ele>1380.3</ele>
        <time>2021-09-12T05:55:36.000Z</time>
      </trkpt>
      <trkpt lat="45.07108" lon="2.59408">
        <ele>1380</ele>
        <time>2021-09-12T05:55:41.000Z</time>
      </trkpt>
      <trkpt lat="45.07103" lon="2.59402">
        <ele>1379.5</ele>
        <time>2021-09-12T05:55:48.000Z</time>
      </trkpt>
      <trkpt lat="45.07096" lon="2.59401">
        <ele>1379.5</ele>
        <time>2021-09-12T05:55:52.000Z</time>
      </trkpt>
      <trkpt lat="45.07088" lon="2.59397">
        <ele>1379.1</ele>
        <time>2021-09-12T05:56:09.000Z</time>
      </trkpt>
      <trkpt lat="45.0708" lon="2.59394">
        <ele>1378.3</ele>
        <time>2021-09-12T05:56:17.000Z</time>
      </trkpt>
      <trkpt lat="45.07073" lon="2.59392">
        <ele>1376.9</ele>
        <time>2021-09-12T05:56:23.000Z</time>
      </trkpt>
      <trkpt lat="45.07067" lon="2.59389">
        <ele>1375.7</ele>
        <time>2021-09-12T05:56:28.000Z</time>
      </trkpt>
      <trkpt lat="45.07061" lon="2.59385">
        <ele>1374.3</ele>
        <time>2021-09-12T05:56:33.000Z</time>
      </trkpt>
      <trkpt lat="45.07053" lon="2.59381">
        <ele>1372.6</ele>
        <time>2021-09-12T05:56:39.000Z</time>
      </trkpt>
      <trkpt lat="45.07045" lon="2.59375">
        <ele>1370.8</ele>
        <time>2021-09-12T05:56:45.000Z</time>
      </trkpt>
      <trkpt lat="45.07038" lon="2.59372">
        <ele>1369.4</ele>
        <time>2021-09-12T05:56:51.000Z</time>
      </trkpt>
      <trkpt lat="45.07032" lon="2.59375">
        <ele>1368.7</ele>
        <time>2021-09-12T05:56:57.000Z</time>
      </trkpt>
      <trkpt lat="45.07025" lon="2.59377">
        <ele>1367.7</ele>
        <time>2021-09-12T05:57:04.000Z</time>
      </trkpt>
      <trkpt lat="45.07017" lon="2.59379">
        <ele>1366.6</ele>
        <time>2021-09-12T05:57:09.000Z</time>
      </trkpt>
      <trkpt lat="45.0701" lon="2.5938">
        <ele>1365.5</ele>
        <time>2021-09-12T05:57:16.000Z</time>
      </trkpt>
      <trkpt lat="45.07004" lon="2.59378">
        <ele>1364.4</ele>
        <time>2021-09-12T05:57:24.000Z</time>
      </trkpt>
      <trkpt lat="45.06997" lon="2.59378">
        <ele>1363.3</ele>
        <time>2021-09-12T05:57:29.000Z</time>
      </trkpt>
      <trkpt lat="45.06989" lon="2.59378">
        <ele>1362.1</ele>
        <time>2021-09-12T05:57:34.000Z</time>
      </trkpt>
      <trkpt lat="45.06981" lon="2.59381">
        <ele>1361.1</ele>
        <time>2021-09-12T05:57:39.000Z</time>
      </trkpt>
      <trkpt lat="45.06973" lon="2.59387">
        <ele>1360.4</ele>
        <time>2021-09-12T05:57:45.000Z</time>
      </trkpt>
      <trkpt lat="45.06967" lon="2.59392">
        <ele>1359.9</ele>
        <time>2021-09-12T05:57:51.000Z</time>
      </trkpt>
      <trkpt lat="45.06961" lon="2.59395">
        <ele>1359.2</ele>
        <time>2021-09-12T05:57:57.000Z</time>
      </trkpt>
      <trkpt lat="45.06954" lon="2.59396">
        <ele>1358.2</ele>
        <time>2021-09-12T05:58:04.000Z</time>
      </trkpt>
      <trkpt lat="45.06947" lon="2.59399">
        <ele>1357.4</ele>
        <time>2021-09-12T05:58:13.000Z</time>
      </trkpt>
      <trkpt lat="45.0694" lon="2.59402">
        <ele>1356.5</ele>
        <time>2021-09-12T05:58:20.000Z</time>
      </trkpt>
      <trkpt lat="45.06933" lon="2.59401">
        <ele>1355.4</ele>
        <time>2021-09-12T05:59:16.000Z</time>
      </trkpt>
      <trkpt lat="45.06927" lon="2.59396">
        <ele>1354.1</ele>
        <time>2021-09-12T05:59:25.000Z</time>
      </trkpt>
      <trkpt lat="45.0692" lon="2.59395">
        <ele>1352.9</ele>
        <time>2021-09-12T05:59:33.000Z</time>
      </trkpt>
      <trkpt lat="45.06912" lon="2.59393">
        <ele>1351.2</ele>
        <time>2021-09-12T05:59:39.000Z</time>
      </trkpt>
      <trkpt lat="45.06904" lon="2.5939">
        <ele>1349.2</ele>
        <time>2021-09-12T05:59:45.000Z</time>
      </trkpt>
      <trkpt lat="45.06896" lon="2.59389">
        <ele>1347.3</ele>
        <time>2021-09-12T05:59:51.000Z</time>
      </trkpt>
      <trkpt lat="45.06889" lon="2.5939">
        <ele>1345.7</ele>
        <time>2021-09-12T05:59:58.000Z</time>
      </trkpt>
      <trkpt lat="45.06883" lon="2.59393">
        <ele>1344.4</ele>
        <time>2021-09-12T06:00:04.000Z</time>
      </trkpt>
      <trkpt lat="45.06876" lon="2.59396">
        <ele>1342.7</ele>
        <time>2021-09-12T06:00:12.000Z</time>
      </trkpt>
      <trkpt lat="45.06869" lon="2.59397">
        <ele>1341</ele>
        <time>2021-09-12T06:00:19.000Z</time>
      </trkpt>
      <trkpt lat="45.06862" lon="2.59397">
        <ele>1339.4</ele>
        <time>2021-09-12T06:00:26.000Z</time>
      </trkpt>
      <trkpt lat="45.06855" lon="2.59396">
        <ele>1337.7</ele>
        <time>2021-09-12T06:00:33.000Z</time>
      </trkpt>
      <trkpt lat="45.06846" lon="2.59396">
        <ele>1335.5</ele>
        <time>2021-09-12T06:00:39.000Z</time>
      </trkpt>
      <trkpt lat="45.06839" lon="2.59397">
        <ele>1333.8</ele>
        <time>2021-09-12T06:00:45.000Z</time>
      </trkpt>
      <trkpt lat="45.0683" lon="2.59399">
        <ele>1331.1</ele>
        <time>2021-09-12T06:00:51.000Z</time>
      </trkpt>
      <trkpt lat="45.06822" lon="2.59398">
        <ele>1328.4</ele>
        <time>2021-09-12T06:00:57.000Z</time>
      </trkpt>
      <trkpt lat="45.06815" lon="2.59395">
        <ele>1326.2</ele>
        <time>2021-09-12T06:01:08.000Z</time>
      </trkpt>
      <trkpt lat="45.06808" lon="2.59393">
        <ele>1324</ele>
        <time>2021-09-12T06:01:13.000Z</time>
      </trkpt>
      <trkpt lat="45.06801" lon="2.5939">
        <ele>1321.9</ele>
        <time>2021-09-12T06:01:19.000Z</time>
      </trkpt>
      <trkpt lat="45.06794" lon="2.59386">
        <ele>1320</ele>
        <time>2021-09-12T06:01:25.000Z</time>
      </trkpt>
      <trkpt lat="45.06788" lon="2.59382">
        <ele>1318.4</ele>
        <time>2021-09-12T06:01:30.000Z</time>
      </trkpt>
      <trkpt lat="45.06781" lon="2.59378">
        <ele>1316.6</ele>
        <time>2021-09-12T06:01:35.000Z</time>
      </trkpt>
      <trkpt lat="45.06775" lon="2.59375">
        <ele>1315.1</ele>
        <time>2021-09-12T06:01:40.000Z</time>
      </trkpt>
      <trkpt lat="45.06769" lon="2.5937">
        <ele>1313.9</ele>
        <time>2021-09-12T06:01:46.000Z</time>
      </trkpt>
      <trkpt lat="45.06763" lon="2.59364">
        <ele>1312.9</ele>
        <time>2021-09-12T06:01:53.000Z</time>
      </trkpt>
      <trkpt lat="45.06758" lon="2.59358">
        <ele>1312.3</ele>
        <time>2021-09-12T06:02:12.000Z</time>
      </trkpt>
      <trkpt lat="45.06755" lon="2.59348">
        <ele>1313</ele>
        <time>2021-09-12T06:02:17.000Z</time>
      </trkpt>
      <trkpt lat="45.0675" lon="2.59339">
        <ele>1313</ele>
        <time>2021-09-12T06:02:22.000Z</time>
      </trkpt>
      <trkpt lat="45.06746" lon="2.59331">
        <ele>1313</ele>
        <time>2021-09-12T06:02:27.000Z</time>
      </trkpt>
      <trkpt lat="45.06741" lon="2.59324">
        <ele>1312.2</ele>
        <time>2021-09-12T06:02:33.000Z</time>
      </trkpt>
      <trkpt lat="45.06734" lon="2.59318">
        <ele>1310.9</ele>
        <time>2021-09-12T06:02:39.000Z</time>
      </trkpt>
      <trkpt lat="45.06728" lon="2.59315">
        <ele>1309.6</ele>
        <time>2021-09-12T06:02:45.000Z</time>
      </trkpt>
      <trkpt lat="45.06721" lon="2.59313">
        <ele>1307.9</ele>
        <time>2021-09-12T06:02:54.000Z</time>
      </trkpt>
      <trkpt lat="45.06713" lon="2.59314">
        <ele>1305.4</ele>
        <time>2021-09-12T06:03:04.000Z</time>
      </trkpt>
      <trkpt lat="45.06712" lon="2.59324">
        <ele>1303.4</ele>
        <time>2021-09-12T06:03:49.000Z</time>
      </trkpt>
      <trkpt lat="45.06717" lon="2.59331">
        <ele>1303.7</ele>
        <time>2021-09-12T06:03:57.000Z</time>
      </trkpt>
      <trkpt lat="45.0672" lon="2.59341">
        <ele>1302.6</ele>
        <time>2021-09-12T06:04:03.000Z</time>
      </trkpt>
      <trkpt lat="45.06724" lon="2.59353">
        <ele>1301.5</ele>
        <time>2021-09-12T06:04:09.000Z</time>
      </trkpt>
      <trkpt lat="45.06726" lon="2.59363">
        <ele>1300.1</ele>
        <time>2021-09-12T06:04:15.000Z</time>
      </trkpt>
      <trkpt lat="45.06729" lon="2.59374">
        <ele>1299</ele>
        <time>2021-09-12T06:04:21.000Z</time>
      </trkpt>
      <trkpt lat="45.06731" lon="2.59384">
        <ele>1297.8</ele>
        <time>2021-09-12T06:04:27.000Z</time>
      </trkpt>
      <trkpt lat="45.06731" lon="2.59396">
        <ele>1295.4</ele>
        <time>2021-09-12T06:04:33.000Z</time>
      </trkpt>
      <trkpt lat="45.06732" lon="2.59407">
        <ele>1293.7</ele>
        <time>2021-09-12T06:04:39.000Z</time>
      </trkpt>
      <trkpt lat="45.06732" lon="2.59418">
        <ele>1291.7</ele>
        <time>2021-09-12T06:04:45.000Z</time>
      </trkpt>
      <trkpt lat="45.0673" lon="2.5943">
        <ele>1289.5</ele>
        <time>2021-09-12T06:04:51.000Z</time>
      </trkpt>
      <trkpt lat="45.0673" lon="2.59443">
        <ele>1288.1</ele>
        <time>2021-09-12T06:04:57.000Z</time>
      </trkpt>
      <trkpt lat="45.0673" lon="2.59454">
        <ele>1286.9</ele>
        <time>2021-09-12T06:05:03.000Z</time>
      </trkpt>
      <trkpt lat="45.06729" lon="2.59466">
        <ele>1285.1</ele>
        <time>2021-09-12T06:05:09.000Z</time>
      </trkpt>
      <trkpt lat="45.0673" lon="2.59477">
        <ele>1284.5</ele>
        <time>2021-09-12T06:05:15.000Z</time>
      </trkpt>
      <trkpt lat="45.06732" lon="2.59488">
        <ele>1284.4</ele>
        <time>2021-09-12T06:05:21.000Z</time>
      </trkpt>
      <trkpt lat="45.06737" lon="2.59496">
        <ele>1286.6</ele>
        <time>2021-09-12T06:05:42.000Z</time>
      </trkpt>
      <trkpt lat="45.06743" lon="2.59501">
        <ele>1289.6</ele>
        <time>2021-09-12T06:05:47.000Z</time>
      </trkpt>
      <trkpt lat="45.06749" lon="2.59505">
        <ele>1292.6</ele>
        <time>2021-09-12T06:05:51.000Z</time>
      </trkpt>
      <trkpt lat="45.06757" lon="2.59509">
        <ele>1294.3</ele>
        <time>2021-09-12T06:05:57.000Z</time>
      </trkpt>
      <trkpt lat="45.06763" lon="2.59513">
        <ele>1295.1</ele>
        <time>2021-09-12T06:06:03.000Z</time>
      </trkpt>
      <trkpt lat="45.0677" lon="2.59518">
        <ele>1295.9</ele>
        <time>2021-09-12T06:06:09.000Z</time>
      </trkpt>
      <trkpt lat="45.06777" lon="2.59523">
        <ele>1296.6</ele>
        <time>2021-09-12T06:06:15.000Z</time>
      </trkpt>
      <trkpt lat="45.06782" lon="2.5953">
        <ele>1296.4</ele>
        <time>2021-09-12T06:06:21.000Z</time>
      </trkpt>
      <trkpt lat="45.06789" lon="2.59534">
        <ele>1297.2</ele>
        <time>2021-09-12T06:06:27.000Z</time>
      </trkpt>
      <trkpt lat="45.06796" lon="2.59539">
        <ele>1297.8</ele>
        <time>2021-09-12T06:06:33.000Z</time>
      </trkpt>
      <trkpt lat="45.06805" lon="2.59543">
        <ele>1298.9</ele>
        <time>2021-09-12T06:06:39.000Z</time>
      </trkpt>
      <trkpt lat="45.0681" lon="2.59548">
        <ele>1298.9</ele>
        <time>2021-09-12T06:06:45.000Z</time>
      </trkpt>
      <trkpt lat="45.06817" lon="2.59552">
        <ele>1299.4</ele>
        <time>2021-09-12T06:06:52.000Z</time>
      </trkpt>
      <trkpt lat="45.06823" lon="2.59556">
        <ele>1299.7</ele>
        <time>2021-09-12T06:06:57.000Z</time>
      </trkpt>
      <trkpt lat="45.06829" lon="2.59561">
        <ele>1299.8</ele>
        <time>2021-09-12T06:07:04.000Z</time>
      </trkpt>
      <trkpt lat="45.06836" lon="2.59567">
        <ele>1299.8</ele>
        <time>2021-09-12T06:07:10.000Z</time>
      </trkpt>
      <trkpt lat="45.06841" lon="2.59574">
        <ele>1299.3</ele>
        <time>2021-09-12T06:07:16.000Z</time>
      </trkpt>
      <trkpt lat="45.06846" lon="2.59581">
        <ele>1298.8</ele>
        <time>2021-09-12T06:07:24.000Z</time>
      </trkpt>
      <trkpt lat="45.06853" lon="2.59583">
        <ele>1300</ele>
        <time>2021-09-12T06:07:29.000Z</time>
      </trkpt>
      <trkpt lat="45.06854" lon="2.59593">
        <ele>1297.5</ele>
        <time>2021-09-12T06:07:35.000Z</time>
      </trkpt>
      <trkpt lat="45.06856" lon="2.59602">
        <ele>1295.5</ele>
        <time>2021-09-12T06:07:41.000Z</time>
      </trkpt>
      <trkpt lat="45.06858" lon="2.59611">
        <ele>1293.5</ele>
        <time>2021-09-12T06:08:04.000Z</time>
      </trkpt>
      <trkpt lat="45.0686" lon="2.5962">
        <ele>1291.5</ele>
        <time>2021-09-12T06:08:17.000Z</time>
      </trkpt>
      <trkpt lat="45.06861" lon="2.5963">
        <ele>1288.9</ele>
        <time>2021-09-12T06:08:25.000Z</time>
      </trkpt>
      <trkpt lat="45.06866" lon="2.59637">
        <ele>1288.2</ele>
        <time>2021-09-12T06:08:35.000Z</time>
      </trkpt>
      <trkpt lat="45.06867" lon="2.59647">
        <ele>1285.6</ele>
        <time>2021-09-12T06:08:43.000Z</time>
      </trkpt>
      <trkpt lat="45.06871" lon="2.59655">
        <ele>1284.3</ele>
        <time>2021-09-12T06:08:50.000Z</time>
      </trkpt>
      <trkpt lat="45.06877" lon="2.59659">
        <ele>1284.6</ele>
        <time>2021-09-12T06:08:54.000Z</time>
      </trkpt>
      <trkpt lat="45.06883" lon="2.59663">
        <ele>1285</ele>
        <time>2021-09-12T06:08:58.000Z</time>
      </trkpt>
      <trkpt lat="45.06888" lon="2.5967">
        <ele>1284.6</ele>
        <time>2021-09-12T06:09:05.000Z</time>
      </trkpt>
      <trkpt lat="45.06895" lon="2.59675">
        <ele>1285.5</ele>
        <time>2021-09-12T06:09:10.000Z</time>
      </trkpt>
      <trkpt lat="45.069" lon="2.59681">
        <ele>1285.9</ele>
        <time>2021-09-12T06:09:15.000Z</time>
      </trkpt>
      <trkpt lat="45.06904" lon="2.59688">
        <ele>1285.9</ele>
        <time>2021-09-12T06:09:22.000Z</time>
      </trkpt>
      <trkpt lat="45.06917" lon="2.59691">
        <ele>1288.9</ele>
        <time>2021-09-12T06:13:42.000Z</time>
      </trkpt>
      <trkpt lat="45.0691" lon="2.59685">
        <ele>1287.9</ele>
        <time>2021-09-12T06:14:14.000Z</time>
      </trkpt>
      <trkpt lat="45.06911" lon="2.59676">
        <ele>1289.4</ele>
        <time>2021-09-12T06:14:43.000Z</time>
      </trkpt>
      <trkpt lat="45.0691" lon="2.59685">
        <ele>1287.9</ele>
        <time>2021-09-12T06:14:53.000Z</time>
      </trkpt>
      <trkpt lat="45.06902" lon="2.5968">
        <ele>1286.5</ele>
        <time>2021-09-12T06:15:12.000Z</time>
      </trkpt>
      <trkpt lat="45.06907" lon="2.59685">
        <ele>1287.1</ele>
        <time>2021-09-12T06:15:28.000Z</time>
      </trkpt>
      <trkpt lat="45.06903" lon="2.59677">
        <ele>1287.2</ele>
        <time>2021-09-12T06:16:32.000Z</time>
      </trkpt>
      <trkpt lat="45.06897" lon="2.59672">
        <ele>1286.5</ele>
        <time>2021-09-12T06:16:56.000Z</time>
      </trkpt>
      <trkpt lat="45.0689" lon="2.5967">
        <ele>1285.1</ele>
        <time>2021-09-12T06:17:02.000Z</time>
      </trkpt>
      <trkpt lat="45.06882" lon="2.5967">
        <ele>1283.1</ele>
        <time>2021-09-12T06:17:09.000Z</time>
      </trkpt>
      <trkpt lat="45.06881" lon="2.59659">
        <ele>1285.6</ele>
        <time>2021-09-12T06:17:25.000Z</time>
      </trkpt>
      <trkpt lat="45.06873" lon="2.5966">
        <ele>1283.4</ele>
        <time>2021-09-12T06:17:31.000Z</time>
      </trkpt>
      <trkpt lat="45.06866" lon="2.59663">
        <ele>1280.9</ele>
        <time>2021-09-12T06:17:35.000Z</time>
      </trkpt>
      <trkpt lat="45.06859" lon="2.59666">
        <ele>1278.3</ele>
        <time>2021-09-12T06:17:40.000Z</time>
      </trkpt>
      <trkpt lat="45.06852" lon="2.59667">
        <ele>1276.4</ele>
        <time>2021-09-12T06:17:45.000Z</time>
      </trkpt>
      <trkpt lat="45.06846" lon="2.59671">
        <ele>1274.2</ele>
        <time>2021-09-12T06:17:52.000Z</time>
      </trkpt>
      <trkpt lat="45.06839" lon="2.59672">
        <ele>1272.2</ele>
        <time>2021-09-12T06:18:02.000Z</time>
      </trkpt>
      <trkpt lat="45.0683" lon="2.59663">
        <ele>1272.6</ele>
        <time>2021-09-12T06:18:32.000Z</time>
      </trkpt>
      <trkpt lat="45.06826" lon="2.59653">
        <ele>1274.7</ele>
        <time>2021-09-12T06:18:38.000Z</time>
      </trkpt>
      <trkpt lat="45.06818" lon="2.59652">
        <ele>1273.9</ele>
        <time>2021-09-12T06:18:42.000Z</time>
      </trkpt>
      <trkpt lat="45.06813" lon="2.59646">
        <ele>1274.8</ele>
        <time>2021-09-12T06:18:52.000Z</time>
      </trkpt>
      <trkpt lat="45.06805" lon="2.59644">
        <ele>1274.1</ele>
        <time>2021-09-12T06:18:58.000Z</time>
      </trkpt>
      <trkpt lat="45.06797" lon="2.59645">
        <ele>1272.7</ele>
        <time>2021-09-12T06:19:03.000Z</time>
      </trkpt>
      <trkpt lat="45.0679" lon="2.59646">
        <ele>1271.5</ele>
        <time>2021-09-12T06:19:10.000Z</time>
      </trkpt>
      <trkpt lat="45.06783" lon="2.59645">
        <ele>1270.7</ele>
        <time>2021-09-12T06:19:15.000Z</time>
      </trkpt>
      <trkpt lat="45.06774" lon="2.59641">
        <ele>1270.4</ele>
        <time>2021-09-12T06:19:21.000Z</time>
      </trkpt>
      <trkpt lat="45.06768" lon="2.59637">
        <ele>1270.4</ele>
        <time>2021-09-12T06:19:28.000Z</time>
      </trkpt>
      <trkpt lat="45.06759" lon="2.59638">
        <ele>1268.9</ele>
        <time>2021-09-12T06:19:33.000Z</time>
      </trkpt>
      <trkpt lat="45.06751" lon="2.59641">
        <ele>1267</ele>
        <time>2021-09-12T06:19:39.000Z</time>
      </trkpt>
      <trkpt lat="45.06741" lon="2.59648">
        <ele>1262</ele>
        <time>2021-09-12T06:19:45.000Z</time>
      </trkpt>
      <trkpt lat="45.06733" lon="2.59654">
        <ele>1257.9</ele>
        <time>2021-09-12T06:19:51.000Z</time>
      </trkpt>
      <trkpt lat="45.06726" lon="2.59657">
        <ele>1254.9</ele>
        <time>2021-09-12T06:19:57.000Z</time>
      </trkpt>
      <trkpt lat="45.06719" lon="2.59654">
        <ele>1252.9</ele>
        <time>2021-09-12T06:20:04.000Z</time>
      </trkpt>
      <trkpt lat="45.06712" lon="2.59652">
        <ele>1250.7</ele>
        <time>2021-09-12T06:20:11.000Z</time>
      </trkpt>
      <trkpt lat="45.06705" lon="2.59654">
        <ele>1248</ele>
        <time>2021-09-12T06:20:24.000Z</time>
      </trkpt>
      <trkpt lat="45.06698" lon="2.59659">
        <ele>1245</ele>
        <time>2021-09-12T06:20:37.000Z</time>
      </trkpt>
      <trkpt lat="45.06691" lon="2.59656">
        <ele>1242.9</ele>
        <time>2021-09-12T06:20:47.000Z</time>
      </trkpt>
      <trkpt lat="45.06684" lon="2.59653">
        <ele>1240.7</ele>
        <time>2021-09-12T06:20:55.000Z</time>
      </trkpt>
      <trkpt lat="45.06677" lon="2.59656">
        <ele>1238</ele>
        <time>2021-09-12T06:21:00.000Z</time>
      </trkpt>
      <trkpt lat="45.06669" lon="2.5966">
        <ele>1235</ele>
        <time>2021-09-12T06:21:04.000Z</time>
      </trkpt>
      <trkpt lat="45.06662" lon="2.59661">
        <ele>1231.2</ele>
        <time>2021-09-12T06:21:09.000Z</time>
      </trkpt>
      <trkpt lat="45.06656" lon="2.59664">
        <ele>1227.3</ele>
        <time>2021-09-12T06:21:15.000Z</time>
      </trkpt>
      <trkpt lat="45.06649" lon="2.59665">
        <ele>1222.8</ele>
        <time>2021-09-12T06:21:23.000Z</time>
      </trkpt>
      <trkpt lat="45.06642" lon="2.59668">
        <ele>1218.2</ele>
        <time>2021-09-12T06:21:30.000Z</time>
      </trkpt>
      <trkpt lat="45.06635" lon="2.5967">
        <ele>1213.6</ele>
        <time>2021-09-12T06:21:34.000Z</time>
      </trkpt>
      <trkpt lat="45.06629" lon="2.5967">
        <ele>1209.8</ele>
        <time>2021-09-12T06:21:39.000Z</time>
      </trkpt>
      <trkpt lat="45.06617" lon="2.59676">
        <ele>1202</ele>
        <time>2021-09-12T06:21:51.000Z</time>
      </trkpt>
      <trkpt lat="45.06611" lon="2.59683">
        <ele>1198.1</ele>
        <time>2021-09-12T06:22:25.000Z</time>
      </trkpt>
      <trkpt lat="45.06613" lon="2.59701">
        <ele>1198.8</ele>
        <time>2021-09-12T06:23:43.000Z</time>
      </trkpt>
      <trkpt lat="45.06602" lon="2.59709">
        <ele>1192.6</ele>
        <time>2021-09-12T06:24:13.000Z</time>
      </trkpt>
      <trkpt lat="45.06591" lon="2.59707">
        <ele>1186.6</ele>
        <time>2021-09-12T06:24:58.000Z</time>
      </trkpt>
      <trkpt lat="45.06584" lon="2.59709">
        <ele>1182.9</ele>
        <time>2021-09-12T06:25:06.000Z</time>
      </trkpt>
      <trkpt lat="45.06574" lon="2.59716">
        <ele>1177.9</ele>
        <time>2021-09-12T06:25:39.000Z</time>
      </trkpt>
      <trkpt lat="45.06565" lon="2.59722">
        <ele>1173.2</ele>
        <time>2021-09-12T06:26:38.000Z</time>
      </trkpt>
      <trkpt lat="45.06566" lon="2.59738">
        <ele>1173.9</ele>
        <time>2021-09-12T06:27:39.000Z</time>
      </trkpt>
      <trkpt lat="45.0657" lon="2.59747">
        <ele>1176.3</ele>
        <time>2021-09-12T06:27:53.000Z</time>
      </trkpt>
      <trkpt lat="45.06575" lon="2.59761">
        <ele>1178.3</ele>
        <time>2021-09-12T06:28:24.000Z</time>
      </trkpt>
      <trkpt lat="45.06582" lon="2.59764">
        <ele>1182.1</ele>
        <time>2021-09-12T06:28:32.000Z</time>
      </trkpt>
      <trkpt lat="45.06589" lon="2.59767">
        <ele>1184.9</ele>
        <time>2021-09-12T06:28:37.000Z</time>
      </trkpt>
      <trkpt lat="45.06594" lon="2.59774">
        <ele>1186.2</ele>
        <time>2021-09-12T06:28:43.000Z</time>
      </trkpt>
      <trkpt lat="45.06599" lon="2.59782">
        <ele>1187.2</ele>
        <time>2021-09-12T06:28:52.000Z</time>
      </trkpt>
      <trkpt lat="45.06597" lon="2.59795">
        <ele>1185</ele>
        <time>2021-09-12T06:29:05.000Z</time>
      </trkpt>
      <trkpt lat="45.06591" lon="2.59799">
        <ele>1182.5</ele>
        <time>2021-09-12T06:29:27.000Z</time>
      </trkpt>
      <trkpt lat="45.0658" lon="2.59806">
        <ele>1177.4</ele>
        <time>2021-09-12T06:29:41.000Z</time>
      </trkpt>
      <trkpt lat="45.06575" lon="2.59812">
        <ele>1174.1</ele>
        <time>2021-09-12T06:29:48.000Z</time>
      </trkpt>
      <trkpt lat="45.06573" lon="2.59821">
        <ele>1172.3</ele>
        <time>2021-09-12T06:29:56.000Z</time>
      </trkpt>
      <trkpt lat="45.06568" lon="2.59835">
        <ele>1168.2</ele>
        <time>2021-09-12T06:30:21.000Z</time>
      </trkpt>
      <trkpt lat="45.06567" lon="2.59847">
        <ele>1165.5</ele>
        <time>2021-09-12T06:30:43.000Z</time>
      </trkpt>
      <trkpt lat="45.06567" lon="2.5986">
        <ele>1163.2</ele>
        <time>2021-09-12T06:30:53.000Z</time>
      </trkpt>
      <trkpt lat="45.06563" lon="2.59868">
        <ele>1159.8</ele>
        <time>2021-09-12T06:30:59.000Z</time>
      </trkpt>
      <trkpt lat="45.06559" lon="2.59876">
        <ele>1156.6</ele>
        <time>2021-09-12T06:31:04.000Z</time>
      </trkpt>
      <trkpt lat="45.06551" lon="2.59879">
        <ele>1152.5</ele>
        <time>2021-09-12T06:31:09.000Z</time>
      </trkpt>
      <trkpt lat="45.06544" lon="2.59886">
        <ele>1148.4</ele>
        <time>2021-09-12T06:31:15.000Z</time>
      </trkpt>
      <trkpt lat="45.06538" lon="2.59893">
        <ele>1144.9</ele>
        <time>2021-09-12T06:31:21.000Z</time>
      </trkpt>
      <trkpt lat="45.06531" lon="2.5991">
        <ele>1140.2</ele>
        <time>2021-09-12T06:31:27.000Z</time>
      </trkpt>
      <trkpt lat="45.06524" lon="2.59928">
        <ele>1134.6</ele>
        <time>2021-09-12T06:31:33.000Z</time>
      </trkpt>
      <trkpt lat="45.06519" lon="2.59938">
        <ele>1130.7</ele>
        <time>2021-09-12T06:32:29.000Z</time>
      </trkpt>
      <trkpt lat="45.06518" lon="2.59948">
        <ele>1128.3</ele>
        <time>2021-09-12T06:32:47.000Z</time>
      </trkpt>
      <trkpt lat="45.06518" lon="2.59959">
        <ele>1126</ele>
        <time>2021-09-12T06:32:56.000Z</time>
      </trkpt>
      <trkpt lat="45.06517" lon="2.59968">
        <ele>1123.8</ele>
        <time>2021-09-12T06:33:45.000Z</time>
      </trkpt>
      <trkpt lat="45.06523" lon="2.59975">
        <ele>1124.4</ele>
        <time>2021-09-12T06:33:52.000Z</time>
      </trkpt>
      <trkpt lat="45.06527" lon="2.59983">
        <ele>1124</ele>
        <time>2021-09-12T06:34:01.000Z</time>
      </trkpt>
      <trkpt lat="45.06533" lon="2.59988">
        <ele>1124.9</ele>
        <time>2021-09-12T06:34:07.000Z</time>
      </trkpt>
      <trkpt lat="45.06531" lon="2.59997">
        <ele>1122.3</ele>
        <time>2021-09-12T06:34:18.000Z</time>
      </trkpt>
      <trkpt lat="45.06534" lon="2.60006">
        <ele>1121.5</ele>
        <time>2021-09-12T06:34:24.000Z</time>
      </trkpt>
      <trkpt lat="45.06534" lon="2.60016">
        <ele>1119.6</ele>
        <time>2021-09-12T06:34:30.000Z</time>
      </trkpt>
      <trkpt lat="45.06535" lon="2.60027">
        <ele>1117.8</ele>
        <time>2021-09-12T06:34:36.000Z</time>
      </trkpt>
      <trkpt lat="45.06537" lon="2.60037">
        <ele>1116.7</ele>
        <time>2021-09-12T06:34:42.000Z</time>
      </trkpt>
      <trkpt lat="45.06535" lon="2.60046">
        <ele>1114.3</ele>
        <time>2021-09-12T06:34:49.000Z</time>
      </trkpt>
      <trkpt lat="45.06529" lon="2.60053">
        <ele>1110.4</ele>
        <time>2021-09-12T06:34:55.000Z</time>
      </trkpt>
      <trkpt lat="45.06523" lon="2.60058">
        <ele>1106.7</ele>
        <time>2021-09-12T06:35:04.000Z</time>
      </trkpt>
      <trkpt lat="45.06517" lon="2.60063">
        <ele>1103</ele>
        <time>2021-09-12T06:35:11.000Z</time>
      </trkpt>
      <trkpt lat="45.06514" lon="2.60073">
        <ele>1099.3</ele>
        <time>2021-09-12T06:35:17.000Z</time>
      </trkpt>
      <trkpt lat="45.0651" lon="2.60082">
        <ele>1095.2</ele>
        <time>2021-09-12T06:35:23.000Z</time>
      </trkpt>
      <trkpt lat="45.06505" lon="2.6009">
        <ele>1093.1</ele>
        <time>2021-09-12T06:35:29.000Z</time>
      </trkpt>
      <trkpt lat="45.065" lon="2.60096">
        <ele>1091.1</ele>
        <time>2021-09-12T06:35:34.000Z</time>
      </trkpt>
      <trkpt lat="45.06496" lon="2.60105">
        <ele>1090.3</ele>
        <time>2021-09-12T06:35:40.000Z</time>
      </trkpt>
      <trkpt lat="45.06494" lon="2.60115">
        <ele>1090.4</ele>
        <time>2021-09-12T06:35:47.000Z</time>
      </trkpt>
      <trkpt lat="45.0649" lon="2.60122">
        <ele>1089.5</ele>
        <time>2021-09-12T06:35:52.000Z</time>
      </trkpt>
      <trkpt lat="45.06486" lon="2.60131">
        <ele>1088.7</ele>
        <time>2021-09-12T06:35:58.000Z</time>
      </trkpt>
      <trkpt lat="45.06482" lon="2.6014">
        <ele>1087.8</ele>
        <time>2021-09-12T06:36:04.000Z</time>
      </trkpt>
      <trkpt lat="45.06477" lon="2.60148">
        <ele>1086.5</ele>
        <time>2021-09-12T06:36:09.000Z</time>
      </trkpt>
      <trkpt lat="45.06472" lon="2.60157">
        <ele>1085.2</ele>
        <time>2021-09-12T06:36:15.000Z</time>
      </trkpt>
      <trkpt lat="45.06468" lon="2.60166">
        <ele>1084.3</ele>
        <time>2021-09-12T06:36:21.000Z</time>
      </trkpt>
      <trkpt lat="45.06467" lon="2.60177">
        <ele>1085.4</ele>
        <time>2021-09-12T06:36:27.000Z</time>
      </trkpt>
      <trkpt lat="45.06465" lon="2.60188">
        <ele>1086.2</ele>
        <time>2021-09-12T06:36:33.000Z</time>
      </trkpt>
      <trkpt lat="45.06459" lon="2.60198">
        <ele>1084.9</ele>
        <time>2021-09-12T06:36:39.000Z</time>
      </trkpt>
      <trkpt lat="45.06451" lon="2.60202">
        <ele>1081.9</ele>
        <time>2021-09-12T06:36:45.000Z</time>
      </trkpt>
      <trkpt lat="45.06443" lon="2.60207">
        <ele>1078.9</ele>
        <time>2021-09-12T06:36:51.000Z</time>
      </trkpt>
      <trkpt lat="45.06435" lon="2.60213">
        <ele>1075.8</ele>
        <time>2021-09-12T06:36:57.000Z</time>
      </trkpt>
      <trkpt lat="45.0643" lon="2.6022">
        <ele>1074.1</ele>
        <time>2021-09-12T06:37:03.000Z</time>
      </trkpt>
      <trkpt lat="45.06424" lon="2.6023">
        <ele>1072.1</ele>
        <time>2021-09-12T06:37:09.000Z</time>
      </trkpt>
      <trkpt lat="45.06419" lon="2.60238">
        <ele>1070.3</ele>
        <time>2021-09-12T06:37:15.000Z</time>
      </trkpt>
      <trkpt lat="45.06417" lon="2.6025">
        <ele>1070.2</ele>
        <time>2021-09-12T06:37:21.000Z</time>
      </trkpt>
      <trkpt lat="45.06414" lon="2.60262">
        <ele>1069.9</ele>
        <time>2021-09-12T06:37:27.000Z</time>
      </trkpt>
      <trkpt lat="45.06411" lon="2.60273">
        <ele>1069.6</ele>
        <time>2021-09-12T06:37:33.000Z</time>
      </trkpt>
      <trkpt lat="45.06409" lon="2.60285">
        <ele>1069.8</ele>
        <time>2021-09-12T06:37:39.000Z</time>
      </trkpt>
      <trkpt lat="45.06408" lon="2.60295">
        <ele>1070.1</ele>
        <time>2021-09-12T06:37:45.000Z</time>
      </trkpt>
      <trkpt lat="45.06407" lon="2.60306">
        <ele>1070.5</ele>
        <time>2021-09-12T06:37:51.000Z</time>
      </trkpt>
      <trkpt lat="45.06407" lon="2.60318">
        <ele>1071.3</ele>
        <time>2021-09-12T06:37:57.000Z</time>
      </trkpt>
      <trkpt lat="45.06406" lon="2.6033">
        <ele>1071.8</ele>
        <time>2021-09-12T06:38:03.000Z</time>
      </trkpt>
      <trkpt lat="45.06405" lon="2.6034">
        <ele>1072.2</ele>
        <time>2021-09-12T06:38:09.000Z</time>
      </trkpt>
      <trkpt lat="45.064" lon="2.6035">
        <ele>1071.1</ele>
        <time>2021-09-12T06:38:15.000Z</time>
      </trkpt>
      <trkpt lat="45.06394" lon="2.60361">
        <ele>1069.7</ele>
        <time>2021-09-12T06:38:21.000Z</time>
      </trkpt>
      <trkpt lat="45.06389" lon="2.60369">
        <ele>1068.6</ele>
        <time>2021-09-12T06:38:27.000Z</time>
      </trkpt>
      <trkpt lat="45.06385" lon="2.60378">
        <ele>1067.8</ele>
        <time>2021-09-12T06:38:33.000Z</time>
      </trkpt>
      <trkpt lat="45.06381" lon="2.60388">
        <ele>1067.2</ele>
        <time>2021-09-12T06:38:39.000Z</time>
      </trkpt>
      <trkpt lat="45.06377" lon="2.60395">
        <ele>1066.4</ele>
        <time>2021-09-12T06:38:46.000Z</time>
      </trkpt>
      <trkpt lat="45.0637" lon="2.60397">
        <ele>1064.1</ele>
        <time>2021-09-12T06:39:57.000Z</time>
      </trkpt>
      <trkpt lat="45.06364" lon="2.60396">
        <ele>1061.9</ele>
        <time>2021-09-12T06:40:05.000Z</time>
      </trkpt>
      <trkpt lat="45.06357" lon="2.60396">
        <ele>1059.4</ele>
        <time>2021-09-12T06:40:10.000Z</time>
      </trkpt>
      <trkpt lat="45.0635" lon="2.60398">
        <ele>1057.1</ele>
        <time>2021-09-12T06:40:15.000Z</time>
      </trkpt>
      <trkpt lat="45.06344" lon="2.60403">
        <ele>1055.4</ele>
        <time>2021-09-12T06:40:21.000Z</time>
      </trkpt>
      <trkpt lat="45.06338" lon="2.60409">
        <ele>1053.9</ele>
        <time>2021-09-12T06:40:28.000Z</time>
      </trkpt>
      <trkpt lat="45.06331" lon="2.60415">
        <ele>1051.7</ele>
        <time>2021-09-12T06:40:34.000Z</time>
      </trkpt>
      <trkpt lat="45.06326" lon="2.60421">
        <ele>1049.9</ele>
        <time>2021-09-12T06:40:40.000Z</time>
      </trkpt>
      <trkpt lat="45.06321" lon="2.60429">
        <ele>1048.2</ele>
        <time>2021-09-12T06:40:47.000Z</time>
      </trkpt>
      <trkpt lat="45.06316" lon="2.60436">
        <ele>1046.4</ele>
        <time>2021-09-12T06:40:55.000Z</time>
      </trkpt>
      <trkpt lat="45.06311" lon="2.60442">
        <ele>1044.6</ele>
        <time>2021-09-12T06:41:01.000Z</time>
      </trkpt>
      <trkpt lat="45.06305" lon="2.60448">
        <ele>1042.3</ele>
        <time>2021-09-12T06:41:06.000Z</time>
      </trkpt>
      <trkpt lat="45.06299" lon="2.60453">
        <ele>1039.9</ele>
        <time>2021-09-12T06:41:13.000Z</time>
      </trkpt>
      <trkpt lat="45.06293" lon="2.60458">
        <ele>1037.6</ele>
        <time>2021-09-12T06:41:19.000Z</time>
      </trkpt>
      <trkpt lat="45.06287" lon="2.60463">
        <ele>1035.3</ele>
        <time>2021-09-12T06:41:24.000Z</time>
      </trkpt>
      <trkpt lat="45.06281" lon="2.60468">
        <ele>1033</ele>
        <time>2021-09-12T06:41:30.000Z</time>
      </trkpt>
      <trkpt lat="45.06275" lon="2.60473">
        <ele>1030.7</ele>
        <time>2021-09-12T06:41:37.000Z</time>
      </trkpt>
      <trkpt lat="45.0627" lon="2.60479">
        <ele>1029</ele>
        <time>2021-09-12T06:41:42.000Z</time>
      </trkpt>
      <trkpt lat="45.06265" lon="2.60486">
        <ele>1027.4</ele>
        <time>2021-09-12T06:41:47.000Z</time>
      </trkpt>
      <trkpt lat="45.06261" lon="2.60494">
        <ele>1026.4</ele>
        <time>2021-09-12T06:41:52.000Z</time>
      </trkpt>
      <trkpt lat="45.06257" lon="2.60502">
        <ele>1025.3</ele>
        <time>2021-09-12T06:41:58.000Z</time>
      </trkpt>
      <trkpt lat="45.06255" lon="2.60513">
        <ele>1025.4</ele>
        <time>2021-09-12T06:42:05.000Z</time>
      </trkpt>
      <trkpt lat="45.06251" lon="2.60521">
        <ele>1024.4</ele>
        <time>2021-09-12T06:42:11.000Z</time>
      </trkpt>
      <trkpt lat="45.06246" lon="2.60529">
        <ele>1022.9</ele>
        <time>2021-09-12T06:42:18.000Z</time>
      </trkpt>
      <trkpt lat="45.06241" lon="2.60535">
        <ele>1021.3</ele>
        <time>2021-09-12T06:42:23.000Z</time>
      </trkpt>
      <trkpt lat="45.06237" lon="2.60544">
        <ele>1020.4</ele>
        <time>2021-09-12T06:42:29.000Z</time>
      </trkpt>
      <trkpt lat="45.06232" lon="2.60551">
        <ele>1018.9</ele>
        <time>2021-09-12T06:42:33.000Z</time>
      </trkpt>
      <trkpt lat="45.06228" lon="2.60558">
        <ele>1017.9</ele>
        <time>2021-09-12T06:42:38.000Z</time>
      </trkpt>
      <trkpt lat="45.06223" lon="2.60567">
        <ele>1016.8</ele>
        <time>2021-09-12T06:42:43.000Z</time>
      </trkpt>
      <trkpt lat="45.06218" lon="2.60577">
        <ele>1015.8</ele>
        <time>2021-09-12T06:42:49.000Z</time>
      </trkpt>
      <trkpt lat="45.06216" lon="2.60586">
        <ele>1015.9</ele>
        <time>2021-09-12T06:43:13.000Z</time>
      </trkpt>
      <trkpt lat="45.06211" lon="2.60592">
        <ele>1014.3</ele>
        <time>2021-09-12T06:43:19.000Z</time>
      </trkpt>
      <trkpt lat="45.06205" lon="2.60597">
        <ele>1012.3</ele>
        <time>2021-09-12T06:43:26.000Z</time>
      </trkpt>
      <trkpt lat="45.06198" lon="2.60603">
        <ele>1010.2</ele>
        <time>2021-09-12T06:43:33.000Z</time>
      </trkpt>
      <trkpt lat="45.06193" lon="2.60607">
        <ele>1008.8</ele>
        <time>2021-09-12T06:43:39.000Z</time>
      </trkpt>
      <trkpt lat="45.06188" lon="2.60614">
        <ele>1007.8</ele>
        <time>2021-09-12T06:43:46.000Z</time>
      </trkpt>
      <trkpt lat="45.06181" lon="2.60621">
        <ele>1006.3</ele>
        <time>2021-09-12T06:43:53.000Z</time>
      </trkpt>
      <trkpt lat="45.06176" lon="2.60626">
        <ele>1005.3</ele>
        <time>2021-09-12T06:44:00.000Z</time>
      </trkpt>
      <trkpt lat="45.06169" lon="2.60633">
        <ele>1004.1</ele>
        <time>2021-09-12T06:44:18.000Z</time>
      </trkpt>
      <trkpt lat="45.06163" lon="2.60637">
        <ele>1002.5</ele>
        <time>2021-09-12T06:44:23.000Z</time>
      </trkpt>
      <trkpt lat="45.06158" lon="2.60642">
        <ele>1001.2</ele>
        <time>2021-09-12T06:44:28.000Z</time>
      </trkpt>
      <trkpt lat="45.06155" lon="2.60652">
        <ele>1001.6</ele>
        <time>2021-09-12T06:44:34.000Z</time>
      </trkpt>
      <trkpt lat="45.06154" lon="2.60661">
        <ele>1002.6</ele>
        <time>2021-09-12T06:44:42.000Z</time>
      </trkpt>
      <trkpt lat="45.06161" lon="2.60662">
        <ele>1005.8</ele>
        <time>2021-09-12T06:45:04.000Z</time>
      </trkpt>
      <trkpt lat="45.06168" lon="2.60663">
        <ele>1008.7</ele>
        <time>2021-09-12T06:45:10.000Z</time>
      </trkpt>
      <trkpt lat="45.06174" lon="2.60663">
        <ele>1010.3</ele>
        <time>2021-09-12T06:45:16.000Z</time>
      </trkpt>
      <trkpt lat="45.06181" lon="2.60667">
        <ele>1012.6</ele>
        <time>2021-09-12T06:45:23.000Z</time>
      </trkpt>
      <trkpt lat="45.06188" lon="2.60671">
        <ele>1014.5</ele>
        <time>2021-09-12T06:45:30.000Z</time>
      </trkpt>
      <trkpt lat="45.06195" lon="2.60672">
        <ele>1016.2</ele>
        <time>2021-09-12T06:45:36.000Z</time>
      </trkpt>
      <trkpt lat="45.06201" lon="2.60672">
        <ele>1017.6</ele>
        <time>2021-09-12T06:45:41.000Z</time>
      </trkpt>
      <trkpt lat="45.06208" lon="2.60672">
        <ele>1019.2</ele>
        <time>2021-09-12T06:45:45.000Z</time>
      </trkpt>
      <trkpt lat="45.06215" lon="2.60672">
        <ele>1020.8</ele>
        <time>2021-09-12T06:45:50.000Z</time>
      </trkpt>
      <trkpt lat="45.06222" lon="2.6067">
        <ele>1022.7</ele>
        <time>2021-09-12T06:45:55.000Z</time>
      </trkpt>
      <trkpt lat="45.0623" lon="2.60667">
        <ele>1024.9</ele>
        <time>2021-09-12T06:46:01.000Z</time>
      </trkpt>
      <trkpt lat="45.06241" lon="2.60664">
        <ele>1027.7</ele>
        <time>2021-09-12T06:46:07.000Z</time>
      </trkpt>
      <trkpt lat="45.06251" lon="2.6066">
        <ele>1030</ele>
        <time>2021-09-12T06:46:13.000Z</time>
      </trkpt>
      <trkpt lat="45.06258" lon="2.60657">
        <ele>1030.1</ele>
        <time>2021-09-12T06:46:19.000Z</time>
      </trkpt>
      <trkpt lat="45.06265" lon="2.60653">
        <ele>1030.5</ele>
        <time>2021-09-12T06:46:27.000Z</time>
      </trkpt>
      <trkpt lat="45.06272" lon="2.6065">
        <ele>1030.9</ele>
        <time>2021-09-12T06:46:35.000Z</time>
      </trkpt>
      <trkpt lat="45.06279" lon="2.60647">
        <ele>1031.5</ele>
        <time>2021-09-12T06:46:42.000Z</time>
      </trkpt>
      <trkpt lat="45.06286" lon="2.60644">
        <ele>1032.2</ele>
        <time>2021-09-12T06:46:46.000Z</time>
      </trkpt>
      <trkpt lat="45.06292" lon="2.6064">
        <ele>1033</ele>
        <time>2021-09-12T06:46:51.000Z</time>
      </trkpt>
      <trkpt lat="45.06298" lon="2.60636">
        <ele>1034.1</ele>
        <time>2021-09-12T06:46:56.000Z</time>
      </trkpt>
      <trkpt lat="45.06305" lon="2.60633">
        <ele>1035.2</ele>
        <time>2021-09-12T06:47:02.000Z</time>
      </trkpt>
      <trkpt lat="45.06312" lon="2.60632">
        <ele>1036.1</ele>
        <time>2021-09-12T06:47:08.000Z</time>
      </trkpt>
      <trkpt lat="45.06319" lon="2.60631">
        <ele>1037</ele>
        <time>2021-09-12T06:47:13.000Z</time>
      </trkpt>
      <trkpt lat="45.06327" lon="2.60632">
        <ele>1037.5</ele>
        <time>2021-09-12T06:47:19.000Z</time>
      </trkpt>
      <trkpt lat="45.06334" lon="2.60634">
        <ele>1037.6</ele>
        <time>2021-09-12T06:47:25.000Z</time>
      </trkpt>
      <trkpt lat="45.06343" lon="2.6064">
        <ele>1035.7</ele>
        <time>2021-09-12T06:47:31.000Z</time>
      </trkpt>
      <trkpt lat="45.06352" lon="2.60644">
        <ele>1034.4</ele>
        <time>2021-09-12T06:47:37.000Z</time>
      </trkpt>
      <trkpt lat="45.06359" lon="2.60645">
        <ele>1033.9</ele>
        <time>2021-09-12T06:47:43.000Z</time>
      </trkpt>
      <trkpt lat="45.06366" lon="2.60648">
        <ele>1032.8</ele>
        <time>2021-09-12T06:47:52.000Z</time>
      </trkpt>
      <trkpt lat="45.06368" lon="2.60658">
        <ele>1030.1</ele>
        <time>2021-09-12T06:48:25.000Z</time>
      </trkpt>
      <trkpt lat="45.06373" lon="2.60664">
        <ele>1028.3</ele>
        <time>2021-09-12T06:48:32.000Z</time>
      </trkpt>
      <trkpt lat="45.06378" lon="2.60671">
        <ele>1026.3</ele>
        <time>2021-09-12T06:48:45.000Z</time>
      </trkpt>
      <trkpt lat="45.06384" lon="2.60671">
        <ele>1026.1</ele>
        <time>2021-09-12T06:48:52.000Z</time>
      </trkpt>
      <trkpt lat="45.06391" lon="2.60672">
        <ele>1025.7</ele>
        <time>2021-09-12T06:49:04.000Z</time>
      </trkpt>
      <trkpt lat="45.06396" lon="2.60677">
        <ele>1024.4</ele>
        <time>2021-09-12T06:49:15.000Z</time>
      </trkpt>
      <trkpt lat="45.06402" lon="2.60686">
        <ele>1022.3</ele>
        <time>2021-09-12T06:49:21.000Z</time>
      </trkpt>
      <trkpt lat="45.06408" lon="2.60693">
        <ele>1020.7</ele>
        <time>2021-09-12T06:49:27.000Z</time>
      </trkpt>
      <trkpt lat="45.06416" lon="2.60698">
        <ele>1019.6</ele>
        <time>2021-09-12T06:49:33.000Z</time>
      </trkpt>
      <trkpt lat="45.06423" lon="2.60705">
        <ele>1018.7</ele>
        <time>2021-09-12T06:49:39.000Z</time>
      </trkpt>
      <trkpt lat="45.06429" lon="2.6071">
        <ele>1018.2</ele>
        <time>2021-09-12T06:49:47.000Z</time>
      </trkpt>
      <trkpt lat="45.06436" lon="2.60713">
        <ele>1018.1</ele>
        <time>2021-09-12T06:49:54.000Z</time>
      </trkpt>
      <trkpt lat="45.06442" lon="2.60714">
        <ele>1018.3</ele>
        <time>2021-09-12T06:50:03.000Z</time>
      </trkpt>
      <trkpt lat="45.06448" lon="2.6072">
        <ele>1017.3</ele>
        <time>2021-09-12T06:50:35.000Z</time>
      </trkpt>
      <trkpt lat="45.06455" lon="2.60716">
        <ele>1018.8</ele>
        <time>2021-09-12T06:51:20.000Z</time>
      </trkpt>
      <trkpt lat="45.06461" lon="2.60719">
        <ele>1018.5</ele>
        <time>2021-09-12T06:51:31.000Z</time>
      </trkpt>
      <trkpt lat="45.06469" lon="2.60719">
        <ele>1019.1</ele>
        <time>2021-09-12T06:51:37.000Z</time>
      </trkpt>
      <trkpt lat="45.06478" lon="2.60721">
        <ele>1019.2</ele>
        <time>2021-09-12T06:52:02.000Z</time>
      </trkpt>
      <trkpt lat="45.06484" lon="2.60716">
        <ele>1021</ele>
        <time>2021-09-12T06:52:18.000Z</time>
      </trkpt>
      <trkpt lat="45.0649" lon="2.60712">
        <ele>1022.6</ele>
        <time>2021-09-12T06:52:27.000Z</time>
      </trkpt>
      <trkpt lat="45.06495" lon="2.60718">
        <ele>1021.2</ele>
        <time>2021-09-12T06:52:33.000Z</time>
      </trkpt>
      <trkpt lat="45.065" lon="2.60725">
        <ele>1019.5</ele>
        <time>2021-09-12T06:52:39.000Z</time>
      </trkpt>
      <trkpt lat="45.06513" lon="2.60727">
        <ele>1020.1</ele>
        <time>2021-09-12T06:53:04.000Z</time>
      </trkpt>
      <trkpt lat="45.06524" lon="2.60735">
        <ele>1018.8</ele>
        <time>2021-09-12T06:53:22.000Z</time>
      </trkpt>
      <trkpt lat="45.06538" lon="2.60732">
        <ele>1021</ele>
        <time>2021-09-12T06:53:28.000Z</time>
      </trkpt>
      <trkpt lat="45.06543" lon="2.6074">
        <ele>1019.1</ele>
        <time>2021-09-12T06:54:00.000Z</time>
      </trkpt>
      <trkpt lat="45.06549" lon="2.60744">
        <ele>1018.5</ele>
        <time>2021-09-12T06:54:04.000Z</time>
      </trkpt>
      <trkpt lat="45.06563" lon="2.60744">
        <ele>1019.8</ele>
        <time>2021-09-12T06:54:19.000Z</time>
      </trkpt>
      <trkpt lat="45.06569" lon="2.60747">
        <ele>1019.5</ele>
        <time>2021-09-12T06:54:41.000Z</time>
      </trkpt>
      <trkpt lat="45.06576" lon="2.60744">
        <ele>1021.1</ele>
        <time>2021-09-12T06:54:49.000Z</time>
      </trkpt>
      <trkpt lat="45.06582" lon="2.60741">
        <ele>1022.6</ele>
        <time>2021-09-12T06:54:56.000Z</time>
      </trkpt>
      <trkpt lat="45.06591" lon="2.6074">
        <ele>1024.3</ele>
        <time>2021-09-12T06:55:04.000Z</time>
      </trkpt>
      <trkpt lat="45.066" lon="2.6074">
        <ele>1025.8</ele>
        <time>2021-09-12T06:55:12.000Z</time>
      </trkpt>
      <trkpt lat="45.06607" lon="2.60739">
        <ele>1027.2</ele>
        <time>2021-09-12T06:55:20.000Z</time>
      </trkpt>
      <trkpt lat="45.06619" lon="2.60736">
        <ele>1030.1</ele>
        <time>2021-09-12T06:55:32.000Z</time>
      </trkpt>
      <trkpt lat="45.06625" lon="2.60739">
        <ele>1030.2</ele>
        <time>2021-09-12T06:55:49.000Z</time>
      </trkpt>
      <trkpt lat="45.06633" lon="2.60733">
        <ele>1033.3</ele>
        <time>2021-09-12T06:56:03.000Z</time>
      </trkpt>
      <trkpt lat="45.06641" lon="2.60729">
        <ele>1035.8</ele>
        <time>2021-09-12T06:56:14.000Z</time>
      </trkpt>
      <trkpt lat="45.06648" lon="2.60722">
        <ele>1039</ele>
        <time>2021-09-12T06:56:28.000Z</time>
      </trkpt>
      <trkpt lat="45.06658" lon="2.60713">
        <ele>1043.2</ele>
        <time>2021-09-12T06:56:46.000Z</time>
      </trkpt>
      <trkpt lat="45.06668" lon="2.60716">
        <ele>1044.2</ele>
        <time>2021-09-12T06:57:36.000Z</time>
      </trkpt>
      <trkpt lat="45.06677" lon="2.60715">
        <ele>1047.1</ele>
        <time>2021-09-12T06:57:51.000Z</time>
      </trkpt>
      <trkpt lat="45.06683" lon="2.60716">
        <ele>1048.5</ele>
        <time>2021-09-12T06:58:08.000Z</time>
      </trkpt>
      <trkpt lat="45.06691" lon="2.60713">
        <ele>1051.7</ele>
        <time>2021-09-12T06:58:31.000Z</time>
      </trkpt>
      <trkpt lat="45.06697" lon="2.6071">
        <ele>1054.4</ele>
        <time>2021-09-12T06:58:40.000Z</time>
      </trkpt>
      <trkpt lat="45.06702" lon="2.60703">
        <ele>1058.1</ele>
        <time>2021-09-12T06:58:56.000Z</time>
      </trkpt>
      <trkpt lat="45.06708" lon="2.607">
        <ele>1060.8</ele>
        <time>2021-09-12T06:59:19.000Z</time>
      </trkpt>
      <trkpt lat="45.06714" lon="2.60697">
        <ele>1063.6</ele>
        <time>2021-09-12T06:59:27.000Z</time>
      </trkpt>
      <trkpt lat="45.06725" lon="2.60695">
        <ele>1067.5</ele>
        <time>2021-09-12T06:59:39.000Z</time>
      </trkpt>
      <trkpt lat="45.06734" lon="2.60694">
        <ele>1070.6</ele>
        <time>2021-09-12T06:59:51.000Z</time>
      </trkpt>
      <trkpt lat="45.06745" lon="2.60687">
        <ele>1076.4</ele>
        <time>2021-09-12T06:59:57.000Z</time>
      </trkpt>
      <trkpt lat="45.06752" lon="2.60687">
        <ele>1078.4</ele>
        <time>2021-09-12T07:00:04.000Z</time>
      </trkpt>
      <trkpt lat="45.06759" lon="2.60692">
        <ele>1078.3</ele>
        <time>2021-09-12T07:00:11.000Z</time>
      </trkpt>
      <trkpt lat="45.06766" lon="2.60695">
        <ele>1078.9</ele>
        <time>2021-09-12T07:00:15.000Z</time>
      </trkpt>
      <trkpt lat="45.06785" lon="2.60698">
        <ele>1082.2</ele>
        <time>2021-09-12T07:00:21.000Z</time>
      </trkpt>
      <trkpt lat="45.06793" lon="2.60696">
        <ele>1084.8</ele>
        <time>2021-09-12T07:00:27.000Z</time>
      </trkpt>
      <trkpt lat="45.06826" lon="2.60704">
        <ele>1089.7</ele>
        <time>2021-09-12T07:00:33.000Z</time>
      </trkpt>
      <trkpt lat="45.06842" lon="2.60709">
        <ele>1090.5</ele>
        <time>2021-09-12T07:00:39.000Z</time>
      </trkpt>
      <trkpt lat="45.06859" lon="2.60708">
        <ele>1092.1</ele>
        <time>2021-09-12T07:00:45.000Z</time>
      </trkpt>
      <trkpt lat="45.06868" lon="2.60704">
        <ele>1094.1</ele>
        <time>2021-09-12T07:00:51.000Z</time>
      </trkpt>
      <trkpt lat="45.06873" lon="2.60711">
        <ele>1092.2</ele>
        <time>2021-09-12T07:01:08.000Z</time>
      </trkpt>
      <trkpt lat="45.06872" lon="2.6072">
        <ele>1089.2</ele>
        <time>2021-09-12T07:01:21.000Z</time>
      </trkpt>
      <trkpt lat="45.06878" lon="2.60727">
        <ele>1087.3</ele>
        <time>2021-09-12T07:01:39.000Z</time>
      </trkpt>
      <trkpt lat="45.06879" lon="2.60736">
        <ele>1084.4</ele>
        <time>2021-09-12T07:01:51.000Z</time>
      </trkpt>
      <trkpt lat="45.0688" lon="2.60746">
        <ele>1081.2</ele>
        <time>2021-09-12T07:02:05.000Z</time>
      </trkpt>
      <trkpt lat="45.06885" lon="2.60754">
        <ele>1078.9</ele>
        <time>2021-09-12T07:02:16.000Z</time>
      </trkpt>
      <trkpt lat="45.06886" lon="2.60764">
        <ele>1075.3</ele>
        <time>2021-09-12T07:02:26.000Z</time>
      </trkpt>
      <trkpt lat="45.06891" lon="2.60769">
        <ele>1074</ele>
        <time>2021-09-12T07:02:37.000Z</time>
      </trkpt>
      <trkpt lat="45.06897" lon="2.60775">
        <ele>1072.4</ele>
        <time>2021-09-12T07:02:44.000Z</time>
      </trkpt>
      <trkpt lat="45.06903" lon="2.6078">
        <ele>1071.2</ele>
        <time>2021-09-12T07:02:52.000Z</time>
      </trkpt>
      <trkpt lat="45.0691" lon="2.60782">
        <ele>1071.2</ele>
        <time>2021-09-12T07:03:02.000Z</time>
      </trkpt>
      <trkpt lat="45.06919" lon="2.60783">
        <ele>1072.3</ele>
        <time>2021-09-12T07:03:20.000Z</time>
      </trkpt>
      <trkpt lat="45.06928" lon="2.60781">
        <ele>1075.8</ele>
        <time>2021-09-12T07:03:48.000Z</time>
      </trkpt>
      <trkpt lat="45.06942" lon="2.60779">
        <ele>1080.8</ele>
        <time>2021-09-12T07:04:07.000Z</time>
      </trkpt>
      <trkpt lat="45.06952" lon="2.60785">
        <ele>1082.1</ele>
        <time>2021-09-12T07:04:43.000Z</time>
      </trkpt>
      <trkpt lat="45.06961" lon="2.6078">
        <ele>1086.5</ele>
        <time>2021-09-12T07:08:13.000Z</time>
      </trkpt>
      <trkpt lat="45.06971" lon="2.60787">
        <ele>1087.5</ele>
        <time>2021-09-12T07:09:18.000Z</time>
      </trkpt>
      <trkpt lat="45.06972" lon="2.60797">
        <ele>1084.8</ele>
        <time>2021-09-12T07:15:50.000Z</time>
      </trkpt>
      <trkpt lat="45.06968" lon="2.60805">
        <ele>1081.1</ele>
        <time>2021-09-12T07:16:08.000Z</time>
      </trkpt>
      <trkpt lat="45.06964" lon="2.60814">
        <ele>1077</ele>
        <time>2021-09-12T07:16:23.000Z</time>
      </trkpt>
      <trkpt lat="45.06961" lon="2.60822">
        <ele>1073.5</ele>
        <time>2021-09-12T07:16:29.000Z</time>
      </trkpt>
      <trkpt lat="45.06958" lon="2.60831">
        <ele>1069.6</ele>
        <time>2021-09-12T07:16:36.000Z</time>
      </trkpt>
      <trkpt lat="45.06956" lon="2.60841">
        <ele>1067.1</ele>
        <time>2021-09-12T07:17:03.000Z</time>
      </trkpt>
      <trkpt lat="45.06961" lon="2.60849">
        <ele>1067.7</ele>
        <time>2021-09-12T07:17:14.000Z</time>
      </trkpt>
      <trkpt lat="45.06966" lon="2.60854">
        <ele>1068.8</ele>
        <time>2021-09-12T07:17:23.000Z</time>
      </trkpt>
      <trkpt lat="45.06971" lon="2.60859">
        <ele>1069.9</ele>
        <time>2021-09-12T07:17:28.000Z</time>
      </trkpt>
      <trkpt lat="45.06972" lon="2.60869">
        <ele>1068.8</ele>
        <time>2021-09-12T07:17:38.000Z</time>
      </trkpt>
      <trkpt lat="45.06967" lon="2.60876">
        <ele>1066</ele>
        <time>2021-09-12T07:17:46.000Z</time>
      </trkpt>
      <trkpt lat="45.06963" lon="2.60885">
        <ele>1063.2</ele>
        <time>2021-09-12T07:17:54.000Z</time>
      </trkpt>
      <trkpt lat="45.06961" lon="2.60894">
        <ele>1061.2</ele>
        <time>2021-09-12T07:18:02.000Z</time>
      </trkpt>
      <trkpt lat="45.06962" lon="2.60904">
        <ele>1060.1</ele>
        <time>2021-09-12T07:18:10.000Z</time>
      </trkpt>
      <trkpt lat="45.06963" lon="2.60914">
        <ele>1059.1</ele>
        <time>2021-09-12T07:18:15.000Z</time>
      </trkpt>
      <trkpt lat="45.06963" lon="2.60926">
        <ele>1058.3</ele>
        <time>2021-09-12T07:18:21.000Z</time>
      </trkpt>
      <trkpt lat="45.06964" lon="2.60946">
        <ele>1057.7</ele>
        <time>2021-09-12T07:18:58.000Z</time>
      </trkpt>
      <trkpt lat="45.06963" lon="2.60955">
        <ele>1056.9</ele>
        <time>2021-09-12T07:19:03.000Z</time>
      </trkpt>
      <trkpt lat="45.0697" lon="2.60958">
        <ele>1059.1</ele>
        <time>2021-09-12T07:19:24.000Z</time>
      </trkpt>
      <trkpt lat="45.06976" lon="2.60962">
        <ele>1060.9</ele>
        <time>2021-09-12T07:19:32.000Z</time>
      </trkpt>
      <trkpt lat="45.06983" lon="2.60964">
        <ele>1063.1</ele>
        <time>2021-09-12T07:19:36.000Z</time>
      </trkpt>
      <trkpt lat="45.06985" lon="2.60974">
        <ele>1063.1</ele>
        <time>2021-09-12T07:19:44.000Z</time>
      </trkpt>
      <trkpt lat="45.06986" lon="2.60984">
        <ele>1062.8</ele>
        <time>2021-09-12T07:19:48.000Z</time>
      </trkpt>
      <trkpt lat="45.06988" lon="2.60993">
        <ele>1062.8</ele>
        <time>2021-09-12T07:19:51.000Z</time>
      </trkpt>
      <trkpt lat="45.0699" lon="2.61011">
        <ele>1064</ele>
        <time>2021-09-12T07:19:57.000Z</time>
      </trkpt>
      <trkpt lat="45.0699" lon="2.6103">
        <ele>1065.8</ele>
        <time>2021-09-12T07:20:03.000Z</time>
      </trkpt>
      <trkpt lat="45.06999" lon="2.61053">
        <ele>1070.8</ele>
        <time>2021-09-12T07:20:09.000Z</time>
      </trkpt>
      <trkpt lat="45.06995" lon="2.61071">
        <ele>1071.2</ele>
        <time>2021-09-12T07:20:15.000Z</time>
      </trkpt>
      <trkpt lat="45.0699" lon="2.6108">
        <ele>1070.4</ele>
        <time>2021-09-12T07:20:21.000Z</time>
      </trkpt>
      <trkpt lat="45.06984" lon="2.61084">
        <ele>1068.9</ele>
        <time>2021-09-12T07:20:29.000Z</time>
      </trkpt>
      <trkpt lat="45.06976" lon="2.61086">
        <ele>1066.4</ele>
        <time>2021-09-12T07:20:35.000Z</time>
      </trkpt>
      <trkpt lat="45.06969" lon="2.61095">
        <ele>1064.5</ele>
        <time>2021-09-12T07:20:39.000Z</time>
      </trkpt>
      <trkpt lat="45.06963" lon="2.61095">
        <ele>1062.5</ele>
        <time>2021-09-12T07:20:45.000Z</time>
      </trkpt>
      <trkpt lat="45.06955" lon="2.61091">
        <ele>1059.7</ele>
        <time>2021-09-12T07:20:52.000Z</time>
      </trkpt>
      <trkpt lat="45.06948" lon="2.61085">
        <ele>1057.2</ele>
        <time>2021-09-12T07:20:57.000Z</time>
      </trkpt>
      <trkpt lat="45.06941" lon="2.61083">
        <ele>1054.9</ele>
        <time>2021-09-12T07:21:03.000Z</time>
      </trkpt>
      <trkpt lat="45.06934" lon="2.61084">
        <ele>1052.6</ele>
        <time>2021-09-12T07:21:10.000Z</time>
      </trkpt>
      <trkpt lat="45.06926" lon="2.61087">
        <ele>1050</ele>
        <time>2021-09-12T07:21:15.000Z</time>
      </trkpt>
      <trkpt lat="45.06918" lon="2.61084">
        <ele>1047.4</ele>
        <time>2021-09-12T07:21:21.000Z</time>
      </trkpt>
      <trkpt lat="45.06911" lon="2.61081">
        <ele>1045</ele>
        <time>2021-09-12T07:21:27.000Z</time>
      </trkpt>
      <trkpt lat="45.06905" lon="2.61083">
        <ele>1043.2</ele>
        <time>2021-09-12T07:21:33.000Z</time>
      </trkpt>
      <trkpt lat="45.06902" lon="2.61073">
        <ele>1041.5</ele>
        <time>2021-09-12T07:21:42.000Z</time>
      </trkpt>
      <trkpt lat="45.06895" lon="2.61073">
        <ele>1039.3</ele>
        <time>2021-09-12T07:21:52.000Z</time>
      </trkpt>
      <trkpt lat="45.06893" lon="2.61084">
        <ele>1039.3</ele>
        <time>2021-09-12T07:22:00.000Z</time>
      </trkpt>
      <trkpt lat="45.06889" lon="2.61096">
        <ele>1038.4</ele>
        <time>2021-09-12T07:22:09.000Z</time>
      </trkpt>
      <trkpt lat="45.06878" lon="2.61102">
        <ele>1035.4</ele>
        <time>2021-09-12T07:22:15.000Z</time>
      </trkpt>
      <trkpt lat="45.06872" lon="2.61109">
        <ele>1034</ele>
        <time>2021-09-12T07:22:21.000Z</time>
      </trkpt>
      <trkpt lat="45.06869" lon="2.61117">
        <ele>1033.7</ele>
        <time>2021-09-12T07:22:27.000Z</time>
      </trkpt>
      <trkpt lat="45.06865" lon="2.61129">
        <ele>1033.4</ele>
        <time>2021-09-12T07:22:33.000Z</time>
      </trkpt>
      <trkpt lat="45.06863" lon="2.61141">
        <ele>1033.8</ele>
        <time>2021-09-12T07:22:39.000Z</time>
      </trkpt>
      <trkpt lat="45.06858" lon="2.61154">
        <ele>1033.7</ele>
        <time>2021-09-12T07:22:45.000Z</time>
      </trkpt>
      <trkpt lat="45.06859" lon="2.61165">
        <ele>1034.8</ele>
        <time>2021-09-12T07:22:51.000Z</time>
      </trkpt>
      <trkpt lat="45.06861" lon="2.61174">
        <ele>1036.6</ele>
        <time>2021-09-12T07:23:01.000Z</time>
      </trkpt>
      <trkpt lat="45.06863" lon="2.61185">
        <ele>1038.9</ele>
        <time>2021-09-12T07:23:06.000Z</time>
      </trkpt>
      <trkpt lat="45.06865" lon="2.61193">
        <ele>1040.5</ele>
        <time>2021-09-12T07:23:11.000Z</time>
      </trkpt>
      <trkpt lat="45.06867" lon="2.61202">
        <ele>1042.2</ele>
        <time>2021-09-12T07:23:16.000Z</time>
      </trkpt>
      <trkpt lat="45.06867" lon="2.61213">
        <ele>1044</ele>
        <time>2021-09-12T07:23:22.000Z</time>
      </trkpt>
      <trkpt lat="45.06864" lon="2.61226">
        <ele>1046</ele>
        <time>2021-09-12T07:23:27.000Z</time>
      </trkpt>
      <trkpt lat="45.06858" lon="2.61241">
        <ele>1048.8</ele>
        <time>2021-09-12T07:23:33.000Z</time>
      </trkpt>
      <trkpt lat="45.06857" lon="2.61251">
        <ele>1050.8</ele>
        <time>2021-09-12T07:23:39.000Z</time>
      </trkpt>
      <trkpt lat="45.06854" lon="2.61261">
        <ele>1053.7</ele>
        <time>2021-09-12T07:23:49.000Z</time>
      </trkpt>
      <trkpt lat="45.0685" lon="2.6127">
        <ele>1056.5</ele>
        <time>2021-09-12T07:23:54.000Z</time>
      </trkpt>
      <trkpt lat="45.06845" lon="2.61277">
        <ele>1059</ele>
        <time>2021-09-12T07:23:58.000Z</time>
      </trkpt>
      <trkpt lat="45.06841" lon="2.61287">
        <ele>1062.4</ele>
        <time>2021-09-12T07:24:03.000Z</time>
      </trkpt>
      <trkpt lat="45.06835" lon="2.61296">
        <ele>1066.1</ele>
        <time>2021-09-12T07:24:09.000Z</time>
      </trkpt>
      <trkpt lat="45.06827" lon="2.61302">
        <ele>1068.5</ele>
        <time>2021-09-12T07:24:15.000Z</time>
      </trkpt>
      <trkpt lat="45.06816" lon="2.61304">
        <ele>1069.6</ele>
        <time>2021-09-12T07:24:21.000Z</time>
      </trkpt>
      <trkpt lat="45.06811" lon="2.61298">
        <ele>1068.1</ele>
        <time>2021-09-12T07:24:40.000Z</time>
      </trkpt>
      <trkpt lat="45.06807" lon="2.61288">
        <ele>1065.3</ele>
        <time>2021-09-12T07:24:46.000Z</time>
      </trkpt>
      <trkpt lat="45.06802" lon="2.61283">
        <ele>1064.2</ele>
        <time>2021-09-12T07:24:51.000Z</time>
      </trkpt>
      <trkpt lat="45.06795" lon="2.6128">
        <ele>1063.8</ele>
        <time>2021-09-12T07:24:57.000Z</time>
      </trkpt>
      <trkpt lat="45.06789" lon="2.61277">
        <ele>1063.3</ele>
        <time>2021-09-12T07:25:03.000Z</time>
      </trkpt>
      <trkpt lat="45.06786" lon="2.61267">
        <ele>1060.7</ele>
        <time>2021-09-12T07:25:34.000Z</time>
      </trkpt>
      <trkpt lat="45.0678" lon="2.61264">
        <ele>1060.3</ele>
        <time>2021-09-12T07:25:41.000Z</time>
      </trkpt>
      <trkpt lat="45.06774" lon="2.61268">
        <ele>1061.8</ele>
        <time>2021-09-12T07:26:01.000Z</time>
      </trkpt>
      <trkpt lat="45.06768" lon="2.61273">
        <ele>1063.6</ele>
        <time>2021-09-12T07:26:19.000Z</time>
      </trkpt>
      <trkpt lat="45.06761" lon="2.61272">
        <ele>1063.8</ele>
        <time>2021-09-12T07:26:24.000Z</time>
      </trkpt>
      <trkpt lat="45.06755" lon="2.6127">
        <ele>1063.7</ele>
        <time>2021-09-12T07:26:30.000Z</time>
      </trkpt>
      <trkpt lat="45.06748" lon="2.61266">
        <ele>1062.4</ele>
        <time>2021-09-12T07:26:40.000Z</time>
      </trkpt>
      <trkpt lat="45.06742" lon="2.61261">
        <ele>1059.2</ele>
        <time>2021-09-12T07:26:45.000Z</time>
      </trkpt>
      <trkpt lat="45.06734" lon="2.61255">
        <ele>1055.3</ele>
        <time>2021-09-12T07:26:51.000Z</time>
      </trkpt>
      <trkpt lat="45.06727" lon="2.6125">
        <ele>1052.1</ele>
        <time>2021-09-12T07:26:57.000Z</time>
      </trkpt>
      <trkpt lat="45.06718" lon="2.61244">
        <ele>1048</ele>
        <time>2021-09-12T07:27:03.000Z</time>
      </trkpt>
      <trkpt lat="45.06711" lon="2.61239">
        <ele>1044.8</ele>
        <time>2021-09-12T07:27:09.000Z</time>
      </trkpt>
      <trkpt lat="45.06706" lon="2.61233">
        <ele>1042.1</ele>
        <time>2021-09-12T07:27:15.000Z</time>
      </trkpt>
      <trkpt lat="45.06701" lon="2.61223">
        <ele>1038.6</ele>
        <time>2021-09-12T07:27:21.000Z</time>
      </trkpt>
      <trkpt lat="45.06696" lon="2.61217">
        <ele>1036</ele>
        <time>2021-09-12T07:27:27.000Z</time>
      </trkpt>
      <trkpt lat="45.06689" lon="2.61211">
        <ele>1033</ele>
        <time>2021-09-12T07:27:33.000Z</time>
      </trkpt>
      <trkpt lat="45.06682" lon="2.61207">
        <ele>1030.5</ele>
        <time>2021-09-12T07:27:40.000Z</time>
      </trkpt>
      <trkpt lat="45.06676" lon="2.61203">
        <ele>1028.3</ele>
        <time>2021-09-12T07:27:46.000Z</time>
      </trkpt>
      <trkpt lat="45.06669" lon="2.612">
        <ele>1026.1</ele>
        <time>2021-09-12T07:27:59.000Z</time>
      </trkpt>
      <trkpt lat="45.06662" lon="2.61201">
        <ele>1024.4</ele>
        <time>2021-09-12T07:28:06.000Z</time>
      </trkpt>
      <trkpt lat="45.06657" lon="2.61208">
        <ele>1024</ele>
        <time>2021-09-12T07:28:14.000Z</time>
      </trkpt>
      <trkpt lat="45.0665" lon="2.61214">
        <ele>1022.9</ele>
        <time>2021-09-12T07:28:20.000Z</time>
      </trkpt>
      <trkpt lat="45.06644" lon="2.61218">
        <ele>1021.8</ele>
        <time>2021-09-12T07:28:24.000Z</time>
      </trkpt>
      <trkpt lat="45.06637" lon="2.61222">
        <ele>1020.3</ele>
        <time>2021-09-12T07:28:29.000Z</time>
      </trkpt>
      <trkpt lat="45.06631" lon="2.61227">
        <ele>1019.2</ele>
        <time>2021-09-12T07:28:34.000Z</time>
      </trkpt>
      <trkpt lat="45.06625" lon="2.61234">
        <ele>1018.5</ele>
        <time>2021-09-12T07:28:39.000Z</time>
      </trkpt>
      <trkpt lat="45.06618" lon="2.61247">
        <ele>1018.4</ele>
        <time>2021-09-12T07:28:45.000Z</time>
      </trkpt>
      <trkpt lat="45.06612" lon="2.61256">
        <ele>1017.6</ele>
        <time>2021-09-12T07:28:51.000Z</time>
      </trkpt>
      <trkpt lat="45.06606" lon="2.61266">
        <ele>1016.9</ele>
        <time>2021-09-12T07:28:57.000Z</time>
      </trkpt>
      <trkpt lat="45.06598" lon="2.6127">
        <ele>1015</ele>
        <time>2021-09-12T07:29:03.000Z</time>
      </trkpt>
      <trkpt lat="45.06593" lon="2.61276">
        <ele>1014.3</ele>
        <time>2021-09-12T07:29:09.000Z</time>
      </trkpt>
      <trkpt lat="45.06591" lon="2.61287">
        <ele>1015.1</ele>
        <time>2021-09-12T07:29:15.000Z</time>
      </trkpt>
      <trkpt lat="45.06591" lon="2.61299">
        <ele>1016.6</ele>
        <time>2021-09-12T07:29:21.000Z</time>
      </trkpt>
      <trkpt lat="45.0659" lon="2.6131">
        <ele>1017.7</ele>
        <time>2021-09-12T07:29:27.000Z</time>
      </trkpt>
      <trkpt lat="45.06591" lon="2.61321">
        <ele>1019.4</ele>
        <time>2021-09-12T07:29:33.000Z</time>
      </trkpt>
      <trkpt lat="45.06591" lon="2.61334">
        <ele>1021.1</ele>
        <time>2021-09-12T07:29:39.000Z</time>
      </trkpt>
      <trkpt lat="45.06591" lon="2.61346">
        <ele>1024.4</ele>
        <time>2021-09-12T07:29:45.000Z</time>
      </trkpt>
      <trkpt lat="45.06589" lon="2.61356">
        <ele>1026.7</ele>
        <time>2021-09-12T07:29:51.000Z</time>
      </trkpt>
      <trkpt lat="45.06584" lon="2.61364">
        <ele>1028</ele>
        <time>2021-09-12T07:29:58.000Z</time>
      </trkpt>
      <trkpt lat="45.06581" lon="2.61373">
        <ele>1030.2</ele>
        <time>2021-09-12T07:30:05.000Z</time>
      </trkpt>
      <trkpt lat="45.06576" lon="2.6138">
        <ele>1031.7</ele>
        <time>2021-09-12T07:30:10.000Z</time>
      </trkpt>
      <trkpt lat="45.0657" lon="2.61387">
        <ele>1033</ele>
        <time>2021-09-12T07:30:15.000Z</time>
      </trkpt>
      <trkpt lat="45.06563" lon="2.61393">
        <ele>1033.9</ele>
        <time>2021-09-12T07:30:21.000Z</time>
      </trkpt>
      <trkpt lat="45.06554" lon="2.61396">
        <ele>1033.6</ele>
        <time>2021-09-12T07:30:27.000Z</time>
      </trkpt>
      <trkpt lat="45.06546" lon="2.61398">
        <ele>1033.2</ele>
        <time>2021-09-12T07:30:33.000Z</time>
      </trkpt>
      <trkpt lat="45.06539" lon="2.61392">
        <ele>1030.9</ele>
        <time>2021-09-12T07:30:39.000Z</time>
      </trkpt>
      <trkpt lat="45.06531" lon="2.61389">
        <ele>1029.4</ele>
        <time>2021-09-12T07:30:45.000Z</time>
      </trkpt>
      <trkpt lat="45.06524" lon="2.61388">
        <ele>1028.4</ele>
        <time>2021-09-12T07:30:51.000Z</time>
      </trkpt>
      <trkpt lat="45.06515" lon="2.61387">
        <ele>1027.2</ele>
        <time>2021-09-12T07:30:57.000Z</time>
      </trkpt>
      <trkpt lat="45.06506" lon="2.61387">
        <ele>1026.3</ele>
        <time>2021-09-12T07:31:03.000Z</time>
      </trkpt>
      <trkpt lat="45.06498" lon="2.61386">
        <ele>1025</ele>
        <time>2021-09-12T07:31:09.000Z</time>
      </trkpt>
      <trkpt lat="45.06489" lon="2.61383">
        <ele>1022.1</ele>
        <time>2021-09-12T07:31:15.000Z</time>
      </trkpt>
      <trkpt lat="45.06482" lon="2.61381">
        <ele>1020</ele>
        <time>2021-09-12T07:31:23.000Z</time>
      </trkpt>
      <trkpt lat="45.06475" lon="2.6138">
        <ele>1018.1</ele>
        <time>2021-09-12T07:31:31.000Z</time>
      </trkpt>
      <trkpt lat="45.06467" lon="2.61378">
        <ele>1015.8</ele>
        <time>2021-09-12T07:31:36.000Z</time>
      </trkpt>
      <trkpt lat="45.06461" lon="2.61378">
        <ele>1014.3</ele>
        <time>2021-09-12T07:31:41.000Z</time>
      </trkpt>
      <trkpt lat="45.06454" lon="2.6138">
        <ele>1012.8</ele>
        <time>2021-09-12T07:31:47.000Z</time>
      </trkpt>
      <trkpt lat="45.06448" lon="2.61381">
        <ele>1011.4</ele>
        <time>2021-09-12T07:31:53.000Z</time>
      </trkpt>
      <trkpt lat="45.06441" lon="2.61384">
        <ele>1009.9</ele>
        <time>2021-09-12T07:32:00.000Z</time>
      </trkpt>
      <trkpt lat="45.06437" lon="2.61391">
        <ele>1009.6</ele>
        <time>2021-09-12T07:32:08.000Z</time>
      </trkpt>
      <trkpt lat="45.06432" lon="2.61397">
        <ele>1008.8</ele>
        <time>2021-09-12T07:32:17.000Z</time>
      </trkpt>
      <trkpt lat="45.06427" lon="2.61403">
        <ele>1007.9</ele>
        <time>2021-09-12T07:33:08.000Z</time>
      </trkpt>
      <trkpt lat="45.06422" lon="2.61411">
        <ele>1007.2</ele>
        <time>2021-09-12T07:33:17.000Z</time>
      </trkpt>
      <trkpt lat="45.06422" lon="2.6142">
        <ele>1007.5</ele>
        <time>2021-09-12T07:33:23.000Z</time>
      </trkpt>
      <trkpt lat="45.0642" lon="2.6143">
        <ele>1006.7</ele>
        <time>2021-09-12T07:33:30.000Z</time>
      </trkpt>
      <trkpt lat="45.06419" lon="2.61439">
        <ele>1006.2</ele>
        <time>2021-09-12T07:33:38.000Z</time>
      </trkpt>
      <trkpt lat="45.06416" lon="2.61449">
        <ele>1005.1</ele>
        <time>2021-09-12T07:33:44.000Z</time>
      </trkpt>
      <trkpt lat="45.06412" lon="2.61457">
        <ele>1004.4</ele>
        <time>2021-09-12T07:33:51.000Z</time>
      </trkpt>
      <trkpt lat="45.06408" lon="2.61467">
        <ele>1003.7</ele>
        <time>2021-09-12T07:34:12.000Z</time>
      </trkpt>
      <trkpt lat="45.06406" lon="2.61475">
        <ele>1003.3</ele>
        <time>2021-09-12T07:34:17.000Z</time>
      </trkpt>
      <trkpt lat="45.06405" lon="2.61485">
        <ele>1003.1</ele>
        <time>2021-09-12T07:34:22.000Z</time>
      </trkpt>
      <trkpt lat="45.06404" lon="2.61496">
        <ele>1003</ele>
        <time>2021-09-12T07:34:27.000Z</time>
      </trkpt>
      <trkpt lat="45.06402" lon="2.61506">
        <ele>1003</ele>
        <time>2021-09-12T07:34:33.000Z</time>
      </trkpt>
      <trkpt lat="45.06398" lon="2.61515">
        <ele>1003.1</ele>
        <time>2021-09-12T07:34:40.000Z</time>
      </trkpt>
      <trkpt lat="45.06393" lon="2.61522">
        <ele>1003</ele>
        <time>2021-09-12T07:34:46.000Z</time>
      </trkpt>
      <trkpt lat="45.06391" lon="2.61531">
        <ele>1003.2</ele>
        <time>2021-09-12T07:34:53.000Z</time>
      </trkpt>
      <trkpt lat="45.06387" lon="2.6154">
        <ele>1003.3</ele>
        <time>2021-09-12T07:35:01.000Z</time>
      </trkpt>
      <trkpt lat="45.06381" lon="2.61545">
        <ele>1003.1</ele>
        <time>2021-09-12T07:35:07.000Z</time>
      </trkpt>
      <trkpt lat="45.06375" lon="2.61549">
        <ele>1002.9</ele>
        <time>2021-09-12T07:35:12.000Z</time>
      </trkpt>
      <trkpt lat="45.06368" lon="2.61554">
        <ele>1002.6</ele>
        <time>2021-09-12T07:35:18.000Z</time>
      </trkpt>
      <trkpt lat="45.06362" lon="2.61559">
        <ele>1002.5</ele>
        <time>2021-09-12T07:35:26.000Z</time>
      </trkpt>
      <trkpt lat="45.06361" lon="2.6157">
        <ele>1003</ele>
        <time>2021-09-12T07:35:34.000Z</time>
      </trkpt>
      <trkpt lat="45.06355" lon="2.61577">
        <ele>1003</ele>
        <time>2021-09-12T07:35:40.000Z</time>
      </trkpt>
      <trkpt lat="45.06349" lon="2.61583">
        <ele>1002.9</ele>
        <time>2021-09-12T07:35:47.000Z</time>
      </trkpt>
      <trkpt lat="45.06343" lon="2.61587">
        <ele>1002</ele>
        <time>2021-09-12T07:35:53.000Z</time>
      </trkpt>
      <trkpt lat="45.06336" lon="2.61588">
        <ele>1001.5</ele>
        <time>2021-09-12T07:36:04.000Z</time>
      </trkpt>
      <trkpt lat="45.0633" lon="2.61587">
        <ele>1001.7</ele>
        <time>2021-09-12T07:36:14.000Z</time>
      </trkpt>
      <trkpt lat="45.06326" lon="2.61579">
        <ele>1002.3</ele>
        <time>2021-09-12T07:37:24.000Z</time>
      </trkpt>
      <trkpt lat="45.06319" lon="2.61578">
        <ele>1002.7</ele>
        <time>2021-09-12T07:37:36.000Z</time>
      </trkpt>
      <trkpt lat="45.06312" lon="2.61579">
        <ele>1003.3</ele>
        <time>2021-09-12T07:37:46.000Z</time>
      </trkpt>
      <trkpt lat="45.06307" lon="2.61584">
        <ele>1003.8</ele>
        <time>2021-09-12T07:38:01.000Z</time>
      </trkpt>
      <trkpt lat="45.06299" lon="2.61583">
        <ele>1004.5</ele>
        <time>2021-09-12T07:38:26.000Z</time>
      </trkpt>
      <trkpt lat="45.06294" lon="2.61591">
        <ele>1003.6</ele>
        <time>2021-09-12T07:38:34.000Z</time>
      </trkpt>
      <trkpt lat="45.06288" lon="2.61594">
        <ele>1003.4</ele>
        <time>2021-09-12T07:38:40.000Z</time>
      </trkpt>
      <trkpt lat="45.06282" lon="2.61597">
        <ele>1003.3</ele>
        <time>2021-09-12T07:38:46.000Z</time>
      </trkpt>
      <trkpt lat="45.06279" lon="2.61606">
        <ele>1001.9</ele>
        <time>2021-09-12T07:39:40.000Z</time>
      </trkpt>
      <trkpt lat="45.06284" lon="2.61612">
        <ele>1000.6</ele>
        <time>2021-09-12T07:40:02.000Z</time>
      </trkpt>
      <trkpt lat="45.0629" lon="2.61616">
        <ele>999.6</ele>
        <time>2021-09-12T07:40:09.000Z</time>
      </trkpt>
      <trkpt lat="45.06296" lon="2.61623">
        <ele>998.1</ele>
        <time>2021-09-12T07:40:24.000Z</time>
      </trkpt>
      <trkpt lat="45.06301" lon="2.61629">
        <ele>996.9</ele>
        <time>2021-09-12T07:40:29.000Z</time>
      </trkpt>
      <trkpt lat="45.06308" lon="2.61635">
        <ele>995.6</ele>
        <time>2021-09-12T07:40:33.000Z</time>
      </trkpt>
      <trkpt lat="45.06316" lon="2.61642">
        <ele>994.2</ele>
        <time>2021-09-12T07:40:39.000Z</time>
      </trkpt>
      <trkpt lat="45.06325" lon="2.61649">
        <ele>992.8</ele>
        <time>2021-09-12T07:40:45.000Z</time>
      </trkpt>
      <trkpt lat="45.06333" lon="2.61656">
        <ele>991.5</ele>
        <time>2021-09-12T07:40:51.000Z</time>
      </trkpt>
      <trkpt lat="45.06342" lon="2.61661">
        <ele>991.2</ele>
        <time>2021-09-12T07:40:57.000Z</time>
      </trkpt>
      <trkpt lat="45.06349" lon="2.61665">
        <ele>991</ele>
        <time>2021-09-12T07:41:03.000Z</time>
      </trkpt>
      <trkpt lat="45.06356" lon="2.6167">
        <ele>990.4</ele>
        <time>2021-09-12T07:41:09.000Z</time>
      </trkpt>
      <trkpt lat="45.06363" lon="2.61677">
        <ele>989.2</ele>
        <time>2021-09-12T07:41:15.000Z</time>
      </trkpt>
      <trkpt lat="45.06367" lon="2.61686">
        <ele>987.6</ele>
        <time>2021-09-12T07:41:21.000Z</time>
      </trkpt>
      <trkpt lat="45.0637" lon="2.61694">
        <ele>986.1</ele>
        <time>2021-09-12T07:41:29.000Z</time>
      </trkpt>
      <trkpt lat="45.06369" lon="2.61704">
        <ele>984</ele>
        <time>2021-09-12T07:41:33.000Z</time>
      </trkpt>
      <trkpt lat="45.06367" lon="2.61718">
        <ele>980.9</ele>
        <time>2021-09-12T07:41:39.000Z</time>
      </trkpt>
      <trkpt lat="45.06368" lon="2.61731">
        <ele>978.3</ele>
        <time>2021-09-12T07:41:45.000Z</time>
      </trkpt>
      <trkpt lat="45.06369" lon="2.61746">
        <ele>975.3</ele>
        <time>2021-09-12T07:41:51.000Z</time>
      </trkpt>
      <trkpt lat="45.06371" lon="2.61758">
        <ele>973.3</ele>
        <time>2021-09-12T07:41:57.000Z</time>
      </trkpt>
      <trkpt lat="45.06376" lon="2.6177">
        <ele>971.9</ele>
        <time>2021-09-12T07:42:03.000Z</time>
      </trkpt>
      <trkpt lat="45.0638" lon="2.61781">
        <ele>970.7</ele>
        <time>2021-09-12T07:42:09.000Z</time>
      </trkpt>
      <trkpt lat="45.06382" lon="2.6179">
        <ele>969.6</ele>
        <time>2021-09-12T07:42:15.000Z</time>
      </trkpt>
      <trkpt lat="45.06386" lon="2.618">
        <ele>968.7</ele>
        <time>2021-09-12T07:42:21.000Z</time>
      </trkpt>
      <trkpt lat="45.06391" lon="2.61811">
        <ele>967.9</ele>
        <time>2021-09-12T07:42:27.000Z</time>
      </trkpt>
      <trkpt lat="45.06394" lon="2.6182">
        <ele>967.2</ele>
        <time>2021-09-12T07:42:34.000Z</time>
      </trkpt>
      <trkpt lat="45.06398" lon="2.6183">
        <ele>966.6</ele>
        <time>2021-09-12T07:42:39.000Z</time>
      </trkpt>
      <trkpt lat="45.06402" lon="2.61842">
        <ele>966.6</ele>
        <time>2021-09-12T07:42:45.000Z</time>
      </trkpt>
      <trkpt lat="45.06405" lon="2.61852">
        <ele>966.7</ele>
        <time>2021-09-12T07:42:51.000Z</time>
      </trkpt>
      <trkpt lat="45.06403" lon="2.61862">
        <ele>965.8</ele>
        <time>2021-09-12T07:42:58.000Z</time>
      </trkpt>
      <trkpt lat="45.06401" lon="2.61872">
        <ele>964.9</ele>
        <time>2021-09-12T07:43:04.000Z</time>
      </trkpt>
      <trkpt lat="45.06396" lon="2.61882">
        <ele>963.3</ele>
        <time>2021-09-12T07:43:09.000Z</time>
      </trkpt>
      <trkpt lat="45.06391" lon="2.61894">
        <ele>961.6</ele>
        <time>2021-09-12T07:43:15.000Z</time>
      </trkpt>
      <trkpt lat="45.06387" lon="2.61908">
        <ele>960</ele>
        <time>2021-09-12T07:43:21.000Z</time>
      </trkpt>
      <trkpt lat="45.06381" lon="2.61921">
        <ele>958.5</ele>
        <time>2021-09-12T07:43:27.000Z</time>
      </trkpt>
      <trkpt lat="45.06377" lon="2.61935">
        <ele>958.6</ele>
        <time>2021-09-12T07:43:33.000Z</time>
      </trkpt>
      <trkpt lat="45.06376" lon="2.61946">
        <ele>959.1</ele>
        <time>2021-09-12T07:43:39.000Z</time>
      </trkpt>
      <trkpt lat="45.06375" lon="2.6196">
        <ele>959.9</ele>
        <time>2021-09-12T07:43:45.000Z</time>
      </trkpt>
      <trkpt lat="45.06379" lon="2.61971">
        <ele>961.2</ele>
        <time>2021-09-12T07:43:51.000Z</time>
      </trkpt>
      <trkpt lat="45.06383" lon="2.6198">
        <ele>962.3</ele>
        <time>2021-09-12T07:43:57.000Z</time>
      </trkpt>
      <trkpt lat="45.06386" lon="2.61988">
        <ele>963.1</ele>
        <time>2021-09-12T07:44:04.000Z</time>
      </trkpt>
      <trkpt lat="45.06392" lon="2.61994">
        <ele>964.1</ele>
        <time>2021-09-12T07:44:12.000Z</time>
      </trkpt>
      <trkpt lat="45.06398" lon="2.61997">
        <ele>964.9</ele>
        <time>2021-09-12T07:44:17.000Z</time>
      </trkpt>
      <trkpt lat="45.06404" lon="2.62002">
        <ele>965.5</ele>
        <time>2021-09-12T07:44:21.000Z</time>
      </trkpt>
      <trkpt lat="45.06415" lon="2.62013">
        <ele>965.5</ele>
        <time>2021-09-12T07:44:27.000Z</time>
      </trkpt>
      <trkpt lat="45.0642" lon="2.62027">
        <ele>965.1</ele>
        <time>2021-09-12T07:44:33.000Z</time>
      </trkpt>
      <trkpt lat="45.0642" lon="2.62039">
        <ele>963.8</ele>
        <time>2021-09-12T07:44:39.000Z</time>
      </trkpt>
      <trkpt lat="45.06416" lon="2.62051">
        <ele>961.5</ele>
        <time>2021-09-12T07:44:45.000Z</time>
      </trkpt>
      <trkpt lat="45.06412" lon="2.62062">
        <ele>960.3</ele>
        <time>2021-09-12T07:44:51.000Z</time>
      </trkpt>
      <trkpt lat="45.06408" lon="2.62073">
        <ele>959.2</ele>
        <time>2021-09-12T07:44:57.000Z</time>
      </trkpt>
      <trkpt lat="45.06404" lon="2.62086">
        <ele>958.1</ele>
        <time>2021-09-12T07:45:03.000Z</time>
      </trkpt>
      <trkpt lat="45.06402" lon="2.62097">
        <ele>957.4</ele>
        <time>2021-09-12T07:45:09.000Z</time>
      </trkpt>
      <trkpt lat="45.06404" lon="2.62107">
        <ele>956.8</ele>
        <time>2021-09-12T07:45:16.000Z</time>
      </trkpt>
      <trkpt lat="45.06405" lon="2.62118">
        <ele>956.2</ele>
        <time>2021-09-12T07:45:22.000Z</time>
      </trkpt>
      <trkpt lat="45.06406" lon="2.6213">
        <ele>955.5</ele>
        <time>2021-09-12T07:45:27.000Z</time>
      </trkpt>
      <trkpt lat="45.06407" lon="2.62141">
        <ele>955</ele>
        <time>2021-09-12T07:45:32.000Z</time>
      </trkpt>
      <trkpt lat="45.06406" lon="2.62154">
        <ele>954.1</ele>
        <time>2021-09-12T07:45:38.000Z</time>
      </trkpt>
      <trkpt lat="45.06407" lon="2.62163">
        <ele>953.7</ele>
        <time>2021-09-12T07:45:44.000Z</time>
      </trkpt>
      <trkpt lat="45.0641" lon="2.62172">
        <ele>953.7</ele>
        <time>2021-09-12T07:45:52.000Z</time>
      </trkpt>
      <trkpt lat="45.06414" lon="2.62181">
        <ele>954</ele>
        <time>2021-09-12T07:45:58.000Z</time>
      </trkpt>
      <trkpt lat="45.06418" lon="2.62189">
        <ele>954.5</ele>
        <time>2021-09-12T07:46:05.000Z</time>
      </trkpt>
      <trkpt lat="45.06424" lon="2.62195">
        <ele>955.8</ele>
        <time>2021-09-12T07:46:14.000Z</time>
      </trkpt>
      <trkpt lat="45.06428" lon="2.62203">
        <ele>956.4</ele>
        <time>2021-09-12T07:46:21.000Z</time>
      </trkpt>
      <trkpt lat="45.06435" lon="2.62209">
        <ele>957.8</ele>
        <time>2021-09-12T07:46:28.000Z</time>
      </trkpt>
      <trkpt lat="45.0644" lon="2.62215">
        <ele>958.5</ele>
        <time>2021-09-12T07:46:34.000Z</time>
      </trkpt>
      <trkpt lat="45.06445" lon="2.62221">
        <ele>959.2</ele>
        <time>2021-09-12T07:46:38.000Z</time>
      </trkpt>
      <trkpt lat="45.06451" lon="2.62228">
        <ele>960</ele>
        <time>2021-09-12T07:46:43.000Z</time>
      </trkpt>
      <trkpt lat="45.06454" lon="2.62238">
        <ele>959.7</ele>
        <time>2021-09-12T07:46:51.000Z</time>
      </trkpt>
      <trkpt lat="45.06454" lon="2.62248">
        <ele>958.9</ele>
        <time>2021-09-12T07:46:58.000Z</time>
      </trkpt>
      <trkpt lat="45.06454" lon="2.62259">
        <ele>958.5</ele>
        <time>2021-09-12T07:47:04.000Z</time>
      </trkpt>
      <trkpt lat="45.06459" lon="2.62266">
        <ele>959.2</ele>
        <time>2021-09-12T07:47:10.000Z</time>
      </trkpt>
      <trkpt lat="45.06462" lon="2.62276">
        <ele>959.6</ele>
        <time>2021-09-12T07:47:30.000Z</time>
      </trkpt>
      <trkpt lat="45.06461" lon="2.62286">
        <ele>959.2</ele>
        <time>2021-09-12T07:47:40.000Z</time>
      </trkpt>
      <trkpt lat="45.06463" lon="2.62295">
        <ele>959.4</ele>
        <time>2021-09-12T07:47:54.000Z</time>
      </trkpt>
      <trkpt lat="45.06463" lon="2.62305">
        <ele>959.2</ele>
        <time>2021-09-12T07:48:04.000Z</time>
      </trkpt>
      <trkpt lat="45.06465" lon="2.62315">
        <ele>959.5</ele>
        <time>2021-09-12T07:48:12.000Z</time>
      </trkpt>
      <trkpt lat="45.06467" lon="2.62323">
        <ele>959.9</ele>
        <time>2021-09-12T07:48:18.000Z</time>
      </trkpt>
      <trkpt lat="45.06471" lon="2.62332">
        <ele>960.7</ele>
        <time>2021-09-12T07:48:24.000Z</time>
      </trkpt>
      <trkpt lat="45.06474" lon="2.62341">
        <ele>961.3</ele>
        <time>2021-09-12T07:48:28.000Z</time>
      </trkpt>
      <trkpt lat="45.06475" lon="2.62351">
        <ele>961.4</ele>
        <time>2021-09-12T07:48:39.000Z</time>
      </trkpt>
      <trkpt lat="45.06481" lon="2.62357">
        <ele>962.8</ele>
        <time>2021-09-12T07:48:43.000Z</time>
      </trkpt>
      <trkpt lat="45.06487" lon="2.62362">
        <ele>964.1</ele>
        <time>2021-09-12T07:48:50.000Z</time>
      </trkpt>
      <trkpt lat="45.06493" lon="2.62366">
        <ele>965.5</ele>
        <time>2021-09-12T07:48:56.000Z</time>
      </trkpt>
      <trkpt lat="45.06499" lon="2.62369">
        <ele>966.9</ele>
        <time>2021-09-12T07:49:01.000Z</time>
      </trkpt>
      <trkpt lat="45.06506" lon="2.62371">
        <ele>968</ele>
        <time>2021-09-12T07:49:10.000Z</time>
      </trkpt>
      <trkpt lat="45.06513" lon="2.62371">
        <ele>969.1</ele>
        <time>2021-09-12T07:49:27.000Z</time>
      </trkpt>
      <trkpt lat="45.06519" lon="2.62375">
        <ele>969.8</ele>
        <time>2021-09-12T07:49:34.000Z</time>
      </trkpt>
      <trkpt lat="45.06525" lon="2.62381">
        <ele>970.4</ele>
        <time>2021-09-12T07:49:40.000Z</time>
      </trkpt>
      <trkpt lat="45.06531" lon="2.62386">
        <ele>970.9</ele>
        <time>2021-09-12T07:49:46.000Z</time>
      </trkpt>
      <trkpt lat="45.06538" lon="2.6239">
        <ele>971.6</ele>
        <time>2021-09-12T07:49:50.000Z</time>
      </trkpt>
      <trkpt lat="45.06546" lon="2.62395">
        <ele>972.2</ele>
        <time>2021-09-12T07:49:55.000Z</time>
      </trkpt>
      <trkpt lat="45.06554" lon="2.624">
        <ele>972.8</ele>
        <time>2021-09-12T07:50:01.000Z</time>
      </trkpt>
      <trkpt lat="45.06563" lon="2.62404">
        <ele>973.4</ele>
        <time>2021-09-12T07:50:07.000Z</time>
      </trkpt>
      <trkpt lat="45.06571" lon="2.62409">
        <ele>973.7</ele>
        <time>2021-09-12T07:50:13.000Z</time>
      </trkpt>
      <trkpt lat="45.06577" lon="2.62415">
        <ele>973.6</ele>
        <time>2021-09-12T07:50:19.000Z</time>
      </trkpt>
      <trkpt lat="45.06584" lon="2.6242">
        <ele>973.7</ele>
        <time>2021-09-12T07:50:28.000Z</time>
      </trkpt>
      <trkpt lat="45.0659" lon="2.62423">
        <ele>974.3</ele>
        <time>2021-09-12T07:50:36.000Z</time>
      </trkpt>
      <trkpt lat="45.06595" lon="2.62429">
        <ele>974.4</ele>
        <time>2021-09-12T07:50:44.000Z</time>
      </trkpt>
      <trkpt lat="45.066" lon="2.62435">
        <ele>974.6</ele>
        <time>2021-09-12T07:50:49.000Z</time>
      </trkpt>
      <trkpt lat="45.06606" lon="2.62443">
        <ele>974.7</ele>
        <time>2021-09-12T07:50:55.000Z</time>
      </trkpt>
      <trkpt lat="45.06605" lon="2.62455">
        <ele>973.1</ele>
        <time>2021-09-12T07:51:01.000Z</time>
      </trkpt>
      <trkpt lat="45.06602" lon="2.62468">
        <ele>970.9</ele>
        <time>2021-09-12T07:51:07.000Z</time>
      </trkpt>
      <trkpt lat="45.06599" lon="2.62479">
        <ele>969</ele>
        <time>2021-09-12T07:51:13.000Z</time>
      </trkpt>
      <trkpt lat="45.06594" lon="2.62488">
        <ele>966.8</ele>
        <time>2021-09-12T07:51:19.000Z</time>
      </trkpt>
      <trkpt lat="45.06587" lon="2.62499">
        <ele>963.9</ele>
        <time>2021-09-12T07:51:25.000Z</time>
      </trkpt>
      <trkpt lat="45.06582" lon="2.6251">
        <ele>963.7</ele>
        <time>2021-09-12T07:51:31.000Z</time>
      </trkpt>
      <trkpt lat="45.06575" lon="2.6252">
        <ele>963</ele>
        <time>2021-09-12T07:51:37.000Z</time>
      </trkpt>
      <trkpt lat="45.06569" lon="2.6253">
        <ele>962.4</ele>
        <time>2021-09-12T07:51:43.000Z</time>
      </trkpt>
      <trkpt lat="45.06564" lon="2.62539">
        <ele>961.8</ele>
        <time>2021-09-12T07:51:49.000Z</time>
      </trkpt>
      <trkpt lat="45.0656" lon="2.62547">
        <ele>961.3</ele>
        <time>2021-09-12T07:51:54.000Z</time>
      </trkpt>
      <trkpt lat="45.06554" lon="2.62555">
        <ele>960.2</ele>
        <time>2021-09-12T07:52:00.000Z</time>
      </trkpt>
      <trkpt lat="45.06547" lon="2.6256">
        <ele>958.5</ele>
        <time>2021-09-12T07:52:06.000Z</time>
      </trkpt>
      <trkpt lat="45.06539" lon="2.62565">
        <ele>956.5</ele>
        <time>2021-09-12T07:52:12.000Z</time>
      </trkpt>
      <trkpt lat="45.06532" lon="2.6257">
        <ele>954.6</ele>
        <time>2021-09-12T07:52:18.000Z</time>
      </trkpt>
      <trkpt lat="45.06527" lon="2.62577">
        <ele>953.3</ele>
        <time>2021-09-12T07:52:24.000Z</time>
      </trkpt>
      <trkpt lat="45.0652" lon="2.62581">
        <ele>951.2</ele>
        <time>2021-09-12T07:52:29.000Z</time>
      </trkpt>
      <trkpt lat="45.06513" lon="2.62583">
        <ele>949.1</ele>
        <time>2021-09-12T07:52:35.000Z</time>
      </trkpt>
      <trkpt lat="45.06504" lon="2.62587">
        <ele>946.5</ele>
        <time>2021-09-12T07:52:41.000Z</time>
      </trkpt>
      <trkpt lat="45.06497" lon="2.6259">
        <ele>944.9</ele>
        <time>2021-09-12T07:52:47.000Z</time>
      </trkpt>
      <trkpt lat="45.06489" lon="2.62597">
        <ele>943.6</ele>
        <time>2021-09-12T07:52:53.000Z</time>
      </trkpt>
      <trkpt lat="45.06484" lon="2.62605">
        <ele>942.8</ele>
        <time>2021-09-12T07:52:59.000Z</time>
      </trkpt>
      <trkpt lat="45.06479" lon="2.62613">
        <ele>941.7</ele>
        <time>2021-09-12T07:53:05.000Z</time>
      </trkpt>
      <trkpt lat="45.06472" lon="2.62624">
        <ele>939.9</ele>
        <time>2021-09-12T07:53:11.000Z</time>
      </trkpt>
      <trkpt lat="45.06468" lon="2.62633">
        <ele>938.7</ele>
        <time>2021-09-12T07:53:17.000Z</time>
      </trkpt>
      <trkpt lat="45.06464" lon="2.62644">
        <ele>937.2</ele>
        <time>2021-09-12T07:53:23.000Z</time>
      </trkpt>
      <trkpt lat="45.06461" lon="2.62653">
        <ele>936</ele>
        <time>2021-09-12T07:53:30.000Z</time>
      </trkpt>
      <trkpt lat="45.06459" lon="2.62661">
        <ele>935</ele>
        <time>2021-09-12T07:53:35.000Z</time>
      </trkpt>
      <trkpt lat="45.06459" lon="2.62671">
        <ele>934.6</ele>
        <time>2021-09-12T07:56:51.000Z</time>
      </trkpt>
      <trkpt lat="45.0646" lon="2.6268">
        <ele>934.7</ele>
        <time>2021-09-12T07:57:00.000Z</time>
      </trkpt>
      <trkpt lat="45.06462" lon="2.62689">
        <ele>935.2</ele>
        <time>2021-09-12T07:57:09.000Z</time>
      </trkpt>
      <trkpt lat="45.06467" lon="2.62695">
        <ele>937.1</ele>
        <time>2021-09-12T07:57:16.000Z</time>
      </trkpt>
      <trkpt lat="45.06473" lon="2.62703">
        <ele>939.3</ele>
        <time>2021-09-12T07:57:22.000Z</time>
      </trkpt>
      <trkpt lat="45.06475" lon="2.62715">
        <ele>939.8</ele>
        <time>2021-09-12T07:57:27.000Z</time>
      </trkpt>
      <trkpt lat="45.06477" lon="2.62725">
        <ele>940.4</ele>
        <time>2021-09-12T07:57:33.000Z</time>
      </trkpt>
      <trkpt lat="45.06483" lon="2.62732">
        <ele>942.8</ele>
        <time>2021-09-12T07:57:39.000Z</time>
      </trkpt>
      <trkpt lat="45.0649" lon="2.62733">
        <ele>945.9</ele>
        <time>2021-09-12T07:57:46.000Z</time>
      </trkpt>
      <trkpt lat="45.06496" lon="2.62735">
        <ele>948.4</ele>
        <time>2021-09-12T07:57:51.000Z</time>
      </trkpt>
      <trkpt lat="45.06505" lon="2.6274">
        <ele>951.4</ele>
        <time>2021-09-12T07:57:57.000Z</time>
      </trkpt>
      <trkpt lat="45.0651" lon="2.62747">
        <ele>952.6</ele>
        <time>2021-09-12T07:58:04.000Z</time>
      </trkpt>
      <trkpt lat="45.06513" lon="2.62755">
        <ele>952.5</ele>
        <time>2021-09-12T07:58:12.000Z</time>
      </trkpt>
      <trkpt lat="45.06515" lon="2.62764">
        <ele>951.5</ele>
        <time>2021-09-12T07:58:19.000Z</time>
      </trkpt>
      <trkpt lat="45.06518" lon="2.62773">
        <ele>950.8</ele>
        <time>2021-09-12T07:58:26.000Z</time>
      </trkpt>
      <trkpt lat="45.06522" lon="2.62781">
        <ele>950.4</ele>
        <time>2021-09-12T07:58:34.000Z</time>
      </trkpt>
      <trkpt lat="45.06526" lon="2.62788">
        <ele>950.2</ele>
        <time>2021-09-12T07:58:40.000Z</time>
      </trkpt>
      <trkpt lat="45.0653" lon="2.62797">
        <ele>949.6</ele>
        <time>2021-09-12T07:58:45.000Z</time>
      </trkpt>
      <trkpt lat="45.06536" lon="2.62808">
        <ele>949.1</ele>
        <time>2021-09-12T07:58:51.000Z</time>
      </trkpt>
      <trkpt lat="45.06539" lon="2.62818">
        <ele>948.1</ele>
        <time>2021-09-12T07:58:57.000Z</time>
      </trkpt>
      <trkpt lat="45.0654" lon="2.62829">
        <ele>946.4</ele>
        <time>2021-09-12T07:59:03.000Z</time>
      </trkpt>
      <trkpt lat="45.0654" lon="2.62839">
        <ele>944.7</ele>
        <time>2021-09-12T07:59:09.000Z</time>
      </trkpt>
      <trkpt lat="45.06544" lon="2.62852">
        <ele>943.3</ele>
        <time>2021-09-12T07:59:15.000Z</time>
      </trkpt>
      <trkpt lat="45.06546" lon="2.62861">
        <ele>942.2</ele>
        <time>2021-09-12T07:59:21.000Z</time>
      </trkpt>
      <trkpt lat="45.06551" lon="2.62869">
        <ele>941.8</ele>
        <time>2021-09-12T07:59:28.000Z</time>
      </trkpt>
      <trkpt lat="45.06555" lon="2.62878">
        <ele>941</ele>
        <time>2021-09-12T07:59:34.000Z</time>
      </trkpt>
      <trkpt lat="45.06556" lon="2.62892">
        <ele>938.8</ele>
        <time>2021-09-12T07:59:39.000Z</time>
      </trkpt>
      <trkpt lat="45.06555" lon="2.62918">
        <ele>934.1</ele>
        <time>2021-09-12T07:59:45.000Z</time>
      </trkpt>
      <trkpt lat="45.06553" lon="2.62939">
        <ele>931.8</ele>
        <time>2021-09-12T07:59:51.000Z</time>
      </trkpt>
      <trkpt lat="45.06543" lon="2.62954">
        <ele>928.5</ele>
        <time>2021-09-12T07:59:57.000Z</time>
      </trkpt>
      <trkpt lat="45.06535" lon="2.62961">
        <ele>926.1</ele>
        <time>2021-09-12T08:00:03.000Z</time>
      </trkpt>
      <trkpt lat="45.06528" lon="2.62963">
        <ele>924.5</ele>
        <time>2021-09-12T08:00:09.000Z</time>
      </trkpt>
      <trkpt lat="45.06518" lon="2.62963">
        <ele>922.5</ele>
        <time>2021-09-12T08:00:15.000Z</time>
      </trkpt>
      <trkpt lat="45.06512" lon="2.62964">
        <ele>921.2</ele>
        <time>2021-09-12T08:00:32.000Z</time>
      </trkpt>
      <trkpt lat="45.06512" lon="2.62973">
        <ele>920.1</ele>
        <time>2021-09-12T08:00:41.000Z</time>
      </trkpt>
      <trkpt lat="45.06509" lon="2.62982">
        <ele>918.3</ele>
        <time>2021-09-12T08:00:46.000Z</time>
      </trkpt>
      <trkpt lat="45.06506" lon="2.62992">
        <ele>916.4</ele>
        <time>2021-09-12T08:00:51.000Z</time>
      </trkpt>
      <trkpt lat="45.06506" lon="2.63003">
        <ele>915.2</ele>
        <time>2021-09-12T08:00:57.000Z</time>
      </trkpt>
      <trkpt lat="45.06503" lon="2.63013">
        <ele>913.8</ele>
        <time>2021-09-12T08:01:03.000Z</time>
      </trkpt>
      <trkpt lat="45.06501" lon="2.63022">
        <ele>912.7</ele>
        <time>2021-09-12T08:01:09.000Z</time>
      </trkpt>
      <trkpt lat="45.06496" lon="2.63028">
        <ele>911.1</ele>
        <time>2021-09-12T08:01:18.000Z</time>
      </trkpt>
      <trkpt lat="45.06491" lon="2.63035">
        <ele>909.6</ele>
        <time>2021-09-12T08:01:32.000Z</time>
      </trkpt>
      <trkpt lat="45.06488" lon="2.63044">
        <ele>908.3</ele>
        <time>2021-09-12T08:01:42.000Z</time>
      </trkpt>
      <trkpt lat="45.06487" lon="2.63053">
        <ele>907.5</ele>
        <time>2021-09-12T08:01:49.000Z</time>
      </trkpt>
      <trkpt lat="45.06486" lon="2.63063">
        <ele>906.7</ele>
        <time>2021-09-12T08:01:56.000Z</time>
      </trkpt>
      <trkpt lat="45.06488" lon="2.63074">
        <ele>906.3</ele>
        <time>2021-09-12T08:02:10.000Z</time>
      </trkpt>
      <trkpt lat="45.06488" lon="2.63083">
        <ele>905.7</ele>
        <time>2021-09-12T08:02:18.000Z</time>
      </trkpt>
      <trkpt lat="45.0649" lon="2.63093">
        <ele>905.5</ele>
        <time>2021-09-12T08:02:24.000Z</time>
      </trkpt>
      <trkpt lat="45.06489" lon="2.63103">
        <ele>904.8</ele>
        <time>2021-09-12T08:02:27.000Z</time>
      </trkpt>
      <trkpt lat="45.06484" lon="2.63116">
        <ele>903.1</ele>
        <time>2021-09-12T08:02:33.000Z</time>
      </trkpt>
      <trkpt lat="45.0648" lon="2.63124">
        <ele>902</ele>
        <time>2021-09-12T08:02:42.000Z</time>
      </trkpt>
      <trkpt lat="45.06477" lon="2.63134">
        <ele>900.9</ele>
        <time>2021-09-12T08:02:47.000Z</time>
      </trkpt>
      <trkpt lat="45.06478" lon="2.63145">
        <ele>900.5</ele>
        <time>2021-09-12T08:02:51.000Z</time>
      </trkpt>
      <trkpt lat="45.06477" lon="2.63159">
        <ele>899.5</ele>
        <time>2021-09-12T08:02:57.000Z</time>
      </trkpt>
      <trkpt lat="45.06474" lon="2.63173">
        <ele>898.4</ele>
        <time>2021-09-12T08:03:03.000Z</time>
      </trkpt>
      <trkpt lat="45.06469" lon="2.63185">
        <ele>897</ele>
        <time>2021-09-12T08:03:09.000Z</time>
      </trkpt>
      <trkpt lat="45.06465" lon="2.63197">
        <ele>895.8</ele>
        <time>2021-09-12T08:03:15.000Z</time>
      </trkpt>
      <trkpt lat="45.06463" lon="2.6321">
        <ele>894.8</ele>
        <time>2021-09-12T08:03:21.000Z</time>
      </trkpt>
      <trkpt lat="45.0646" lon="2.63219">
        <ele>893.8</ele>
        <time>2021-09-12T08:03:27.000Z</time>
      </trkpt>
      <trkpt lat="45.06456" lon="2.6323">
        <ele>892.5</ele>
        <time>2021-09-12T08:03:33.000Z</time>
      </trkpt>
      <trkpt lat="45.06455" lon="2.63242">
        <ele>891.7</ele>
        <time>2021-09-12T08:03:39.000Z</time>
      </trkpt>
      <trkpt lat="45.06454" lon="2.63254">
        <ele>891</ele>
        <time>2021-09-12T08:03:45.000Z</time>
      </trkpt>
      <trkpt lat="45.06455" lon="2.63268">
        <ele>890.8</ele>
        <time>2021-09-12T08:03:51.000Z</time>
      </trkpt>
      <trkpt lat="45.06456" lon="2.63279">
        <ele>890.8</ele>
        <time>2021-09-12T08:03:57.000Z</time>
      </trkpt>
      <trkpt lat="45.0646" lon="2.63289">
        <ele>891.4</ele>
        <time>2021-09-12T08:04:03.000Z</time>
      </trkpt>
      <trkpt lat="45.06463" lon="2.633">
        <ele>891.8</ele>
        <time>2021-09-12T08:04:09.000Z</time>
      </trkpt>
      <trkpt lat="45.06467" lon="2.63312">
        <ele>892.4</ele>
        <time>2021-09-12T08:04:15.000Z</time>
      </trkpt>
      <trkpt lat="45.0647" lon="2.63322">
        <ele>892.8</ele>
        <time>2021-09-12T08:04:21.000Z</time>
      </trkpt>
      <trkpt lat="45.06466" lon="2.63332">
        <ele>891.7</ele>
        <time>2021-09-12T08:04:27.000Z</time>
      </trkpt>
      <trkpt lat="45.06459" lon="2.63342">
        <ele>890.2</ele>
        <time>2021-09-12T08:04:33.000Z</time>
      </trkpt>
      <trkpt lat="45.06453" lon="2.63347">
        <ele>888.9</ele>
        <time>2021-09-12T08:05:09.000Z</time>
      </trkpt>
      <trkpt lat="45.06449" lon="2.63357">
        <ele>888.2</ele>
        <time>2021-09-12T08:05:15.000Z</time>
      </trkpt>
      <trkpt lat="45.06446" lon="2.63367">
        <ele>887.6</ele>
        <time>2021-09-12T08:05:21.000Z</time>
      </trkpt>
      <trkpt lat="45.06443" lon="2.63379">
        <ele>887.1</ele>
        <time>2021-09-12T08:05:27.000Z</time>
      </trkpt>
      <trkpt lat="45.0644" lon="2.6339">
        <ele>886.5</ele>
        <time>2021-09-12T08:05:33.000Z</time>
      </trkpt>
      <trkpt lat="45.06437" lon="2.63401">
        <ele>886</ele>
        <time>2021-09-12T08:05:39.000Z</time>
      </trkpt>
      <trkpt lat="45.06437" lon="2.63414">
        <ele>886.1</ele>
        <time>2021-09-12T08:05:45.000Z</time>
      </trkpt>
      <trkpt lat="45.06434" lon="2.63425">
        <ele>885.6</ele>
        <time>2021-09-12T08:05:51.000Z</time>
      </trkpt>
      <trkpt lat="45.06432" lon="2.63438">
        <ele>885.2</ele>
        <time>2021-09-12T08:05:57.000Z</time>
      </trkpt>
      <trkpt lat="45.06431" lon="2.63449">
        <ele>885.1</ele>
        <time>2021-09-12T08:06:03.000Z</time>
      </trkpt>
      <trkpt lat="45.06433" lon="2.63458">
        <ele>885.5</ele>
        <time>2021-09-12T08:06:12.000Z</time>
      </trkpt>
      <trkpt lat="45.0643" lon="2.63469">
        <ele>885</ele>
        <time>2021-09-12T08:06:22.000Z</time>
      </trkpt>
      <trkpt lat="45.06429" lon="2.63478">
        <ele>884.9</ele>
        <time>2021-09-12T08:06:27.000Z</time>
      </trkpt>
      <trkpt lat="45.06428" lon="2.63491">
        <ele>884.8</ele>
        <time>2021-09-12T08:06:33.000Z</time>
      </trkpt>
      <trkpt lat="45.06429" lon="2.63502">
        <ele>885.1</ele>
        <time>2021-09-12T08:06:39.000Z</time>
      </trkpt>
      <trkpt lat="45.06428" lon="2.63513">
        <ele>885.3</ele>
        <time>2021-09-12T08:06:45.000Z</time>
      </trkpt>
      <trkpt lat="45.06427" lon="2.63525">
        <ele>885.5</ele>
        <time>2021-09-12T08:06:51.000Z</time>
      </trkpt>
      <trkpt lat="45.06427" lon="2.63535">
        <ele>885.8</ele>
        <time>2021-09-12T08:06:57.000Z</time>
      </trkpt>
      <trkpt lat="45.06428" lon="2.63547">
        <ele>886.3</ele>
        <time>2021-09-12T08:07:03.000Z</time>
      </trkpt>
      <trkpt lat="45.06427" lon="2.63561">
        <ele>886.6</ele>
        <time>2021-09-12T08:07:09.000Z</time>
      </trkpt>
      <trkpt lat="45.06423" lon="2.6358">
        <ele>886.7</ele>
        <time>2021-09-12T08:07:15.000Z</time>
      </trkpt>
      <trkpt lat="45.06417" lon="2.6359">
        <ele>886.4</ele>
        <time>2021-09-12T08:07:21.000Z</time>
      </trkpt>
      <trkpt lat="45.06412" lon="2.63599">
        <ele>887.4</ele>
        <time>2021-09-12T08:07:28.000Z</time>
      </trkpt>
      <trkpt lat="45.06411" lon="2.6361">
        <ele>888.2</ele>
        <time>2021-09-12T08:07:33.000Z</time>
      </trkpt>
      <trkpt lat="45.06409" lon="2.63625">
        <ele>889.3</ele>
        <time>2021-09-12T08:07:39.000Z</time>
      </trkpt>
      <trkpt lat="45.06409" lon="2.63641">
        <ele>890.3</ele>
        <time>2021-09-12T08:07:45.000Z</time>
      </trkpt>
      <trkpt lat="45.06408" lon="2.63654">
        <ele>891.2</ele>
        <time>2021-09-12T08:07:51.000Z</time>
      </trkpt>
      <trkpt lat="45.06407" lon="2.63668">
        <ele>892.1</ele>
        <time>2021-09-12T08:07:57.000Z</time>
      </trkpt>
      <trkpt lat="45.06407" lon="2.63682">
        <ele>892.8</ele>
        <time>2021-09-12T08:08:03.000Z</time>
      </trkpt>
      <trkpt lat="45.06408" lon="2.63694">
        <ele>893.2</ele>
        <time>2021-09-12T08:08:09.000Z</time>
      </trkpt>
      <trkpt lat="45.06412" lon="2.63706">
        <ele>893.4</ele>
        <time>2021-09-12T08:08:15.000Z</time>
      </trkpt>
      <trkpt lat="45.06418" lon="2.63718">
        <ele>893.5</ele>
        <time>2021-09-12T08:08:21.000Z</time>
      </trkpt>
      <trkpt lat="45.06424" lon="2.63727">
        <ele>893.9</ele>
        <time>2021-09-12T08:08:27.000Z</time>
      </trkpt>
      <trkpt lat="45.06431" lon="2.63732">
        <ele>894.1</ele>
        <time>2021-09-12T08:08:33.000Z</time>
      </trkpt>
      <trkpt lat="45.06436" lon="2.63739">
        <ele>894.4</ele>
        <time>2021-09-12T08:08:39.000Z</time>
      </trkpt>
      <trkpt lat="45.0644" lon="2.63747">
        <ele>894.6</ele>
        <time>2021-09-12T08:08:44.000Z</time>
      </trkpt>
      <trkpt lat="45.06445" lon="2.63754">
        <ele>894.8</ele>
        <time>2021-09-12T08:08:50.000Z</time>
      </trkpt>
      <trkpt lat="45.06451" lon="2.63765">
        <ele>895.2</ele>
        <time>2021-09-12T08:08:56.000Z</time>
      </trkpt>
      <trkpt lat="45.06456" lon="2.63773">
        <ele>895.4</ele>
        <time>2021-09-12T08:09:02.000Z</time>
      </trkpt>
      <trkpt lat="45.06461" lon="2.63781">
        <ele>895.5</ele>
        <time>2021-09-12T08:09:08.000Z</time>
      </trkpt>
      <trkpt lat="45.06463" lon="2.6379">
        <ele>895.8</ele>
        <time>2021-09-12T08:09:14.000Z</time>
      </trkpt>
      <trkpt lat="45.06466" lon="2.63802">
        <ele>896.1</ele>
        <time>2021-09-12T08:09:20.000Z</time>
      </trkpt>
      <trkpt lat="45.06469" lon="2.63815">
        <ele>896.3</ele>
        <time>2021-09-12T08:09:26.000Z</time>
      </trkpt>
      <trkpt lat="45.06468" lon="2.63826">
        <ele>896.7</ele>
        <time>2021-09-12T08:09:32.000Z</time>
      </trkpt>
      <trkpt lat="45.06468" lon="2.63839">
        <ele>897</ele>
        <time>2021-09-12T08:09:38.000Z</time>
      </trkpt>
      <trkpt lat="45.06468" lon="2.6385">
        <ele>897.3</ele>
        <time>2021-09-12T08:09:44.000Z</time>
      </trkpt>
      <trkpt lat="45.06466" lon="2.63861">
        <ele>897.6</ele>
        <time>2021-09-12T08:09:50.000Z</time>
      </trkpt>
      <trkpt lat="45.06465" lon="2.63873">
        <ele>898</ele>
        <time>2021-09-12T08:09:56.000Z</time>
      </trkpt>
      <trkpt lat="45.06472" lon="2.63876">
        <ele>897.5</ele>
        <time>2021-09-12T08:10:23.000Z</time>
      </trkpt>
      <trkpt lat="45.06479" lon="2.6388">
        <ele>897.1</ele>
        <time>2021-09-12T08:10:32.000Z</time>
      </trkpt>
      <trkpt lat="45.06472" lon="2.63882">
        <ele>897.7</ele>
        <time>2021-09-12T08:11:06.000Z</time>
      </trkpt>
      <trkpt lat="45.06467" lon="2.63887">
        <ele>898.1</ele>
        <time>2021-09-12T08:11:10.000Z</time>
      </trkpt>
      <trkpt lat="45.06463" lon="2.63896">
        <ele>898.6</ele>
        <time>2021-09-12T08:11:15.000Z</time>
      </trkpt>
      <trkpt lat="45.0646" lon="2.63906">
        <ele>899.1</ele>
        <time>2021-09-12T08:11:20.000Z</time>
      </trkpt>
      <trkpt lat="45.06459" lon="2.63918">
        <ele>899.5</ele>
        <time>2021-09-12T08:11:26.000Z</time>
      </trkpt>
      <trkpt lat="45.06456" lon="2.63933">
        <ele>900.2</ele>
        <time>2021-09-12T08:11:32.000Z</time>
      </trkpt>
      <trkpt lat="45.06453" lon="2.63946">
        <ele>900.9</ele>
        <time>2021-09-12T08:11:38.000Z</time>
      </trkpt>
      <trkpt lat="45.06453" lon="2.63958">
        <ele>901.2</ele>
        <time>2021-09-12T08:11:44.000Z</time>
      </trkpt>
      <trkpt lat="45.06452" lon="2.63971">
        <ele>901.7</ele>
        <time>2021-09-12T08:11:50.000Z</time>
      </trkpt>
      <trkpt lat="45.0645" lon="2.63984">
        <ele>902.3</ele>
        <time>2021-09-12T08:11:56.000Z</time>
      </trkpt>
      <trkpt lat="45.0645" lon="2.63995">
        <ele>902.6</ele>
        <time>2021-09-12T08:12:02.000Z</time>
      </trkpt>
      <trkpt lat="45.06446" lon="2.64004">
        <ele>903.1</ele>
        <time>2021-09-12T08:12:14.000Z</time>
      </trkpt>
      <trkpt lat="45.06438" lon="2.64013">
        <ele>903.8</ele>
        <time>2021-09-12T08:12:20.000Z</time>
      </trkpt>
      <trkpt lat="45.0643" lon="2.64019">
        <ele>904.4</ele>
        <time>2021-09-12T08:12:26.000Z</time>
      </trkpt>
      <trkpt lat="45.06424" lon="2.64024">
        <ele>904.8</ele>
        <time>2021-09-12T08:12:34.000Z</time>
      </trkpt>
      <trkpt lat="45.06418" lon="2.64028">
        <ele>905.2</ele>
        <time>2021-09-12T08:12:46.000Z</time>
      </trkpt>
      <trkpt lat="45.06411" lon="2.64028">
        <ele>906.1</ele>
        <time>2021-09-12T08:12:54.000Z</time>
      </trkpt>
      <trkpt lat="45.06406" lon="2.64034">
        <ele>906.7</ele>
        <time>2021-09-12T08:13:01.000Z</time>
      </trkpt>
      <trkpt lat="45.06404" lon="2.64043">
        <ele>906.9</ele>
        <time>2021-09-12T08:14:41.000Z</time>
      </trkpt>
      <trkpt lat="45.06398" lon="2.64049">
        <ele>907.7</ele>
        <time>2021-09-12T08:14:48.000Z</time>
      </trkpt>
      <trkpt lat="45.06392" lon="2.64054">
        <ele>908.6</ele>
        <time>2021-09-12T08:14:55.000Z</time>
      </trkpt>
      <trkpt lat="45.06385" lon="2.64057">
        <ele>909.7</ele>
        <time>2021-09-12T08:15:03.000Z</time>
      </trkpt>
      <trkpt lat="45.0638" lon="2.64064">
        <ele>910.6</ele>
        <time>2021-09-12T08:15:08.000Z</time>
      </trkpt>
      <trkpt lat="45.06377" lon="2.64073">
        <ele>911.1</ele>
        <time>2021-09-12T08:15:41.000Z</time>
      </trkpt>
      <trkpt lat="45.06378" lon="2.64082">
        <ele>911</ele>
        <time>2021-09-12T08:15:50.000Z</time>
      </trkpt>
      <trkpt lat="45.06381" lon="2.64091">
        <ele>910.7</ele>
        <time>2021-09-12T08:15:57.000Z</time>
      </trkpt>
      <trkpt lat="45.0638" lon="2.64102">
        <ele>911.2</ele>
        <time>2021-09-12T08:16:13.000Z</time>
      </trkpt>
      <trkpt lat="45.06382" lon="2.64111">
        <ele>911.1</ele>
        <time>2021-09-12T08:16:24.000Z</time>
      </trkpt>
      <trkpt lat="45.06378" lon="2.64119">
        <ele>912.2</ele>
        <time>2021-09-12T08:16:37.000Z</time>
      </trkpt>
      <trkpt lat="45.0638" lon="2.64128">
        <ele>912.1</ele>
        <time>2021-09-12T08:17:04.000Z</time>
      </trkpt>
      <trkpt lat="45.06385" lon="2.64136">
        <ele>911.3</ele>
        <time>2021-09-12T08:17:16.000Z</time>
      </trkpt>
      <trkpt lat="45.06391" lon="2.64139">
        <ele>910.1</ele>
        <time>2021-09-12T08:17:21.000Z</time>
      </trkpt>
      <trkpt lat="45.06392" lon="2.64151">
        <ele>910.2</ele>
        <time>2021-09-12T08:17:24.000Z</time>
      </trkpt>
      <trkpt lat="45.06392" lon="2.64161">
        <ele>910.5</ele>
        <time>2021-09-12T08:17:51.000Z</time>
      </trkpt>
      <trkpt lat="45.06394" lon="2.6417">
        <ele>910.4</ele>
        <time>2021-09-12T08:17:57.000Z</time>
      </trkpt>
      <trkpt lat="45.06398" lon="2.64178">
        <ele>909.9</ele>
        <time>2021-09-12T08:18:04.000Z</time>
      </trkpt>
      <trkpt lat="45.06401" lon="2.64187">
        <ele>909.7</ele>
        <time>2021-09-12T08:18:11.000Z</time>
      </trkpt>
      <trkpt lat="45.06403" lon="2.64198">
        <ele>909.8</ele>
        <time>2021-09-12T08:18:17.000Z</time>
      </trkpt>
      <trkpt lat="45.06404" lon="2.64211">
        <ele>910.3</ele>
        <time>2021-09-12T08:18:23.000Z</time>
      </trkpt>
      <trkpt lat="45.06402" lon="2.642">
        <ele>910.2</ele>
        <time>2021-09-12T08:18:39.000Z</time>
      </trkpt>
      <trkpt lat="45.06399" lon="2.64189">
        <ele>910.3</ele>
        <time>2021-09-12T08:18:45.000Z</time>
      </trkpt>
      <trkpt lat="45.06395" lon="2.64181">
        <ele>910.8</ele>
        <time>2021-09-12T08:18:52.000Z</time>
      </trkpt>
      <trkpt lat="45.06392" lon="2.64173">
        <ele>911</ele>
        <time>2021-09-12T08:18:57.000Z</time>
      </trkpt>
      <trkpt lat="45.06388" lon="2.6416">
        <ele>911.3</ele>
        <time>2021-09-12T08:19:03.000Z</time>
      </trkpt>
      <trkpt lat="45.06385" lon="2.64148">
        <ele>911.7</ele>
        <time>2021-09-12T08:19:09.000Z</time>
      </trkpt>
      <trkpt lat="45.06383" lon="2.64136">
        <ele>911.7</ele>
        <time>2021-09-12T08:19:15.000Z</time>
      </trkpt>
      <trkpt lat="45.06384" lon="2.64124">
        <ele>911.1</ele>
        <time>2021-09-12T08:19:21.000Z</time>
      </trkpt>
      <trkpt lat="45.06384" lon="2.64114">
        <ele>910.8</ele>
        <time>2021-09-12T08:19:27.000Z</time>
      </trkpt>
      <trkpt lat="45.06382" lon="2.64096">
        <ele>910.6</ele>
        <time>2021-09-12T08:19:33.000Z</time>
      </trkpt>
      <trkpt lat="45.06383" lon="2.64085">
        <ele>910.1</ele>
        <time>2021-09-12T08:19:39.000Z</time>
      </trkpt>
      <trkpt lat="45.06382" lon="2.64075">
        <ele>910.2</ele>
        <time>2021-09-12T08:19:47.000Z</time>
      </trkpt>
      <trkpt lat="45.06386" lon="2.64067">
        <ele>909.6</ele>
        <time>2021-09-12T08:19:55.000Z</time>
      </trkpt>
      <trkpt lat="45.0639" lon="2.64058">
        <ele>908.9</ele>
        <time>2021-09-12T08:20:00.000Z</time>
      </trkpt>
      <trkpt lat="45.06395" lon="2.6405">
        <ele>908.2</ele>
        <time>2021-09-12T08:20:05.000Z</time>
      </trkpt>
      <trkpt lat="45.06401" lon="2.64045">
        <ele>907.3</ele>
        <time>2021-09-12T08:20:09.000Z</time>
      </trkpt>
      <trkpt lat="45.06412" lon="2.64037">
        <ele>905.8</ele>
        <time>2021-09-12T08:20:15.000Z</time>
      </trkpt>
      <trkpt lat="45.06422" lon="2.64028">
        <ele>904.9</ele>
        <time>2021-09-12T08:20:21.000Z</time>
      </trkpt>
      <trkpt lat="45.06431" lon="2.64022">
        <ele>904.2</ele>
        <time>2021-09-12T08:20:27.000Z</time>
      </trkpt>
      <trkpt lat="45.06439" lon="2.64023">
        <ele>903.5</ele>
        <time>2021-09-12T08:20:33.000Z</time>
      </trkpt>
      <trkpt lat="45.06446" lon="2.64029">
        <ele>902.9</ele>
        <time>2021-09-12T08:20:39.000Z</time>
      </trkpt>
      <trkpt lat="45.06453" lon="2.64031">
        <ele>902.3</ele>
        <time>2021-09-12T08:20:47.000Z</time>
      </trkpt>
      <trkpt lat="45.06458" lon="2.64018">
        <ele>901.9</ele>
        <time>2021-09-12T08:21:08.000Z</time>
      </trkpt>
      <trkpt lat="45.06463" lon="2.64024">
        <ele>901.5</ele>
        <time>2021-09-12T08:21:31.000Z</time>
      </trkpt>
      <trkpt lat="45.06464" lon="2.64034">
        <ele>901.3</ele>
        <time>2021-09-12T08:21:40.000Z</time>
      </trkpt>
      <trkpt lat="45.06467" lon="2.64042">
        <ele>901.1</ele>
        <time>2021-09-12T08:21:45.000Z</time>
      </trkpt>
      <trkpt lat="45.06466" lon="2.64052">
        <ele>901.1</ele>
        <time>2021-09-12T08:21:56.000Z</time>
      </trkpt>
      <trkpt lat="45.06468" lon="2.64061">
        <ele>901</ele>
        <time>2021-09-12T08:22:05.000Z</time>
      </trkpt>
      <trkpt lat="45.0647" lon="2.64071">
        <ele>900.8</ele>
        <time>2021-09-12T08:22:12.000Z</time>
      </trkpt>
      <trkpt lat="45.06472" lon="2.64081">
        <ele>900.7</ele>
        <time>2021-09-12T08:22:22.000Z</time>
      </trkpt>
      <trkpt lat="45.06475" lon="2.64091">
        <ele>900.4</ele>
        <time>2021-09-12T08:22:28.000Z</time>
      </trkpt>
      <trkpt lat="45.06478" lon="2.64102">
        <ele>900</ele>
        <time>2021-09-12T08:22:33.000Z</time>
      </trkpt>
      <trkpt lat="45.06482" lon="2.6411">
        <ele>899.6</ele>
        <time>2021-09-12T08:23:23.000Z</time>
      </trkpt>
      <trkpt lat="45.06485" lon="2.6412">
        <ele>899.3</ele>
        <time>2021-09-12T08:23:29.000Z</time>
      </trkpt>
      <trkpt lat="45.0649" lon="2.64127">
        <ele>898.7</ele>
        <time>2021-09-12T08:23:34.000Z</time>
      </trkpt>
      <trkpt lat="45.06495" lon="2.64135">
        <ele>898.2</ele>
        <time>2021-09-12T08:23:40.000Z</time>
      </trkpt>
      <trkpt lat="45.06501" lon="2.6414">
        <ele>897.8</ele>
        <time>2021-09-12T08:23:45.000Z</time>
      </trkpt>
      <trkpt lat="45.06508" lon="2.64142">
        <ele>898.8</ele>
        <time>2021-09-12T08:23:53.000Z</time>
      </trkpt>
      <trkpt lat="45.06515" lon="2.64139">
        <ele>899.9</ele>
        <time>2021-09-12T08:24:00.000Z</time>
      </trkpt>
      <trkpt lat="45.06523" lon="2.64136">
        <ele>901.1</ele>
        <time>2021-09-12T08:24:06.000Z</time>
      </trkpt>
      <trkpt lat="45.06529" lon="2.64134">
        <ele>902.1</ele>
        <time>2021-09-12T08:24:11.000Z</time>
      </trkpt>
      <trkpt lat="45.06536" lon="2.64132">
        <ele>903.2</ele>
        <time>2021-09-12T08:24:16.000Z</time>
      </trkpt>
      <trkpt lat="45.06543" lon="2.64131">
        <ele>904.3</ele>
        <time>2021-09-12T08:24:21.000Z</time>
      </trkpt>
      <trkpt lat="45.06551" lon="2.64129">
        <ele>905.5</ele>
        <time>2021-09-12T08:24:27.000Z</time>
      </trkpt>
      <trkpt lat="45.0656" lon="2.6413">
        <ele>906.8</ele>
        <time>2021-09-12T08:24:33.000Z</time>
      </trkpt>
      <trkpt lat="45.06568" lon="2.64133">
        <ele>907.9</ele>
        <time>2021-09-12T08:24:39.000Z</time>
      </trkpt>
      <trkpt lat="45.06578" lon="2.64138">
        <ele>909.2</ele>
        <time>2021-09-12T08:24:45.000Z</time>
      </trkpt>
      <trkpt lat="45.06584" lon="2.64145">
        <ele>909.9</ele>
        <time>2021-09-12T08:24:51.000Z</time>
      </trkpt>
      <trkpt lat="45.06589" lon="2.64153">
        <ele>910.3</ele>
        <time>2021-09-12T08:24:57.000Z</time>
      </trkpt>
      <trkpt lat="45.06591" lon="2.64162">
        <ele>910.2</ele>
        <time>2021-09-12T08:25:04.000Z</time>
      </trkpt>
      <trkpt lat="45.06592" lon="2.64172">
        <ele>910.3</ele>
        <time>2021-09-12T08:25:10.000Z</time>
      </trkpt>
      <trkpt lat="45.06591" lon="2.64183">
        <ele>910.2</ele>
        <time>2021-09-12T08:25:16.000Z</time>
      </trkpt>
      <trkpt lat="45.06593" lon="2.64192">
        <ele>910.5</ele>
        <time>2021-09-12T08:25:22.000Z</time>
      </trkpt>
      <trkpt lat="45.06593" lon="2.64202">
        <ele>910.5</ele>
        <time>2021-09-12T08:25:28.000Z</time>
      </trkpt>
      <trkpt lat="45.06593" lon="2.64212">
        <ele>910.6</ele>
        <time>2021-09-12T08:25:33.000Z</time>
      </trkpt>
      <trkpt lat="45.06591" lon="2.64224">
        <ele>910.3</ele>
        <time>2021-09-12T08:25:39.000Z</time>
      </trkpt>
      <trkpt lat="45.06591" lon="2.64235">
        <ele>910.3</ele>
        <time>2021-09-12T08:25:45.000Z</time>
      </trkpt>
      <trkpt lat="45.06594" lon="2.64245">
        <ele>910.9</ele>
        <time>2021-09-12T08:25:51.000Z</time>
      </trkpt>
      <trkpt lat="45.06595" lon="2.64254">
        <ele>911</ele>
        <time>2021-09-12T08:25:59.000Z</time>
      </trkpt>
      <trkpt lat="45.06595" lon="2.64265">
        <ele>910.7</ele>
        <time>2021-09-12T08:26:05.000Z</time>
      </trkpt>
      <trkpt lat="45.06596" lon="2.64275">
        <ele>910.6</ele>
        <time>2021-09-12T08:26:09.000Z</time>
      </trkpt>
      <trkpt lat="45.066" lon="2.64287">
        <ele>911</ele>
        <time>2021-09-12T08:26:15.000Z</time>
      </trkpt>
      <trkpt lat="45.06603" lon="2.64298">
        <ele>911.3</ele>
        <time>2021-09-12T08:26:21.000Z</time>
      </trkpt>
      <trkpt lat="45.06607" lon="2.64311">
        <ele>911.6</ele>
        <time>2021-09-12T08:26:27.000Z</time>
      </trkpt>
      <trkpt lat="45.06612" lon="2.64323">
        <ele>912.1</ele>
        <time>2021-09-12T08:26:33.000Z</time>
      </trkpt>
      <trkpt lat="45.06616" lon="2.64335">
        <ele>912.4</ele>
        <time>2021-09-12T08:26:39.000Z</time>
      </trkpt>
      <trkpt lat="45.06619" lon="2.64343">
        <ele>912.7</ele>
        <time>2021-09-12T08:26:45.000Z</time>
      </trkpt>
      <trkpt lat="45.06623" lon="2.64351">
        <ele>913.1</ele>
        <time>2021-09-12T08:26:51.000Z</time>
      </trkpt>
      <trkpt lat="45.06629" lon="2.64356">
        <ele>914</ele>
        <time>2021-09-12T08:27:00.000Z</time>
      </trkpt>
      <trkpt lat="45.06635" lon="2.64361">
        <ele>914.7</ele>
        <time>2021-09-12T08:27:06.000Z</time>
      </trkpt>
      <trkpt lat="45.06643" lon="2.64364">
        <ele>915.9</ele>
        <time>2021-09-12T08:27:12.000Z</time>
      </trkpt>
      <trkpt lat="45.06648" lon="2.64371">
        <ele>916.4</ele>
        <time>2021-09-12T08:27:17.000Z</time>
      </trkpt>
      <trkpt lat="45.06654" lon="2.64376">
        <ele>917.1</ele>
        <time>2021-09-12T08:27:22.000Z</time>
      </trkpt>
      <trkpt lat="45.06662" lon="2.64384">
        <ele>917.9</ele>
        <time>2021-09-12T08:27:27.000Z</time>
      </trkpt>
      <trkpt lat="45.06673" lon="2.64393">
        <ele>919.3</ele>
        <time>2021-09-12T08:27:33.000Z</time>
      </trkpt>
      <trkpt lat="45.06684" lon="2.64402">
        <ele>920.9</ele>
        <time>2021-09-12T08:27:39.000Z</time>
      </trkpt>
      <trkpt lat="45.06692" lon="2.64408">
        <ele>922</ele>
        <time>2021-09-12T08:27:45.000Z</time>
      </trkpt>
      <trkpt lat="45.06694" lon="2.64418">
        <ele>921.9</ele>
        <time>2021-09-12T08:27:52.000Z</time>
      </trkpt>
      <trkpt lat="45.06694" lon="2.64428">
        <ele>921.6</ele>
        <time>2021-09-12T08:27:59.000Z</time>
      </trkpt>
      <trkpt lat="45.06696" lon="2.64437">
        <ele>921.8</ele>
        <time>2021-09-12T08:28:06.000Z</time>
      </trkpt>
      <trkpt lat="45.06697" lon="2.64446">
        <ele>921.8</ele>
        <time>2021-09-12T08:28:12.000Z</time>
      </trkpt>
      <trkpt lat="45.06696" lon="2.64456">
        <ele>921.3</ele>
        <time>2021-09-12T08:28:17.000Z</time>
      </trkpt>
      <trkpt lat="45.06696" lon="2.64469">
        <ele>921</ele>
        <time>2021-09-12T08:28:22.000Z</time>
      </trkpt>
      <trkpt lat="45.06692" lon="2.64481">
        <ele>920</ele>
        <time>2021-09-12T08:28:27.000Z</time>
      </trkpt>
      <trkpt lat="45.06689" lon="2.64492">
        <ele>919.2</ele>
        <time>2021-09-12T08:28:34.000Z</time>
      </trkpt>
      <trkpt lat="45.06683" lon="2.64497">
        <ele>918</ele>
        <time>2021-09-12T08:28:43.000Z</time>
      </trkpt>
      <trkpt lat="45.06691" lon="2.64499">
        <ele>919.4</ele>
        <time>2021-09-12T08:28:52.000Z</time>
      </trkpt>
      <trkpt lat="45.06691" lon="2.64508">
        <ele>919</ele>
        <time>2021-09-12T08:29:17.000Z</time>
      </trkpt>
      <trkpt lat="45.06689" lon="2.64518">
        <ele>918.1</ele>
        <time>2021-09-12T08:29:26.000Z</time>
      </trkpt>
      <trkpt lat="45.06691" lon="2.64529">
        <ele>917.9</ele>
        <time>2021-09-12T08:29:42.000Z</time>
      </trkpt>
      <trkpt lat="45.06692" lon="2.64539">
        <ele>917.6</ele>
        <time>2021-09-12T08:29:48.000Z</time>
      </trkpt>
      <trkpt lat="45.06695" lon="2.64548">
        <ele>917.6</ele>
        <time>2021-09-12T08:29:53.000Z</time>
      </trkpt>
      <trkpt lat="45.06699" lon="2.64558">
        <ele>917.7</ele>
        <time>2021-09-12T08:29:58.000Z</time>
      </trkpt>
      <trkpt lat="45.06703" lon="2.64566">
        <ele>917.8</ele>
        <time>2021-09-12T08:30:08.000Z</time>
      </trkpt>
      <trkpt lat="45.06703" lon="2.64576">
        <ele>917.2</ele>
        <time>2021-09-12T08:30:12.000Z</time>
      </trkpt>
      <trkpt lat="45.06705" lon="2.64587">
        <ele>916.9</ele>
        <time>2021-09-12T08:30:16.000Z</time>
      </trkpt>
      <trkpt lat="45.06707" lon="2.64596">
        <ele>916.9</ele>
        <time>2021-09-12T08:30:21.000Z</time>
      </trkpt>
      <trkpt lat="45.0671" lon="2.64608">
        <ele>916.8</ele>
        <time>2021-09-12T08:30:27.000Z</time>
      </trkpt>
      <trkpt lat="45.06713" lon="2.64622">
        <ele>916.5</ele>
        <time>2021-09-12T08:30:33.000Z</time>
      </trkpt>
      <trkpt lat="45.06719" lon="2.64634">
        <ele>916.3</ele>
        <time>2021-09-12T08:30:39.000Z</time>
      </trkpt>
      <trkpt lat="45.06722" lon="2.64646">
        <ele>915.8</ele>
        <time>2021-09-12T08:30:45.000Z</time>
      </trkpt>
      <trkpt lat="45.06725" lon="2.64656">
        <ele>915.3</ele>
        <time>2021-09-12T08:30:51.000Z</time>
      </trkpt>
      <trkpt lat="45.06729" lon="2.64665">
        <ele>914.9</ele>
        <time>2021-09-12T08:30:57.000Z</time>
      </trkpt>
      <trkpt lat="45.06732" lon="2.64675">
        <ele>914.5</ele>
        <time>2021-09-12T08:31:03.000Z</time>
      </trkpt>
      <trkpt lat="45.06735" lon="2.64686">
        <ele>914.2</ele>
        <time>2021-09-12T08:31:09.000Z</time>
      </trkpt>
      <trkpt lat="45.06737" lon="2.64697">
        <ele>913.8</ele>
        <time>2021-09-12T08:31:15.000Z</time>
      </trkpt>
      <trkpt lat="45.06739" lon="2.64706">
        <ele>913.4</ele>
        <time>2021-09-12T08:31:21.000Z</time>
      </trkpt>
      <trkpt lat="45.06743" lon="2.64715">
        <ele>912.9</ele>
        <time>2021-09-12T08:31:27.000Z</time>
      </trkpt>
      <trkpt lat="45.06746" lon="2.64727">
        <ele>912.3</ele>
        <time>2021-09-12T08:31:33.000Z</time>
      </trkpt>
      <trkpt lat="45.06748" lon="2.6474">
        <ele>911.6</ele>
        <time>2021-09-12T08:31:39.000Z</time>
      </trkpt>
      <trkpt lat="45.0675" lon="2.6475">
        <ele>911</ele>
        <time>2021-09-12T08:31:46.000Z</time>
      </trkpt>
      <trkpt lat="45.06753" lon="2.6476">
        <ele>911.8</ele>
        <time>2021-09-12T08:31:53.000Z</time>
      </trkpt>
      <trkpt lat="45.06754" lon="2.6477">
        <ele>912.2</ele>
        <time>2021-09-12T08:31:58.000Z</time>
      </trkpt>
      <trkpt lat="45.06757" lon="2.64779">
        <ele>912.8</ele>
        <time>2021-09-12T08:32:05.000Z</time>
      </trkpt>
      <trkpt lat="45.06758" lon="2.64789">
        <ele>913.1</ele>
        <time>2021-09-12T08:32:12.000Z</time>
      </trkpt>
      <trkpt lat="45.0676" lon="2.64799">
        <ele>913.5</ele>
        <time>2021-09-12T08:32:16.000Z</time>
      </trkpt>
      <trkpt lat="45.06763" lon="2.64811">
        <ele>914</ele>
        <time>2021-09-12T08:32:21.000Z</time>
      </trkpt>
      <trkpt lat="45.06764" lon="2.64821">
        <ele>914.2</ele>
        <time>2021-09-12T08:32:27.000Z</time>
      </trkpt>
      <trkpt lat="45.06766" lon="2.64832">
        <ele>914.5</ele>
        <time>2021-09-12T08:32:33.000Z</time>
      </trkpt>
      <trkpt lat="45.06765" lon="2.64845">
        <ele>914.4</ele>
        <time>2021-09-12T08:32:39.000Z</time>
      </trkpt>
      <trkpt lat="45.06763" lon="2.64859">
        <ele>914.2</ele>
        <time>2021-09-12T08:32:45.000Z</time>
      </trkpt>
      <trkpt lat="45.06759" lon="2.64869">
        <ele>913.8</ele>
        <time>2021-09-12T08:32:51.000Z</time>
      </trkpt>
      <trkpt lat="45.06758" lon="2.6488">
        <ele>913.7</ele>
        <time>2021-09-12T08:32:57.000Z</time>
      </trkpt>
      <trkpt lat="45.06759" lon="2.64891">
        <ele>913.7</ele>
        <time>2021-09-12T08:33:03.000Z</time>
      </trkpt>
      <trkpt lat="45.06761" lon="2.64904">
        <ele>913.8</ele>
        <time>2021-09-12T08:33:09.000Z</time>
      </trkpt>
      <trkpt lat="45.06762" lon="2.64913">
        <ele>913.9</ele>
        <time>2021-09-12T08:33:16.000Z</time>
      </trkpt>
      <trkpt lat="45.06767" lon="2.64922">
        <ele>914.5</ele>
        <time>2021-09-12T08:33:28.000Z</time>
      </trkpt>
      <trkpt lat="45.06773" lon="2.64927">
        <ele>915.1</ele>
        <time>2021-09-12T08:33:36.000Z</time>
      </trkpt>
      <trkpt lat="45.06778" lon="2.64933">
        <ele>915.7</ele>
        <time>2021-09-12T08:33:46.000Z</time>
      </trkpt>
      <trkpt lat="45.06781" lon="2.64942">
        <ele>916.2</ele>
        <time>2021-09-12T08:33:59.000Z</time>
      </trkpt>
      <trkpt lat="45.06784" lon="2.64951">
        <ele>916.7</ele>
        <time>2021-09-12T08:34:05.000Z</time>
      </trkpt>
      <trkpt lat="45.06789" lon="2.64958">
        <ele>917.1</ele>
        <time>2021-09-12T08:34:11.000Z</time>
      </trkpt>
      <trkpt lat="45.06794" lon="2.64964">
        <ele>917.5</ele>
        <time>2021-09-12T08:34:19.000Z</time>
      </trkpt>
      <trkpt lat="45.06798" lon="2.64971">
        <ele>917.8</ele>
        <time>2021-09-12T08:34:26.000Z</time>
      </trkpt>
      <trkpt lat="45.06802" lon="2.64979">
        <ele>918.2</ele>
        <time>2021-09-12T08:34:32.000Z</time>
      </trkpt>
      <trkpt lat="45.06806" lon="2.64987">
        <ele>918.4</ele>
        <time>2021-09-12T08:34:37.000Z</time>
      </trkpt>
      <trkpt lat="45.06807" lon="2.64997">
        <ele>918.6</ele>
        <time>2021-09-12T08:34:43.000Z</time>
      </trkpt>
      <trkpt lat="45.0681" lon="2.65008">
        <ele>918.8</ele>
        <time>2021-09-12T08:34:50.000Z</time>
      </trkpt>
      <trkpt lat="45.06811" lon="2.65019">
        <ele>919</ele>
        <time>2021-09-12T08:34:54.000Z</time>
      </trkpt>
      <trkpt lat="45.0681" lon="2.65029">
        <ele>919.1</ele>
        <time>2021-09-12T08:34:58.000Z</time>
      </trkpt>
      <trkpt lat="45.06815" lon="2.65036">
        <ele>919.2</ele>
        <time>2021-09-12T08:35:05.000Z</time>
      </trkpt>
      <trkpt lat="45.0682" lon="2.65044">
        <ele>919.2</ele>
        <time>2021-09-12T08:35:13.000Z</time>
      </trkpt>
      <trkpt lat="45.06825" lon="2.65051">
        <ele>919.1</ele>
        <time>2021-09-12T08:35:18.000Z</time>
      </trkpt>
      <trkpt lat="45.06828" lon="2.65059">
        <ele>919.1</ele>
        <time>2021-09-12T08:35:23.000Z</time>
      </trkpt>
      <trkpt lat="45.06829" lon="2.6507">
        <ele>919.1</ele>
        <time>2021-09-12T08:35:28.000Z</time>
      </trkpt>
      <trkpt lat="45.06832" lon="2.65083">
        <ele>919</ele>
        <time>2021-09-12T08:35:33.000Z</time>
      </trkpt>
      <trkpt lat="45.06835" lon="2.65097">
        <ele>918.9</ele>
        <time>2021-09-12T08:35:39.000Z</time>
      </trkpt>
      <trkpt lat="45.06837" lon="2.65108">
        <ele>918.9</ele>
        <time>2021-09-12T08:35:45.000Z</time>
      </trkpt>
      <trkpt lat="45.0684" lon="2.65122">
        <ele>918.9</ele>
        <time>2021-09-12T08:35:51.000Z</time>
      </trkpt>
      <trkpt lat="45.06842" lon="2.65137">
        <ele>918.7</ele>
        <time>2021-09-12T08:35:57.000Z</time>
      </trkpt>
      <trkpt lat="45.06845" lon="2.6515">
        <ele>918.7</ele>
        <time>2021-09-12T08:36:03.000Z</time>
      </trkpt>
      <trkpt lat="45.06846" lon="2.65162">
        <ele>918.3</ele>
        <time>2021-09-12T08:36:09.000Z</time>
      </trkpt>
      <trkpt lat="45.06851" lon="2.65176">
        <ele>919</ele>
        <time>2021-09-12T08:36:15.000Z</time>
      </trkpt>
      <trkpt lat="45.06854" lon="2.65193">
        <ele>919.5</ele>
        <time>2021-09-12T08:36:21.000Z</time>
      </trkpt>
      <trkpt lat="45.06856" lon="2.65211">
        <ele>919.8</ele>
        <time>2021-09-12T08:36:27.000Z</time>
      </trkpt>
      <trkpt lat="45.06858" lon="2.6523">
        <ele>920.1</ele>
        <time>2021-09-12T08:36:33.000Z</time>
      </trkpt>
      <trkpt lat="45.06858" lon="2.6525">
        <ele>920.1</ele>
        <time>2021-09-12T08:36:39.000Z</time>
      </trkpt>
      <trkpt lat="45.06858" lon="2.65265">
        <ele>920.5</ele>
        <time>2021-09-12T08:36:45.000Z</time>
      </trkpt>
      <trkpt lat="45.06858" lon="2.65279">
        <ele>920.9</ele>
        <time>2021-09-12T08:36:51.000Z</time>
      </trkpt>
      <trkpt lat="45.0686" lon="2.65289">
        <ele>921.4</ele>
        <time>2021-09-12T08:36:57.000Z</time>
      </trkpt>
      <trkpt lat="45.06861" lon="2.65299">
        <ele>921.8</ele>
        <time>2021-09-12T08:37:04.000Z</time>
      </trkpt>
      <trkpt lat="45.06862" lon="2.6531">
        <ele>922.2</ele>
        <time>2021-09-12T08:37:10.000Z</time>
      </trkpt>
      <trkpt lat="45.06864" lon="2.65318">
        <ele>922.7</ele>
        <time>2021-09-12T08:37:18.000Z</time>
      </trkpt>
      <trkpt lat="45.0687" lon="2.65324">
        <ele>923.7</ele>
        <time>2021-09-12T08:37:25.000Z</time>
      </trkpt>
      <trkpt lat="45.06873" lon="2.65316">
        <ele>923.9</ele>
        <time>2021-09-12T08:37:31.000Z</time>
      </trkpt>
      <trkpt lat="45.06878" lon="2.65309">
        <ele>924.5</ele>
        <time>2021-09-12T08:37:39.000Z</time>
      </trkpt>
      <trkpt lat="45.0688" lon="2.653">
        <ele>924.6</ele>
        <time>2021-09-12T08:37:53.000Z</time>
      </trkpt>
      <trkpt lat="45.06886" lon="2.65307">
        <ele>925.6</ele>
        <time>2021-09-12T08:38:11.000Z</time>
      </trkpt>
      <trkpt lat="45.06886" lon="2.65317">
        <ele>925.7</ele>
        <time>2021-09-12T08:38:16.000Z</time>
      </trkpt>
      <trkpt lat="45.06889" lon="2.65325">
        <ele>926.2</ele>
        <time>2021-09-12T08:38:23.000Z</time>
      </trkpt>
      <trkpt lat="45.06893" lon="2.65334">
        <ele>926.9</ele>
        <time>2021-09-12T08:38:30.000Z</time>
      </trkpt>
      <trkpt lat="45.06894" lon="2.65346">
        <ele>927.1</ele>
        <time>2021-09-12T08:38:35.000Z</time>
      </trkpt>
      <trkpt lat="45.06898" lon="2.65355">
        <ele>927.6</ele>
        <time>2021-09-12T08:38:40.000Z</time>
      </trkpt>
      <trkpt lat="45.06901" lon="2.65363">
        <ele>927.9</ele>
        <time>2021-09-12T08:38:46.000Z</time>
      </trkpt>
      <trkpt lat="45.06904" lon="2.65377">
        <ele>928.1</ele>
        <time>2021-09-12T08:38:51.000Z</time>
      </trkpt>
      <trkpt lat="45.06907" lon="2.65394">
        <ele>928.1</ele>
        <time>2021-09-12T08:38:57.000Z</time>
      </trkpt>
      <trkpt lat="45.06912" lon="2.65411">
        <ele>928</ele>
        <time>2021-09-12T08:39:03.000Z</time>
      </trkpt>
      <trkpt lat="45.06918" lon="2.65425">
        <ele>927.8</ele>
        <time>2021-09-12T08:39:09.000Z</time>
      </trkpt>
      <trkpt lat="45.06919" lon="2.65435">
        <ele>927.4</ele>
        <time>2021-09-12T08:39:15.000Z</time>
      </trkpt>
      <trkpt lat="45.06919" lon="2.65446">
        <ele>926.8</ele>
        <time>2021-09-12T08:39:21.000Z</time>
      </trkpt>
      <trkpt lat="45.06918" lon="2.65457">
        <ele>925.9</ele>
        <time>2021-09-12T08:39:27.000Z</time>
      </trkpt>
      <trkpt lat="45.06919" lon="2.65467">
        <ele>925.5</ele>
        <time>2021-09-12T08:39:33.000Z</time>
      </trkpt>
      <trkpt lat="45.06923" lon="2.65476">
        <ele>925.7</ele>
        <time>2021-09-12T08:39:39.000Z</time>
      </trkpt>
      <trkpt lat="45.06927" lon="2.65487">
        <ele>925.7</ele>
        <time>2021-09-12T08:39:45.000Z</time>
      </trkpt>
      <trkpt lat="45.06935" lon="2.65493">
        <ele>926.8</ele>
        <time>2021-09-12T08:39:51.000Z</time>
      </trkpt>
      <trkpt lat="45.06941" lon="2.65497">
        <ele>927.6</ele>
        <time>2021-09-12T08:39:57.000Z</time>
      </trkpt>
      <trkpt lat="45.0695" lon="2.65501">
        <ele>928.9</ele>
        <time>2021-09-12T08:40:03.000Z</time>
      </trkpt>
      <trkpt lat="45.06961" lon="2.65503">
        <ele>930.7</ele>
        <time>2021-09-12T08:40:09.000Z</time>
      </trkpt>
      <trkpt lat="45.06969" lon="2.65509">
        <ele>931.5</ele>
        <time>2021-09-12T08:40:15.000Z</time>
      </trkpt>
      <trkpt lat="45.06975" lon="2.65515">
        <ele>931.7</ele>
        <time>2021-09-12T08:40:24.000Z</time>
      </trkpt>
      <trkpt lat="45.0698" lon="2.65523">
        <ele>931.5</ele>
        <time>2021-09-12T08:40:30.000Z</time>
      </trkpt>
      <trkpt lat="45.06986" lon="2.65529">
        <ele>931.4</ele>
        <time>2021-09-12T08:40:35.000Z</time>
      </trkpt>
      <trkpt lat="45.0699" lon="2.65538">
        <ele>930.6</ele>
        <time>2021-09-12T08:40:41.000Z</time>
      </trkpt>
      <trkpt lat="45.06993" lon="2.65551">
        <ele>928.9</ele>
        <time>2021-09-12T08:40:46.000Z</time>
      </trkpt>
      <trkpt lat="45.06998" lon="2.65565">
        <ele>927</ele>
        <time>2021-09-12T08:40:51.000Z</time>
      </trkpt>
      <trkpt lat="45.06998" lon="2.65576">
        <ele>925.2</ele>
        <time>2021-09-12T08:40:57.000Z</time>
      </trkpt>
      <trkpt lat="45.06999" lon="2.65585">
        <ele>924</ele>
        <time>2021-09-12T08:41:18.000Z</time>
      </trkpt>
      <trkpt lat="45.07004" lon="2.65593">
        <ele>924.7</ele>
        <time>2021-09-12T08:41:25.000Z</time>
      </trkpt>
      <trkpt lat="45.0701" lon="2.65598">
        <ele>925.7</ele>
        <time>2021-09-12T08:41:30.000Z</time>
      </trkpt>
      <trkpt lat="45.07016" lon="2.65603">
        <ele>926.7</ele>
        <time>2021-09-12T08:41:41.000Z</time>
      </trkpt>
      <trkpt lat="45.0702" lon="2.65611">
        <ele>927</ele>
        <time>2021-09-12T08:42:05.000Z</time>
      </trkpt>
      <trkpt lat="45.07027" lon="2.65613">
        <ele>928.1</ele>
        <time>2021-09-12T08:42:12.000Z</time>
      </trkpt>
      <trkpt lat="45.07034" lon="2.65614">
        <ele>929.2</ele>
        <time>2021-09-12T08:42:17.000Z</time>
      </trkpt>
      <trkpt lat="45.0704" lon="2.65618">
        <ele>929.8</ele>
        <time>2021-09-12T08:42:21.000Z</time>
      </trkpt>
      <trkpt lat="45.07047" lon="2.65629">
        <ele>929.9</ele>
        <time>2021-09-12T08:42:27.000Z</time>
      </trkpt>
      <trkpt lat="45.07047" lon="2.65646">
        <ele>928.3</ele>
        <time>2021-09-12T08:42:33.000Z</time>
      </trkpt>
      <trkpt lat="45.07041" lon="2.65656">
        <ele>926.8</ele>
        <time>2021-09-12T08:42:39.000Z</time>
      </trkpt>
      <trkpt lat="45.07034" lon="2.65662">
        <ele>925.8</ele>
        <time>2021-09-12T08:42:46.000Z</time>
      </trkpt>
      <trkpt lat="45.0703" lon="2.6567">
        <ele>925.2</ele>
        <time>2021-09-12T08:42:52.000Z</time>
      </trkpt>
      <trkpt lat="45.07024" lon="2.65678">
        <ele>924.9</ele>
        <time>2021-09-12T08:42:59.000Z</time>
      </trkpt>
      <trkpt lat="45.07019" lon="2.65683">
        <ele>924.7</ele>
        <time>2021-09-12T08:43:04.000Z</time>
      </trkpt>
      <trkpt lat="45.07013" lon="2.65689">
        <ele>924.6</ele>
        <time>2021-09-12T08:43:09.000Z</time>
      </trkpt>
      <trkpt lat="45.07007" lon="2.65692">
        <ele>924.5</ele>
        <time>2021-09-12T08:43:15.000Z</time>
      </trkpt>
      <trkpt lat="45.07003" lon="2.65702">
        <ele>924.8</ele>
        <time>2021-09-12T08:43:21.000Z</time>
      </trkpt>
      <trkpt lat="45.06998" lon="2.65708">
        <ele>925</ele>
        <time>2021-09-12T08:43:28.000Z</time>
      </trkpt>
      <trkpt lat="45.06998" lon="2.65719">
        <ele>925.6</ele>
        <time>2021-09-12T08:43:36.000Z</time>
      </trkpt>
      <trkpt lat="45.06993" lon="2.65726">
        <ele>926</ele>
        <time>2021-09-12T08:43:47.000Z</time>
      </trkpt>
      <trkpt lat="45.06988" lon="2.65732">
        <ele>926.5</ele>
        <time>2021-09-12T08:43:55.000Z</time>
      </trkpt>
      <trkpt lat="45.06988" lon="2.65741">
        <ele>926.9</ele>
        <time>2021-09-12T08:44:04.000Z</time>
      </trkpt>
      <trkpt lat="45.0698" lon="2.65754">
        <ele>927.7</ele>
        <time>2021-09-12T08:44:09.000Z</time>
      </trkpt>
      <trkpt lat="45.06975" lon="2.65761">
        <ele>928.2</ele>
        <time>2021-09-12T08:44:15.000Z</time>
      </trkpt>
      <trkpt lat="45.0697" lon="2.65766">
        <ele>928.6</ele>
        <time>2021-09-12T08:44:25.000Z</time>
      </trkpt>
      <trkpt lat="45.06966" lon="2.65774">
        <ele>929.2</ele>
        <time>2021-09-12T08:44:32.000Z</time>
      </trkpt>
      <trkpt lat="45.06959" lon="2.65769">
        <ele>929.1</ele>
        <time>2021-09-12T08:45:01.000Z</time>
      </trkpt>
      <trkpt lat="45.06951" lon="2.65771">
        <ele>929.5</ele>
        <time>2021-09-12T08:45:10.000Z</time>
      </trkpt>
      <trkpt lat="45.06943" lon="2.65775">
        <ele>930</ele>
        <time>2021-09-12T08:45:15.000Z</time>
      </trkpt>
      <trkpt lat="45.06932" lon="2.65772">
        <ele>930.1</ele>
        <time>2021-09-12T08:45:21.000Z</time>
      </trkpt>
      <trkpt lat="45.0692" lon="2.65765">
        <ele>930</ele>
        <time>2021-09-12T08:45:27.000Z</time>
      </trkpt>
      <trkpt lat="45.06911" lon="2.65759">
        <ele>930.6</ele>
        <time>2021-09-12T08:45:33.000Z</time>
      </trkpt>
      <trkpt lat="45.06906" lon="2.65753">
        <ele>931</ele>
        <time>2021-09-12T08:45:39.000Z</time>
      </trkpt>
      <trkpt lat="45.06901" lon="2.65747">
        <ele>931.5</ele>
        <time>2021-09-12T08:45:46.000Z</time>
      </trkpt>
      <trkpt lat="45.069" lon="2.65757">
        <ele>932.3</ele>
        <time>2021-09-12T08:46:12.000Z</time>
      </trkpt>
      <trkpt lat="45.06905" lon="2.65764">
        <ele>932</ele>
        <time>2021-09-12T08:46:18.000Z</time>
      </trkpt>
      <trkpt lat="45.06912" lon="2.65766">
        <ele>931</ele>
        <time>2021-09-12T08:46:33.000Z</time>
      </trkpt>
      <trkpt lat="45.06918" lon="2.65773">
        <ele>930.6</ele>
        <time>2021-09-12T08:46:39.000Z</time>
      </trkpt>
      <trkpt lat="45.06921" lon="2.65784">
        <ele>931.3</ele>
        <time>2021-09-12T08:46:45.000Z</time>
      </trkpt>
      <trkpt lat="45.06923" lon="2.65797">
        <ele>932.1</ele>
        <time>2021-09-12T08:46:51.000Z</time>
      </trkpt>
      <trkpt lat="45.06921" lon="2.65806">
        <ele>932.9</ele>
        <time>2021-09-12T08:46:58.000Z</time>
      </trkpt>
      <trkpt lat="45.06925" lon="2.65813">
        <ele>933.2</ele>
        <time>2021-09-12T08:47:13.000Z</time>
      </trkpt>
      <trkpt lat="45.06925" lon="2.65823">
        <ele>933.9</ele>
        <time>2021-09-12T08:47:25.000Z</time>
      </trkpt>
      <trkpt lat="45.06928" lon="2.65831">
        <ele>934.3</ele>
        <time>2021-09-12T08:48:11.000Z</time>
      </trkpt>
      <trkpt lat="45.06925" lon="2.65841">
        <ele>935.4</ele>
        <time>2021-09-12T08:48:18.000Z</time>
      </trkpt>
      <trkpt lat="45.06931" lon="2.65842">
        <ele>935.2</ele>
        <time>2021-09-12T08:48:38.000Z</time>
      </trkpt>
      <trkpt lat="45.06937" lon="2.65848">
        <ele>935.5</ele>
        <time>2021-09-12T08:48:45.000Z</time>
      </trkpt>
      <trkpt lat="45.06943" lon="2.65859">
        <ele>936.2</ele>
        <time>2021-09-12T08:48:51.000Z</time>
      </trkpt>
      <trkpt lat="45.06948" lon="2.65867">
        <ele>936.7</ele>
        <time>2021-09-12T08:48:57.000Z</time>
      </trkpt>
      <trkpt lat="45.06951" lon="2.65878">
        <ele>937.5</ele>
        <time>2021-09-12T08:49:03.000Z</time>
      </trkpt>
      <trkpt lat="45.06956" lon="2.65887">
        <ele>938</ele>
        <time>2021-09-12T08:49:09.000Z</time>
      </trkpt>
      <trkpt lat="45.0696" lon="2.65894">
        <ele>938.3</ele>
        <time>2021-09-12T08:49:16.000Z</time>
      </trkpt>
      <trkpt lat="45.06965" lon="2.659">
        <ele>938.5</ele>
        <time>2021-09-12T08:49:25.000Z</time>
      </trkpt>
      <trkpt lat="45.06972" lon="2.65899">
        <ele>937.9</ele>
        <time>2021-09-12T08:49:32.000Z</time>
      </trkpt>
      <trkpt lat="45.06978" lon="2.65896">
        <ele>937.2</ele>
        <time>2021-09-12T08:49:45.000Z</time>
      </trkpt>
      <trkpt lat="45.06974" lon="2.65903">
        <ele>938</ele>
        <time>2021-09-12T08:49:58.000Z</time>
      </trkpt>
      <trkpt lat="45.0698" lon="2.6591">
        <ele>938.1</ele>
        <time>2021-09-12T08:50:05.000Z</time>
      </trkpt>
      <trkpt lat="45.06986" lon="2.65915">
        <ele>938</ele>
        <time>2021-09-12T08:50:08.000Z</time>
      </trkpt>
      <trkpt lat="45.0699" lon="2.6593">
        <ele>938</ele>
        <time>2021-09-12T08:50:14.000Z</time>
      </trkpt>
      <trkpt lat="45.06993" lon="2.65943">
        <ele>937.7</ele>
        <time>2021-09-12T08:50:20.000Z</time>
      </trkpt>
      <trkpt lat="45.06998" lon="2.65952">
        <ele>937.2</ele>
        <time>2021-09-12T08:50:26.000Z</time>
      </trkpt>
      <trkpt lat="45.07002" lon="2.6596">
        <ele>936.8</ele>
        <time>2021-09-12T08:50:34.000Z</time>
      </trkpt>
      <trkpt lat="45.07006" lon="2.65968">
        <ele>936.5</ele>
        <time>2021-09-12T08:50:42.000Z</time>
      </trkpt>
      <trkpt lat="45.07006" lon="2.65979">
        <ele>936.5</ele>
        <time>2021-09-12T08:50:46.000Z</time>
      </trkpt>
      <trkpt lat="45.07005" lon="2.6599">
        <ele>936.6</ele>
        <time>2021-09-12T08:50:50.000Z</time>
      </trkpt>
      <trkpt lat="45.07006" lon="2.66002">
        <ele>936.8</ele>
        <time>2021-09-12T08:50:56.000Z</time>
      </trkpt>
      <trkpt lat="45.0701" lon="2.6601">
        <ele>937.4</ele>
        <time>2021-09-12T08:51:04.000Z</time>
      </trkpt>
      <trkpt lat="45.07013" lon="2.6602">
        <ele>938.2</ele>
        <time>2021-09-12T08:51:10.000Z</time>
      </trkpt>
      <trkpt lat="45.07015" lon="2.66034">
        <ele>939.6</ele>
        <time>2021-09-12T08:51:14.000Z</time>
      </trkpt>
      <trkpt lat="45.07015" lon="2.66054">
        <ele>941.7</ele>
        <time>2021-09-12T08:51:20.000Z</time>
      </trkpt>
      <trkpt lat="45.07015" lon="2.66071">
        <ele>943.5</ele>
        <time>2021-09-12T08:51:26.000Z</time>
      </trkpt>
      <trkpt lat="45.07016" lon="2.66084">
        <ele>944.8</ele>
        <time>2021-09-12T08:51:32.000Z</time>
      </trkpt>
      <trkpt lat="45.07018" lon="2.66096">
        <ele>946.8</ele>
        <time>2021-09-12T08:51:38.000Z</time>
      </trkpt>
      <trkpt lat="45.07023" lon="2.66103">
        <ele>947.2</ele>
        <time>2021-09-12T08:51:45.000Z</time>
      </trkpt>
      <trkpt lat="45.0703" lon="2.66107">
        <ele>946.8</ele>
        <time>2021-09-12T08:51:52.000Z</time>
      </trkpt>
      <trkpt lat="45.07038" lon="2.66112">
        <ele>946.3</ele>
        <time>2021-09-12T08:52:00.000Z</time>
      </trkpt>
      <trkpt lat="45.07044" lon="2.66117">
        <ele>946</ele>
        <time>2021-09-12T08:52:05.000Z</time>
      </trkpt>
      <trkpt lat="45.07048" lon="2.66125">
        <ele>946.6</ele>
        <time>2021-09-12T08:52:11.000Z</time>
      </trkpt>
      <trkpt lat="45.07054" lon="2.66128">
        <ele>945.9</ele>
        <time>2021-09-12T08:52:20.000Z</time>
      </trkpt>
      <trkpt lat="45.07062" lon="2.66132">
        <ele>945</ele>
        <time>2021-09-12T08:52:26.000Z</time>
      </trkpt>
      <trkpt lat="45.07067" lon="2.66156">
        <ele>947.3</ele>
        <time>2021-09-12T08:52:32.000Z</time>
      </trkpt>
      <trkpt lat="45.07074" lon="2.66164">
        <ele>946.8</ele>
        <time>2021-09-12T08:52:37.000Z</time>
      </trkpt>
      <trkpt lat="45.07079" lon="2.66172">
        <ele>946.8</ele>
        <time>2021-09-12T08:52:43.000Z</time>
      </trkpt>
      <trkpt lat="45.07088" lon="2.66174">
        <ele>945.3</ele>
        <time>2021-09-12T08:52:50.000Z</time>
      </trkpt>
      <trkpt lat="45.07094" lon="2.66171">
        <ele>944</ele>
        <time>2021-09-12T08:52:56.000Z</time>
      </trkpt>
      <trkpt lat="45.07096" lon="2.66162">
        <ele>942.7</ele>
        <time>2021-09-12T08:53:15.000Z</time>
      </trkpt>
      <trkpt lat="45.07101" lon="2.66167">
        <ele>942.5</ele>
        <time>2021-09-12T08:53:50.000Z</time>
      </trkpt>
      <trkpt lat="45.07108" lon="2.66171">
        <ele>942</ele>
        <time>2021-09-12T08:53:57.000Z</time>
      </trkpt>
      <trkpt lat="45.07112" lon="2.66179">
        <ele>942.3</ele>
        <time>2021-09-12T08:54:02.000Z</time>
      </trkpt>
      <trkpt lat="45.07116" lon="2.66188">
        <ele>942.7</ele>
        <time>2021-09-12T08:54:07.000Z</time>
      </trkpt>
      <trkpt lat="45.07117" lon="2.66198">
        <ele>943.6</ele>
        <time>2021-09-12T08:54:13.000Z</time>
      </trkpt>
      <trkpt lat="45.07127" lon="2.66204">
        <ele>942.4</ele>
        <time>2021-09-12T08:54:22.000Z</time>
      </trkpt>
      <trkpt lat="45.07134" lon="2.66205">
        <ele>941.3</ele>
        <time>2021-09-12T08:54:28.000Z</time>
      </trkpt>
      <trkpt lat="45.07141" lon="2.66208">
        <ele>940.2</ele>
        <time>2021-09-12T08:54:34.000Z</time>
      </trkpt>
      <trkpt lat="45.07145" lon="2.66215">
        <ele>940.1</ele>
        <time>2021-09-12T08:55:01.000Z</time>
      </trkpt>
      <trkpt lat="45.07152" lon="2.66221">
        <ele>939.2</ele>
        <time>2021-09-12T08:55:06.000Z</time>
      </trkpt>
      <trkpt lat="45.07159" lon="2.66227">
        <ele>938.2</ele>
        <time>2021-09-12T08:55:11.000Z</time>
      </trkpt>
      <trkpt lat="45.07159" lon="2.66238">
        <ele>938.9</ele>
        <time>2021-09-12T08:55:47.000Z</time>
      </trkpt>
      <trkpt lat="45.07164" lon="2.66244">
        <ele>938.2</ele>
        <time>2021-09-12T08:55:52.000Z</time>
      </trkpt>
      <trkpt lat="45.0717" lon="2.66248">
        <ele>937.7</ele>
        <time>2021-09-12T08:55:57.000Z</time>
      </trkpt>
      <trkpt lat="45.07179" lon="2.66251">
        <ele>937.4</ele>
        <time>2021-09-12T08:56:03.000Z</time>
      </trkpt>
      <trkpt lat="45.07188" lon="2.6626">
        <ele>938.5</ele>
        <time>2021-09-12T08:56:09.000Z</time>
      </trkpt>
      <trkpt lat="45.07195" lon="2.66269">
        <ele>939.5</ele>
        <time>2021-09-12T08:56:15.000Z</time>
      </trkpt>
      <trkpt lat="45.07205" lon="2.66279">
        <ele>940.2</ele>
        <time>2021-09-12T08:56:21.000Z</time>
      </trkpt>
      <trkpt lat="45.07213" lon="2.66288">
        <ele>940.7</ele>
        <time>2021-09-12T08:56:27.000Z</time>
      </trkpt>
      <trkpt lat="45.07219" lon="2.66295">
        <ele>941</ele>
        <time>2021-09-12T08:56:33.000Z</time>
      </trkpt>
      <trkpt lat="45.07225" lon="2.663">
        <ele>940.9</ele>
        <time>2021-09-12T08:56:39.000Z</time>
      </trkpt>
      <trkpt lat="45.0723" lon="2.66306">
        <ele>941</ele>
        <time>2021-09-12T08:56:51.000Z</time>
      </trkpt>
      <trkpt lat="45.07235" lon="2.66312">
        <ele>941.1</ele>
        <time>2021-09-12T08:57:15.000Z</time>
      </trkpt>
      <trkpt lat="45.07243" lon="2.66314">
        <ele>940.1</ele>
        <time>2021-09-12T08:57:21.000Z</time>
      </trkpt>
      <trkpt lat="45.0725" lon="2.66321">
        <ele>939.8</ele>
        <time>2021-09-12T08:57:27.000Z</time>
      </trkpt>
      <trkpt lat="45.0726" lon="2.66327">
        <ele>939.8</ele>
        <time>2021-09-12T08:57:33.000Z</time>
      </trkpt>
      <trkpt lat="45.07272" lon="2.66332">
        <ele>939.6</ele>
        <time>2021-09-12T08:57:39.000Z</time>
      </trkpt>
      <trkpt lat="45.07283" lon="2.66335">
        <ele>939.4</ele>
        <time>2021-09-12T08:57:45.000Z</time>
      </trkpt>
      <trkpt lat="45.07292" lon="2.66339">
        <ele>939.6</ele>
        <time>2021-09-12T08:57:51.000Z</time>
      </trkpt>
      <trkpt lat="45.073" lon="2.66352">
        <ele>941.6</ele>
        <time>2021-09-12T08:57:57.000Z</time>
      </trkpt>
      <trkpt lat="45.07307" lon="2.66364">
        <ele>943.3</ele>
        <time>2021-09-12T08:58:03.000Z</time>
      </trkpt>
      <trkpt lat="45.07314" lon="2.66376">
        <ele>944.8</ele>
        <time>2021-09-12T08:58:09.000Z</time>
      </trkpt>
      <trkpt lat="45.07322" lon="2.66386">
        <ele>945.6</ele>
        <time>2021-09-12T08:58:15.000Z</time>
      </trkpt>
      <trkpt lat="45.07329" lon="2.66396">
        <ele>946.3</ele>
        <time>2021-09-12T08:58:21.000Z</time>
      </trkpt>
      <trkpt lat="45.07339" lon="2.66404">
        <ele>946.5</ele>
        <time>2021-09-12T08:58:27.000Z</time>
      </trkpt>
      <trkpt lat="45.07345" lon="2.66411">
        <ele>946.9</ele>
        <time>2021-09-12T08:58:33.000Z</time>
      </trkpt>
      <trkpt lat="45.0735" lon="2.6642">
        <ele>948</ele>
        <time>2021-09-12T08:58:40.000Z</time>
      </trkpt>
      <trkpt lat="45.07351" lon="2.6643">
        <ele>950.1</ele>
        <time>2021-09-12T08:58:45.000Z</time>
      </trkpt>
      <trkpt lat="45.07362" lon="2.6643">
        <ele>948.8</ele>
        <time>2021-09-12T08:59:09.000Z</time>
      </trkpt>
      <trkpt lat="45.07368" lon="2.66438">
        <ele>949.7</ele>
        <time>2021-09-12T08:59:20.000Z</time>
      </trkpt>
      <trkpt lat="45.07374" lon="2.66443">
        <ele>949.9</ele>
        <time>2021-09-12T08:59:23.000Z</time>
      </trkpt>
      <trkpt lat="45.07381" lon="2.6645">
        <ele>950.2</ele>
        <time>2021-09-12T08:59:27.000Z</time>
      </trkpt>
      <trkpt lat="45.07392" lon="2.6646">
        <ele>950.3</ele>
        <time>2021-09-12T08:59:33.000Z</time>
      </trkpt>
      <trkpt lat="45.07401" lon="2.66466">
        <ele>949.8</ele>
        <time>2021-09-12T08:59:39.000Z</time>
      </trkpt>
      <trkpt lat="45.0741" lon="2.6647">
        <ele>948.9</ele>
        <time>2021-09-12T08:59:45.000Z</time>
      </trkpt>
      <trkpt lat="45.07415" lon="2.66477">
        <ele>949</ele>
        <time>2021-09-12T08:59:54.000Z</time>
      </trkpt>
      <trkpt lat="45.07422" lon="2.66482">
        <ele>948.9</ele>
        <time>2021-09-12T08:59:59.000Z</time>
      </trkpt>
      <trkpt lat="45.07429" lon="2.66487">
        <ele>949</ele>
        <time>2021-09-12T09:00:04.000Z</time>
      </trkpt>
      <trkpt lat="45.07436" lon="2.66491">
        <ele>948.8</ele>
        <time>2021-09-12T09:00:09.000Z</time>
      </trkpt>
      <trkpt lat="45.07442" lon="2.66497">
        <ele>948.9</ele>
        <time>2021-09-12T09:00:15.000Z</time>
      </trkpt>
      <trkpt lat="45.07447" lon="2.66504">
        <ele>949.4</ele>
        <time>2021-09-12T09:00:21.000Z</time>
      </trkpt>
      <trkpt lat="45.07451" lon="2.66512">
        <ele>950.3</ele>
        <time>2021-09-12T09:00:28.000Z</time>
      </trkpt>
      <trkpt lat="45.07457" lon="2.66519">
        <ele>950.7</ele>
        <time>2021-09-12T09:00:34.000Z</time>
      </trkpt>
      <trkpt lat="45.07463" lon="2.66525">
        <ele>951</ele>
        <time>2021-09-12T09:00:39.000Z</time>
      </trkpt>
      <trkpt lat="45.0747" lon="2.66532">
        <ele>951.2</ele>
        <time>2021-09-12T09:00:45.000Z</time>
      </trkpt>
      <trkpt lat="45.07475" lon="2.66538">
        <ele>951.4</ele>
        <time>2021-09-12T09:00:55.000Z</time>
      </trkpt>
      <trkpt lat="45.0748" lon="2.66544">
        <ele>951.6</ele>
        <time>2021-09-12T09:01:09.000Z</time>
      </trkpt>
      <trkpt lat="45.07486" lon="2.6655">
        <ele>951.6</ele>
        <time>2021-09-12T09:01:15.000Z</time>
      </trkpt>
      <trkpt lat="45.07493" lon="2.66554">
        <ele>951.2</ele>
        <time>2021-09-12T09:01:21.000Z</time>
      </trkpt>
      <trkpt lat="45.07499" lon="2.66562">
        <ele>951.3</ele>
        <time>2021-09-12T09:01:27.000Z</time>
      </trkpt>
      <trkpt lat="45.07504" lon="2.66571">
        <ele>952.2</ele>
        <time>2021-09-12T09:01:34.000Z</time>
      </trkpt>
      <trkpt lat="45.07508" lon="2.66579">
        <ele>953.1</ele>
        <time>2021-09-12T09:01:39.000Z</time>
      </trkpt>
      <trkpt lat="45.07512" lon="2.66588">
        <ele>954.4</ele>
        <time>2021-09-12T09:01:45.000Z</time>
      </trkpt>
      <trkpt lat="45.07517" lon="2.66597">
        <ele>956</ele>
        <time>2021-09-12T09:01:51.000Z</time>
      </trkpt>
      <trkpt lat="45.07522" lon="2.66604">
        <ele>957.1</ele>
        <time>2021-09-12T09:01:57.000Z</time>
      </trkpt>
      <trkpt lat="45.07526" lon="2.66614">
        <ele>958.9</ele>
        <time>2021-09-12T09:02:03.000Z</time>
      </trkpt>
      <trkpt lat="45.07529" lon="2.66624">
        <ele>960.7</ele>
        <time>2021-09-12T09:02:09.000Z</time>
      </trkpt>
      <trkpt lat="45.0753" lon="2.66639">
        <ele>963.6</ele>
        <time>2021-09-12T09:02:15.000Z</time>
      </trkpt>
      <trkpt lat="45.07527" lon="2.66648">
        <ele>965.7</ele>
        <time>2021-09-12T09:02:21.000Z</time>
      </trkpt>
      <trkpt lat="45.07523" lon="2.66657">
        <ele>967.8</ele>
        <time>2021-09-12T09:02:30.000Z</time>
      </trkpt>
      <trkpt lat="45.07524" lon="2.66667">
        <ele>969.8</ele>
        <time>2021-09-12T09:02:36.000Z</time>
      </trkpt>
      <trkpt lat="45.0752" lon="2.66676">
        <ele>972.1</ele>
        <time>2021-09-12T09:02:43.000Z</time>
      </trkpt>
      <trkpt lat="45.07513" lon="2.66676">
        <ele>972.8</ele>
        <time>2021-09-12T09:02:47.000Z</time>
      </trkpt>
      <trkpt lat="45.0752" lon="2.66677">
        <ele>972.3</ele>
        <time>2021-09-12T09:03:03.000Z</time>
      </trkpt>
      <trkpt lat="45.07528" lon="2.66691">
        <ele>974.6</ele>
        <time>2021-09-12T09:03:09.000Z</time>
      </trkpt>
      <trkpt lat="45.07536" lon="2.66704">
        <ele>976.5</ele>
        <time>2021-09-12T09:03:15.000Z</time>
      </trkpt>
      <trkpt lat="45.07542" lon="2.66709">
        <ele>976.9</ele>
        <time>2021-09-12T09:03:22.000Z</time>
      </trkpt>
      <trkpt lat="45.07549" lon="2.66714">
        <ele>977.1</ele>
        <time>2021-09-12T09:03:32.000Z</time>
      </trkpt>
      <trkpt lat="45.07556" lon="2.66717">
        <ele>976.9</ele>
        <time>2021-09-12T09:03:36.000Z</time>
      </trkpt>
      <trkpt lat="45.07563" lon="2.66717">
        <ele>976.1</ele>
        <time>2021-09-12T09:03:43.000Z</time>
      </trkpt>
      <trkpt lat="45.0757" lon="2.6672">
        <ele>975.8</ele>
        <time>2021-09-12T09:04:04.000Z</time>
      </trkpt>
      <trkpt lat="45.07572" lon="2.6673">
        <ele>977.6</ele>
        <time>2021-09-12T09:04:11.000Z</time>
      </trkpt>
      <trkpt lat="45.07575" lon="2.66739">
        <ele>978.9</ele>
        <time>2021-09-12T09:04:19.000Z</time>
      </trkpt>
      <trkpt lat="45.07576" lon="2.66748">
        <ele>980.6</ele>
        <time>2021-09-12T09:04:33.000Z</time>
      </trkpt>
      <trkpt lat="45.07573" lon="2.66757">
        <ele>983.1</ele>
        <time>2021-09-12T09:04:40.000Z</time>
      </trkpt>
      <trkpt lat="45.07569" lon="2.66765">
        <ele>985.6</ele>
        <time>2021-09-12T09:04:46.000Z</time>
      </trkpt>
      <trkpt lat="45.07564" lon="2.66773">
        <ele>988.3</ele>
        <time>2021-09-12T09:04:51.000Z</time>
      </trkpt>
      <trkpt lat="45.0756" lon="2.66781">
        <ele>990.8</ele>
        <time>2021-09-12T09:04:58.000Z</time>
      </trkpt>
      <trkpt lat="45.07554" lon="2.66787">
        <ele>993</ele>
        <time>2021-09-12T09:05:06.000Z</time>
      </trkpt>
      <trkpt lat="45.0755" lon="2.66794">
        <ele>995.3</ele>
        <time>2021-09-12T09:05:15.000Z</time>
      </trkpt>
      <trkpt lat="45.07543" lon="2.66796">
        <ele>996.6</ele>
        <time>2021-09-12T09:05:21.000Z</time>
      </trkpt>
      <trkpt lat="45.07536" lon="2.66804">
        <ele>999.5</ele>
        <time>2021-09-12T09:05:29.000Z</time>
      </trkpt>
      <trkpt lat="45.07542" lon="2.66812">
        <ele>1000.7</ele>
        <time>2021-09-12T09:05:37.000Z</time>
      </trkpt>
      <trkpt lat="45.07548" lon="2.66818">
        <ele>1001.5</ele>
        <time>2021-09-12T09:05:39.000Z</time>
      </trkpt>
      <trkpt lat="45.07554" lon="2.66823">
        <ele>1002</ele>
        <time>2021-09-12T09:05:46.000Z</time>
      </trkpt>
      <trkpt lat="45.07552" lon="2.66832">
        <ele>1004.4</ele>
        <time>2021-09-12T09:05:55.000Z</time>
      </trkpt>
      <trkpt lat="45.07545" lon="2.66842">
        <ele>1007</ele>
        <time>2021-09-12T09:06:08.000Z</time>
      </trkpt>
      <trkpt lat="45.07547" lon="2.66852">
        <ele>1008.4</ele>
        <time>2021-09-12T09:06:13.000Z</time>
      </trkpt>
      <trkpt lat="45.07553" lon="2.66854">
        <ele>1008</ele>
        <time>2021-09-12T09:06:31.000Z</time>
      </trkpt>
      <trkpt lat="45.07552" lon="2.6684">
        <ele>1005.8</ele>
        <time>2021-09-12T09:06:47.000Z</time>
      </trkpt>
      <trkpt lat="45.07544" lon="2.66847">
        <ele>1007.9</ele>
        <time>2021-09-12T09:07:23.000Z</time>
      </trkpt>
      <trkpt lat="45.07534" lon="2.66841">
        <ele>1008.2</ele>
        <time>2021-09-12T09:08:29.000Z</time>
      </trkpt>
      <trkpt lat="45.07526" lon="2.66843">
        <ele>1009.4</ele>
        <time>2021-09-12T09:08:38.000Z</time>
      </trkpt>
      <trkpt lat="45.07528" lon="2.66854">
        <ele>1010.9</ele>
        <time>2021-09-12T09:09:03.000Z</time>
      </trkpt>
      <trkpt lat="45.0753" lon="2.66863">
        <ele>1012.2</ele>
        <time>2021-09-12T09:09:12.000Z</time>
      </trkpt>
      <trkpt lat="45.07534" lon="2.6687">
        <ele>1012.8</ele>
        <time>2021-09-12T09:09:20.000Z</time>
      </trkpt>
      <trkpt lat="45.07529" lon="2.66858">
        <ele>1011.5</ele>
        <time>2021-09-12T09:09:46.000Z</time>
      </trkpt>
      <trkpt lat="45.0752" lon="2.66846">
        <ele>1010.6</ele>
        <time>2021-09-12T09:10:04.000Z</time>
      </trkpt>
      <trkpt lat="45.07528" lon="2.66853">
        <ele>1010.8</ele>
        <time>2021-09-12T09:10:52.000Z</time>
      </trkpt>
      <trkpt lat="45.07527" lon="2.66863">
        <ele>1012.5</ele>
        <time>2021-09-12T09:11:03.000Z</time>
      </trkpt>
      <trkpt lat="45.07534" lon="2.66871">
        <ele>1013</ele>
        <time>2021-09-12T09:11:15.000Z</time>
      </trkpt>
      <trkpt lat="45.07521" lon="2.66876">
        <ele>1015.3</ele>
        <time>2021-09-12T09:11:24.000Z</time>
      </trkpt>
      <trkpt lat="45.07522" lon="2.66861">
        <ele>1012.8</ele>
        <time>2021-09-12T09:11:38.000Z</time>
      </trkpt>
      <trkpt lat="45.07516" lon="2.66853">
        <ele>1012.2</ele>
        <time>2021-09-12T09:11:50.000Z</time>
      </trkpt>
      <trkpt lat="45.07506" lon="2.66845">
        <ele>1012.1</ele>
        <time>2021-09-12T09:11:52.000Z</time>
      </trkpt>
      <trkpt lat="45.07499" lon="2.66839">
        <ele>1012.1</ele>
        <time>2021-09-12T09:12:02.000Z</time>
      </trkpt>
      <trkpt lat="45.075" lon="2.66848">
        <ele>1013.3</ele>
        <time>2021-09-12T09:12:05.000Z</time>
      </trkpt>
      <trkpt lat="45.07491" lon="2.66854">
        <ele>1016</ele>
        <time>2021-09-12T09:12:09.000Z</time>
      </trkpt>
      <trkpt lat="45.07466" lon="2.66857">
        <ele>1021.5</ele>
        <time>2021-09-12T09:12:15.000Z</time>
      </trkpt>
      <trkpt lat="45.07456" lon="2.66849">
        <ele>1022.5</ele>
        <time>2021-09-12T09:12:21.000Z</time>
      </trkpt>
      <trkpt lat="45.07476" lon="2.66862">
        <ele>1020.2</ele>
        <time>2021-09-12T09:12:27.000Z</time>
      </trkpt>
      <trkpt lat="45.07501" lon="2.66885">
        <ele>1018.9</ele>
        <time>2021-09-12T09:12:33.000Z</time>
      </trkpt>
      <trkpt lat="45.07516" lon="2.66886">
        <ele>1017.4</ele>
        <time>2021-09-12T09:12:39.000Z</time>
      </trkpt>
      <trkpt lat="45.07525" lon="2.66883">
        <ele>1015.9</ele>
        <time>2021-09-12T09:12:45.000Z</time>
      </trkpt>
      <trkpt lat="45.07531" lon="2.66878">
        <ele>1014.4</ele>
        <time>2021-09-12T09:12:54.000Z</time>
      </trkpt>
      <trkpt lat="45.07531" lon="2.66868">
        <ele>1012.8</ele>
        <time>2021-09-12T09:13:00.000Z</time>
      </trkpt>
      <trkpt lat="45.07539" lon="2.6686">
        <ele>1010.6</ele>
        <time>2021-09-12T09:13:23.000Z</time>
      </trkpt>
      <trkpt lat="45.07543" lon="2.66852">
        <ele>1008.9</ele>
        <time>2021-09-12T09:13:38.000Z</time>
      </trkpt>
      <trkpt lat="45.07545" lon="2.66842">
        <ele>1007</ele>
        <time>2021-09-12T09:13:47.000Z</time>
      </trkpt>
      <trkpt lat="45.07551" lon="2.6683">
        <ele>1004.1</ele>
        <time>2021-09-12T09:14:07.000Z</time>
      </trkpt>
      <trkpt lat="45.07551" lon="2.66817">
        <ele>1000.8</ele>
        <time>2021-09-12T09:14:14.000Z</time>
      </trkpt>
      <trkpt lat="45.0755" lon="2.66795">
        <ele>995.5</ele>
        <time>2021-09-12T09:14:25.000Z</time>
      </trkpt>
      <trkpt lat="45.07552" lon="2.66786">
        <ele>993</ele>
        <time>2021-09-12T09:14:29.000Z</time>
      </trkpt>
      <trkpt lat="45.07554" lon="2.66775">
        <ele>990.1</ele>
        <time>2021-09-12T09:14:35.000Z</time>
      </trkpt>
      <trkpt lat="45.07554" lon="2.66765">
        <ele>987.6</ele>
        <time>2021-09-12T09:14:49.000Z</time>
      </trkpt>
      <trkpt lat="45.07559" lon="2.66759">
        <ele>985.4</ele>
        <time>2021-09-12T09:14:59.000Z</time>
      </trkpt>
      <trkpt lat="45.07564" lon="2.66751">
        <ele>982.8</ele>
        <time>2021-09-12T09:15:20.000Z</time>
      </trkpt>
      <trkpt lat="45.07564" lon="2.6674">
        <ele>980.5</ele>
        <time>2021-09-12T09:15:41.000Z</time>
      </trkpt>
      <trkpt lat="45.07571" lon="2.66737">
        <ele>979.1</ele>
        <time>2021-09-12T09:16:03.000Z</time>
      </trkpt>
      <trkpt lat="45.07577" lon="2.66732">
        <ele>977.3</ele>
        <time>2021-09-12T09:16:15.000Z</time>
      </trkpt>
      <trkpt lat="45.07584" lon="2.66732">
        <ele>976.4</ele>
        <time>2021-09-12T09:16:25.000Z</time>
      </trkpt>
      <trkpt lat="45.0759" lon="2.6673">
        <ele>974.4</ele>
        <time>2021-09-12T09:16:29.000Z</time>
      </trkpt>
      <trkpt lat="45.07599" lon="2.66733">
        <ele>972.4</ele>
        <time>2021-09-12T09:16:33.000Z</time>
      </trkpt>
      <trkpt lat="45.07613" lon="2.66739">
        <ele>969.5</ele>
        <time>2021-09-12T09:16:39.000Z</time>
      </trkpt>
      <trkpt lat="45.07625" lon="2.66743">
        <ele>966.6</ele>
        <time>2021-09-12T09:16:45.000Z</time>
      </trkpt>
      <trkpt lat="45.07637" lon="2.66747">
        <ele>963.6</ele>
        <time>2021-09-12T09:16:51.000Z</time>
      </trkpt>
      <trkpt lat="45.07646" lon="2.66753">
        <ele>961.9</ele>
        <time>2021-09-12T09:16:57.000Z</time>
      </trkpt>
      <trkpt lat="45.07654" lon="2.66757">
        <ele>960.4</ele>
        <time>2021-09-12T09:17:03.000Z</time>
      </trkpt>
      <trkpt lat="45.07661" lon="2.66762">
        <ele>959.3</ele>
        <time>2021-09-12T09:17:11.000Z</time>
      </trkpt>
      <trkpt lat="45.07667" lon="2.66766">
        <ele>958.4</ele>
        <time>2021-09-12T09:17:16.000Z</time>
      </trkpt>
      <trkpt lat="45.07673" lon="2.66771">
        <ele>959.2</ele>
        <time>2021-09-12T09:17:22.000Z</time>
      </trkpt>
      <trkpt lat="45.07679" lon="2.66776">
        <ele>960</ele>
        <time>2021-09-12T09:17:27.000Z</time>
      </trkpt>
      <trkpt lat="45.07686" lon="2.66781">
        <ele>960.6</ele>
        <time>2021-09-12T09:17:34.000Z</time>
      </trkpt>
      <trkpt lat="45.07692" lon="2.66786">
        <ele>961.2</ele>
        <time>2021-09-12T09:17:41.000Z</time>
      </trkpt>
      <trkpt lat="45.07697" lon="2.66793">
        <ele>962.2</ele>
        <time>2021-09-12T09:17:49.000Z</time>
      </trkpt>
      <trkpt lat="45.077" lon="2.66802">
        <ele>963.7</ele>
        <time>2021-09-12T09:17:54.000Z</time>
      </trkpt>
      <trkpt lat="45.07705" lon="2.6681">
        <ele>964.7</ele>
        <time>2021-09-12T09:18:02.000Z</time>
      </trkpt>
      <trkpt lat="45.07698" lon="2.66815">
        <ele>966.2</ele>
        <time>2021-09-12T09:18:24.000Z</time>
      </trkpt>
      <trkpt lat="45.07694" lon="2.66822">
        <ele>967.9</ele>
        <time>2021-09-12T09:18:36.000Z</time>
      </trkpt>
      <trkpt lat="45.0769" lon="2.6683">
        <ele>969.8</ele>
        <time>2021-09-12T09:18:47.000Z</time>
      </trkpt>
      <trkpt lat="45.07692" lon="2.66847">
        <ele>973.7</ele>
        <time>2021-09-12T09:19:32.000Z</time>
      </trkpt>
      <trkpt lat="45.07697" lon="2.6684">
        <ele>971.3</ele>
        <time>2021-09-12T09:19:47.000Z</time>
      </trkpt>
      <trkpt lat="45.07704" lon="2.66841">
        <ele>970.7</ele>
        <time>2021-09-12T09:19:56.000Z</time>
      </trkpt>
      <trkpt lat="45.0771" lon="2.6684">
        <ele>969.8</ele>
        <time>2021-09-12T09:20:04.000Z</time>
      </trkpt>
      <trkpt lat="45.07718" lon="2.6684">
        <ele>968.8</ele>
        <time>2021-09-12T09:20:10.000Z</time>
      </trkpt>
      <trkpt lat="45.07725" lon="2.66839">
        <ele>967.8</ele>
        <time>2021-09-12T09:20:17.000Z</time>
      </trkpt>
      <trkpt lat="45.0773" lon="2.66844">
        <ele>968.2</ele>
        <time>2021-09-12T09:20:28.000Z</time>
      </trkpt>
      <trkpt lat="45.07737" lon="2.66845">
        <ele>967.5</ele>
        <time>2021-09-12T09:20:35.000Z</time>
      </trkpt>
      <trkpt lat="45.07743" lon="2.66847">
        <ele>967</ele>
        <time>2021-09-12T09:21:05.000Z</time>
      </trkpt>
      <trkpt lat="45.0775" lon="2.66851">
        <ele>966.8</ele>
        <time>2021-09-12T09:21:13.000Z</time>
      </trkpt>
      <trkpt lat="45.07755" lon="2.66858">
        <ele>968.3</ele>
        <time>2021-09-12T09:21:22.000Z</time>
      </trkpt>
      <trkpt lat="45.07758" lon="2.66867">
        <ele>969.9</ele>
        <time>2021-09-12T09:21:31.000Z</time>
      </trkpt>
      <trkpt lat="45.07761" lon="2.66875">
        <ele>971.4</ele>
        <time>2021-09-12T09:21:41.000Z</time>
      </trkpt>
      <trkpt lat="45.0776" lon="2.66884">
        <ele>972.6</ele>
        <time>2021-09-12T09:21:56.000Z</time>
      </trkpt>
      <trkpt lat="45.07764" lon="2.66892">
        <ele>974.1</ele>
        <time>2021-09-12T09:22:02.000Z</time>
      </trkpt>
      <trkpt lat="45.07766" lon="2.66903">
        <ele>975.8</ele>
        <time>2021-09-12T09:22:08.000Z</time>
      </trkpt>
      <trkpt lat="45.07772" lon="2.66908">
        <ele>976.8</ele>
        <time>2021-09-12T09:22:16.000Z</time>
      </trkpt>
      <trkpt lat="45.07778" lon="2.66911">
        <ele>977.6</ele>
        <time>2021-09-12T09:22:25.000Z</time>
      </trkpt>
      <trkpt lat="45.07782" lon="2.6692">
        <ele>979</ele>
        <time>2021-09-12T09:22:30.000Z</time>
      </trkpt>
      <trkpt lat="45.07788" lon="2.66921">
        <ele>979.3</ele>
        <time>2021-09-12T09:22:37.000Z</time>
      </trkpt>
      <trkpt lat="45.07796" lon="2.66924">
        <ele>980</ele>
        <time>2021-09-12T09:22:48.000Z</time>
      </trkpt>
      <trkpt lat="45.07802" lon="2.66927">
        <ele>980.5</ele>
        <time>2021-09-12T09:22:52.000Z</time>
      </trkpt>
      <trkpt lat="45.07809" lon="2.66926">
        <ele>980.6</ele>
        <time>2021-09-12T09:22:57.000Z</time>
      </trkpt>
      <trkpt lat="45.07817" lon="2.66925">
        <ele>980.8</ele>
        <time>2021-09-12T09:23:03.000Z</time>
      </trkpt>
      <trkpt lat="45.07826" lon="2.66924">
        <ele>981</ele>
        <time>2021-09-12T09:23:09.000Z</time>
      </trkpt>
      <trkpt lat="45.07837" lon="2.6693">
        <ele>981.2</ele>
        <time>2021-09-12T09:23:15.000Z</time>
      </trkpt>
      <trkpt lat="45.07846" lon="2.6694">
        <ele>981.1</ele>
        <time>2021-09-12T09:23:21.000Z</time>
      </trkpt>
      <trkpt lat="45.07853" lon="2.6695">
        <ele>981.1</ele>
        <time>2021-09-12T09:23:27.000Z</time>
      </trkpt>
      <trkpt lat="45.07858" lon="2.66963">
        <ele>981.4</ele>
        <time>2021-09-12T09:23:33.000Z</time>
      </trkpt>
      <trkpt lat="45.07862" lon="2.66971">
        <ele>981.6</ele>
        <time>2021-09-12T09:23:39.000Z</time>
      </trkpt>
      <trkpt lat="45.07867" lon="2.66979">
        <ele>981.7</ele>
        <time>2021-09-12T09:23:45.000Z</time>
      </trkpt>
      <trkpt lat="45.07871" lon="2.6699">
        <ele>982.1</ele>
        <time>2021-09-12T09:23:51.000Z</time>
      </trkpt>
      <trkpt lat="45.07873" lon="2.67">
        <ele>982.6</ele>
        <time>2021-09-12T09:23:57.000Z</time>
      </trkpt>
      <trkpt lat="45.07878" lon="2.67007">
        <ele>983</ele>
        <time>2021-09-12T09:24:13.000Z</time>
      </trkpt>
      <trkpt lat="45.07879" lon="2.67017">
        <ele>983.8</ele>
        <time>2021-09-12T09:24:17.000Z</time>
      </trkpt>
      <trkpt lat="45.0788" lon="2.6703">
        <ele>984.8</ele>
        <time>2021-09-12T09:24:21.000Z</time>
      </trkpt>
      <trkpt lat="45.0788" lon="2.6704">
        <ele>985.7</ele>
        <time>2021-09-12T09:24:27.000Z</time>
      </trkpt>
      <trkpt lat="45.07878" lon="2.6705">
        <ele>986.6</ele>
        <time>2021-09-12T09:24:34.000Z</time>
      </trkpt>
      <trkpt lat="45.07877" lon="2.6706">
        <ele>987.5</ele>
        <time>2021-09-12T09:24:43.000Z</time>
      </trkpt>
      <trkpt lat="45.07885" lon="2.67063">
        <ele>987.4</ele>
        <time>2021-09-12T09:25:09.000Z</time>
      </trkpt>
      <trkpt lat="45.07889" lon="2.67071">
        <ele>988</ele>
        <time>2021-09-12T09:25:38.000Z</time>
      </trkpt>
      <trkpt lat="45.07892" lon="2.6708">
        <ele>988.6</ele>
        <time>2021-09-12T09:25:43.000Z</time>
      </trkpt>
      <trkpt lat="45.07896" lon="2.6709">
        <ele>990</ele>
        <time>2021-09-12T09:25:47.000Z</time>
      </trkpt>
      <trkpt lat="45.07899" lon="2.67098">
        <ele>991.4</ele>
        <time>2021-09-12T09:25:51.000Z</time>
      </trkpt>
      <trkpt lat="45.07902" lon="2.67107">
        <ele>993</ele>
        <time>2021-09-12T09:25:58.000Z</time>
      </trkpt>
      <trkpt lat="45.07905" lon="2.67116">
        <ele>994.4</ele>
        <time>2021-09-12T09:26:05.000Z</time>
      </trkpt>
      <trkpt lat="45.07908" lon="2.67125">
        <ele>995.8</ele>
        <time>2021-09-12T09:26:12.000Z</time>
      </trkpt>
      <trkpt lat="45.0791" lon="2.67135">
        <ele>997.4</ele>
        <time>2021-09-12T09:26:20.000Z</time>
      </trkpt>
      <trkpt lat="45.07912" lon="2.67145">
        <ele>998.9</ele>
        <time>2021-09-12T09:26:28.000Z</time>
      </trkpt>
      <trkpt lat="45.07914" lon="2.67153">
        <ele>1000</ele>
        <time>2021-09-12T09:26:34.000Z</time>
      </trkpt>
      <trkpt lat="45.07919" lon="2.67162">
        <ele>1000.8</ele>
        <time>2021-09-12T09:26:40.000Z</time>
      </trkpt>
      <trkpt lat="45.07922" lon="2.67172">
        <ele>1002.5</ele>
        <time>2021-09-12T09:26:46.000Z</time>
      </trkpt>
      <trkpt lat="45.07924" lon="2.6718">
        <ele>1004.4</ele>
        <time>2021-09-12T09:26:52.000Z</time>
      </trkpt>
      <trkpt lat="45.07926" lon="2.6719">
        <ele>1006.7</ele>
        <time>2021-09-12T09:26:59.000Z</time>
      </trkpt>
      <trkpt lat="45.07932" lon="2.67196">
        <ele>1007</ele>
        <time>2021-09-12T09:27:03.000Z</time>
      </trkpt>
      <trkpt lat="45.07936" lon="2.67203">
        <ele>1007.9</ele>
        <time>2021-09-12T09:27:10.000Z</time>
      </trkpt>
      <trkpt lat="45.07942" lon="2.67208">
        <ele>1007.7</ele>
        <time>2021-09-12T09:27:15.000Z</time>
      </trkpt>
      <trkpt lat="45.07947" lon="2.67215">
        <ele>1008.1</ele>
        <time>2021-09-12T09:27:22.000Z</time>
      </trkpt>
      <trkpt lat="45.07953" lon="2.6722">
        <ele>1007.8</ele>
        <time>2021-09-12T09:27:28.000Z</time>
      </trkpt>
      <trkpt lat="45.07957" lon="2.67227">
        <ele>1008.3</ele>
        <time>2021-09-12T09:27:34.000Z</time>
      </trkpt>
      <trkpt lat="45.07963" lon="2.67234">
        <ele>1008.1</ele>
        <time>2021-09-12T09:27:39.000Z</time>
      </trkpt>
      <trkpt lat="45.07965" lon="2.67244">
        <ele>1009.7</ele>
        <time>2021-09-12T09:27:47.000Z</time>
      </trkpt>
      <trkpt lat="45.07958" lon="2.67263">
        <ele>1016.8</ele>
        <time>2021-09-12T09:27:56.000Z</time>
      </trkpt>
      <trkpt lat="45.07961" lon="2.67272">
        <ele>1018.5</ele>
        <time>2021-09-12T09:28:09.000Z</time>
      </trkpt>
      <trkpt lat="45.07965" lon="2.6728">
        <ele>1019.5</ele>
        <time>2021-09-12T09:28:18.000Z</time>
      </trkpt>
      <trkpt lat="45.0797" lon="2.67288">
        <ele>1020.2</ele>
        <time>2021-09-12T09:28:27.000Z</time>
      </trkpt>
      <trkpt lat="45.07972" lon="2.67296">
        <ele>1021.8</ele>
        <time>2021-09-12T09:29:11.000Z</time>
      </trkpt>
      <trkpt lat="45.07978" lon="2.67301">
        <ele>1021.3</ele>
        <time>2021-09-12T09:29:20.000Z</time>
      </trkpt>
      <trkpt lat="45.07984" lon="2.67307">
        <ele>1021</ele>
        <time>2021-09-12T09:29:26.000Z</time>
      </trkpt>
      <trkpt lat="45.07988" lon="2.67314">
        <ele>1021.6</ele>
        <time>2021-09-12T09:29:32.000Z</time>
      </trkpt>
      <trkpt lat="45.07994" lon="2.67319">
        <ele>1021</ele>
        <time>2021-09-12T09:29:41.000Z</time>
      </trkpt>
      <trkpt lat="45.07998" lon="2.67328">
        <ele>1022.2</ele>
        <time>2021-09-12T09:29:48.000Z</time>
      </trkpt>
      <trkpt lat="45.08001" lon="2.67335">
        <ele>1023.2</ele>
        <time>2021-09-12T09:30:11.000Z</time>
      </trkpt>
      <trkpt lat="45.08008" lon="2.67342">
        <ele>1023</ele>
        <time>2021-09-12T09:30:17.000Z</time>
      </trkpt>
      <trkpt lat="45.08015" lon="2.67346">
        <ele>1022.1</ele>
        <time>2021-09-12T09:30:22.000Z</time>
      </trkpt>
      <trkpt lat="45.08021" lon="2.6735">
        <ele>1021.4</ele>
        <time>2021-09-12T09:30:27.000Z</time>
      </trkpt>
      <trkpt lat="45.08029" lon="2.67357">
        <ele>1020.8</ele>
        <time>2021-09-12T09:30:33.000Z</time>
      </trkpt>
      <trkpt lat="45.08036" lon="2.67361">
        <ele>1019.8</ele>
        <time>2021-09-12T09:30:39.000Z</time>
      </trkpt>
      <trkpt lat="45.08041" lon="2.67368">
        <ele>1019.9</ele>
        <time>2021-09-12T09:30:46.000Z</time>
      </trkpt>
      <trkpt lat="45.08045" lon="2.67377">
        <ele>1020.7</ele>
        <time>2021-09-12T09:30:51.000Z</time>
      </trkpt>
      <trkpt lat="45.08052" lon="2.67385">
        <ele>1020.4</ele>
        <time>2021-09-12T09:30:57.000Z</time>
      </trkpt>
      <trkpt lat="45.08058" lon="2.67391">
        <ele>1019.8</ele>
        <time>2021-09-12T09:31:17.000Z</time>
      </trkpt>
      <trkpt lat="45.08063" lon="2.67398">
        <ele>1019.7</ele>
        <time>2021-09-12T09:31:33.000Z</time>
      </trkpt>
      <trkpt lat="45.08069" lon="2.67404">
        <ele>1019.1</ele>
        <time>2021-09-12T09:31:48.000Z</time>
      </trkpt>
      <trkpt lat="45.08076" lon="2.67409">
        <ele>1017.9</ele>
        <time>2021-09-12T09:31:55.000Z</time>
      </trkpt>
      <trkpt lat="45.08083" lon="2.67412">
        <ele>1016.2</ele>
        <time>2021-09-12T09:32:00.000Z</time>
      </trkpt>
      <trkpt lat="45.08089" lon="2.67418">
        <ele>1016.2</ele>
        <time>2021-09-12T09:32:06.000Z</time>
      </trkpt>
      <trkpt lat="45.08095" lon="2.67423">
        <ele>1016.1</ele>
        <time>2021-09-12T09:32:12.000Z</time>
      </trkpt>
      <trkpt lat="45.081" lon="2.67429">
        <ele>1016.4</ele>
        <time>2021-09-12T09:32:17.000Z</time>
      </trkpt>
      <trkpt lat="45.08106" lon="2.67435">
        <ele>1016.5</ele>
        <time>2021-09-12T09:32:23.000Z</time>
      </trkpt>
      <trkpt lat="45.08112" lon="2.67441">
        <ele>1016.4</ele>
        <time>2021-09-12T09:32:28.000Z</time>
      </trkpt>
      <trkpt lat="45.08118" lon="2.67446">
        <ele>1016.2</ele>
        <time>2021-09-12T09:32:37.000Z</time>
      </trkpt>
      <trkpt lat="45.08125" lon="2.67449">
        <ele>1015.2</ele>
        <time>2021-09-12T09:32:42.000Z</time>
      </trkpt>
      <trkpt lat="45.08132" lon="2.67452">
        <ele>1014.2</ele>
        <time>2021-09-12T09:32:48.000Z</time>
      </trkpt>
      <trkpt lat="45.08139" lon="2.67455">
        <ele>1013.2</ele>
        <time>2021-09-12T09:32:52.000Z</time>
      </trkpt>
      <trkpt lat="45.08145" lon="2.67462">
        <ele>1013.1</ele>
        <time>2021-09-12T09:32:57.000Z</time>
      </trkpt>
      <trkpt lat="45.08152" lon="2.67469">
        <ele>1012.6</ele>
        <time>2021-09-12T09:33:03.000Z</time>
      </trkpt>
      <trkpt lat="45.08158" lon="2.67474">
        <ele>1012</ele>
        <time>2021-09-12T09:33:09.000Z</time>
      </trkpt>
      <trkpt lat="45.08167" lon="2.6748">
        <ele>1010.8</ele>
        <time>2021-09-12T09:33:15.000Z</time>
      </trkpt>
      <trkpt lat="45.08179" lon="2.67487">
        <ele>1010</ele>
        <time>2021-09-12T09:33:21.000Z</time>
      </trkpt>
      <trkpt lat="45.08186" lon="2.67497">
        <ele>1010.3</ele>
        <time>2021-09-12T09:33:27.000Z</time>
      </trkpt>
      <trkpt lat="45.08193" lon="2.67502">
        <ele>1009.9</ele>
        <time>2021-09-12T09:33:33.000Z</time>
      </trkpt>
      <trkpt lat="45.08201" lon="2.67509">
        <ele>1009.7</ele>
        <time>2021-09-12T09:33:39.000Z</time>
      </trkpt>
      <trkpt lat="45.0821" lon="2.67514">
        <ele>1009</ele>
        <time>2021-09-12T09:33:45.000Z</time>
      </trkpt>
      <trkpt lat="45.08218" lon="2.6752">
        <ele>1008.7</ele>
        <time>2021-09-12T09:33:51.000Z</time>
      </trkpt>
      <trkpt lat="45.08224" lon="2.67526">
        <ele>1008.8</ele>
        <time>2021-09-12T09:33:57.000Z</time>
      </trkpt>
      <trkpt lat="45.08231" lon="2.67531">
        <ele>1008.5</ele>
        <time>2021-09-12T09:34:03.000Z</time>
      </trkpt>
      <trkpt lat="45.08236" lon="2.67538">
        <ele>1009</ele>
        <time>2021-09-12T09:34:10.000Z</time>
      </trkpt>
      <trkpt lat="45.08241" lon="2.67544">
        <ele>1009.3</ele>
        <time>2021-09-12T09:34:16.000Z</time>
      </trkpt>
      <trkpt lat="45.0825" lon="2.67548">
        <ele>1008.6</ele>
        <time>2021-09-12T09:34:21.000Z</time>
      </trkpt>
      <trkpt lat="45.08257" lon="2.67557">
        <ele>1009.4</ele>
        <time>2021-09-12T09:34:27.000Z</time>
      </trkpt>
      <trkpt lat="45.08264" lon="2.67564">
        <ele>1009.7</ele>
        <time>2021-09-12T09:34:33.000Z</time>
      </trkpt>
      <trkpt lat="45.08271" lon="2.67571">
        <ele>1010</ele>
        <time>2021-09-12T09:34:39.000Z</time>
      </trkpt>
      <trkpt lat="45.08275" lon="2.67579">
        <ele>1010.7</ele>
        <time>2021-09-12T09:35:15.000Z</time>
      </trkpt>
      <trkpt lat="45.08281" lon="2.67585">
        <ele>1010.7</ele>
        <time>2021-09-12T09:35:25.000Z</time>
      </trkpt>
      <trkpt lat="45.08287" lon="2.67589">
        <ele>1010.3</ele>
        <time>2021-09-12T09:35:29.000Z</time>
      </trkpt>
      <trkpt lat="45.08294" lon="2.67593">
        <ele>1009.7</ele>
        <time>2021-09-12T09:35:35.000Z</time>
      </trkpt>
      <trkpt lat="45.08304" lon="2.67596">
        <ele>1008.5</ele>
        <time>2021-09-12T09:36:03.000Z</time>
      </trkpt>
      <trkpt lat="45.08311" lon="2.676">
        <ele>1007.8</ele>
        <time>2021-09-12T09:36:11.000Z</time>
      </trkpt>
      <trkpt lat="45.08317" lon="2.67605">
        <ele>1007.4</ele>
        <time>2021-09-12T09:36:19.000Z</time>
      </trkpt>
      <trkpt lat="45.08323" lon="2.67609">
        <ele>1006.8</ele>
        <time>2021-09-12T09:36:25.000Z</time>
      </trkpt>
      <trkpt lat="45.08331" lon="2.67611">
        <ele>1005.7</ele>
        <time>2021-09-12T09:36:31.000Z</time>
      </trkpt>
      <trkpt lat="45.08337" lon="2.67613">
        <ele>1005.3</ele>
        <time>2021-09-12T09:36:35.000Z</time>
      </trkpt>
      <trkpt lat="45.08343" lon="2.67618">
        <ele>1005.5</ele>
        <time>2021-09-12T09:36:41.000Z</time>
      </trkpt>
      <trkpt lat="45.0835" lon="2.67622">
        <ele>1005.5</ele>
        <time>2021-09-12T09:36:47.000Z</time>
      </trkpt>
      <trkpt lat="45.08355" lon="2.67628">
        <ele>1005.7</ele>
        <time>2021-09-12T09:36:55.000Z</time>
      </trkpt>
      <trkpt lat="45.08359" lon="2.67636">
        <ele>1006.1</ele>
        <time>2021-09-12T09:37:03.000Z</time>
      </trkpt>
      <trkpt lat="45.08365" lon="2.67647">
        <ele>1006.6</ele>
        <time>2021-09-12T09:37:09.000Z</time>
      </trkpt>
      <trkpt lat="45.0837" lon="2.67658">
        <ele>1007.2</ele>
        <time>2021-09-12T09:37:15.000Z</time>
      </trkpt>
      <trkpt lat="45.08373" lon="2.67667">
        <ele>1007.6</ele>
        <time>2021-09-12T09:37:21.000Z</time>
      </trkpt>
      <trkpt lat="45.08379" lon="2.67673">
        <ele>1007.8</ele>
        <time>2021-09-12T09:37:27.000Z</time>
      </trkpt>
      <trkpt lat="45.08384" lon="2.67678">
        <ele>1007.8</ele>
        <time>2021-09-12T09:37:33.000Z</time>
      </trkpt>
      <trkpt lat="45.0839" lon="2.67684">
        <ele>1007.8</ele>
        <time>2021-09-12T09:37:41.000Z</time>
      </trkpt>
      <trkpt lat="45.08395" lon="2.67691">
        <ele>1007.9</ele>
        <time>2021-09-12T09:37:47.000Z</time>
      </trkpt>
      <trkpt lat="45.084" lon="2.67698">
        <ele>1008</ele>
        <time>2021-09-12T09:37:55.000Z</time>
      </trkpt>
      <trkpt lat="45.08404" lon="2.67706">
        <ele>1008.1</ele>
        <time>2021-09-12T09:38:02.000Z</time>
      </trkpt>
      <trkpt lat="45.0841" lon="2.67711">
        <ele>1007.8</ele>
        <time>2021-09-12T09:38:09.000Z</time>
      </trkpt>
      <trkpt lat="45.08416" lon="2.67718">
        <ele>1007.5</ele>
        <time>2021-09-12T09:38:15.000Z</time>
      </trkpt>
      <trkpt lat="45.08419" lon="2.67727">
        <ele>1008</ele>
        <time>2021-09-12T09:38:23.000Z</time>
      </trkpt>
      <trkpt lat="45.08422" lon="2.67735">
        <ele>1008.5</ele>
        <time>2021-09-12T09:38:39.000Z</time>
      </trkpt>
      <trkpt lat="45.08423" lon="2.67747">
        <ele>1009.2</ele>
        <time>2021-09-12T09:38:47.000Z</time>
      </trkpt>
      <trkpt lat="45.08424" lon="2.67758">
        <ele>1010.6</ele>
        <time>2021-09-12T09:38:51.000Z</time>
      </trkpt>
      <trkpt lat="45.08426" lon="2.67767">
        <ele>1012</ele>
        <time>2021-09-12T09:39:46.000Z</time>
      </trkpt>
      <trkpt lat="45.08424" lon="2.67777">
        <ele>1013.4</ele>
        <time>2021-09-12T09:39:54.000Z</time>
      </trkpt>
      <trkpt lat="45.08423" lon="2.67787">
        <ele>1014.9</ele>
        <time>2021-09-12T09:39:59.000Z</time>
      </trkpt>
      <trkpt lat="45.08425" lon="2.67797">
        <ele>1016.5</ele>
        <time>2021-09-12T09:40:06.000Z</time>
      </trkpt>
      <trkpt lat="45.08428" lon="2.67806">
        <ele>1017.9</ele>
        <time>2021-09-12T09:40:12.000Z</time>
      </trkpt>
      <trkpt lat="45.08432" lon="2.67814">
        <ele>1019.2</ele>
        <time>2021-09-12T09:40:18.000Z</time>
      </trkpt>
      <trkpt lat="45.08437" lon="2.67822">
        <ele>1020.4</ele>
        <time>2021-09-12T09:40:23.000Z</time>
      </trkpt>
      <trkpt lat="45.08439" lon="2.67831">
        <ele>1021.7</ele>
        <time>2021-09-12T09:40:30.000Z</time>
      </trkpt>
      <trkpt lat="45.08442" lon="2.6784">
        <ele>1023.1</ele>
        <time>2021-09-12T09:40:37.000Z</time>
      </trkpt>
      <trkpt lat="45.08448" lon="2.67845">
        <ele>1023.9</ele>
        <time>2021-09-12T09:40:43.000Z</time>
      </trkpt>
      <trkpt lat="45.08453" lon="2.67851">
        <ele>1024.8</ele>
        <time>2021-09-12T09:41:06.000Z</time>
      </trkpt>
      <trkpt lat="45.08459" lon="2.67858">
        <ele>1025.8</ele>
        <time>2021-09-12T09:41:11.000Z</time>
      </trkpt>
      <trkpt lat="45.08465" lon="2.67865">
        <ele>1026.9</ele>
        <time>2021-09-12T09:41:17.000Z</time>
      </trkpt>
      <trkpt lat="45.0847" lon="2.67873">
        <ele>1028.1</ele>
        <time>2021-09-12T09:41:22.000Z</time>
      </trkpt>
      <trkpt lat="45.08477" lon="2.67879">
        <ele>1028.9</ele>
        <time>2021-09-12T09:41:27.000Z</time>
      </trkpt>
      <trkpt lat="45.08484" lon="2.67885">
        <ele>1029.7</ele>
        <time>2021-09-12T09:41:33.000Z</time>
      </trkpt>
      <trkpt lat="45.08489" lon="2.67893">
        <ele>1030.8</ele>
        <time>2021-09-12T09:41:39.000Z</time>
      </trkpt>
      <trkpt lat="45.08494" lon="2.67901">
        <ele>1031.9</ele>
        <time>2021-09-12T09:41:45.000Z</time>
      </trkpt>
      <trkpt lat="45.085" lon="2.67907">
        <ele>1032.6</ele>
        <time>2021-09-12T09:41:53.000Z</time>
      </trkpt>
      <trkpt lat="45.08506" lon="2.67913">
        <ele>1032.9</ele>
        <time>2021-09-12T09:42:00.000Z</time>
      </trkpt>
      <trkpt lat="45.0851" lon="2.6792">
        <ele>1033.9</ele>
        <time>2021-09-12T09:42:07.000Z</time>
      </trkpt>
      <trkpt lat="45.08514" lon="2.67928">
        <ele>1035.4</ele>
        <time>2021-09-12T09:42:13.000Z</time>
      </trkpt>
      <trkpt lat="45.08518" lon="2.67936">
        <ele>1036.9</ele>
        <time>2021-09-12T09:42:21.000Z</time>
      </trkpt>
      <trkpt lat="45.08524" lon="2.67944">
        <ele>1038.1</ele>
        <time>2021-09-12T09:42:29.000Z</time>
      </trkpt>
      <trkpt lat="45.0853" lon="2.67951">
        <ele>1038.8</ele>
        <time>2021-09-12T09:42:33.000Z</time>
      </trkpt>
      <trkpt lat="45.08535" lon="2.6796">
        <ele>1040.1</ele>
        <time>2021-09-12T09:42:39.000Z</time>
      </trkpt>
      <trkpt lat="45.08536" lon="2.6797">
        <ele>1042.1</ele>
        <time>2021-09-12T09:42:45.000Z</time>
      </trkpt>
      <trkpt lat="45.08538" lon="2.67981">
        <ele>1044.2</ele>
        <time>2021-09-12T09:42:51.000Z</time>
      </trkpt>
      <trkpt lat="45.08541" lon="2.6799">
        <ele>1045.5</ele>
        <time>2021-09-12T09:42:57.000Z</time>
      </trkpt>
      <trkpt lat="45.08545" lon="2.67998">
        <ele>1046.4</ele>
        <time>2021-09-12T09:43:03.000Z</time>
      </trkpt>
      <trkpt lat="45.08548" lon="2.68006">
        <ele>1047.6</ele>
        <time>2021-09-12T09:43:09.000Z</time>
      </trkpt>
      <trkpt lat="45.08551" lon="2.68016">
        <ele>1049.2</ele>
        <time>2021-09-12T09:43:15.000Z</time>
      </trkpt>
      <trkpt lat="45.08555" lon="2.68025">
        <ele>1050.3</ele>
        <time>2021-09-12T09:43:21.000Z</time>
      </trkpt>
      <trkpt lat="45.08557" lon="2.68037">
        <ele>1052.5</ele>
        <time>2021-09-12T09:43:27.000Z</time>
      </trkpt>
      <trkpt lat="45.08559" lon="2.6805">
        <ele>1054.9</ele>
        <time>2021-09-12T09:43:33.000Z</time>
      </trkpt>
      <trkpt lat="45.08562" lon="2.68062">
        <ele>1056.8</ele>
        <time>2021-09-12T09:43:39.000Z</time>
      </trkpt>
      <trkpt lat="45.08563" lon="2.68073">
        <ele>1058.9</ele>
        <time>2021-09-12T09:43:46.000Z</time>
      </trkpt>
      <trkpt lat="45.08564" lon="2.68082">
        <ele>1060.6</ele>
        <time>2021-09-12T09:43:51.000Z</time>
      </trkpt>
      <trkpt lat="45.08569" lon="2.68089">
        <ele>1061.4</ele>
        <time>2021-09-12T09:43:57.000Z</time>
      </trkpt>
      <trkpt lat="45.08575" lon="2.68095">
        <ele>1061.9</ele>
        <time>2021-09-12T09:44:04.000Z</time>
      </trkpt>
      <trkpt lat="45.08579" lon="2.68103">
        <ele>1063.5</ele>
        <time>2021-09-12T09:44:12.000Z</time>
      </trkpt>
      <trkpt lat="45.08584" lon="2.68108">
        <ele>1063.8</ele>
        <time>2021-09-12T09:44:18.000Z</time>
      </trkpt>
      <trkpt lat="45.08589" lon="2.68114">
        <ele>1064.1</ele>
        <time>2021-09-12T09:44:24.000Z</time>
      </trkpt>
      <trkpt lat="45.08594" lon="2.68121">
        <ele>1064.7</ele>
        <time>2021-09-12T09:44:31.000Z</time>
      </trkpt>
      <trkpt lat="45.08599" lon="2.68128">
        <ele>1065.1</ele>
        <time>2021-09-12T09:44:37.000Z</time>
      </trkpt>
      <trkpt lat="45.08603" lon="2.68138">
        <ele>1066.7</ele>
        <time>2021-09-12T09:44:43.000Z</time>
      </trkpt>
      <trkpt lat="45.08606" lon="2.68146">
        <ele>1067.9</ele>
        <time>2021-09-12T09:44:48.000Z</time>
      </trkpt>
      <trkpt lat="45.0861" lon="2.68156">
        <ele>1069.2</ele>
        <time>2021-09-12T09:44:53.000Z</time>
      </trkpt>
      <trkpt lat="45.08614" lon="2.68162">
        <ele>1069.2</ele>
        <time>2021-09-12T09:44:57.000Z</time>
      </trkpt>
      <trkpt lat="45.08622" lon="2.68171">
        <ele>1068.3</ele>
        <time>2021-09-12T09:45:03.000Z</time>
      </trkpt>
      <trkpt lat="45.08627" lon="2.68178">
        <ele>1068</ele>
        <time>2021-09-12T09:45:10.000Z</time>
      </trkpt>
      <trkpt lat="45.08632" lon="2.68184">
        <ele>1067.4</ele>
        <time>2021-09-12T09:45:16.000Z</time>
      </trkpt>
      <trkpt lat="45.08637" lon="2.68192">
        <ele>1067.2</ele>
        <time>2021-09-12T09:45:25.000Z</time>
      </trkpt>
      <trkpt lat="45.0864" lon="2.682">
        <ele>1067.9</ele>
        <time>2021-09-12T09:45:35.000Z</time>
      </trkpt>
      <trkpt lat="45.08642" lon="2.68209">
        <ele>1069.2</ele>
        <time>2021-09-12T09:45:43.000Z</time>
      </trkpt>
      <trkpt lat="45.08642" lon="2.68219">
        <ele>1071.6</ele>
        <time>2021-09-12T09:45:50.000Z</time>
      </trkpt>
      <trkpt lat="45.08644" lon="2.68229">
        <ele>1073.1</ele>
        <time>2021-09-12T09:45:58.000Z</time>
      </trkpt>
      <trkpt lat="45.08645" lon="2.68238">
        <ele>1074.8</ele>
        <time>2021-09-12T09:46:08.000Z</time>
      </trkpt>
      <trkpt lat="45.08646" lon="2.68248">
        <ele>1076.7</ele>
        <time>2021-09-12T09:46:18.000Z</time>
      </trkpt>
      <trkpt lat="45.08647" lon="2.68258">
        <ele>1078.5</ele>
        <time>2021-09-12T09:46:28.000Z</time>
      </trkpt>
      <trkpt lat="45.08648" lon="2.68267">
        <ele>1080.1</ele>
        <time>2021-09-12T09:46:35.000Z</time>
      </trkpt>
      <trkpt lat="45.08649" lon="2.68277">
        <ele>1081.8</ele>
        <time>2021-09-12T09:46:43.000Z</time>
      </trkpt>
      <trkpt lat="45.0865" lon="2.68287">
        <ele>1083.6</ele>
        <time>2021-09-12T09:46:50.000Z</time>
      </trkpt>
      <trkpt lat="45.08651" lon="2.68297">
        <ele>1085.3</ele>
        <time>2021-09-12T09:46:56.000Z</time>
      </trkpt>
      <trkpt lat="45.08651" lon="2.68307">
        <ele>1087.5</ele>
        <time>2021-09-12T09:47:03.000Z</time>
      </trkpt>
      <trkpt lat="45.08652" lon="2.68316">
        <ele>1089</ele>
        <time>2021-09-12T09:47:10.000Z</time>
      </trkpt>
      <trkpt lat="45.08653" lon="2.68327">
        <ele>1090.8</ele>
        <time>2021-09-12T09:47:17.000Z</time>
      </trkpt>
      <trkpt lat="45.08654" lon="2.68336">
        <ele>1091.9</ele>
        <time>2021-09-12T09:47:24.000Z</time>
      </trkpt>
      <trkpt lat="45.08656" lon="2.68345">
        <ele>1091.7</ele>
        <time>2021-09-12T09:47:30.000Z</time>
      </trkpt>
      <trkpt lat="45.08657" lon="2.68356">
        <ele>1092.2</ele>
        <time>2021-09-12T09:47:37.000Z</time>
      </trkpt>
      <trkpt lat="45.08658" lon="2.68366">
        <ele>1092.5</ele>
        <time>2021-09-12T09:47:46.000Z</time>
      </trkpt>
      <trkpt lat="45.0866" lon="2.68375">
        <ele>1092.2</ele>
        <time>2021-09-12T09:47:57.000Z</time>
      </trkpt>
      <trkpt lat="45.08659" lon="2.68384">
        <ele>1093.6</ele>
        <time>2021-09-12T09:48:06.000Z</time>
      </trkpt>
      <trkpt lat="45.08659" lon="2.68393">
        <ele>1094.4</ele>
        <time>2021-09-12T09:48:13.000Z</time>
      </trkpt>
      <trkpt lat="45.0866" lon="2.68403">
        <ele>1094.7</ele>
        <time>2021-09-12T09:48:20.000Z</time>
      </trkpt>
      <trkpt lat="45.08658" lon="2.68413">
        <ele>1096.8</ele>
        <time>2021-09-12T09:48:28.000Z</time>
      </trkpt>
      <trkpt lat="45.08659" lon="2.68424">
        <ele>1096.7</ele>
        <time>2021-09-12T09:48:34.000Z</time>
      </trkpt>
      <trkpt lat="45.0866" lon="2.68433">
        <ele>1096.3</ele>
        <time>2021-09-12T09:48:40.000Z</time>
      </trkpt>
      <trkpt lat="45.0866" lon="2.68443">
        <ele>1096.5</ele>
        <time>2021-09-12T09:48:46.000Z</time>
      </trkpt>
      <trkpt lat="45.08659" lon="2.68452">
        <ele>1097.3</ele>
        <time>2021-09-12T09:48:51.000Z</time>
      </trkpt>
      <trkpt lat="45.08659" lon="2.68462">
        <ele>1097.5</ele>
        <time>2021-09-12T09:48:59.000Z</time>
      </trkpt>
      <trkpt lat="45.08657" lon="2.68472">
        <ele>1098.9</ele>
        <time>2021-09-12T09:49:05.000Z</time>
      </trkpt>
      <trkpt lat="45.08655" lon="2.68483">
        <ele>1100.3</ele>
        <time>2021-09-12T09:49:13.000Z</time>
      </trkpt>
      <trkpt lat="45.08656" lon="2.68493">
        <ele>1100</ele>
        <time>2021-09-12T09:49:20.000Z</time>
      </trkpt>
      <trkpt lat="45.08658" lon="2.68502">
        <ele>1099.1</ele>
        <time>2021-09-12T09:49:28.000Z</time>
      </trkpt>
      <trkpt lat="45.08658" lon="2.68511">
        <ele>1099.5</ele>
        <time>2021-09-12T09:49:36.000Z</time>
      </trkpt>
      <trkpt lat="45.08657" lon="2.68521">
        <ele>1100.5</ele>
        <time>2021-09-12T09:49:42.000Z</time>
      </trkpt>
      <trkpt lat="45.08657" lon="2.68531">
        <ele>1101</ele>
        <time>2021-09-12T09:49:48.000Z</time>
      </trkpt>
      <trkpt lat="45.08658" lon="2.68542">
        <ele>1101</ele>
        <time>2021-09-12T09:49:52.000Z</time>
      </trkpt>
      <trkpt lat="45.08659" lon="2.68552">
        <ele>1100.9</ele>
        <time>2021-09-12T09:49:57.000Z</time>
      </trkpt>
      <trkpt lat="45.08659" lon="2.68563">
        <ele>1101.4</ele>
        <time>2021-09-12T09:50:03.000Z</time>
      </trkpt>
      <trkpt lat="45.08657" lon="2.68573">
        <ele>1103</ele>
        <time>2021-09-12T09:50:11.000Z</time>
      </trkpt>
      <trkpt lat="45.08651" lon="2.68581">
        <ele>1106.7</ele>
        <time>2021-09-12T09:50:15.000Z</time>
      </trkpt>
      <trkpt lat="45.08647" lon="2.68589">
        <ele>1109.7</ele>
        <time>2021-09-12T09:50:21.000Z</time>
      </trkpt>
      <trkpt lat="45.08643" lon="2.68596">
        <ele>1112.7</ele>
        <time>2021-09-12T09:50:27.000Z</time>
      </trkpt>
      <trkpt lat="45.08638" lon="2.68603">
        <ele>1116.3</ele>
        <time>2021-09-12T09:50:33.000Z</time>
      </trkpt>
      <trkpt lat="45.0863" lon="2.68618">
        <ele>1122.6</ele>
        <time>2021-09-12T09:50:39.000Z</time>
      </trkpt>
      <trkpt lat="45.08624" lon="2.68623">
        <ele>1126.6</ele>
        <time>2021-09-12T09:50:52.000Z</time>
      </trkpt>
      <trkpt lat="45.08619" lon="2.68618">
        <ele>1128.9</ele>
        <time>2021-09-12T09:51:11.000Z</time>
      </trkpt>
      <trkpt lat="45.08617" lon="2.68608">
        <ele>1128.9</ele>
        <time>2021-09-12T09:51:20.000Z</time>
      </trkpt>
      <trkpt lat="45.08613" lon="2.68599">
        <ele>1130.1</ele>
        <time>2021-09-12T09:51:25.000Z</time>
      </trkpt>
      <trkpt lat="45.08619" lon="2.68594">
        <ele>1126.1</ele>
        <time>2021-09-12T09:51:38.000Z</time>
      </trkpt>
      <trkpt lat="45.08626" lon="2.68593">
        <ele>1122</ele>
        <time>2021-09-12T09:51:42.000Z</time>
      </trkpt>
      <trkpt lat="45.08628" lon="2.68584">
        <ele>1119.9</ele>
        <time>2021-09-12T09:52:03.000Z</time>
      </trkpt>
      <trkpt lat="45.08619" lon="2.68582">
        <ele>1124.8</ele>
        <time>2021-09-12T09:52:11.000Z</time>
      </trkpt>
      <trkpt lat="45.08614" lon="2.68577">
        <ele>1127.4</ele>
        <time>2021-09-12T09:52:17.000Z</time>
      </trkpt>
      <trkpt lat="45.08609" lon="2.6857">
        <ele>1130</ele>
        <time>2021-09-12T09:52:22.000Z</time>
      </trkpt>
      <trkpt lat="45.08603" lon="2.6856">
        <ele>1133</ele>
        <time>2021-09-12T09:52:27.000Z</time>
      </trkpt>
      <trkpt lat="45.08601" lon="2.68551">
        <ele>1133.8</ele>
        <time>2021-09-12T09:52:38.000Z</time>
      </trkpt>
      <trkpt lat="45.086" lon="2.6854">
        <ele>1133.9</ele>
        <time>2021-09-12T09:52:46.000Z</time>
      </trkpt>
      <trkpt lat="45.08601" lon="2.68531">
        <ele>1133</ele>
        <time>2021-09-12T09:52:52.000Z</time>
      </trkpt>
      <trkpt lat="45.086" lon="2.68518">
        <ele>1133.1</ele>
        <time>2021-09-12T09:52:57.000Z</time>
      </trkpt>
      <trkpt lat="45.08598" lon="2.68504">
        <ele>1133.7</ele>
        <time>2021-09-12T09:53:03.000Z</time>
      </trkpt>
      <trkpt lat="45.08595" lon="2.68487">
        <ele>1135.1</ele>
        <time>2021-09-12T09:53:09.000Z</time>
      </trkpt>
      <trkpt lat="45.08593" lon="2.68477">
        <ele>1136.1</ele>
        <time>2021-09-12T09:53:15.000Z</time>
      </trkpt>
      <trkpt lat="45.0859" lon="2.68464">
        <ele>1137.7</ele>
        <time>2021-09-12T09:53:21.000Z</time>
      </trkpt>
      <trkpt lat="45.08588" lon="2.68455">
        <ele>1138.7</ele>
        <time>2021-09-12T09:53:36.000Z</time>
      </trkpt>
      <trkpt lat="45.08585" lon="2.68446">
        <ele>1140.4</ele>
        <time>2021-09-12T09:53:41.000Z</time>
      </trkpt>
      <trkpt lat="45.08584" lon="2.68437">
        <ele>1140.9</ele>
        <time>2021-09-12T09:53:45.000Z</time>
      </trkpt>
      <trkpt lat="45.08579" lon="2.68412">
        <ele>1140.9</ele>
        <time>2021-09-12T09:53:51.000Z</time>
      </trkpt>
      <trkpt lat="45.08577" lon="2.68403">
        <ele>1139.9</ele>
        <time>2021-09-12T09:53:57.000Z</time>
      </trkpt>
      <trkpt lat="45.08571" lon="2.68397">
        <ele>1139.8</ele>
        <time>2021-09-12T09:54:19.000Z</time>
      </trkpt>
      <trkpt lat="45.08567" lon="2.68389">
        <ele>1139.2</ele>
        <time>2021-09-12T09:54:28.000Z</time>
      </trkpt>
      <trkpt lat="45.08563" lon="2.68381">
        <ele>1138.5</ele>
        <time>2021-09-12T09:54:40.000Z</time>
      </trkpt>
      <trkpt lat="45.08556" lon="2.68371">
        <ele>1138</ele>
        <time>2021-09-12T09:55:08.000Z</time>
      </trkpt>
      <trkpt lat="45.0855" lon="2.68367">
        <ele>1138.2</ele>
        <time>2021-09-12T09:55:17.000Z</time>
      </trkpt>
      <trkpt lat="45.08544" lon="2.68363">
        <ele>1138.5</ele>
        <time>2021-09-12T09:55:27.000Z</time>
      </trkpt>
      <trkpt lat="45.08536" lon="2.68347">
        <ele>1137.2</ele>
        <time>2021-09-12T09:55:43.000Z</time>
      </trkpt>
      <trkpt lat="45.08529" lon="2.68344">
        <ele>1137.7</ele>
        <time>2021-09-12T09:56:06.000Z</time>
      </trkpt>
      <trkpt lat="45.08523" lon="2.68342">
        <ele>1138.2</ele>
        <time>2021-09-12T09:56:16.000Z</time>
      </trkpt>
      <trkpt lat="45.08513" lon="2.68339">
        <ele>1139.1</ele>
        <time>2021-09-12T09:56:31.000Z</time>
      </trkpt>
      <trkpt lat="45.08507" lon="2.68343">
        <ele>1140.5</ele>
        <time>2021-09-12T09:56:43.000Z</time>
      </trkpt>
      <trkpt lat="45.08501" lon="2.68338">
        <ele>1140.5</ele>
        <time>2021-09-12T09:56:50.000Z</time>
      </trkpt>
      <trkpt lat="45.08496" lon="2.68345">
        <ele>1140.4</ele>
        <time>2021-09-12T09:57:01.000Z</time>
      </trkpt>
      <trkpt lat="45.08489" lon="2.68341">
        <ele>1137.7</ele>
        <time>2021-09-12T09:57:09.000Z</time>
      </trkpt>
      <trkpt lat="45.08483" lon="2.68336">
        <ele>1135.3</ele>
        <time>2021-09-12T09:57:30.000Z</time>
      </trkpt>
      <trkpt lat="45.08476" lon="2.68331">
        <ele>1132.4</ele>
        <time>2021-09-12T09:58:20.000Z</time>
      </trkpt>
      <trkpt lat="45.08475" lon="2.6834">
        <ele>1133.3</ele>
        <time>2021-09-12T09:59:08.000Z</time>
      </trkpt>
      <trkpt lat="45.08474" lon="2.6835">
        <ele>1134.3</ele>
        <time>2021-09-12T09:59:38.000Z</time>
      </trkpt>
      <trkpt lat="45.08474" lon="2.6836">
        <ele>1135.5</ele>
        <time>2021-09-12T09:59:58.000Z</time>
      </trkpt>
      <trkpt lat="45.08467" lon="2.6836">
        <ele>1133.3</ele>
        <time>2021-09-12T10:00:21.000Z</time>
      </trkpt>
      <trkpt lat="45.08461" lon="2.68349">
        <ele>1130.1</ele>
        <time>2021-09-12T10:00:46.000Z</time>
      </trkpt>
      <trkpt lat="45.08464" lon="2.68358">
        <ele>1132.1</ele>
        <time>2021-09-12T10:02:29.000Z</time>
      </trkpt>
      <trkpt lat="45.08461" lon="2.68366">
        <ele>1132.1</ele>
        <time>2021-09-12T10:02:56.000Z</time>
      </trkpt>
      <trkpt lat="45.08459" lon="2.68376">
        <ele>1132.6</ele>
        <time>2021-09-12T10:03:16.000Z</time>
      </trkpt>
      <trkpt lat="45.08464" lon="2.68383">
        <ele>1135.1</ele>
        <time>2021-09-12T10:03:25.000Z</time>
      </trkpt>
      <trkpt lat="45.08459" lon="2.68392">
        <ele>1134.4</ele>
        <time>2021-09-12T10:03:49.000Z</time>
      </trkpt>
      <trkpt lat="45.08453" lon="2.68397">
        <ele>1132.9</ele>
        <time>2021-09-12T10:03:56.000Z</time>
      </trkpt>
      <trkpt lat="45.08452" lon="2.68409">
        <ele>1133.9</ele>
        <time>2021-09-12T10:04:00.000Z</time>
      </trkpt>
      <trkpt lat="45.08455" lon="2.68421">
        <ele>1136.1</ele>
        <time>2021-09-12T10:04:06.000Z</time>
      </trkpt>
      <trkpt lat="45.08453" lon="2.68432">
        <ele>1136.2</ele>
        <time>2021-09-12T10:04:40.000Z</time>
      </trkpt>
      <trkpt lat="45.0845" lon="2.68441">
        <ele>1135.8</ele>
        <time>2021-09-12T10:04:46.000Z</time>
      </trkpt>
      <trkpt lat="45.08448" lon="2.68453">
        <ele>1136</ele>
        <time>2021-09-12T10:05:05.000Z</time>
      </trkpt>
      <trkpt lat="45.08447" lon="2.68462">
        <ele>1136.2</ele>
        <time>2021-09-12T10:05:11.000Z</time>
      </trkpt>
      <trkpt lat="45.08445" lon="2.68472">
        <ele>1136.2</ele>
        <time>2021-09-12T10:05:21.000Z</time>
      </trkpt>
      <trkpt lat="45.08442" lon="2.68481">
        <ele>1135.7</ele>
        <time>2021-09-12T10:05:32.000Z</time>
      </trkpt>
      <trkpt lat="45.08438" lon="2.68488">
        <ele>1134.6</ele>
        <time>2021-09-12T10:05:38.000Z</time>
      </trkpt>
      <trkpt lat="45.08438" lon="2.68497">
        <ele>1135.2</ele>
        <time>2021-09-12T10:05:46.000Z</time>
      </trkpt>
      <trkpt lat="45.08437" lon="2.68507">
        <ele>1135.6</ele>
        <time>2021-09-12T10:05:55.000Z</time>
      </trkpt>
      <trkpt lat="45.08439" lon="2.68519">
        <ele>1137.4</ele>
        <time>2021-09-12T10:06:08.000Z</time>
      </trkpt>
      <trkpt lat="45.08438" lon="2.6853">
        <ele>1138</ele>
        <time>2021-09-12T10:06:15.000Z</time>
      </trkpt>
      <trkpt lat="45.0844" lon="2.68539">
        <ele>1139.5</ele>
        <time>2021-09-12T10:06:22.000Z</time>
      </trkpt>
      <trkpt lat="45.08439" lon="2.68551">
        <ele>1140.1</ele>
        <time>2021-09-12T10:06:27.000Z</time>
      </trkpt>
      <trkpt lat="45.08434" lon="2.68566">
        <ele>1139.4</ele>
        <time>2021-09-12T10:06:43.000Z</time>
      </trkpt>
      <trkpt lat="45.0844" lon="2.68578">
        <ele>1142.8</ele>
        <time>2021-09-12T10:06:49.000Z</time>
      </trkpt>
      <trkpt lat="45.0844" lon="2.68587">
        <ele>1143.9</ele>
        <time>2021-09-12T10:06:55.000Z</time>
      </trkpt>
      <trkpt lat="45.08437" lon="2.68598">
        <ele>1144.8</ele>
        <time>2021-09-12T10:07:01.000Z</time>
      </trkpt>
      <trkpt lat="45.08436" lon="2.68607">
        <ele>1146.1</ele>
        <time>2021-09-12T10:07:12.000Z</time>
      </trkpt>
      <trkpt lat="45.08437" lon="2.68618">
        <ele>1148.5</ele>
        <time>2021-09-12T10:07:28.000Z</time>
      </trkpt>
      <trkpt lat="45.08436" lon="2.68627">
        <ele>1149.8</ele>
        <time>2021-09-12T10:07:35.000Z</time>
      </trkpt>
      <trkpt lat="45.08435" lon="2.68636">
        <ele>1151.2</ele>
        <time>2021-09-12T10:07:42.000Z</time>
      </trkpt>
      <trkpt lat="45.08432" lon="2.68644">
        <ele>1151.6</ele>
        <time>2021-09-12T10:07:48.000Z</time>
      </trkpt>
      <trkpt lat="45.08427" lon="2.68651">
        <ele>1151.3</ele>
        <time>2021-09-12T10:07:56.000Z</time>
      </trkpt>
      <trkpt lat="45.08424" lon="2.68661">
        <ele>1152.3</ele>
        <time>2021-09-12T10:08:03.000Z</time>
      </trkpt>
      <trkpt lat="45.08424" lon="2.68671">
        <ele>1154.4</ele>
        <time>2021-09-12T10:08:12.000Z</time>
      </trkpt>
      <trkpt lat="45.08423" lon="2.6868">
        <ele>1156.4</ele>
        <time>2021-09-12T10:08:19.000Z</time>
      </trkpt>
      <trkpt lat="45.08424" lon="2.68691">
        <ele>1159.4</ele>
        <time>2021-09-12T10:08:26.000Z</time>
      </trkpt>
      <trkpt lat="45.08423" lon="2.687">
        <ele>1161.3</ele>
        <time>2021-09-12T10:08:36.000Z</time>
      </trkpt>
      <trkpt lat="45.08419" lon="2.68709">
        <ele>1162.4</ele>
        <time>2021-09-12T10:08:47.000Z</time>
      </trkpt>
      <trkpt lat="45.08417" lon="2.68718">
        <ele>1164</ele>
        <time>2021-09-12T10:08:53.000Z</time>
      </trkpt>
      <trkpt lat="45.0841" lon="2.68721">
        <ele>1162.1</ele>
        <time>2021-09-12T10:08:57.000Z</time>
      </trkpt>
      <trkpt lat="45.08396" lon="2.68725">
        <ele>1157.7</ele>
        <time>2021-09-12T10:09:04.000Z</time>
      </trkpt>
      <trkpt lat="45.08401" lon="2.68732">
        <ele>1161.4</ele>
        <time>2021-09-12T10:09:17.000Z</time>
      </trkpt>
      <trkpt lat="45.084" lon="2.68742">
        <ele>1163.4</ele>
        <time>2021-09-12T10:09:27.000Z</time>
      </trkpt>
      <trkpt lat="45.08396" lon="2.68752">
        <ele>1164.3</ele>
        <time>2021-09-12T10:09:32.000Z</time>
      </trkpt>
      <trkpt lat="45.08391" lon="2.6876">
        <ele>1164.2</ele>
        <time>2021-09-12T10:09:38.000Z</time>
      </trkpt>
      <trkpt lat="45.08386" lon="2.68766">
        <ele>1163.6</ele>
        <time>2021-09-12T10:09:45.000Z</time>
      </trkpt>
      <trkpt lat="45.08385" lon="2.68777">
        <ele>1165.8</ele>
        <time>2021-09-12T10:09:51.000Z</time>
      </trkpt>
      <trkpt lat="45.08382" lon="2.68786">
        <ele>1166.7</ele>
        <time>2021-09-12T10:09:56.000Z</time>
      </trkpt>
      <trkpt lat="45.08376" lon="2.6879">
        <ele>1165.3</ele>
        <time>2021-09-12T10:10:02.000Z</time>
      </trkpt>
      <trkpt lat="45.08372" lon="2.68798">
        <ele>1165.5</ele>
        <time>2021-09-12T10:10:08.000Z</time>
      </trkpt>
      <trkpt lat="45.08369" lon="2.68808">
        <ele>1166.6</ele>
        <time>2021-09-12T10:10:14.000Z</time>
      </trkpt>
      <trkpt lat="45.08362" lon="2.68804">
        <ele>1162.9</ele>
        <time>2021-09-12T10:10:17.000Z</time>
      </trkpt>
      <trkpt lat="45.08355" lon="2.68806">
        <ele>1160.5</ele>
        <time>2021-09-12T10:10:23.000Z</time>
      </trkpt>
      <trkpt lat="45.08345" lon="2.68802">
        <ele>1155.6</ele>
        <time>2021-09-12T10:10:29.000Z</time>
      </trkpt>
      <trkpt lat="45.08339" lon="2.68807">
        <ele>1154.3</ele>
        <time>2021-09-12T10:10:36.000Z</time>
      </trkpt>
      <trkpt lat="45.08334" lon="2.68813">
        <ele>1153.6</ele>
        <time>2021-09-12T10:10:42.000Z</time>
      </trkpt>
      <trkpt lat="45.08332" lon="2.68822">
        <ele>1154.9</ele>
        <time>2021-09-12T10:10:49.000Z</time>
      </trkpt>
      <trkpt lat="45.08331" lon="2.68831">
        <ele>1156.6</ele>
        <time>2021-09-12T10:10:55.000Z</time>
      </trkpt>
      <trkpt lat="45.0833" lon="2.68841">
        <ele>1157.3</ele>
        <time>2021-09-12T10:11:02.000Z</time>
      </trkpt>
      <trkpt lat="45.08329" lon="2.68851">
        <ele>1157.7</ele>
        <time>2021-09-12T10:11:07.000Z</time>
      </trkpt>
      <trkpt lat="45.08327" lon="2.6886">
        <ele>1157.7</ele>
        <time>2021-09-12T10:11:17.000Z</time>
      </trkpt>
      <trkpt lat="45.08326" lon="2.68869">
        <ele>1158</ele>
        <time>2021-09-12T10:11:43.000Z</time>
      </trkpt>
      <trkpt lat="45.08323" lon="2.68877">
        <ele>1157.6</ele>
        <time>2021-09-12T10:11:47.000Z</time>
      </trkpt>
      <trkpt lat="45.08327" lon="2.68869">
        <ele>1158.3</ele>
        <time>2021-09-12T10:11:57.000Z</time>
      </trkpt>
      <trkpt lat="45.08328" lon="2.6888">
        <ele>1159.5</ele>
        <time>2021-09-12T10:12:05.000Z</time>
      </trkpt>
      <trkpt lat="45.0833" lon="2.68891">
        <ele>1161</ele>
        <time>2021-09-12T10:12:10.000Z</time>
      </trkpt>
      <trkpt lat="45.0833" lon="2.689">
        <ele>1161.7</ele>
        <time>2021-09-12T10:12:15.000Z</time>
      </trkpt>
      <trkpt lat="45.08331" lon="2.68911">
        <ele>1162.8</ele>
        <time>2021-09-12T10:12:22.000Z</time>
      </trkpt>
      <trkpt lat="45.08332" lon="2.68921">
        <ele>1163.9</ele>
        <time>2021-09-12T10:12:27.000Z</time>
      </trkpt>
      <trkpt lat="45.08333" lon="2.68931">
        <ele>1164.9</ele>
        <time>2021-09-12T10:12:33.000Z</time>
      </trkpt>
      <trkpt lat="45.08335" lon="2.68941">
        <ele>1166.5</ele>
        <time>2021-09-12T10:12:39.000Z</time>
      </trkpt>
      <trkpt lat="45.08337" lon="2.68949">
        <ele>1167.9</ele>
        <time>2021-09-12T10:12:45.000Z</time>
      </trkpt>
      <trkpt lat="45.08341" lon="2.68957">
        <ele>1170.2</ele>
        <time>2021-09-12T10:12:53.000Z</time>
      </trkpt>
      <trkpt lat="45.08343" lon="2.68967">
        <ele>1171.7</ele>
        <time>2021-09-12T10:12:59.000Z</time>
      </trkpt>
      <trkpt lat="45.08349" lon="2.68974">
        <ele>1174.7</ele>
        <time>2021-09-12T10:13:14.000Z</time>
      </trkpt>
      <trkpt lat="45.08356" lon="2.68984">
        <ele>1178.3</ele>
        <time>2021-09-12T10:13:22.000Z</time>
      </trkpt>
      <trkpt lat="45.08362" lon="2.68988">
        <ele>1181</ele>
        <time>2021-09-12T10:13:35.000Z</time>
      </trkpt>
      <trkpt lat="45.08368" lon="2.68993">
        <ele>1183.7</ele>
        <time>2021-09-12T10:13:43.000Z</time>
      </trkpt>
      <trkpt lat="45.08371" lon="2.69002">
        <ele>1185.6</ele>
        <time>2021-09-12T10:13:55.000Z</time>
      </trkpt>
      <trkpt lat="45.08379" lon="2.69003">
        <ele>1188.9</ele>
        <time>2021-09-12T10:14:15.000Z</time>
      </trkpt>
      <trkpt lat="45.08383" lon="2.69011">
        <ele>1191.1</ele>
        <time>2021-09-12T10:14:28.000Z</time>
      </trkpt>
      <trkpt lat="45.08387" lon="2.69024">
        <ele>1193.6</ele>
        <time>2021-09-12T10:14:48.000Z</time>
      </trkpt>
      <trkpt lat="45.08393" lon="2.69029">
        <ele>1196.1</ele>
        <time>2021-09-12T10:14:55.000Z</time>
      </trkpt>
      <trkpt lat="45.08399" lon="2.69034">
        <ele>1198.6</ele>
        <time>2021-09-12T10:15:07.000Z</time>
      </trkpt>
      <trkpt lat="45.08395" lon="2.69044">
        <ele>1197.7</ele>
        <time>2021-09-12T10:15:10.000Z</time>
      </trkpt>
      <trkpt lat="45.08399" lon="2.69052">
        <ele>1199.5</ele>
        <time>2021-09-12T10:15:30.000Z</time>
      </trkpt>
      <trkpt lat="45.08406" lon="2.6906">
        <ele>1202.1</ele>
        <time>2021-09-12T10:15:58.000Z</time>
      </trkpt>
      <trkpt lat="45.08408" lon="2.69069">
        <ele>1203.1</ele>
        <time>2021-09-12T10:16:04.000Z</time>
      </trkpt>
      <trkpt lat="45.08407" lon="2.69085">
        <ele>1203.5</ele>
        <time>2021-09-12T10:16:08.000Z</time>
      </trkpt>
      <trkpt lat="45.08407" lon="2.69095">
        <ele>1204.3</ele>
        <time>2021-09-12T10:16:15.000Z</time>
      </trkpt>
      <trkpt lat="45.0841" lon="2.69104">
        <ele>1205.8</ele>
        <time>2021-09-12T10:16:31.000Z</time>
      </trkpt>
      <trkpt lat="45.08403" lon="2.69106">
        <ele>1204.2</ele>
        <time>2021-09-12T10:16:50.000Z</time>
      </trkpt>
      <trkpt lat="45.08398" lon="2.69114">
        <ele>1203.7</ele>
        <time>2021-09-12T10:17:03.000Z</time>
      </trkpt>
      <trkpt lat="45.08395" lon="2.69123">
        <ele>1203.9</ele>
        <time>2021-09-12T10:17:09.000Z</time>
      </trkpt>
      <trkpt lat="45.08391" lon="2.69132">
        <ele>1203.9</ele>
        <time>2021-09-12T10:17:19.000Z</time>
      </trkpt>
      <trkpt lat="45.08387" lon="2.69141">
        <ele>1203.9</ele>
        <time>2021-09-12T10:17:26.000Z</time>
      </trkpt>
      <trkpt lat="45.08384" lon="2.69159">
        <ele>1205.3</ele>
        <time>2021-09-12T10:17:46.000Z</time>
      </trkpt>
      <trkpt lat="45.08381" lon="2.69179">
        <ele>1208.8</ele>
        <time>2021-09-12T10:18:07.000Z</time>
      </trkpt>
      <trkpt lat="45.08381" lon="2.69189">
        <ele>1211.4</ele>
        <time>2021-09-12T10:18:18.000Z</time>
      </trkpt>
      <trkpt lat="45.08379" lon="2.69197">
        <ele>1213.2</ele>
        <time>2021-09-12T10:18:36.000Z</time>
      </trkpt>
      <trkpt lat="45.08374" lon="2.69204">
        <ele>1214.2</ele>
        <time>2021-09-12T10:18:46.000Z</time>
      </trkpt>
      <trkpt lat="45.08368" lon="2.69222">
        <ele>1218.1</ele>
        <time>2021-09-12T10:19:03.000Z</time>
      </trkpt>
      <trkpt lat="45.08368" lon="2.69232">
        <ele>1220.8</ele>
        <time>2021-09-12T10:19:10.000Z</time>
      </trkpt>
      <trkpt lat="45.08367" lon="2.6925">
        <ele>1225.4</ele>
        <time>2021-09-12T10:19:25.000Z</time>
      </trkpt>
      <trkpt lat="45.08363" lon="2.69268">
        <ele>1231</ele>
        <time>2021-09-12T10:19:56.000Z</time>
      </trkpt>
      <trkpt lat="45.08359" lon="2.69277">
        <ele>1233.6</ele>
        <time>2021-09-12T10:20:04.000Z</time>
      </trkpt>
      <trkpt lat="45.08355" lon="2.69285">
        <ele>1236</ele>
        <time>2021-09-12T10:20:13.000Z</time>
      </trkpt>
      <trkpt lat="45.08352" lon="2.69295">
        <ele>1239.2</ele>
        <time>2021-09-12T10:20:22.000Z</time>
      </trkpt>
      <trkpt lat="45.08347" lon="2.69301">
        <ele>1241</ele>
        <time>2021-09-12T10:20:28.000Z</time>
      </trkpt>
      <trkpt lat="45.08343" lon="2.6931">
        <ele>1243.9</ele>
        <time>2021-09-12T10:20:35.000Z</time>
      </trkpt>
      <trkpt lat="45.08337" lon="2.69316">
        <ele>1245.8</ele>
        <time>2021-09-12T10:20:43.000Z</time>
      </trkpt>
      <trkpt lat="45.0833" lon="2.6932">
        <ele>1246.3</ele>
        <time>2021-09-12T10:20:51.000Z</time>
      </trkpt>
      <trkpt lat="45.08317" lon="2.69322">
        <ele>1244.2</ele>
        <time>2021-09-12T10:21:11.000Z</time>
      </trkpt>
      <trkpt lat="45.08311" lon="2.69327">
        <ele>1244.7</ele>
        <time>2021-09-12T10:21:29.000Z</time>
      </trkpt>
      <trkpt lat="45.08304" lon="2.69329">
        <ele>1243.8</ele>
        <time>2021-09-12T10:21:36.000Z</time>
      </trkpt>
      <trkpt lat="45.08292" lon="2.69326">
        <ele>1240.2</ele>
        <time>2021-09-12T10:21:55.000Z</time>
      </trkpt>
      <trkpt lat="45.08286" lon="2.69325">
        <ele>1238.5</ele>
        <time>2021-09-12T10:22:03.000Z</time>
      </trkpt>
      <trkpt lat="45.08281" lon="2.69333">
        <ele>1240</ele>
        <time>2021-09-12T10:22:28.000Z</time>
      </trkpt>
      <trkpt lat="45.08278" lon="2.6934">
        <ele>1241.7</ele>
        <time>2021-09-12T10:22:38.000Z</time>
      </trkpt>
      <trkpt lat="45.08272" lon="2.69346">
        <ele>1242.4</ele>
        <time>2021-09-12T10:22:56.000Z</time>
      </trkpt>
      <trkpt lat="45.08266" lon="2.69352">
        <ele>1243</ele>
        <time>2021-09-12T10:23:05.000Z</time>
      </trkpt>
      <trkpt lat="45.08259" lon="2.69359">
        <ele>1243.8</ele>
        <time>2021-09-12T10:23:11.000Z</time>
      </trkpt>
      <trkpt lat="45.08254" lon="2.69365">
        <ele>1244.6</ele>
        <time>2021-09-12T10:23:17.000Z</time>
      </trkpt>
      <trkpt lat="45.0825" lon="2.69373">
        <ele>1246.3</ele>
        <time>2021-09-12T10:23:25.000Z</time>
      </trkpt>
      <trkpt lat="45.08245" lon="2.69382">
        <ele>1248.7</ele>
        <time>2021-09-12T10:23:31.000Z</time>
      </trkpt>
      <trkpt lat="45.08239" lon="2.69386">
        <ele>1249.2</ele>
        <time>2021-09-12T10:23:39.000Z</time>
      </trkpt>
      <trkpt lat="45.08232" lon="2.69389">
        <ele>1249.2</ele>
        <time>2021-09-12T10:23:43.000Z</time>
      </trkpt>
      <trkpt lat="45.08227" lon="2.69395">
        <ele>1250.3</ele>
        <time>2021-09-12T10:25:11.000Z</time>
      </trkpt>
      <trkpt lat="45.08222" lon="2.69401">
        <ele>1251.3</ele>
        <time>2021-09-12T10:25:22.000Z</time>
      </trkpt>
      <trkpt lat="45.08216" lon="2.69406">
        <ele>1251.8</ele>
        <time>2021-09-12T10:25:34.000Z</time>
      </trkpt>
      <trkpt lat="45.08212" lon="2.69414">
        <ele>1253.4</ele>
        <time>2021-09-12T10:25:49.000Z</time>
      </trkpt>
      <trkpt lat="45.08208" lon="2.69421">
        <ele>1254.7</ele>
        <time>2021-09-12T10:26:01.000Z</time>
      </trkpt>
      <trkpt lat="45.08202" lon="2.69427">
        <ele>1255.3</ele>
        <time>2021-09-12T10:26:12.000Z</time>
      </trkpt>
      <trkpt lat="45.08197" lon="2.69432">
        <ele>1255.7</ele>
        <time>2021-09-12T10:26:20.000Z</time>
      </trkpt>
      <trkpt lat="45.08191" lon="2.69437">
        <ele>1255.8</ele>
        <time>2021-09-12T10:26:30.000Z</time>
      </trkpt>
      <trkpt lat="45.08188" lon="2.69446">
        <ele>1257.6</ele>
        <time>2021-09-12T10:26:40.000Z</time>
      </trkpt>
      <trkpt lat="45.08185" lon="2.69454">
        <ele>1259</ele>
        <time>2021-09-12T10:26:50.000Z</time>
      </trkpt>
      <trkpt lat="45.08178" lon="2.69462">
        <ele>1259.5</ele>
        <time>2021-09-12T10:27:28.000Z</time>
      </trkpt>
      <trkpt lat="45.0818" lon="2.69471">
        <ele>1262.3</ele>
        <time>2021-09-12T10:27:38.000Z</time>
      </trkpt>
      <trkpt lat="45.08179" lon="2.69481">
        <ele>1264.6</ele>
        <time>2021-09-12T10:27:45.000Z</time>
      </trkpt>
      <trkpt lat="45.08177" lon="2.6949">
        <ele>1266.3</ele>
        <time>2021-09-12T10:27:53.000Z</time>
      </trkpt>
      <trkpt lat="45.08172" lon="2.69496">
        <ele>1266.5</ele>
        <time>2021-09-12T10:28:02.000Z</time>
      </trkpt>
      <trkpt lat="45.08172" lon="2.69507">
        <ele>1268.9</ele>
        <time>2021-09-12T10:28:10.000Z</time>
      </trkpt>
      <trkpt lat="45.08172" lon="2.69517">
        <ele>1271</ele>
        <time>2021-09-12T10:28:15.000Z</time>
      </trkpt>
      <trkpt lat="45.08171" lon="2.69526">
        <ele>1272.6</ele>
        <time>2021-09-12T10:28:21.000Z</time>
      </trkpt>
      <trkpt lat="45.08168" lon="2.69535">
        <ele>1273.5</ele>
        <time>2021-09-12T10:28:28.000Z</time>
      </trkpt>
      <trkpt lat="45.08168" lon="2.69545">
        <ele>1275.6</ele>
        <time>2021-09-12T10:28:35.000Z</time>
      </trkpt>
      <trkpt lat="45.08168" lon="2.69555">
        <ele>1277.7</ele>
        <time>2021-09-12T10:28:43.000Z</time>
      </trkpt>
      <trkpt lat="45.08167" lon="2.69565">
        <ele>1279.4</ele>
        <time>2021-09-12T10:28:49.000Z</time>
      </trkpt>
      <trkpt lat="45.08165" lon="2.69574">
        <ele>1280.8</ele>
        <time>2021-09-12T10:28:59.000Z</time>
      </trkpt>
      <trkpt lat="45.08165" lon="2.69586">
        <ele>1283.3</ele>
        <time>2021-09-12T10:29:04.000Z</time>
      </trkpt>
      <trkpt lat="45.08165" lon="2.69595">
        <ele>1285.4</ele>
        <time>2021-09-12T10:29:13.000Z</time>
      </trkpt>
      <trkpt lat="45.08163" lon="2.69605">
        <ele>1287.3</ele>
        <time>2021-09-12T10:29:23.000Z</time>
      </trkpt>
      <trkpt lat="45.08163" lon="2.69615">
        <ele>1289.6</ele>
        <time>2021-09-12T10:29:28.000Z</time>
      </trkpt>
      <trkpt lat="45.08156" lon="2.69618">
        <ele>1289</ele>
        <time>2021-09-12T10:29:36.000Z</time>
      </trkpt>
      <trkpt lat="45.08154" lon="2.69628">
        <ele>1291</ele>
        <time>2021-09-12T10:30:04.000Z</time>
      </trkpt>
      <trkpt lat="45.08152" lon="2.69637">
        <ele>1292.7</ele>
        <time>2021-09-12T10:30:17.000Z</time>
      </trkpt>
      <trkpt lat="45.08153" lon="2.69646">
        <ele>1295</ele>
        <time>2021-09-12T10:30:26.000Z</time>
      </trkpt>
      <trkpt lat="45.08153" lon="2.69656">
        <ele>1297.3</ele>
        <time>2021-09-12T10:30:36.000Z</time>
      </trkpt>
      <trkpt lat="45.08153" lon="2.69666">
        <ele>1299.6</ele>
        <time>2021-09-12T10:30:43.000Z</time>
      </trkpt>
      <trkpt lat="45.08152" lon="2.69676">
        <ele>1301.6</ele>
        <time>2021-09-12T10:30:52.000Z</time>
      </trkpt>
      <trkpt lat="45.08152" lon="2.69685">
        <ele>1303.6</ele>
        <time>2021-09-12T10:31:02.000Z</time>
      </trkpt>
      <trkpt lat="45.08153" lon="2.69696">
        <ele>1306.2</ele>
        <time>2021-09-12T10:31:13.000Z</time>
      </trkpt>
      <trkpt lat="45.08147" lon="2.69702">
        <ele>1306.5</ele>
        <time>2021-09-12T10:31:28.000Z</time>
      </trkpt>
      <trkpt lat="45.08147" lon="2.69712">
        <ele>1308.7</ele>
        <time>2021-09-12T10:31:41.000Z</time>
      </trkpt>
      <trkpt lat="45.08144" lon="2.69721">
        <ele>1310.3</ele>
        <time>2021-09-12T10:31:56.000Z</time>
      </trkpt>
      <trkpt lat="45.08146" lon="2.69731">
        <ele>1312.8</ele>
        <time>2021-09-12T10:32:05.000Z</time>
      </trkpt>
      <trkpt lat="45.08143" lon="2.6974">
        <ele>1314.4</ele>
        <time>2021-09-12T10:32:14.000Z</time>
      </trkpt>
      <trkpt lat="45.08139" lon="2.69752">
        <ele>1316.4</ele>
        <time>2021-09-12T10:32:26.000Z</time>
      </trkpt>
      <trkpt lat="45.08134" lon="2.69759">
        <ele>1317</ele>
        <time>2021-09-12T10:32:37.000Z</time>
      </trkpt>
      <trkpt lat="45.08138" lon="2.69767">
        <ele>1319</ele>
        <time>2021-09-12T10:33:01.000Z</time>
      </trkpt>
      <trkpt lat="45.08137" lon="2.69777">
        <ele>1320.7</ele>
        <time>2021-09-12T10:33:12.000Z</time>
      </trkpt>
      <trkpt lat="45.08141" lon="2.69788">
        <ele>1323.3</ele>
        <time>2021-09-12T10:33:18.000Z</time>
      </trkpt>
      <trkpt lat="45.08141" lon="2.69797">
        <ele>1324.9</ele>
        <time>2021-09-12T10:33:47.000Z</time>
      </trkpt>
      <trkpt lat="45.08146" lon="2.69804">
        <ele>1326.9</ele>
        <time>2021-09-12T10:33:55.000Z</time>
      </trkpt>
      <trkpt lat="45.08151" lon="2.6981">
        <ele>1328.7</ele>
        <time>2021-09-12T10:34:01.000Z</time>
      </trkpt>
      <trkpt lat="45.08156" lon="2.69818">
        <ele>1330.8</ele>
        <time>2021-09-12T10:34:11.000Z</time>
      </trkpt>
      <trkpt lat="45.08159" lon="2.69829">
        <ele>1333.2</ele>
        <time>2021-09-12T10:34:17.000Z</time>
      </trkpt>
      <trkpt lat="45.0816" lon="2.69839">
        <ele>1335.1</ele>
        <time>2021-09-12T10:34:23.000Z</time>
      </trkpt>
      <trkpt lat="45.08159" lon="2.69849">
        <ele>1336.7</ele>
        <time>2021-09-12T10:34:30.000Z</time>
      </trkpt>
      <trkpt lat="45.08157" lon="2.69859">
        <ele>1338.2</ele>
        <time>2021-09-12T10:34:37.000Z</time>
      </trkpt>
      <trkpt lat="45.08156" lon="2.69869">
        <ele>1339.8</ele>
        <time>2021-09-12T10:34:43.000Z</time>
      </trkpt>
      <trkpt lat="45.08152" lon="2.69877">
        <ele>1340.8</ele>
        <time>2021-09-12T10:34:52.000Z</time>
      </trkpt>
      <trkpt lat="45.08147" lon="2.69883">
        <ele>1341.3</ele>
        <time>2021-09-12T10:35:00.000Z</time>
      </trkpt>
      <trkpt lat="45.08141" lon="2.69888">
        <ele>1341.6</ele>
        <time>2021-09-12T10:35:08.000Z</time>
      </trkpt>
      <trkpt lat="45.08135" lon="2.69893">
        <ele>1341.9</ele>
        <time>2021-09-12T10:35:15.000Z</time>
      </trkpt>
      <trkpt lat="45.0813" lon="2.69902">
        <ele>1343.1</ele>
        <time>2021-09-12T10:35:23.000Z</time>
      </trkpt>
      <trkpt lat="45.08125" lon="2.69909">
        <ele>1344</ele>
        <time>2021-09-12T10:35:31.000Z</time>
      </trkpt>
      <trkpt lat="45.0812" lon="2.69915">
        <ele>1344.8</ele>
        <time>2021-09-12T10:35:36.000Z</time>
      </trkpt>
      <trkpt lat="45.08113" lon="2.69921">
        <ele>1345.6</ele>
        <time>2021-09-12T10:35:42.000Z</time>
      </trkpt>
      <trkpt lat="45.08108" lon="2.69915">
        <ele>1343.7</ele>
        <time>2021-09-12T10:36:10.000Z</time>
      </trkpt>
      <trkpt lat="45.08106" lon="2.69924">
        <ele>1345.8</ele>
        <time>2021-09-12T10:36:23.000Z</time>
      </trkpt>
      <trkpt lat="45.08099" lon="2.69927">
        <ele>1345.9</ele>
        <time>2021-09-12T10:36:31.000Z</time>
      </trkpt>
      <trkpt lat="45.08094" lon="2.69934">
        <ele>1347.3</ele>
        <time>2021-09-12T10:36:44.000Z</time>
      </trkpt>
      <trkpt lat="45.08088" lon="2.6994">
        <ele>1348.3</ele>
        <time>2021-09-12T10:36:57.000Z</time>
      </trkpt>
      <trkpt lat="45.08083" lon="2.69947">
        <ele>1349.6</ele>
        <time>2021-09-12T10:37:17.000Z</time>
      </trkpt>
      <trkpt lat="45.08076" lon="2.6995">
        <ele>1349.9</ele>
        <time>2021-09-12T10:37:34.000Z</time>
      </trkpt>
      <trkpt lat="45.08071" lon="2.69954">
        <ele>1350.5</ele>
        <time>2021-09-12T10:37:46.000Z</time>
      </trkpt>
      <trkpt lat="45.08065" lon="2.69959">
        <ele>1351.3</ele>
        <time>2021-09-12T10:37:53.000Z</time>
      </trkpt>
      <trkpt lat="45.08053" lon="2.69964">
        <ele>1351.7</ele>
        <time>2021-09-12T10:38:07.000Z</time>
      </trkpt>
      <trkpt lat="45.08052" lon="2.69973">
        <ele>1353.9</ele>
        <time>2021-09-12T10:39:12.000Z</time>
      </trkpt>
      <trkpt lat="45.08059" lon="2.69985">
        <ele>1357.5</ele>
        <time>2021-09-12T10:39:46.000Z</time>
      </trkpt>
      <trkpt lat="45.08066" lon="2.69988">
        <ele>1358.7</ele>
        <time>2021-09-12T10:40:02.000Z</time>
      </trkpt>
      <trkpt lat="45.08073" lon="2.69992">
        <ele>1360.2</ele>
        <time>2021-09-12T10:40:22.000Z</time>
      </trkpt>
      <trkpt lat="45.08067" lon="2.69988">
        <ele>1358.8</ele>
        <time>2021-09-12T10:51:15.000Z</time>
      </trkpt>
      <trkpt lat="45.08063" lon="2.69997">
        <ele>1360.8</ele>
        <time>2021-09-12T10:52:04.000Z</time>
      </trkpt>
      <trkpt lat="45.08064" lon="2.70007">
        <ele>1363.7</ele>
        <time>2021-09-12T10:52:12.000Z</time>
      </trkpt>
      <trkpt lat="45.08053" lon="2.70016">
        <ele>1365.8</ele>
        <time>2021-09-12T10:52:38.000Z</time>
      </trkpt>
      <trkpt lat="45.08044" lon="2.70028">
        <ele>1368.9</ele>
        <time>2021-09-12T10:52:46.000Z</time>
      </trkpt>
      <trkpt lat="45.08041" lon="2.7004">
        <ele>1372.4</ele>
        <time>2021-09-12T10:52:51.000Z</time>
      </trkpt>
      <trkpt lat="45.08035" lon="2.70045">
        <ele>1373.6</ele>
        <time>2021-09-12T10:52:57.000Z</time>
      </trkpt>
      <trkpt lat="45.08024" lon="2.70053">
        <ele>1375.5</ele>
        <time>2021-09-12T10:53:09.000Z</time>
      </trkpt>
      <trkpt lat="45.08019" lon="2.70063">
        <ele>1378.4</ele>
        <time>2021-09-12T10:53:15.000Z</time>
      </trkpt>
      <trkpt lat="45.08019" lon="2.70076">
        <ele>1382.6</ele>
        <time>2021-09-12T10:53:21.000Z</time>
      </trkpt>
      <trkpt lat="45.08014" lon="2.70083">
        <ele>1384.6</ele>
        <time>2021-09-12T10:53:33.000Z</time>
      </trkpt>
      <trkpt lat="45.08022" lon="2.70088">
        <ele>1386.9</ele>
        <time>2021-09-12T10:53:55.000Z</time>
      </trkpt>
      <trkpt lat="45.08028" lon="2.70083">
        <ele>1385.2</ele>
        <time>2021-09-12T10:55:10.000Z</time>
      </trkpt>
      <trkpt lat="45.08036" lon="2.70088">
        <ele>1387.6</ele>
        <time>2021-09-12T10:55:26.000Z</time>
      </trkpt>
      <trkpt lat="45.08044" lon="2.7009">
        <ele>1388.8</ele>
        <time>2021-09-12T10:55:35.000Z</time>
      </trkpt>
      <trkpt lat="45.08051" lon="2.70097">
        <ele>1392.1</ele>
        <time>2021-09-12T10:55:58.000Z</time>
      </trkpt>
      <trkpt lat="45.08058" lon="2.70099">
        <ele>1393.2</ele>
        <time>2021-09-12T10:56:18.000Z</time>
      </trkpt>
      <trkpt lat="45.08064" lon="2.70104">
        <ele>1395.6</ele>
        <time>2021-09-12T10:56:29.000Z</time>
      </trkpt>
      <trkpt lat="45.08068" lon="2.70112">
        <ele>1399.2</ele>
        <time>2021-09-12T10:56:37.000Z</time>
      </trkpt>
      <trkpt lat="45.08069" lon="2.70122">
        <ele>1403.4</ele>
        <time>2021-09-12T10:56:41.000Z</time>
      </trkpt>
      <trkpt lat="45.08072" lon="2.7013">
        <ele>1406.9</ele>
        <time>2021-09-12T10:56:49.000Z</time>
      </trkpt>
      <trkpt lat="45.08082" lon="2.70138">
        <ele>1410.9</ele>
        <time>2021-09-12T10:57:46.000Z</time>
      </trkpt>
      <trkpt lat="45.08089" lon="2.70148">
        <ele>1415.4</ele>
        <time>2021-09-12T10:58:27.000Z</time>
      </trkpt>
      <trkpt lat="45.08095" lon="2.70151">
        <ele>1416.8</ele>
        <time>2021-09-12T10:58:35.000Z</time>
      </trkpt>
      <trkpt lat="45.08102" lon="2.70153">
        <ele>1417.9</ele>
        <time>2021-09-12T10:58:44.000Z</time>
      </trkpt>
      <trkpt lat="45.0811" lon="2.70151">
        <ele>1417.3</ele>
        <time>2021-09-12T10:58:48.000Z</time>
      </trkpt>
      <trkpt lat="45.08116" lon="2.70147">
        <ele>1415.9</ele>
        <time>2021-09-12T10:58:54.000Z</time>
      </trkpt>
      <trkpt lat="45.0812" lon="2.70138">
        <ele>1412.4</ele>
        <time>2021-09-12T10:59:00.000Z</time>
      </trkpt>
      <trkpt lat="45.08124" lon="2.7013">
        <ele>1409.4</ele>
        <time>2021-09-12T10:59:06.000Z</time>
      </trkpt>
      <trkpt lat="45.08131" lon="2.70128">
        <ele>1409</ele>
        <time>2021-09-12T10:59:13.000Z</time>
      </trkpt>
      <trkpt lat="45.08137" lon="2.7012">
        <ele>1406.1</ele>
        <time>2021-09-12T10:59:18.000Z</time>
      </trkpt>
      <trkpt lat="45.08139" lon="2.70111">
        <ele>1402.7</ele>
        <time>2021-09-12T10:59:24.000Z</time>
      </trkpt>
      <trkpt lat="45.08145" lon="2.70115">
        <ele>1404.6</ele>
        <time>2021-09-12T11:00:47.000Z</time>
      </trkpt>
      <trkpt lat="45.08143" lon="2.70125">
        <ele>1408.4</ele>
        <time>2021-09-12T11:00:57.000Z</time>
      </trkpt>
      <trkpt lat="45.08138" lon="2.70133">
        <ele>1411.2</ele>
        <time>2021-09-12T11:01:10.000Z</time>
      </trkpt>
      <trkpt lat="45.08139" lon="2.7015">
        <ele>1417.9</ele>
        <time>2021-09-12T11:01:31.000Z</time>
      </trkpt>
      <trkpt lat="45.08151" lon="2.70161">
        <ele>1422.5</ele>
        <time>2021-09-12T11:01:44.000Z</time>
      </trkpt>
      <trkpt lat="45.08156" lon="2.70168">
        <ele>1425.1</ele>
        <time>2021-09-12T11:01:48.000Z</time>
      </trkpt>
      <trkpt lat="45.0816" lon="2.70176">
        <ele>1427.6</ele>
        <time>2021-09-12T11:02:09.000Z</time>
      </trkpt>
      <trkpt lat="45.08166" lon="2.7018">
        <ele>1428.8</ele>
        <time>2021-09-12T11:02:20.000Z</time>
      </trkpt>
      <trkpt lat="45.08173" lon="2.70176">
        <ele>1427.7</ele>
        <time>2021-09-12T11:02:42.000Z</time>
      </trkpt>
      <trkpt lat="45.08178" lon="2.70169">
        <ele>1425.7</ele>
        <time>2021-09-12T11:03:12.000Z</time>
      </trkpt>
      <trkpt lat="45.08181" lon="2.70157">
        <ele>1421.7</ele>
        <time>2021-09-12T11:03:24.000Z</time>
      </trkpt>
      <trkpt lat="45.08186" lon="2.70161">
        <ele>1423.2</ele>
        <time>2021-09-12T11:03:33.000Z</time>
      </trkpt>
      <trkpt lat="45.08184" lon="2.70172">
        <ele>1426.5</ele>
        <time>2021-09-12T11:03:42.000Z</time>
      </trkpt>
      <trkpt lat="45.08183" lon="2.70187">
        <ele>1430.7</ele>
        <time>2021-09-12T11:04:04.000Z</time>
      </trkpt>
      <trkpt lat="45.08185" lon="2.70202">
        <ele>1434.8</ele>
        <time>2021-09-12T11:04:27.000Z</time>
      </trkpt>
      <trkpt lat="45.08184" lon="2.70212">
        <ele>1437.6</ele>
        <time>2021-09-12T11:04:37.000Z</time>
      </trkpt>
      <trkpt lat="45.08181" lon="2.70221">
        <ele>1440.2</ele>
        <time>2021-09-12T11:04:46.000Z</time>
      </trkpt>
      <trkpt lat="45.08184" lon="2.7023">
        <ele>1442.6</ele>
        <time>2021-09-12T11:04:59.000Z</time>
      </trkpt>
      <trkpt lat="45.0819" lon="2.70241">
        <ele>1445.4</ele>
        <time>2021-09-12T11:05:35.000Z</time>
      </trkpt>
      <trkpt lat="45.08193" lon="2.7025">
        <ele>1447.7</ele>
        <time>2021-09-12T11:05:45.000Z</time>
      </trkpt>
      <trkpt lat="45.08196" lon="2.70258">
        <ele>1450.4</ele>
        <time>2021-09-12T11:06:02.000Z</time>
      </trkpt>
      <trkpt lat="45.08201" lon="2.70265">
        <ele>1452.5</ele>
        <time>2021-09-12T11:06:16.000Z</time>
      </trkpt>
      <trkpt lat="45.08204" lon="2.70274">
        <ele>1455.4</ele>
        <time>2021-09-12T11:07:16.000Z</time>
      </trkpt>
      <trkpt lat="45.08209" lon="2.7028">
        <ele>1457</ele>
        <time>2021-09-12T11:07:32.000Z</time>
      </trkpt>
      <trkpt lat="45.08217" lon="2.70277">
        <ele>1455.5</ele>
        <time>2021-09-12T11:08:31.000Z</time>
      </trkpt>
      <trkpt lat="45.08222" lon="2.70284">
        <ele>1457.4</ele>
        <time>2021-09-12T11:08:49.000Z</time>
      </trkpt>
      <trkpt lat="45.08228" lon="2.70291">
        <ele>1459.1</ele>
        <time>2021-09-12T11:09:35.000Z</time>
      </trkpt>
      <trkpt lat="45.08226" lon="2.703">
        <ele>1462.2</ele>
        <time>2021-09-12T11:09:54.000Z</time>
      </trkpt>
      <trkpt lat="45.08226" lon="2.70309">
        <ele>1465.1</ele>
        <time>2021-09-12T11:10:06.000Z</time>
      </trkpt>
      <trkpt lat="45.08226" lon="2.70319">
        <ele>1468.3</ele>
        <time>2021-09-12T11:10:19.000Z</time>
      </trkpt>
      <trkpt lat="45.0823" lon="2.70327">
        <ele>1470.4</ele>
        <time>2021-09-12T11:10:38.000Z</time>
      </trkpt>
      <trkpt lat="45.08235" lon="2.70331">
        <ele>1471.1</ele>
        <time>2021-09-12T11:10:51.000Z</time>
      </trkpt>
      <trkpt lat="45.08239" lon="2.7034">
        <ele>1474.4</ele>
        <time>2021-09-12T11:11:02.000Z</time>
      </trkpt>
      <trkpt lat="45.08241" lon="2.70348">
        <ele>1477.8</ele>
        <time>2021-09-12T11:11:10.000Z</time>
      </trkpt>
      <trkpt lat="45.08246" lon="2.70355">
        <ele>1480.3</ele>
        <time>2021-09-12T11:11:16.000Z</time>
      </trkpt>
      <trkpt lat="45.08251" lon="2.70373">
        <ele>1487.5</ele>
        <time>2021-09-12T11:11:29.000Z</time>
      </trkpt>
      <trkpt lat="45.08259" lon="2.70368">
        <ele>1484.2</ele>
        <time>2021-09-12T11:11:43.000Z</time>
      </trkpt>
      <trkpt lat="45.08264" lon="2.70362">
        <ele>1481.1</ele>
        <time>2021-09-12T11:11:52.000Z</time>
      </trkpt>
      <trkpt lat="45.08268" lon="2.70355">
        <ele>1477.9</ele>
        <time>2021-09-12T11:12:15.000Z</time>
      </trkpt>
      <trkpt lat="45.0827" lon="2.70346">
        <ele>1474.1</ele>
        <time>2021-09-12T11:12:21.000Z</time>
      </trkpt>
      <trkpt lat="45.08271" lon="2.70355">
        <ele>1477.6</ele>
        <time>2021-09-12T11:13:26.000Z</time>
      </trkpt>
      <trkpt lat="45.0827" lon="2.70365">
        <ele>1481.6</ele>
        <time>2021-09-12T11:13:35.000Z</time>
      </trkpt>
      <trkpt lat="45.08273" lon="2.70375">
        <ele>1485.2</ele>
        <time>2021-09-12T11:13:45.000Z</time>
      </trkpt>
      <trkpt lat="45.08274" lon="2.70384">
        <ele>1488.5</ele>
        <time>2021-09-12T11:14:15.000Z</time>
      </trkpt>
      <trkpt lat="45.08271" lon="2.70393">
        <ele>1492.6</ele>
        <time>2021-09-12T11:14:25.000Z</time>
      </trkpt>
      <trkpt lat="45.0827" lon="2.70403">
        <ele>1496.8</ele>
        <time>2021-09-12T11:14:39.000Z</time>
      </trkpt>
      <trkpt lat="45.08267" lon="2.70411">
        <ele>1500.6</ele>
        <time>2021-09-12T11:14:54.000Z</time>
      </trkpt>
      <trkpt lat="45.08268" lon="2.7042">
        <ele>1504</ele>
        <time>2021-09-12T11:16:13.000Z</time>
      </trkpt>
      <trkpt lat="45.08269" lon="2.70429">
        <ele>1507.3</ele>
        <time>2021-09-12T11:16:18.000Z</time>
      </trkpt>
      <trkpt lat="45.08271" lon="2.70439">
        <ele>1510.6</ele>
        <time>2021-09-12T11:16:27.000Z</time>
      </trkpt>
      <trkpt lat="45.08272" lon="2.70451">
        <ele>1514.9</ele>
        <time>2021-09-12T11:16:33.000Z</time>
      </trkpt>
      <trkpt lat="45.08272" lon="2.7046">
        <ele>1518.4</ele>
        <time>2021-09-12T11:16:42.000Z</time>
      </trkpt>
      <trkpt lat="45.08271" lon="2.7047">
        <ele>1522.6</ele>
        <time>2021-09-12T11:17:09.000Z</time>
      </trkpt>
      <trkpt lat="45.08274" lon="2.70478">
        <ele>1524.6</ele>
        <time>2021-09-12T11:17:16.000Z</time>
      </trkpt>
      <trkpt lat="45.08276" lon="2.70499">
        <ele>1531.7</ele>
        <time>2021-09-12T11:17:26.000Z</time>
      </trkpt>
      <trkpt lat="45.08278" lon="2.70521">
        <ele>1537</ele>
        <time>2021-09-12T11:17:36.000Z</time>
      </trkpt>
      <trkpt lat="45.08275" lon="2.70534">
        <ele>1542</ele>
        <time>2021-09-12T11:19:13.000Z</time>
      </trkpt>
      <trkpt lat="45.08281" lon="2.70538">
        <ele>1540.3</ele>
        <time>2021-09-12T11:22:47.000Z</time>
      </trkpt>
      <trkpt lat="45.08283" lon="2.70546">
        <ele>1541.4</ele>
        <time>2021-09-12T11:23:05.000Z</time>
      </trkpt>
      <trkpt lat="45.08282" lon="2.70555">
        <ele>1544.3</ele>
        <time>2021-09-12T11:23:44.000Z</time>
      </trkpt>
      <trkpt lat="45.08285" lon="2.70565">
        <ele>1545.4</ele>
        <time>2021-09-12T11:23:57.000Z</time>
      </trkpt>
      <trkpt lat="45.08287" lon="2.70574">
        <ele>1546.7</ele>
        <time>2021-09-12T11:24:05.000Z</time>
      </trkpt>
      <trkpt lat="45.08282" lon="2.70582">
        <ele>1551.6</ele>
        <time>2021-09-12T11:24:33.000Z</time>
      </trkpt>
      <trkpt lat="45.08277" lon="2.70589">
        <ele>1555.2</ele>
        <time>2021-09-12T11:25:05.000Z</time>
      </trkpt>
      <trkpt lat="45.08274" lon="2.70597">
        <ele>1557.3</ele>
        <time>2021-09-12T11:25:21.000Z</time>
      </trkpt>
      <trkpt lat="45.08273" lon="2.70607">
        <ele>1558.5</ele>
        <time>2021-09-12T11:25:32.000Z</time>
      </trkpt>
      <trkpt lat="45.08269" lon="2.70615">
        <ele>1561</ele>
        <time>2021-09-12T11:25:42.000Z</time>
      </trkpt>
      <trkpt lat="45.08266" lon="2.70624">
        <ele>1563</ele>
        <time>2021-09-12T11:25:52.000Z</time>
      </trkpt>
      <trkpt lat="45.08263" lon="2.70632">
        <ele>1564.8</ele>
        <time>2021-09-12T11:26:02.000Z</time>
      </trkpt>
      <trkpt lat="45.0826" lon="2.70641">
        <ele>1566.7</ele>
        <time>2021-09-12T11:26:23.000Z</time>
      </trkpt>
      <trkpt lat="45.08258" lon="2.7065">
        <ele>1567.9</ele>
        <time>2021-09-12T11:26:41.000Z</time>
      </trkpt>
      <trkpt lat="45.08257" lon="2.70659">
        <ele>1568.7</ele>
        <time>2021-09-12T11:26:49.000Z</time>
      </trkpt>
      <trkpt lat="45.08258" lon="2.70669">
        <ele>1568.8</ele>
        <time>2021-09-12T11:26:56.000Z</time>
      </trkpt>
      <trkpt lat="45.08258" lon="2.70679">
        <ele>1569.7</ele>
        <time>2021-09-12T11:27:04.000Z</time>
      </trkpt>
      <trkpt lat="45.08257" lon="2.70689">
        <ele>1571</ele>
        <time>2021-09-12T11:27:11.000Z</time>
      </trkpt>
      <trkpt lat="45.08259" lon="2.70698">
        <ele>1570.9</ele>
        <time>2021-09-12T11:27:16.000Z</time>
      </trkpt>
      <trkpt lat="45.08261" lon="2.70707">
        <ele>1571</ele>
        <time>2021-09-12T11:27:24.000Z</time>
      </trkpt>
      <trkpt lat="45.08262" lon="2.70717">
        <ele>1571.5</ele>
        <time>2021-09-12T11:27:31.000Z</time>
      </trkpt>
      <trkpt lat="45.08264" lon="2.70727">
        <ele>1571.6</ele>
        <time>2021-09-12T11:27:37.000Z</time>
      </trkpt>
      <trkpt lat="45.08265" lon="2.70739">
        <ele>1572.4</ele>
        <time>2021-09-12T11:27:42.000Z</time>
      </trkpt>
      <trkpt lat="45.08269" lon="2.70748">
        <ele>1571.7</ele>
        <time>2021-09-12T11:28:01.000Z</time>
      </trkpt>
      <trkpt lat="45.0827" lon="2.70757">
        <ele>1571.9</ele>
        <time>2021-09-12T11:28:16.000Z</time>
      </trkpt>
      <trkpt lat="45.08275" lon="2.70773">
        <ele>1570.9</ele>
        <time>2021-09-12T11:28:28.000Z</time>
      </trkpt>
      <trkpt lat="45.08276" lon="2.70786">
        <ele>1571.3</ele>
        <time>2021-09-12T11:28:35.000Z</time>
      </trkpt>
      <trkpt lat="45.08272" lon="2.70803">
        <ele>1573.6</ele>
        <time>2021-09-12T11:28:49.000Z</time>
      </trkpt>
      <trkpt lat="45.08266" lon="2.70809">
        <ele>1575.9</ele>
        <time>2021-09-12T11:29:26.000Z</time>
      </trkpt>
      <trkpt lat="45.08263" lon="2.70801">
        <ele>1576.5</ele>
        <time>2021-09-12T11:30:34.000Z</time>
      </trkpt>
      <trkpt lat="45.08256" lon="2.70798">
        <ele>1578.7</ele>
        <time>2021-09-12T11:30:40.000Z</time>
      </trkpt>
      <trkpt lat="45.0825" lon="2.70794">
        <ele>1580.6</ele>
        <time>2021-09-12T11:30:48.000Z</time>
      </trkpt>
      <trkpt lat="45.08245" lon="2.70788">
        <ele>1581.4</ele>
        <time>2021-09-12T11:30:55.000Z</time>
      </trkpt>
      <trkpt lat="45.08239" lon="2.70783">
        <ele>1582.8</ele>
        <time>2021-09-12T11:31:21.000Z</time>
      </trkpt>
      <trkpt lat="45.08234" lon="2.70775">
        <ele>1584.4</ele>
        <time>2021-09-12T11:31:30.000Z</time>
      </trkpt>
      <trkpt lat="45.0823" lon="2.70767">
        <ele>1586</ele>
        <time>2021-09-12T11:31:39.000Z</time>
      </trkpt>
      <trkpt lat="45.08226" lon="2.70759">
        <ele>1588</ele>
        <time>2021-09-12T11:31:52.000Z</time>
      </trkpt>
      <trkpt lat="45.0822" lon="2.70754">
        <ele>1590.8</ele>
        <time>2021-09-12T11:32:03.000Z</time>
      </trkpt>
      <trkpt lat="45.08216" lon="2.70747">
        <ele>1593</ele>
        <time>2021-09-12T11:32:24.000Z</time>
      </trkpt>
      <trkpt lat="45.08211" lon="2.70741">
        <ele>1595.6</ele>
        <time>2021-09-12T11:32:49.000Z</time>
      </trkpt>
      <trkpt lat="45.08205" lon="2.70735">
        <ele>1598.8</ele>
        <time>2021-09-12T11:32:57.000Z</time>
      </trkpt>
      <trkpt lat="45.08199" lon="2.70734">
        <ele>1601.8</ele>
        <time>2021-09-12T11:33:09.000Z</time>
      </trkpt>
      <trkpt lat="45.08192" lon="2.70732">
        <ele>1605.4</ele>
        <time>2021-09-12T11:33:22.000Z</time>
      </trkpt>
      <trkpt lat="45.08185" lon="2.70735">
        <ele>1608.2</ele>
        <time>2021-09-12T11:33:30.000Z</time>
      </trkpt>
      <trkpt lat="45.08181" lon="2.70742">
        <ele>1608.7</ele>
        <time>2021-09-12T11:33:38.000Z</time>
      </trkpt>
      <trkpt lat="45.0818" lon="2.70752">
        <ele>1606.9</ele>
        <time>2021-09-12T11:33:44.000Z</time>
      </trkpt>
      <trkpt lat="45.08179" lon="2.70761">
        <ele>1604.3</ele>
        <time>2021-09-12T11:33:50.000Z</time>
      </trkpt>
      <trkpt lat="45.08178" lon="2.7077">
        <ele>1601.6</ele>
        <time>2021-09-12T11:33:55.000Z</time>
      </trkpt>
      <trkpt lat="45.08178" lon="2.7078">
        <ele>1598.3</ele>
        <time>2021-09-12T11:34:02.000Z</time>
      </trkpt>
      <trkpt lat="45.0818" lon="2.70789">
        <ele>1594.8</ele>
        <time>2021-09-12T11:34:09.000Z</time>
      </trkpt>
      <trkpt lat="45.08181" lon="2.708">
        <ele>1591.1</ele>
        <time>2021-09-12T11:34:16.000Z</time>
      </trkpt>
      <trkpt lat="45.08182" lon="2.70811">
        <ele>1587.4</ele>
        <time>2021-09-12T11:34:21.000Z</time>
      </trkpt>
      <trkpt lat="45.08186" lon="2.70819">
        <ele>1584.7</ele>
        <time>2021-09-12T11:34:27.000Z</time>
      </trkpt>
      <trkpt lat="45.08189" lon="2.7083">
        <ele>1581.5</ele>
        <time>2021-09-12T11:34:33.000Z</time>
      </trkpt>
      <trkpt lat="45.08192" lon="2.70844">
        <ele>1578.5</ele>
        <time>2021-09-12T11:34:39.000Z</time>
      </trkpt>
      <trkpt lat="45.08195" lon="2.70858">
        <ele>1575.9</ele>
        <time>2021-09-12T11:34:45.000Z</time>
      </trkpt>
      <trkpt lat="45.08202" lon="2.70868">
        <ele>1574.6</ele>
        <time>2021-09-12T11:34:51.000Z</time>
      </trkpt>
      <trkpt lat="45.08206" lon="2.70875">
        <ele>1573.7</ele>
        <time>2021-09-12T11:35:25.000Z</time>
      </trkpt>
      <trkpt lat="45.0821" lon="2.70884">
        <ele>1572.7</ele>
        <time>2021-09-12T11:35:32.000Z</time>
      </trkpt>
      <trkpt lat="45.08212" lon="2.70892">
        <ele>1571.7</ele>
        <time>2021-09-12T11:35:38.000Z</time>
      </trkpt>
      <trkpt lat="45.08214" lon="2.70902">
        <ele>1570.4</ele>
        <time>2021-09-12T11:35:46.000Z</time>
      </trkpt>
      <trkpt lat="45.08216" lon="2.70911">
        <ele>1569.3</ele>
        <time>2021-09-12T11:35:55.000Z</time>
      </trkpt>
      <trkpt lat="45.08218" lon="2.7092">
        <ele>1568.4</ele>
        <time>2021-09-12T11:36:02.000Z</time>
      </trkpt>
      <trkpt lat="45.08223" lon="2.70938">
        <ele>1566.9</ele>
        <time>2021-09-12T11:36:44.000Z</time>
      </trkpt>
      <trkpt lat="45.08231" lon="2.7094">
        <ele>1568.6</ele>
        <time>2021-09-12T11:45:39.000Z</time>
      </trkpt>
      <trkpt lat="45.08236" lon="2.70947">
        <ele>1569.1</ele>
        <time>2021-09-12T11:47:45.000Z</time>
      </trkpt>
      <trkpt lat="45.0823" lon="2.7095">
        <ele>1567.1</ele>
        <time>2021-09-12T11:47:52.000Z</time>
      </trkpt>
      <trkpt lat="45.08223" lon="2.70955">
        <ele>1564.5</ele>
        <time>2021-09-12T11:47:59.000Z</time>
      </trkpt>
      <trkpt lat="45.08217" lon="2.70961">
        <ele>1561.9</ele>
        <time>2021-09-12T11:48:06.000Z</time>
      </trkpt>
      <trkpt lat="45.0822" lon="2.70969">
        <ele>1561.6</ele>
        <time>2021-09-12T11:48:23.000Z</time>
      </trkpt>
      <trkpt lat="45.08227" lon="2.70969">
        <ele>1563.9</ele>
        <time>2021-09-12T11:48:29.000Z</time>
      </trkpt>
      <trkpt lat="45.08234" lon="2.70969">
        <ele>1566.1</ele>
        <time>2021-09-12T11:48:34.000Z</time>
      </trkpt>
      <trkpt lat="45.08239" lon="2.70974">
        <ele>1567.2</ele>
        <time>2021-09-12T11:48:44.000Z</time>
      </trkpt>
      <trkpt lat="45.08237" lon="2.70983">
        <ele>1565.6</ele>
        <time>2021-09-12T11:48:52.000Z</time>
      </trkpt>
      <trkpt lat="45.0824" lon="2.70993">
        <ele>1565.7</ele>
        <time>2021-09-12T11:49:00.000Z</time>
      </trkpt>
      <trkpt lat="45.08241" lon="2.71002">
        <ele>1565.4</ele>
        <time>2021-09-12T11:49:16.000Z</time>
      </trkpt>
      <trkpt lat="45.08243" lon="2.71012">
        <ele>1566</ele>
        <time>2021-09-12T11:49:28.000Z</time>
      </trkpt>
      <trkpt lat="45.08248" lon="2.71019">
        <ele>1568</ele>
        <time>2021-09-12T11:49:36.000Z</time>
      </trkpt>
      <trkpt lat="45.08251" lon="2.71027">
        <ele>1568.8</ele>
        <time>2021-09-12T11:49:44.000Z</time>
      </trkpt>
      <trkpt lat="45.08257" lon="2.71023">
        <ele>1569.2</ele>
        <time>2021-09-12T11:53:11.000Z</time>
      </trkpt>
      <trkpt lat="45.08252" lon="2.71017">
        <ele>1568.9</ele>
        <time>2021-09-12T12:01:30.000Z</time>
      </trkpt>
      <trkpt lat="45.08249" lon="2.71008">
        <ele>1568.5</ele>
        <time>2021-09-12T12:01:39.000Z</time>
      </trkpt>
      <trkpt lat="45.08245" lon="2.71001">
        <ele>1567</ele>
        <time>2021-09-12T12:01:49.000Z</time>
      </trkpt>
      <trkpt lat="45.08249" lon="2.71009">
        <ele>1568.5</ele>
        <time>2021-09-12T12:07:41.000Z</time>
      </trkpt>
      <trkpt lat="45.0825" lon="2.71021">
        <ele>1568.7</ele>
        <time>2021-09-12T12:07:59.000Z</time>
      </trkpt>
      <trkpt lat="45.08243" lon="2.71021">
        <ele>1565.9</ele>
        <time>2021-09-12T12:08:12.000Z</time>
      </trkpt>
      <trkpt lat="45.08236" lon="2.71019">
        <ele>1563.1</ele>
        <time>2021-09-12T12:08:25.000Z</time>
      </trkpt>
      <trkpt lat="45.08231" lon="2.71012">
        <ele>1561.2</ele>
        <time>2021-09-12T12:08:32.000Z</time>
      </trkpt>
      <trkpt lat="45.08226" lon="2.71006">
        <ele>1559.3</ele>
        <time>2021-09-12T12:08:38.000Z</time>
      </trkpt>
      <trkpt lat="45.08223" lon="2.70998">
        <ele>1558.6</ele>
        <time>2021-09-12T12:08:45.000Z</time>
      </trkpt>
      <trkpt lat="45.08219" lon="2.70988">
        <ele>1558.5</ele>
        <time>2021-09-12T12:08:52.000Z</time>
      </trkpt>
      <trkpt lat="45.08218" lon="2.70978">
        <ele>1559.6</ele>
        <time>2021-09-12T12:08:57.000Z</time>
      </trkpt>
      <trkpt lat="45.08214" lon="2.70966">
        <ele>1560.2</ele>
        <time>2021-09-12T12:09:03.000Z</time>
      </trkpt>
      <trkpt lat="45.0821" lon="2.70955">
        <ele>1560.8</ele>
        <time>2021-09-12T12:09:09.000Z</time>
      </trkpt>
      <trkpt lat="45.08207" lon="2.70943">
        <ele>1562.1</ele>
        <time>2021-09-12T12:09:15.000Z</time>
      </trkpt>
      <trkpt lat="45.08204" lon="2.70932">
        <ele>1563.3</ele>
        <time>2021-09-12T12:09:21.000Z</time>
      </trkpt>
      <trkpt lat="45.08201" lon="2.7092">
        <ele>1565</ele>
        <time>2021-09-12T12:09:27.000Z</time>
      </trkpt>
      <trkpt lat="45.08196" lon="2.70908">
        <ele>1566.3</ele>
        <time>2021-09-12T12:09:33.000Z</time>
      </trkpt>
      <trkpt lat="45.08191" lon="2.709">
        <ele>1567.1</ele>
        <time>2021-09-12T12:09:39.000Z</time>
      </trkpt>
      <trkpt lat="45.08189" lon="2.7089">
        <ele>1568.8</ele>
        <time>2021-09-12T12:09:45.000Z</time>
      </trkpt>
      <trkpt lat="45.08187" lon="2.70881">
        <ele>1570.4</ele>
        <time>2021-09-12T12:09:52.000Z</time>
      </trkpt>
      <trkpt lat="45.08183" lon="2.70873">
        <ele>1571.7</ele>
        <time>2021-09-12T12:09:59.000Z</time>
      </trkpt>
      <trkpt lat="45.0818" lon="2.70864">
        <ele>1573.4</ele>
        <time>2021-09-12T12:10:03.000Z</time>
      </trkpt>
      <trkpt lat="45.08178" lon="2.70854">
        <ele>1575.5</ele>
        <time>2021-09-12T12:10:09.000Z</time>
      </trkpt>
      <trkpt lat="45.08182" lon="2.70861">
        <ele>1574.3</ele>
        <time>2021-09-12T12:10:19.000Z</time>
      </trkpt>
      <trkpt lat="45.08189" lon="2.70864">
        <ele>1574.2</ele>
        <time>2021-09-12T12:10:29.000Z</time>
      </trkpt>
      <trkpt lat="45.08195" lon="2.70871">
        <ele>1573.3</ele>
        <time>2021-09-12T12:10:36.000Z</time>
      </trkpt>
      <trkpt lat="45.082" lon="2.70877">
        <ele>1572.7</ele>
        <time>2021-09-12T12:10:43.000Z</time>
      </trkpt>
      <trkpt lat="45.08208" lon="2.7088">
        <ele>1573.1</ele>
        <time>2021-09-12T12:10:49.000Z</time>
      </trkpt>
      <trkpt lat="45.08214" lon="2.70887">
        <ele>1572.7</ele>
        <time>2021-09-12T12:10:55.000Z</time>
      </trkpt>
      <trkpt lat="45.08221" lon="2.70892">
        <ele>1572.9</ele>
        <time>2021-09-12T12:11:00.000Z</time>
      </trkpt>
      <trkpt lat="45.08226" lon="2.709">
        <ele>1572.6</ele>
        <time>2021-09-12T12:11:05.000Z</time>
      </trkpt>
      <trkpt lat="45.08231" lon="2.70906">
        <ele>1572.7</ele>
        <time>2021-09-12T12:11:11.000Z</time>
      </trkpt>
      <trkpt lat="45.08237" lon="2.70912">
        <ele>1573</ele>
        <time>2021-09-12T12:11:16.000Z</time>
      </trkpt>
      <trkpt lat="45.08242" lon="2.70919">
        <ele>1573.3</ele>
        <time>2021-09-12T12:11:23.000Z</time>
      </trkpt>
      <trkpt lat="45.08247" lon="2.70926">
        <ele>1573.7</ele>
        <time>2021-09-12T12:11:47.000Z</time>
      </trkpt>
      <trkpt lat="45.08253" lon="2.70932">
        <ele>1573.5</ele>
        <time>2021-09-12T12:11:53.000Z</time>
      </trkpt>
      <trkpt lat="45.08258" lon="2.7094">
        <ele>1572.4</ele>
        <time>2021-09-12T12:11:59.000Z</time>
      </trkpt>
      <trkpt lat="45.08261" lon="2.70932">
        <ele>1572.5</ele>
        <time>2021-09-12T12:12:16.000Z</time>
      </trkpt>
      <trkpt lat="45.08259" lon="2.70922">
        <ele>1573.3</ele>
        <time>2021-09-12T12:12:29.000Z</time>
      </trkpt>
      <trkpt lat="45.08258" lon="2.70912">
        <ele>1574.1</ele>
        <time>2021-09-12T12:12:35.000Z</time>
      </trkpt>
      <trkpt lat="45.08255" lon="2.70902">
        <ele>1575.3</ele>
        <time>2021-09-12T12:12:42.000Z</time>
      </trkpt>
      <trkpt lat="45.08256" lon="2.70892">
        <ele>1575.9</ele>
        <time>2021-09-12T12:12:50.000Z</time>
      </trkpt>
      <trkpt lat="45.08255" lon="2.70883">
        <ele>1576.7</ele>
        <time>2021-09-12T12:12:55.000Z</time>
      </trkpt>
      <trkpt lat="45.08255" lon="2.70873">
        <ele>1577.5</ele>
        <time>2021-09-12T12:12:59.000Z</time>
      </trkpt>
      <trkpt lat="45.08253" lon="2.70865">
        <ele>1578.6</ele>
        <time>2021-09-12T12:13:03.000Z</time>
      </trkpt>
      <trkpt lat="45.08254" lon="2.70853">
        <ele>1579.2</ele>
        <time>2021-09-12T12:13:09.000Z</time>
      </trkpt>
      <trkpt lat="45.08256" lon="2.70844">
        <ele>1579.4</ele>
        <time>2021-09-12T12:13:15.000Z</time>
      </trkpt>
      <trkpt lat="45.08256" lon="2.70834">
        <ele>1580.1</ele>
        <time>2021-09-12T12:13:21.000Z</time>
      </trkpt>
      <trkpt lat="45.08259" lon="2.70824">
        <ele>1578.8</ele>
        <time>2021-09-12T12:13:29.000Z</time>
      </trkpt>
      <trkpt lat="45.0826" lon="2.70813">
        <ele>1578</ele>
        <time>2021-09-12T12:13:34.000Z</time>
      </trkpt>
      <trkpt lat="45.0826" lon="2.70803">
        <ele>1577.6</ele>
        <time>2021-09-12T12:13:40.000Z</time>
      </trkpt>
      <trkpt lat="45.08262" lon="2.70794">
        <ele>1576.5</ele>
        <time>2021-09-12T12:13:45.000Z</time>
      </trkpt>
      <trkpt lat="45.08259" lon="2.70803">
        <ele>1577.9</ele>
        <time>2021-09-12T12:14:13.000Z</time>
      </trkpt>
      <trkpt lat="45.08259" lon="2.70812">
        <ele>1578.3</ele>
        <time>2021-09-12T12:14:22.000Z</time>
      </trkpt>
      <trkpt lat="45.08259" lon="2.70822">
        <ele>1578.7</ele>
        <time>2021-09-12T12:14:47.000Z</time>
      </trkpt>
      <trkpt lat="45.08256" lon="2.7083">
        <ele>1580</ele>
        <time>2021-09-12T12:14:55.000Z</time>
      </trkpt>
      <trkpt lat="45.08254" lon="2.7084">
        <ele>1580.2</ele>
        <time>2021-09-12T12:15:05.000Z</time>
      </trkpt>
      <trkpt lat="45.08251" lon="2.70848">
        <ele>1580.5</ele>
        <time>2021-09-12T12:15:16.000Z</time>
      </trkpt>
      <trkpt lat="45.0825" lon="2.70859">
        <ele>1579.8</ele>
        <time>2021-09-12T12:15:25.000Z</time>
      </trkpt>
      <trkpt lat="45.08251" lon="2.70868">
        <ele>1578.8</ele>
        <time>2021-09-12T12:15:33.000Z</time>
      </trkpt>
      <trkpt lat="45.08249" lon="2.70878">
        <ele>1578.1</ele>
        <time>2021-09-12T12:15:56.000Z</time>
      </trkpt>
      <trkpt lat="45.0825" lon="2.70888">
        <ele>1577.4</ele>
        <time>2021-09-12T12:16:01.000Z</time>
      </trkpt>
      <trkpt lat="45.08252" lon="2.70898">
        <ele>1576.2</ele>
        <time>2021-09-12T12:16:06.000Z</time>
      </trkpt>
      <trkpt lat="45.08254" lon="2.70907">
        <ele>1575.1</ele>
        <time>2021-09-12T12:16:11.000Z</time>
      </trkpt>
      <trkpt lat="45.08259" lon="2.70916">
        <ele>1573.6</ele>
        <time>2021-09-12T12:16:17.000Z</time>
      </trkpt>
      <trkpt lat="45.0826" lon="2.70926">
        <ele>1572.9</ele>
        <time>2021-09-12T12:16:22.000Z</time>
      </trkpt>
      <trkpt lat="45.08262" lon="2.70936">
        <ele>1572.2</ele>
        <time>2021-09-12T12:16:28.000Z</time>
      </trkpt>
      <trkpt lat="45.08255" lon="2.70933">
        <ele>1573.2</ele>
        <time>2021-09-12T12:16:50.000Z</time>
      </trkpt>
      <trkpt lat="45.08251" lon="2.70925">
        <ele>1574.3</ele>
        <time>2021-09-12T12:16:58.000Z</time>
      </trkpt>
      <trkpt lat="45.08245" lon="2.7092">
        <ele>1573.8</ele>
        <time>2021-09-12T12:17:04.000Z</time>
      </trkpt>
      <trkpt lat="45.08241" lon="2.70912">
        <ele>1573.7</ele>
        <time>2021-09-12T12:17:11.000Z</time>
      </trkpt>
      <trkpt lat="45.08237" lon="2.70904">
        <ele>1573.9</ele>
        <time>2021-09-12T12:17:18.000Z</time>
      </trkpt>
      <trkpt lat="45.08233" lon="2.70896">
        <ele>1574.2</ele>
        <time>2021-09-12T12:17:24.000Z</time>
      </trkpt>
      <trkpt lat="45.08229" lon="2.70888">
        <ele>1574.6</ele>
        <time>2021-09-12T12:17:30.000Z</time>
      </trkpt>
      <trkpt lat="45.08224" lon="2.70881">
        <ele>1574.9</ele>
        <time>2021-09-12T12:17:45.000Z</time>
      </trkpt>
      <trkpt lat="45.0822" lon="2.70874">
        <ele>1575.4</ele>
        <time>2021-09-12T12:17:55.000Z</time>
      </trkpt>
      <trkpt lat="45.08215" lon="2.70868">
        <ele>1575.8</ele>
        <time>2021-09-12T12:18:03.000Z</time>
      </trkpt>
      <trkpt lat="45.08209" lon="2.70861">
        <ele>1576.4</ele>
        <time>2021-09-12T12:18:09.000Z</time>
      </trkpt>
      <trkpt lat="45.08202" lon="2.70858">
        <ele>1576.4</ele>
        <time>2021-09-12T12:18:17.000Z</time>
      </trkpt>
      <trkpt lat="45.08197" lon="2.70852">
        <ele>1577.2</ele>
        <time>2021-09-12T12:18:36.000Z</time>
      </trkpt>
      <trkpt lat="45.08192" lon="2.70847">
        <ele>1577.9</ele>
        <time>2021-09-12T12:18:43.000Z</time>
      </trkpt>
      <trkpt lat="45.08184" lon="2.70844">
        <ele>1578.1</ele>
        <time>2021-09-12T12:18:52.000Z</time>
      </trkpt>
      <trkpt lat="45.08178" lon="2.70843">
        <ele>1578.1</ele>
        <time>2021-09-12T12:19:01.000Z</time>
      </trkpt>
      <trkpt lat="45.08172" lon="2.70839">
        <ele>1578.8</ele>
        <time>2021-09-12T12:19:09.000Z</time>
      </trkpt>
      <trkpt lat="45.08165" lon="2.70836">
        <ele>1578.9</ele>
        <time>2021-09-12T12:19:17.000Z</time>
      </trkpt>
      <trkpt lat="45.08157" lon="2.70837">
        <ele>1576.4</ele>
        <time>2021-09-12T12:19:23.000Z</time>
      </trkpt>
      <trkpt lat="45.0815" lon="2.70839">
        <ele>1573.9</ele>
        <time>2021-09-12T12:19:28.000Z</time>
      </trkpt>
      <trkpt lat="45.08143" lon="2.70843">
        <ele>1570.8</ele>
        <time>2021-09-12T12:19:33.000Z</time>
      </trkpt>
      <trkpt lat="45.08136" lon="2.70846">
        <ele>1567.9</ele>
        <time>2021-09-12T12:19:39.000Z</time>
      </trkpt>
      <trkpt lat="45.08129" lon="2.70846">
        <ele>1565.9</ele>
        <time>2021-09-12T12:19:46.000Z</time>
      </trkpt>
      <trkpt lat="45.08122" lon="2.70846">
        <ele>1563.8</ele>
        <time>2021-09-12T12:19:52.000Z</time>
      </trkpt>
      <trkpt lat="45.08115" lon="2.70845">
        <ele>1562.1</ele>
        <time>2021-09-12T12:19:58.000Z</time>
      </trkpt>
      <trkpt lat="45.08108" lon="2.70846">
        <ele>1559.8</ele>
        <time>2021-09-12T12:20:04.000Z</time>
      </trkpt>
      <trkpt lat="45.08101" lon="2.70848">
        <ele>1557.1</ele>
        <time>2021-09-12T12:20:11.000Z</time>
      </trkpt>
      <trkpt lat="45.08095" lon="2.70851">
        <ele>1554.3</ele>
        <time>2021-09-12T12:20:19.000Z</time>
      </trkpt>
      <trkpt lat="45.08089" lon="2.70854">
        <ele>1551.5</ele>
        <time>2021-09-12T12:20:32.000Z</time>
      </trkpt>
      <trkpt lat="45.08085" lon="2.70864">
        <ele>1546.8</ele>
        <time>2021-09-12T12:21:38.000Z</time>
      </trkpt>
      <trkpt lat="45.08082" lon="2.70873">
        <ele>1542.7</ele>
        <time>2021-09-12T12:21:44.000Z</time>
      </trkpt>
      <trkpt lat="45.08079" lon="2.70881">
        <ele>1538.7</ele>
        <time>2021-09-12T12:21:54.000Z</time>
      </trkpt>
      <trkpt lat="45.08079" lon="2.70891">
        <ele>1535.2</ele>
        <time>2021-09-12T12:22:10.000Z</time>
      </trkpt>
      <trkpt lat="45.08073" lon="2.709">
        <ele>1529.8</ele>
        <time>2021-09-12T12:22:54.000Z</time>
      </trkpt>
      <trkpt lat="45.08072" lon="2.70909">
        <ele>1526.4</ele>
        <time>2021-09-12T12:23:10.000Z</time>
      </trkpt>
      <trkpt lat="45.08068" lon="2.70916">
        <ele>1522.5</ele>
        <time>2021-09-12T12:23:34.000Z</time>
      </trkpt>
      <trkpt lat="45.08063" lon="2.70922">
        <ele>1518.5</ele>
        <time>2021-09-12T12:24:16.000Z</time>
      </trkpt>
      <trkpt lat="45.08056" lon="2.70924">
        <ele>1515.2</ele>
        <time>2021-09-12T12:24:26.000Z</time>
      </trkpt>
      <trkpt lat="45.08049" lon="2.70923">
        <ele>1513</ele>
        <time>2021-09-12T12:24:39.000Z</time>
      </trkpt>
      <trkpt lat="45.08042" lon="2.7092">
        <ele>1511.4</ele>
        <time>2021-09-12T12:24:52.000Z</time>
      </trkpt>
      <trkpt lat="45.08036" lon="2.70915">
        <ele>1510.9</ele>
        <time>2021-09-12T12:25:02.000Z</time>
      </trkpt>
      <trkpt lat="45.0803" lon="2.70912">
        <ele>1509.6</ele>
        <time>2021-09-12T12:25:10.000Z</time>
      </trkpt>
      <trkpt lat="45.08024" lon="2.70907">
        <ele>1508.9</ele>
        <time>2021-09-12T12:25:22.000Z</time>
      </trkpt>
      <trkpt lat="45.0802" lon="2.70898">
        <ele>1510.1</ele>
        <time>2021-09-12T12:25:34.000Z</time>
      </trkpt>
      <trkpt lat="45.08013" lon="2.70892">
        <ele>1509.2</ele>
        <time>2021-09-12T12:25:59.000Z</time>
      </trkpt>
      <trkpt lat="45.08008" lon="2.70887">
        <ele>1508.7</ele>
        <time>2021-09-12T12:26:10.000Z</time>
      </trkpt>
      <trkpt lat="45.08003" lon="2.7088">
        <ele>1508.8</ele>
        <time>2021-09-12T12:26:27.000Z</time>
      </trkpt>
      <trkpt lat="45.07998" lon="2.70873">
        <ele>1508.8</ele>
        <time>2021-09-12T12:26:58.000Z</time>
      </trkpt>
      <trkpt lat="45.07993" lon="2.70867">
        <ele>1508.6</ele>
        <time>2021-09-12T12:27:07.000Z</time>
      </trkpt>
      <trkpt lat="45.07986" lon="2.70866">
        <ele>1506.1</ele>
        <time>2021-09-12T12:27:17.000Z</time>
      </trkpt>
      <trkpt lat="45.07979" lon="2.70865">
        <ele>1503.6</ele>
        <time>2021-09-12T12:27:28.000Z</time>
      </trkpt>
      <trkpt lat="45.07972" lon="2.70866">
        <ele>1500.6</ele>
        <time>2021-09-12T12:27:39.000Z</time>
      </trkpt>
      <trkpt lat="45.07966" lon="2.70862">
        <ele>1499.3</ele>
        <time>2021-09-12T12:27:49.000Z</time>
      </trkpt>
      <trkpt lat="45.0796" lon="2.7086">
        <ele>1497.4</ele>
        <time>2021-09-12T12:27:57.000Z</time>
      </trkpt>
      <trkpt lat="45.07954" lon="2.70855">
        <ele>1496.3</ele>
        <time>2021-09-12T12:28:07.000Z</time>
      </trkpt>
      <trkpt lat="45.07947" lon="2.70853">
        <ele>1494</ele>
        <time>2021-09-12T12:28:22.000Z</time>
      </trkpt>
      <trkpt lat="45.07941" lon="2.70851">
        <ele>1492</ele>
        <time>2021-09-12T12:28:37.000Z</time>
      </trkpt>
      <trkpt lat="45.07934" lon="2.70848">
        <ele>1489.9</ele>
        <time>2021-09-12T12:28:49.000Z</time>
      </trkpt>
      <trkpt lat="45.07927" lon="2.70847">
        <ele>1487.3</ele>
        <time>2021-09-12T12:28:58.000Z</time>
      </trkpt>
      <trkpt lat="45.07921" lon="2.70843">
        <ele>1485.7</ele>
        <time>2021-09-12T12:29:09.000Z</time>
      </trkpt>
      <trkpt lat="45.07918" lon="2.70834">
        <ele>1486.4</ele>
        <time>2021-09-12T12:29:31.000Z</time>
      </trkpt>
      <trkpt lat="45.07912" lon="2.7083">
        <ele>1485.1</ele>
        <time>2021-09-12T12:29:41.000Z</time>
      </trkpt>
      <trkpt lat="45.07906" lon="2.70826">
        <ele>1483.7</ele>
        <time>2021-09-12T12:29:50.000Z</time>
      </trkpt>
      <trkpt lat="45.079" lon="2.70819">
        <ele>1483.2</ele>
        <time>2021-09-12T12:29:57.000Z</time>
      </trkpt>
      <trkpt lat="45.07894" lon="2.70817">
        <ele>1481.1</ele>
        <time>2021-09-12T12:30:04.000Z</time>
      </trkpt>
      <trkpt lat="45.07887" lon="2.70813">
        <ele>1479.2</ele>
        <time>2021-09-12T12:30:20.000Z</time>
      </trkpt>
      <trkpt lat="45.07882" lon="2.70808">
        <ele>1478.3</ele>
        <time>2021-09-12T12:30:30.000Z</time>
      </trkpt>
      <trkpt lat="45.07876" lon="2.70802">
        <ele>1477.2</ele>
        <time>2021-09-12T12:30:40.000Z</time>
      </trkpt>
      <trkpt lat="45.07867" lon="2.708">
        <ele>1473.6</ele>
        <time>2021-09-12T12:31:16.000Z</time>
      </trkpt>
      <trkpt lat="45.0786" lon="2.70801">
        <ele>1470.2</ele>
        <time>2021-09-12T12:31:29.000Z</time>
      </trkpt>
      <trkpt lat="45.07854" lon="2.70801">
        <ele>1467.4</ele>
        <time>2021-09-12T12:31:39.000Z</time>
      </trkpt>
      <trkpt lat="45.07848" lon="2.70795">
        <ele>1466.1</ele>
        <time>2021-09-12T12:31:50.000Z</time>
      </trkpt>
      <trkpt lat="45.07844" lon="2.70788">
        <ele>1465.8</ele>
        <time>2021-09-12T12:32:00.000Z</time>
      </trkpt>
      <trkpt lat="45.07837" lon="2.70785">
        <ele>1463.2</ele>
        <time>2021-09-12T12:32:13.000Z</time>
      </trkpt>
      <trkpt lat="45.07831" lon="2.7078">
        <ele>1461.7</ele>
        <time>2021-09-12T12:32:26.000Z</time>
      </trkpt>
      <trkpt lat="45.07825" lon="2.70774">
        <ele>1461</ele>
        <time>2021-09-12T12:32:36.000Z</time>
      </trkpt>
      <trkpt lat="45.07819" lon="2.70769">
        <ele>1460</ele>
        <time>2021-09-12T12:32:46.000Z</time>
      </trkpt>
      <trkpt lat="45.07813" lon="2.70768">
        <ele>1458.2</ele>
        <time>2021-09-12T12:32:55.000Z</time>
      </trkpt>
      <trkpt lat="45.07806" lon="2.70765">
        <ele>1456.4</ele>
        <time>2021-09-12T12:33:09.000Z</time>
      </trkpt>
      <trkpt lat="45.07799" lon="2.70765">
        <ele>1454</ele>
        <time>2021-09-12T12:33:24.000Z</time>
      </trkpt>
      <trkpt lat="45.07793" lon="2.70768">
        <ele>1451.4</ele>
        <time>2021-09-12T12:33:47.000Z</time>
      </trkpt>
      <trkpt lat="45.07786" lon="2.70765">
        <ele>1449.6</ele>
        <time>2021-09-12T12:34:00.000Z</time>
      </trkpt>
      <trkpt lat="45.0778" lon="2.70762">
        <ele>1448.1</ele>
        <time>2021-09-12T12:34:14.000Z</time>
      </trkpt>
      <trkpt lat="45.07773" lon="2.70765">
        <ele>1445.2</ele>
        <time>2021-09-12T12:34:30.000Z</time>
      </trkpt>
      <trkpt lat="45.07763" lon="2.70766">
        <ele>1441.6</ele>
        <time>2021-09-12T12:34:51.000Z</time>
      </trkpt>
      <trkpt lat="45.07758" lon="2.7076">
        <ele>1440.9</ele>
        <time>2021-09-12T12:35:53.000Z</time>
      </trkpt>
      <trkpt lat="45.07751" lon="2.70751">
        <ele>1440.2</ele>
        <time>2021-09-12T12:37:56.000Z</time>
      </trkpt>
      <trkpt lat="45.0775" lon="2.70742">
        <ele>1441.2</ele>
        <time>2021-09-12T12:38:07.000Z</time>
      </trkpt>
      <trkpt lat="45.0775" lon="2.70733">
        <ele>1442.7</ele>
        <time>2021-09-12T12:38:23.000Z</time>
      </trkpt>
      <trkpt lat="45.07744" lon="2.70721">
        <ele>1443</ele>
        <time>2021-09-12T12:38:47.000Z</time>
      </trkpt>
      <trkpt lat="45.07737" lon="2.70718">
        <ele>1441.7</ele>
        <time>2021-09-12T12:38:58.000Z</time>
      </trkpt>
      <trkpt lat="45.0773" lon="2.70715">
        <ele>1440.4</ele>
        <time>2021-09-12T12:39:07.000Z</time>
      </trkpt>
      <trkpt lat="45.07724" lon="2.70711">
        <ele>1439.4</ele>
        <time>2021-09-12T12:40:03.000Z</time>
      </trkpt>
      <trkpt lat="45.07718" lon="2.70707">
        <ele>1438.4</ele>
        <time>2021-09-12T12:40:09.000Z</time>
      </trkpt>
      <trkpt lat="45.07712" lon="2.70703">
        <ele>1437.4</ele>
        <time>2021-09-12T12:40:16.000Z</time>
      </trkpt>
      <trkpt lat="45.07705" lon="2.70699">
        <ele>1436</ele>
        <time>2021-09-12T12:40:44.000Z</time>
      </trkpt>
      <trkpt lat="45.07699" lon="2.70695">
        <ele>1434.9</ele>
        <time>2021-09-12T12:41:18.000Z</time>
      </trkpt>
      <trkpt lat="45.07693" lon="2.70695">
        <ele>1433.3</ele>
        <time>2021-09-12T12:41:25.000Z</time>
      </trkpt>
      <trkpt lat="45.07686" lon="2.70691">
        <ele>1431.9</ele>
        <time>2021-09-12T12:41:32.000Z</time>
      </trkpt>
      <trkpt lat="45.0768" lon="2.70687">
        <ele>1430.7</ele>
        <time>2021-09-12T12:41:41.000Z</time>
      </trkpt>
      <trkpt lat="45.07676" lon="2.7068">
        <ele>1430.3</ele>
        <time>2021-09-12T12:41:48.000Z</time>
      </trkpt>
      <trkpt lat="45.07671" lon="2.70671">
        <ele>1429.8</ele>
        <time>2021-09-12T12:41:55.000Z</time>
      </trkpt>
      <trkpt lat="45.07669" lon="2.70661">
        <ele>1429.3</ele>
        <time>2021-09-12T12:42:03.000Z</time>
      </trkpt>
      <trkpt lat="45.07665" lon="2.70653">
        <ele>1427.6</ele>
        <time>2021-09-12T12:42:09.000Z</time>
      </trkpt>
      <trkpt lat="45.07661" lon="2.70645">
        <ele>1425.9</ele>
        <time>2021-09-12T12:42:16.000Z</time>
      </trkpt>
      <trkpt lat="45.07655" lon="2.70639">
        <ele>1423.8</ele>
        <time>2021-09-12T12:42:22.000Z</time>
      </trkpt>
      <trkpt lat="45.07649" lon="2.7064">
        <ele>1422.2</ele>
        <time>2021-09-12T12:42:29.000Z</time>
      </trkpt>
      <trkpt lat="45.07642" lon="2.70641">
        <ele>1420.4</ele>
        <time>2021-09-12T12:42:37.000Z</time>
      </trkpt>
      <trkpt lat="45.07636" lon="2.70645">
        <ele>1419.2</ele>
        <time>2021-09-12T12:42:46.000Z</time>
      </trkpt>
      <trkpt lat="45.07628" lon="2.70645">
        <ele>1417.1</ele>
        <time>2021-09-12T12:42:55.000Z</time>
      </trkpt>
      <trkpt lat="45.07622" lon="2.70646">
        <ele>1415.6</ele>
        <time>2021-09-12T12:43:03.000Z</time>
      </trkpt>
      <trkpt lat="45.07615" lon="2.70648">
        <ele>1414</ele>
        <time>2021-09-12T12:43:11.000Z</time>
      </trkpt>
      <trkpt lat="45.07608" lon="2.70649">
        <ele>1412.3</ele>
        <time>2021-09-12T12:43:19.000Z</time>
      </trkpt>
      <trkpt lat="45.07602" lon="2.70654">
        <ele>1411.5</ele>
        <time>2021-09-12T12:43:26.000Z</time>
      </trkpt>
      <trkpt lat="45.07596" lon="2.70658">
        <ele>1410.6</ele>
        <time>2021-09-12T12:43:32.000Z</time>
      </trkpt>
      <trkpt lat="45.0759" lon="2.70661">
        <ele>1409.6</ele>
        <time>2021-09-12T12:43:40.000Z</time>
      </trkpt>
      <trkpt lat="45.07583" lon="2.70664">
        <ele>1408.4</ele>
        <time>2021-09-12T12:43:46.000Z</time>
      </trkpt>
      <trkpt lat="45.07576" lon="2.70666">
        <ele>1406.9</ele>
        <time>2021-09-12T12:43:53.000Z</time>
      </trkpt>
      <trkpt lat="45.0757" lon="2.70669">
        <ele>1405.1</ele>
        <time>2021-09-12T12:44:00.000Z</time>
      </trkpt>
      <trkpt lat="45.07563" lon="2.70671">
        <ele>1402.9</ele>
        <time>2021-09-12T12:44:08.000Z</time>
      </trkpt>
      <trkpt lat="45.07556" lon="2.70672">
        <ele>1400.9</ele>
        <time>2021-09-12T12:44:17.000Z</time>
      </trkpt>
      <trkpt lat="45.0755" lon="2.70672">
        <ele>1399.2</ele>
        <time>2021-09-12T12:44:24.000Z</time>
      </trkpt>
      <trkpt lat="45.07542" lon="2.7067">
        <ele>1397.2</ele>
        <time>2021-09-12T12:44:58.000Z</time>
      </trkpt>
      <trkpt lat="45.07536" lon="2.70666">
        <ele>1395.8</ele>
        <time>2021-09-12T12:45:04.000Z</time>
      </trkpt>
      <trkpt lat="45.07529" lon="2.70663">
        <ele>1393.5</ele>
        <time>2021-09-12T12:45:10.000Z</time>
      </trkpt>
      <trkpt lat="45.07521" lon="2.70661">
        <ele>1391.1</ele>
        <time>2021-09-12T12:45:16.000Z</time>
      </trkpt>
      <trkpt lat="45.07515" lon="2.70658">
        <ele>1389.1</ele>
        <time>2021-09-12T12:45:22.000Z</time>
      </trkpt>
      <trkpt lat="45.07508" lon="2.70656">
        <ele>1387</ele>
        <time>2021-09-12T12:45:31.000Z</time>
      </trkpt>
      <trkpt lat="45.07501" lon="2.70655">
        <ele>1385</ele>
        <time>2021-09-12T12:45:56.000Z</time>
      </trkpt>
      <trkpt lat="45.07495" lon="2.7066">
        <ele>1383.4</ele>
        <time>2021-09-12T12:46:10.000Z</time>
      </trkpt>
      <trkpt lat="45.07488" lon="2.70657">
        <ele>1380.4</ele>
        <time>2021-09-12T12:46:16.000Z</time>
      </trkpt>
      <trkpt lat="45.07481" lon="2.70655">
        <ele>1377.6</ele>
        <time>2021-09-12T12:46:22.000Z</time>
      </trkpt>
      <trkpt lat="45.07475" lon="2.70651">
        <ele>1375</ele>
        <time>2021-09-12T12:46:29.000Z</time>
      </trkpt>
      <trkpt lat="45.07469" lon="2.70645">
        <ele>1372.2</ele>
        <time>2021-09-12T12:46:38.000Z</time>
      </trkpt>
      <trkpt lat="45.07462" lon="2.70642">
        <ele>1369.4</ele>
        <time>2021-09-12T12:46:45.000Z</time>
      </trkpt>
      <trkpt lat="45.07456" lon="2.7064">
        <ele>1367.1</ele>
        <time>2021-09-12T12:46:51.000Z</time>
      </trkpt>
      <trkpt lat="45.07451" lon="2.70634">
        <ele>1364.8</ele>
        <time>2021-09-12T12:46:57.000Z</time>
      </trkpt>
      <trkpt lat="45.07445" lon="2.70628">
        <ele>1362.2</ele>
        <time>2021-09-12T12:47:02.000Z</time>
      </trkpt>
      <trkpt lat="45.07439" lon="2.70624">
        <ele>1359.8</ele>
        <time>2021-09-12T12:47:18.000Z</time>
      </trkpt>
      <trkpt lat="45.07445" lon="2.70629">
        <ele>1362.3</ele>
        <time>2021-09-12T12:47:52.000Z</time>
      </trkpt>
      <trkpt lat="45.07452" lon="2.7063">
        <ele>1364.9</ele>
        <time>2021-09-12T12:47:57.000Z</time>
      </trkpt>
      <trkpt lat="45.07459" lon="2.70621">
        <ele>1366.7</ele>
        <time>2021-09-12T12:48:03.000Z</time>
      </trkpt>
      <trkpt lat="45.07464" lon="2.70615">
        <ele>1367.9</ele>
        <time>2021-09-12T12:48:09.000Z</time>
      </trkpt>
      <trkpt lat="45.07472" lon="2.7061">
        <ele>1370.3</ele>
        <time>2021-09-12T12:48:15.000Z</time>
      </trkpt>
      <trkpt lat="45.07477" lon="2.70604">
        <ele>1371.4</ele>
        <time>2021-09-12T12:48:23.000Z</time>
      </trkpt>
      <trkpt lat="45.07484" lon="2.70602">
        <ele>1373.6</ele>
        <time>2021-09-12T12:48:27.000Z</time>
      </trkpt>
      <trkpt lat="45.07491" lon="2.70602">
        <ele>1376</ele>
        <time>2021-09-12T12:48:36.000Z</time>
      </trkpt>
      <trkpt lat="45.07496" lon="2.70595">
        <ele>1376.9</ele>
        <time>2021-09-12T12:48:48.000Z</time>
      </trkpt>
      <trkpt lat="45.075" lon="2.70588">
        <ele>1377.5</ele>
        <time>2021-09-12T12:48:53.000Z</time>
      </trkpt>
      <trkpt lat="45.07503" lon="2.70578">
        <ele>1376.1</ele>
        <time>2021-09-12T12:48:58.000Z</time>
      </trkpt>
      <trkpt lat="45.07504" lon="2.70568">
        <ele>1373.5</ele>
        <time>2021-09-12T12:49:50.000Z</time>
      </trkpt>
      <trkpt lat="45.07508" lon="2.7056">
        <ele>1372.1</ele>
        <time>2021-09-12T12:49:55.000Z</time>
      </trkpt>
      <trkpt lat="45.07513" lon="2.70552">
        <ele>1371</ele>
        <time>2021-09-12T12:50:00.000Z</time>
      </trkpt>
      <trkpt lat="45.07517" lon="2.70543">
        <ele>1369.4</ele>
        <time>2021-09-12T12:50:05.000Z</time>
      </trkpt>
      <trkpt lat="45.07522" lon="2.70537">
        <ele>1369</ele>
        <time>2021-09-12T12:50:12.000Z</time>
      </trkpt>
      <trkpt lat="45.07526" lon="2.70527">
        <ele>1367.3</ele>
        <time>2021-09-12T12:50:18.000Z</time>
      </trkpt>
      <trkpt lat="45.07522" lon="2.70519">
        <ele>1364.2</ele>
        <time>2021-09-12T12:50:23.000Z</time>
      </trkpt>
      <trkpt lat="45.07516" lon="2.70521">
        <ele>1363.2</ele>
        <time>2021-09-12T12:50:31.000Z</time>
      </trkpt>
      <trkpt lat="45.07506" lon="2.70532">
        <ele>1363.7</ele>
        <time>2021-09-12T12:51:15.000Z</time>
      </trkpt>
      <trkpt lat="45.075" lon="2.70538">
        <ele>1363.9</ele>
        <time>2021-09-12T12:51:22.000Z</time>
      </trkpt>
      <trkpt lat="45.07492" lon="2.70542">
        <ele>1362.8</ele>
        <time>2021-09-12T12:51:27.000Z</time>
      </trkpt>
      <trkpt lat="45.07485" lon="2.70546">
        <ele>1362</ele>
        <time>2021-09-12T12:51:33.000Z</time>
      </trkpt>
      <trkpt lat="45.07477" lon="2.70549">
        <ele>1360.5</ele>
        <time>2021-09-12T12:51:39.000Z</time>
      </trkpt>
      <trkpt lat="45.07471" lon="2.7055">
        <ele>1359</ele>
        <time>2021-09-12T12:51:45.000Z</time>
      </trkpt>
      <trkpt lat="45.07464" lon="2.70547">
        <ele>1356.2</ele>
        <time>2021-09-12T12:51:51.000Z</time>
      </trkpt>
      <trkpt lat="45.07461" lon="2.70538">
        <ele>1353.1</ele>
        <time>2021-09-12T12:52:02.000Z</time>
      </trkpt>
      <trkpt lat="45.07466" lon="2.7053">
        <ele>1352.5</ele>
        <time>2021-09-12T12:52:12.000Z</time>
      </trkpt>
      <trkpt lat="45.07469" lon="2.70522">
        <ele>1351.2</ele>
        <time>2021-09-12T12:52:18.000Z</time>
      </trkpt>
      <trkpt lat="45.07473" lon="2.70514">
        <ele>1350.2</ele>
        <time>2021-09-12T12:52:31.000Z</time>
      </trkpt>
      <trkpt lat="45.07474" lon="2.70504">
        <ele>1347.8</ele>
        <time>2021-09-12T12:52:39.000Z</time>
      </trkpt>
      <trkpt lat="45.07473" lon="2.70492">
        <ele>1345.3</ele>
        <time>2021-09-12T12:52:45.000Z</time>
      </trkpt>
      <trkpt lat="45.07468" lon="2.70483">
        <ele>1342.7</ele>
        <time>2021-09-12T12:52:51.000Z</time>
      </trkpt>
      <trkpt lat="45.0746" lon="2.70481">
        <ele>1340.3</ele>
        <time>2021-09-12T12:52:57.000Z</time>
      </trkpt>
      <trkpt lat="45.07452" lon="2.70484">
        <ele>1338.8</ele>
        <time>2021-09-12T12:53:03.000Z</time>
      </trkpt>
      <trkpt lat="45.07445" lon="2.70485">
        <ele>1337.2</ele>
        <time>2021-09-12T12:53:10.000Z</time>
      </trkpt>
      <trkpt lat="45.07453" lon="2.70489">
        <ele>1339.9</ele>
        <time>2021-09-12T12:53:25.000Z</time>
      </trkpt>
      <trkpt lat="45.07458" lon="2.70498">
        <ele>1342.6</ele>
        <time>2021-09-12T12:53:29.000Z</time>
      </trkpt>
      <trkpt lat="45.0746" lon="2.70507">
        <ele>1345.1</ele>
        <time>2021-09-12T12:53:33.000Z</time>
      </trkpt>
      <trkpt lat="45.07454" lon="2.7051">
        <ele>1344.4</ele>
        <time>2021-09-12T12:53:39.000Z</time>
      </trkpt>
      <trkpt lat="45.07445" lon="2.70508">
        <ele>1341.7</ele>
        <time>2021-09-12T12:53:45.000Z</time>
      </trkpt>
      <trkpt lat="45.07441" lon="2.70502">
        <ele>1339.3</ele>
        <time>2021-09-12T12:53:51.000Z</time>
      </trkpt>
      <trkpt lat="45.07438" lon="2.70492">
        <ele>1336.7</ele>
        <time>2021-09-12T12:54:03.000Z</time>
      </trkpt>
      <trkpt lat="45.07431" lon="2.70478">
        <ele>1332.4</ele>
        <time>2021-09-12T12:54:09.000Z</time>
      </trkpt>
      <trkpt lat="45.07426" lon="2.70469">
        <ele>1329.5</ele>
        <time>2021-09-12T12:54:15.000Z</time>
      </trkpt>
      <trkpt lat="45.07424" lon="2.70459">
        <ele>1327.1</ele>
        <time>2021-09-12T12:54:24.000Z</time>
      </trkpt>
      <trkpt lat="45.07417" lon="2.70464">
        <ele>1326.2</ele>
        <time>2021-09-12T12:54:33.000Z</time>
      </trkpt>
      <trkpt lat="45.07413" lon="2.70473">
        <ele>1326.7</ele>
        <time>2021-09-12T12:54:45.000Z</time>
      </trkpt>
      <trkpt lat="45.07421" lon="2.70468">
        <ele>1328</ele>
        <time>2021-09-12T12:54:58.000Z</time>
      </trkpt>
      <trkpt lat="45.07428" lon="2.70465">
        <ele>1329.3</ele>
        <time>2021-09-12T12:55:03.000Z</time>
      </trkpt>
      <trkpt lat="45.07435" lon="2.70459">
        <ele>1330.1</ele>
        <time>2021-09-12T12:55:09.000Z</time>
      </trkpt>
      <trkpt lat="45.07443" lon="2.70446">
        <ele>1330</ele>
        <time>2021-09-12T12:55:15.000Z</time>
      </trkpt>
      <trkpt lat="45.07451" lon="2.70436">
        <ele>1330.5</ele>
        <time>2021-09-12T12:55:21.000Z</time>
      </trkpt>
      <trkpt lat="45.07456" lon="2.70425">
        <ele>1330.2</ele>
        <time>2021-09-12T12:55:27.000Z</time>
      </trkpt>
      <trkpt lat="45.0746" lon="2.70413">
        <ele>1330</ele>
        <time>2021-09-12T12:55:33.000Z</time>
      </trkpt>
      <trkpt lat="45.07461" lon="2.704">
        <ele>1330.2</ele>
        <time>2021-09-12T12:55:39.000Z</time>
      </trkpt>
      <trkpt lat="45.07463" lon="2.7039">
        <ele>1330.7</ele>
        <time>2021-09-12T12:55:45.000Z</time>
      </trkpt>
      <trkpt lat="45.07463" lon="2.70377">
        <ele>1330.6</ele>
        <time>2021-09-12T12:55:51.000Z</time>
      </trkpt>
      <trkpt lat="45.07464" lon="2.70365">
        <ele>1330.8</ele>
        <time>2021-09-12T12:55:57.000Z</time>
      </trkpt>
      <trkpt lat="45.07463" lon="2.70354">
        <ele>1330.5</ele>
        <time>2021-09-12T12:56:03.000Z</time>
      </trkpt>
      <trkpt lat="45.07461" lon="2.70344">
        <ele>1329.8</ele>
        <time>2021-09-12T12:56:09.000Z</time>
      </trkpt>
      <trkpt lat="45.07459" lon="2.70335">
        <ele>1329.2</ele>
        <time>2021-09-12T12:56:15.000Z</time>
      </trkpt>
      <trkpt lat="45.07455" lon="2.70325">
        <ele>1329</ele>
        <time>2021-09-12T12:56:22.000Z</time>
      </trkpt>
      <trkpt lat="45.07453" lon="2.70316">
        <ele>1329.4</ele>
        <time>2021-09-12T12:56:27.000Z</time>
      </trkpt>
      <trkpt lat="45.0745" lon="2.70304">
        <ele>1330</ele>
        <time>2021-09-12T12:56:33.000Z</time>
      </trkpt>
      <trkpt lat="45.07448" lon="2.70294">
        <ele>1330.6</ele>
        <time>2021-09-12T12:56:39.000Z</time>
      </trkpt>
      <trkpt lat="45.07449" lon="2.70282">
        <ele>1332.3</ele>
        <time>2021-09-12T12:56:45.000Z</time>
      </trkpt>
      <trkpt lat="45.07446" lon="2.70273">
        <ele>1332.6</ele>
        <time>2021-09-12T12:56:53.000Z</time>
      </trkpt>
      <trkpt lat="45.07442" lon="2.70266">
        <ele>1332.5</ele>
        <time>2021-09-12T12:56:59.000Z</time>
      </trkpt>
      <trkpt lat="45.07439" lon="2.70258">
        <ele>1332.8</ele>
        <time>2021-09-12T12:57:05.000Z</time>
      </trkpt>
      <trkpt lat="45.07437" lon="2.70249">
        <ele>1333.5</ele>
        <time>2021-09-12T12:57:11.000Z</time>
      </trkpt>
      <trkpt lat="45.07431" lon="2.70242">
        <ele>1333</ele>
        <time>2021-09-12T12:57:16.000Z</time>
      </trkpt>
      <trkpt lat="45.07424" lon="2.70237">
        <ele>1332</ele>
        <time>2021-09-12T12:57:21.000Z</time>
      </trkpt>
      <trkpt lat="45.07414" lon="2.70227">
        <ele>1330.8</ele>
        <time>2021-09-12T12:57:27.000Z</time>
      </trkpt>
      <trkpt lat="45.07407" lon="2.70219">
        <ele>1329.9</ele>
        <time>2021-09-12T12:57:33.000Z</time>
      </trkpt>
      <trkpt lat="45.074" lon="2.70211">
        <ele>1329.1</ele>
        <time>2021-09-12T12:57:39.000Z</time>
      </trkpt>
      <trkpt lat="45.07395" lon="2.70202">
        <ele>1329</ele>
        <time>2021-09-12T12:57:45.000Z</time>
      </trkpt>
      <trkpt lat="45.07388" lon="2.702">
        <ele>1327.6</ele>
        <time>2021-09-12T12:58:01.000Z</time>
      </trkpt>
      <trkpt lat="45.07382" lon="2.70199">
        <ele>1326.3</ele>
        <time>2021-09-12T12:58:06.000Z</time>
      </trkpt>
      <trkpt lat="45.07375" lon="2.70198">
        <ele>1324.8</ele>
        <time>2021-09-12T12:58:11.000Z</time>
      </trkpt>
      <trkpt lat="45.07368" lon="2.70197">
        <ele>1323.3</ele>
        <time>2021-09-12T12:58:16.000Z</time>
      </trkpt>
      <trkpt lat="45.07361" lon="2.70195">
        <ele>1322</ele>
        <time>2021-09-12T12:58:23.000Z</time>
      </trkpt>
      <trkpt lat="45.07355" lon="2.7019">
        <ele>1321.4</ele>
        <time>2021-09-12T12:58:28.000Z</time>
      </trkpt>
      <trkpt lat="45.07352" lon="2.70182">
        <ele>1322.2</ele>
        <time>2021-09-12T12:58:33.000Z</time>
      </trkpt>
      <trkpt lat="45.07348" lon="2.70174">
        <ele>1322.7</ele>
        <time>2021-09-12T12:58:39.000Z</time>
      </trkpt>
      <trkpt lat="45.0734" lon="2.70167">
        <ele>1322.3</ele>
        <time>2021-09-12T12:58:45.000Z</time>
      </trkpt>
      <trkpt lat="45.07334" lon="2.7016">
        <ele>1322.6</ele>
        <time>2021-09-12T12:58:52.000Z</time>
      </trkpt>
      <trkpt lat="45.07329" lon="2.70155">
        <ele>1323.5</ele>
        <time>2021-09-12T12:58:58.000Z</time>
      </trkpt>
      <trkpt lat="45.07322" lon="2.70152">
        <ele>1324.2</ele>
        <time>2021-09-12T12:59:06.000Z</time>
      </trkpt>
      <trkpt lat="45.07316" lon="2.70146">
        <ele>1325.5</ele>
        <time>2021-09-12T12:59:14.000Z</time>
      </trkpt>
      <trkpt lat="45.07309" lon="2.70143">
        <ele>1326.2</ele>
        <time>2021-09-12T12:59:19.000Z</time>
      </trkpt>
      <trkpt lat="45.07303" lon="2.7014">
        <ele>1327</ele>
        <time>2021-09-12T12:59:24.000Z</time>
      </trkpt>
      <trkpt lat="45.07296" lon="2.70137">
        <ele>1327.8</ele>
        <time>2021-09-12T12:59:28.000Z</time>
      </trkpt>
      <trkpt lat="45.07289" lon="2.70134">
        <ele>1328.6</ele>
        <time>2021-09-12T12:59:35.000Z</time>
      </trkpt>
      <trkpt lat="45.07283" lon="2.70129">
        <ele>1329.9</ele>
        <time>2021-09-12T12:59:40.000Z</time>
      </trkpt>
      <trkpt lat="45.07279" lon="2.7012">
        <ele>1332.3</ele>
        <time>2021-09-12T13:00:02.000Z</time>
      </trkpt>
      <trkpt lat="45.07273" lon="2.70116">
        <ele>1333.4</ele>
        <time>2021-09-12T13:00:08.000Z</time>
      </trkpt>
      <trkpt lat="45.07266" lon="2.70111">
        <ele>1334.9</ele>
        <time>2021-09-12T13:00:17.000Z</time>
      </trkpt>
      <trkpt lat="45.07261" lon="2.70105">
        <ele>1336.7</ele>
        <time>2021-09-12T13:00:24.000Z</time>
      </trkpt>
      <trkpt lat="45.07254" lon="2.70107">
        <ele>1336.3</ele>
        <time>2021-09-12T13:00:30.000Z</time>
      </trkpt>
      <trkpt lat="45.07246" lon="2.70107">
        <ele>1336.2</ele>
        <time>2021-09-12T13:00:35.000Z</time>
      </trkpt>
      <trkpt lat="45.07239" lon="2.70111">
        <ele>1334.8</ele>
        <time>2021-09-12T13:00:40.000Z</time>
      </trkpt>
      <trkpt lat="45.07232" lon="2.70113">
        <ele>1333.9</ele>
        <time>2021-09-12T13:00:46.000Z</time>
      </trkpt>
      <trkpt lat="45.07225" lon="2.70116">
        <ele>1332.8</ele>
        <time>2021-09-12T13:00:52.000Z</time>
      </trkpt>
      <trkpt lat="45.07219" lon="2.70126">
        <ele>1329.9</ele>
        <time>2021-09-12T13:01:05.000Z</time>
      </trkpt>
      <trkpt lat="45.07212" lon="2.70124">
        <ele>1330.2</ele>
        <time>2021-09-12T13:01:23.000Z</time>
      </trkpt>
      <trkpt lat="45.07205" lon="2.70122">
        <ele>1330.3</ele>
        <time>2021-09-12T13:01:30.000Z</time>
      </trkpt>
      <trkpt lat="45.07198" lon="2.7012">
        <ele>1330.5</ele>
        <time>2021-09-12T13:01:37.000Z</time>
      </trkpt>
      <trkpt lat="45.07191" lon="2.70118">
        <ele>1330.7</ele>
        <time>2021-09-12T13:01:42.000Z</time>
      </trkpt>
      <trkpt lat="45.07184" lon="2.70118">
        <ele>1330.3</ele>
        <time>2021-09-12T13:01:46.000Z</time>
      </trkpt>
      <trkpt lat="45.07177" lon="2.70119">
        <ele>1329.8</ele>
        <time>2021-09-12T13:01:53.000Z</time>
      </trkpt>
      <trkpt lat="45.0717" lon="2.70123">
        <ele>1328.6</ele>
        <time>2021-09-12T13:01:59.000Z</time>
      </trkpt>
      <trkpt lat="45.07163" lon="2.70122">
        <ele>1327.3</ele>
        <time>2021-09-12T13:02:05.000Z</time>
      </trkpt>
      <trkpt lat="45.07156" lon="2.70122">
        <ele>1324.7</ele>
        <time>2021-09-12T13:02:10.000Z</time>
      </trkpt>
      <trkpt lat="45.07149" lon="2.70121">
        <ele>1322.3</ele>
        <time>2021-09-12T13:02:17.000Z</time>
      </trkpt>
      <trkpt lat="45.07142" lon="2.70122">
        <ele>1319.5</ele>
        <time>2021-09-12T13:02:24.000Z</time>
      </trkpt>
      <trkpt lat="45.07135" lon="2.70127">
        <ele>1315.8</ele>
        <time>2021-09-12T13:02:29.000Z</time>
      </trkpt>
      <trkpt lat="45.07128" lon="2.70129">
        <ele>1312.7</ele>
        <time>2021-09-12T13:02:35.000Z</time>
      </trkpt>
      <trkpt lat="45.07122" lon="2.70135">
        <ele>1309</ele>
        <time>2021-09-12T13:02:40.000Z</time>
      </trkpt>
      <trkpt lat="45.07114" lon="2.70137">
        <ele>1305.5</ele>
        <time>2021-09-12T13:02:45.000Z</time>
      </trkpt>
      <trkpt lat="45.07106" lon="2.7014">
        <ele>1301.7</ele>
        <time>2021-09-12T13:02:51.000Z</time>
      </trkpt>
      <trkpt lat="45.07099" lon="2.7014">
        <ele>1299</ele>
        <time>2021-09-12T13:02:57.000Z</time>
      </trkpt>
      <trkpt lat="45.07092" lon="2.7014">
        <ele>1296.3</ele>
        <time>2021-09-12T13:03:04.000Z</time>
      </trkpt>
      <trkpt lat="45.07087" lon="2.70132">
        <ele>1296.5</ele>
        <time>2021-09-12T13:03:12.000Z</time>
      </trkpt>
      <trkpt lat="45.0709" lon="2.70122">
        <ele>1300.3</ele>
        <time>2021-09-12T13:03:26.000Z</time>
      </trkpt>
      <trkpt lat="45.07084" lon="2.70115">
        <ele>1299.9</ele>
        <time>2021-09-12T13:03:49.000Z</time>
      </trkpt>
      <trkpt lat="45.07081" lon="2.70104">
        <ele>1301.7</ele>
        <time>2021-09-12T13:03:54.000Z</time>
      </trkpt>
      <trkpt lat="45.07082" lon="2.70093">
        <ele>1305</ele>
        <time>2021-09-12T13:03:58.000Z</time>
      </trkpt>
      <trkpt lat="45.0708" lon="2.7008">
        <ele>1307.9</ele>
        <time>2021-09-12T13:04:03.000Z</time>
      </trkpt>
      <trkpt lat="45.07079" lon="2.70069">
        <ele>1310.8</ele>
        <time>2021-09-12T13:04:10.000Z</time>
      </trkpt>
      <trkpt lat="45.07079" lon="2.70058">
        <ele>1314.1</ele>
        <time>2021-09-12T13:04:17.000Z</time>
      </trkpt>
      <trkpt lat="45.07077" lon="2.70049">
        <ele>1316.1</ele>
        <time>2021-09-12T13:04:21.000Z</time>
      </trkpt>
      <trkpt lat="45.07072" lon="2.70039">
        <ele>1317.3</ele>
        <time>2021-09-12T13:04:27.000Z</time>
      </trkpt>
      <trkpt lat="45.07066" lon="2.70033">
        <ele>1316.9</ele>
        <time>2021-09-12T13:04:33.000Z</time>
      </trkpt>
      <trkpt lat="45.07059" lon="2.70033">
        <ele>1314.4</ele>
        <time>2021-09-12T13:04:39.000Z</time>
      </trkpt>
      <trkpt lat="45.07051" lon="2.70032">
        <ele>1311.8</ele>
        <time>2021-09-12T13:04:45.000Z</time>
      </trkpt>
      <trkpt lat="45.07043" lon="2.70027">
        <ele>1310.4</ele>
        <time>2021-09-12T13:04:51.000Z</time>
      </trkpt>
      <trkpt lat="45.07038" lon="2.70021">
        <ele>1310.2</ele>
        <time>2021-09-12T13:04:57.000Z</time>
      </trkpt>
      <trkpt lat="45.07031" lon="2.70017">
        <ele>1308.8</ele>
        <time>2021-09-12T13:05:03.000Z</time>
      </trkpt>
      <trkpt lat="45.07021" lon="2.70007">
        <ele>1307.9</ele>
        <time>2021-09-12T13:05:09.000Z</time>
      </trkpt>
      <trkpt lat="45.0702" lon="2.69997">
        <ele>1310</ele>
        <time>2021-09-12T13:05:15.000Z</time>
      </trkpt>
      <trkpt lat="45.07021" lon="2.69988">
        <ele>1311.9</ele>
        <time>2021-09-12T13:05:21.000Z</time>
      </trkpt>
      <trkpt lat="45.07017" lon="2.69979">
        <ele>1312</ele>
        <time>2021-09-12T13:05:27.000Z</time>
      </trkpt>
      <trkpt lat="45.07014" lon="2.6997">
        <ele>1312.5</ele>
        <time>2021-09-12T13:05:35.000Z</time>
      </trkpt>
      <trkpt lat="45.07011" lon="2.69962">
        <ele>1313</ele>
        <time>2021-09-12T13:05:39.000Z</time>
      </trkpt>
      <trkpt lat="45.0701" lon="2.69951">
        <ele>1314.6</ele>
        <time>2021-09-12T13:06:16.000Z</time>
      </trkpt>
      <trkpt lat="45.07009" lon="2.69938">
        <ele>1316.7</ele>
        <time>2021-09-12T13:06:21.000Z</time>
      </trkpt>
      <trkpt lat="45.07009" lon="2.69918">
        <ele>1320.3</ele>
        <time>2021-09-12T13:06:27.000Z</time>
      </trkpt>
      <trkpt lat="45.07011" lon="2.69898">
        <ele>1325.9</ele>
        <time>2021-09-12T13:06:33.000Z</time>
      </trkpt>
      <trkpt lat="45.07013" lon="2.69888">
        <ele>1328.9</ele>
        <time>2021-09-12T13:06:41.000Z</time>
      </trkpt>
      <trkpt lat="45.07014" lon="2.69879">
        <ele>1331.3</ele>
        <time>2021-09-12T13:06:52.000Z</time>
      </trkpt>
      <trkpt lat="45.07015" lon="2.6987">
        <ele>1333.7</ele>
        <time>2021-09-12T13:06:58.000Z</time>
      </trkpt>
      <trkpt lat="45.07017" lon="2.6986">
        <ele>1336.5</ele>
        <time>2021-09-12T13:07:08.000Z</time>
      </trkpt>
      <trkpt lat="45.0702" lon="2.6985">
        <ele>1339.3</ele>
        <time>2021-09-12T13:07:15.000Z</time>
      </trkpt>
      <trkpt lat="45.07018" lon="2.69841">
        <ele>1341.1</ele>
        <time>2021-09-12T13:07:21.000Z</time>
      </trkpt>
      <trkpt lat="45.0702" lon="2.69831">
        <ele>1343.7</ele>
        <time>2021-09-12T13:07:30.000Z</time>
      </trkpt>
      <trkpt lat="45.07017" lon="2.69822">
        <ele>1345.7</ele>
        <time>2021-09-12T13:07:35.000Z</time>
      </trkpt>
      <trkpt lat="45.07015" lon="2.69814">
        <ele>1347.5</ele>
        <time>2021-09-12T13:07:48.000Z</time>
      </trkpt>
      <trkpt lat="45.0702" lon="2.69805">
        <ele>1350.3</ele>
        <time>2021-09-12T13:08:10.000Z</time>
      </trkpt>
      <trkpt lat="45.07015" lon="2.69797">
        <ele>1351.8</ele>
        <time>2021-09-12T13:08:16.000Z</time>
      </trkpt>
      <trkpt lat="45.07014" lon="2.69786">
        <ele>1354.4</ele>
        <time>2021-09-12T13:08:21.000Z</time>
      </trkpt>
      <trkpt lat="45.07011" lon="2.69776">
        <ele>1356.6</ele>
        <time>2021-09-12T13:08:28.000Z</time>
      </trkpt>
      <trkpt lat="45.07005" lon="2.69772">
        <ele>1357</ele>
        <time>2021-09-12T13:08:35.000Z</time>
      </trkpt>
      <trkpt lat="45.07001" lon="2.69764">
        <ele>1358.6</ele>
        <time>2021-09-12T13:08:41.000Z</time>
      </trkpt>
      <trkpt lat="45.06995" lon="2.69763">
        <ele>1358.8</ele>
        <time>2021-09-12T13:08:52.000Z</time>
      </trkpt>
      <trkpt lat="45.06987" lon="2.69761">
        <ele>1359.5</ele>
        <time>2021-09-12T13:08:59.000Z</time>
      </trkpt>
      <trkpt lat="45.0698" lon="2.69759">
        <ele>1360.2</ele>
        <time>2021-09-12T13:09:06.000Z</time>
      </trkpt>
      <trkpt lat="45.06975" lon="2.69754">
        <ele>1361.6</ele>
        <time>2021-09-12T13:09:12.000Z</time>
      </trkpt>
      <trkpt lat="45.06969" lon="2.69749">
        <ele>1362.8</ele>
        <time>2021-09-12T13:09:26.000Z</time>
      </trkpt>
      <trkpt lat="45.06966" lon="2.69738">
        <ele>1364</ele>
        <time>2021-09-12T13:09:36.000Z</time>
      </trkpt>
      <trkpt lat="45.06964" lon="2.69729">
        <ele>1364.9</ele>
        <time>2021-09-12T13:09:40.000Z</time>
      </trkpt>
      <trkpt lat="45.06957" lon="2.69728">
        <ele>1365.1</ele>
        <time>2021-09-12T13:09:47.000Z</time>
      </trkpt>
      <trkpt lat="45.06948" lon="2.6973">
        <ele>1365.2</ele>
        <time>2021-09-12T13:09:51.000Z</time>
      </trkpt>
      <trkpt lat="45.06941" lon="2.69732">
        <ele>1365.1</ele>
        <time>2021-09-12T13:09:57.000Z</time>
      </trkpt>
      <trkpt lat="45.06934" lon="2.69736">
        <ele>1364.9</ele>
        <time>2021-09-12T13:10:06.000Z</time>
      </trkpt>
      <trkpt lat="45.06927" lon="2.69739">
        <ele>1364.8</ele>
        <time>2021-09-12T13:10:15.000Z</time>
      </trkpt>
      <trkpt lat="45.0692" lon="2.69739">
        <ele>1365</ele>
        <time>2021-09-12T13:10:22.000Z</time>
      </trkpt>
      <trkpt lat="45.06912" lon="2.6974">
        <ele>1365.7</ele>
        <time>2021-09-12T13:10:27.000Z</time>
      </trkpt>
      <trkpt lat="45.06905" lon="2.69738">
        <ele>1367</ele>
        <time>2021-09-12T13:10:36.000Z</time>
      </trkpt>
      <trkpt lat="45.06898" lon="2.69735">
        <ele>1368.4</ele>
        <time>2021-09-12T13:10:42.000Z</time>
      </trkpt>
      <trkpt lat="45.06891" lon="2.69733">
        <ele>1369.7</ele>
        <time>2021-09-12T13:10:48.000Z</time>
      </trkpt>
      <trkpt lat="45.06884" lon="2.69731">
        <ele>1371.1</ele>
        <time>2021-09-12T13:10:52.000Z</time>
      </trkpt>
      <trkpt lat="45.06877" lon="2.69726">
        <ele>1372.8</ele>
        <time>2021-09-12T13:10:57.000Z</time>
      </trkpt>
      <trkpt lat="45.06871" lon="2.69723">
        <ele>1374.2</ele>
        <time>2021-09-12T13:11:03.000Z</time>
      </trkpt>
      <trkpt lat="45.06864" lon="2.69717">
        <ele>1376.3</ele>
        <time>2021-09-12T13:11:09.000Z</time>
      </trkpt>
      <trkpt lat="45.0686" lon="2.69709">
        <ele>1378.1</ele>
        <time>2021-09-12T13:11:17.000Z</time>
      </trkpt>
      <trkpt lat="45.06859" lon="2.69699">
        <ele>1379.7</ele>
        <time>2021-09-12T13:11:24.000Z</time>
      </trkpt>
      <trkpt lat="45.06856" lon="2.69689">
        <ele>1381.8</ele>
        <time>2021-09-12T13:11:32.000Z</time>
      </trkpt>
      <trkpt lat="45.06851" lon="2.69681">
        <ele>1384</ele>
        <time>2021-09-12T13:11:39.000Z</time>
      </trkpt>
      <trkpt lat="45.0685" lon="2.69672">
        <ele>1385.6</ele>
        <time>2021-09-12T13:11:47.000Z</time>
      </trkpt>
      <trkpt lat="45.06849" lon="2.69663">
        <ele>1386.6</ele>
        <time>2021-09-12T13:11:53.000Z</time>
      </trkpt>
      <trkpt lat="45.06849" lon="2.69653">
        <ele>1386.7</ele>
        <time>2021-09-12T13:11:59.000Z</time>
      </trkpt>
      <trkpt lat="45.06848" lon="2.69644">
        <ele>1386.9</ele>
        <time>2021-09-12T13:12:05.000Z</time>
      </trkpt>
      <trkpt lat="45.06848" lon="2.69634">
        <ele>1387</ele>
        <time>2021-09-12T13:12:11.000Z</time>
      </trkpt>
      <trkpt lat="45.06843" lon="2.69627">
        <ele>1388.4</ele>
        <time>2021-09-12T13:12:18.000Z</time>
      </trkpt>
      <trkpt lat="45.0684" lon="2.69619">
        <ele>1389.3</ele>
        <time>2021-09-12T13:12:29.000Z</time>
      </trkpt>
      <trkpt lat="45.06835" lon="2.69612">
        <ele>1390.8</ele>
        <time>2021-09-12T13:12:58.000Z</time>
      </trkpt>
      <trkpt lat="45.06834" lon="2.69601">
        <ele>1391.4</ele>
        <time>2021-09-12T13:13:07.000Z</time>
      </trkpt>
      <trkpt lat="45.06832" lon="2.69592">
        <ele>1392.2</ele>
        <time>2021-09-12T13:13:15.000Z</time>
      </trkpt>
      <trkpt lat="45.06828" lon="2.69583">
        <ele>1393.4</ele>
        <time>2021-09-12T13:13:22.000Z</time>
      </trkpt>
      <trkpt lat="45.06825" lon="2.69573">
        <ele>1392.6</ele>
        <time>2021-09-12T13:13:27.000Z</time>
      </trkpt>
      <trkpt lat="45.06823" lon="2.69562">
        <ele>1391.5</ele>
        <time>2021-09-12T13:13:33.000Z</time>
      </trkpt>
      <trkpt lat="45.0682" lon="2.69552">
        <ele>1390.8</ele>
        <time>2021-09-12T13:13:40.000Z</time>
      </trkpt>
      <trkpt lat="45.06817" lon="2.69544">
        <ele>1390.5</ele>
        <time>2021-09-12T13:13:45.000Z</time>
      </trkpt>
      <trkpt lat="45.06813" lon="2.69531">
        <ele>1389.7</ele>
        <time>2021-09-12T13:13:51.000Z</time>
      </trkpt>
      <trkpt lat="45.06809" lon="2.69518">
        <ele>1389.1</ele>
        <time>2021-09-12T13:13:57.000Z</time>
      </trkpt>
      <trkpt lat="45.06804" lon="2.69507">
        <ele>1389.2</ele>
        <time>2021-09-12T13:14:03.000Z</time>
      </trkpt>
      <trkpt lat="45.068" lon="2.69498">
        <ele>1389.2</ele>
        <time>2021-09-12T13:14:09.000Z</time>
      </trkpt>
      <trkpt lat="45.06793" lon="2.69492">
        <ele>1390.5</ele>
        <time>2021-09-12T13:14:15.000Z</time>
      </trkpt>
      <trkpt lat="45.06785" lon="2.69484">
        <ele>1391.8</ele>
        <time>2021-09-12T13:14:21.000Z</time>
      </trkpt>
      <trkpt lat="45.06778" lon="2.69475">
        <ele>1392.6</ele>
        <time>2021-09-12T13:14:27.000Z</time>
      </trkpt>
      <trkpt lat="45.06772" lon="2.69463">
        <ele>1392.4</ele>
        <time>2021-09-12T13:14:33.000Z</time>
      </trkpt>
      <trkpt lat="45.06769" lon="2.69452">
        <ele>1391.5</ele>
        <time>2021-09-12T13:14:39.000Z</time>
      </trkpt>
      <trkpt lat="45.06764" lon="2.69438">
        <ele>1390.7</ele>
        <time>2021-09-12T13:14:45.000Z</time>
      </trkpt>
      <trkpt lat="45.0676" lon="2.69428">
        <ele>1390.4</ele>
        <time>2021-09-12T13:14:54.000Z</time>
      </trkpt>
      <trkpt lat="45.06756" lon="2.69419">
        <ele>1390.2</ele>
        <time>2021-09-12T13:14:59.000Z</time>
      </trkpt>
      <trkpt lat="45.06752" lon="2.69412">
        <ele>1389.9</ele>
        <time>2021-09-12T13:15:04.000Z</time>
      </trkpt>
      <trkpt lat="45.06749" lon="2.69401">
        <ele>1387.7</ele>
        <time>2021-09-12T13:15:09.000Z</time>
      </trkpt>
      <trkpt lat="45.06746" lon="2.69392">
        <ele>1385.8</ele>
        <time>2021-09-12T13:15:15.000Z</time>
      </trkpt>
      <trkpt lat="45.06744" lon="2.69381">
        <ele>1383.1</ele>
        <time>2021-09-12T13:15:21.000Z</time>
      </trkpt>
      <trkpt lat="45.06741" lon="2.69367">
        <ele>1379.7</ele>
        <time>2021-09-12T13:15:27.000Z</time>
      </trkpt>
      <trkpt lat="45.06736" lon="2.69355">
        <ele>1377.4</ele>
        <time>2021-09-12T13:15:33.000Z</time>
      </trkpt>
      <trkpt lat="45.06731" lon="2.69345">
        <ele>1375.5</ele>
        <time>2021-09-12T13:15:39.000Z</time>
      </trkpt>
      <trkpt lat="45.06727" lon="2.69336">
        <ele>1373.8</ele>
        <time>2021-09-12T13:15:46.000Z</time>
      </trkpt>
      <trkpt lat="45.06722" lon="2.6933">
        <ele>1372.9</ele>
        <time>2021-09-12T13:15:52.000Z</time>
      </trkpt>
      <trkpt lat="45.06715" lon="2.69327">
        <ele>1373.4</ele>
        <time>2021-09-12T13:16:00.000Z</time>
      </trkpt>
      <trkpt lat="45.06709" lon="2.69322">
        <ele>1373</ele>
        <time>2021-09-12T13:16:06.000Z</time>
      </trkpt>
      <trkpt lat="45.06703" lon="2.69316">
        <ele>1372.3</ele>
        <time>2021-09-12T13:16:13.000Z</time>
      </trkpt>
      <trkpt lat="45.06697" lon="2.69313">
        <ele>1372.6</ele>
        <time>2021-09-12T13:16:18.000Z</time>
      </trkpt>
      <trkpt lat="45.0669" lon="2.69308">
        <ele>1372.5</ele>
        <time>2021-09-12T13:16:24.000Z</time>
      </trkpt>
      <trkpt lat="45.06684" lon="2.69301">
        <ele>1371.5</ele>
        <time>2021-09-12T13:16:29.000Z</time>
      </trkpt>
      <trkpt lat="45.06678" lon="2.69296">
        <ele>1371.3</ele>
        <time>2021-09-12T13:16:33.000Z</time>
      </trkpt>
      <trkpt lat="45.06675" lon="2.69287">
        <ele>1369</ele>
        <time>2021-09-12T13:16:40.000Z</time>
      </trkpt>
      <trkpt lat="45.06668" lon="2.69282">
        <ele>1369.1</ele>
        <time>2021-09-12T13:16:45.000Z</time>
      </trkpt>
      <trkpt lat="45.06659" lon="2.69274">
        <ele>1368.9</ele>
        <time>2021-09-12T13:16:51.000Z</time>
      </trkpt>
      <trkpt lat="45.06653" lon="2.69267">
        <ele>1368.4</ele>
        <time>2021-09-12T13:16:57.000Z</time>
      </trkpt>
      <trkpt lat="45.06645" lon="2.69263">
        <ele>1369.6</ele>
        <time>2021-09-12T13:17:03.000Z</time>
      </trkpt>
      <trkpt lat="45.06637" lon="2.69259">
        <ele>1371</ele>
        <time>2021-09-12T13:17:09.000Z</time>
      </trkpt>
      <trkpt lat="45.06631" lon="2.69253">
        <ele>1371.3</ele>
        <time>2021-09-12T13:17:15.000Z</time>
      </trkpt>
      <trkpt lat="45.06622" lon="2.69244">
        <ele>1372.5</ele>
        <time>2021-09-12T13:17:21.000Z</time>
      </trkpt>
      <trkpt lat="45.06617" lon="2.69235">
        <ele>1372.8</ele>
        <time>2021-09-12T13:17:27.000Z</time>
      </trkpt>
      <trkpt lat="45.06614" lon="2.69221">
        <ele>1371.7</ele>
        <time>2021-09-12T13:17:33.000Z</time>
      </trkpt>
      <trkpt lat="45.06611" lon="2.69213">
        <ele>1371.6</ele>
        <time>2021-09-12T13:17:39.000Z</time>
      </trkpt>
      <trkpt lat="45.06608" lon="2.69204">
        <ele>1371.3</ele>
        <time>2021-09-12T13:17:46.000Z</time>
      </trkpt>
      <trkpt lat="45.06602" lon="2.69196">
        <ele>1372.5</ele>
        <time>2021-09-12T13:17:51.000Z</time>
      </trkpt>
      <trkpt lat="45.06597" lon="2.6919">
        <ele>1373.5</ele>
        <time>2021-09-12T13:17:58.000Z</time>
      </trkpt>
      <trkpt lat="45.06592" lon="2.69183">
        <ele>1374.6</ele>
        <time>2021-09-12T13:18:18.000Z</time>
      </trkpt>
      <trkpt lat="45.06588" lon="2.69174">
        <ele>1375</ele>
        <time>2021-09-12T13:18:24.000Z</time>
      </trkpt>
      <trkpt lat="45.06584" lon="2.69166">
        <ele>1375.6</ele>
        <time>2021-09-12T13:18:31.000Z</time>
      </trkpt>
      <trkpt lat="45.06587" lon="2.69157">
        <ele>1373.2</ele>
        <time>2021-09-12T13:18:38.000Z</time>
      </trkpt>
      <trkpt lat="45.06583" lon="2.69148">
        <ele>1373.4</ele>
        <time>2021-09-12T13:18:49.000Z</time>
      </trkpt>
      <trkpt lat="45.06589" lon="2.69142">
        <ele>1370.3</ele>
        <time>2021-09-12T13:18:59.000Z</time>
      </trkpt>
      <trkpt lat="45.06594" lon="2.69135">
        <ele>1367.6</ele>
        <time>2021-09-12T13:19:05.000Z</time>
      </trkpt>
      <trkpt lat="45.06598" lon="2.69127">
        <ele>1365.1</ele>
        <time>2021-09-12T13:19:09.000Z</time>
      </trkpt>
      <trkpt lat="45.06609" lon="2.69114">
        <ele>1359.9</ele>
        <time>2021-09-12T13:19:15.000Z</time>
      </trkpt>
      <trkpt lat="45.06617" lon="2.69101">
        <ele>1356</ele>
        <time>2021-09-12T13:19:21.000Z</time>
      </trkpt>
      <trkpt lat="45.06621" lon="2.69092">
        <ele>1353.9</ele>
        <time>2021-09-12T13:19:27.000Z</time>
      </trkpt>
      <trkpt lat="45.0662" lon="2.69082">
        <ele>1353.3</ele>
        <time>2021-09-12T13:19:36.000Z</time>
      </trkpt>
      <trkpt lat="45.06621" lon="2.69072">
        <ele>1351.6</ele>
        <time>2021-09-12T13:19:47.000Z</time>
      </trkpt>
      <trkpt lat="45.06621" lon="2.69063">
        <ele>1350.4</ele>
        <time>2021-09-12T13:19:56.000Z</time>
      </trkpt>
      <trkpt lat="45.06617" lon="2.69055">
        <ele>1350.2</ele>
        <time>2021-09-12T13:20:06.000Z</time>
      </trkpt>
      <trkpt lat="45.0662" lon="2.69047">
        <ele>1348.4</ele>
        <time>2021-09-12T13:20:16.000Z</time>
      </trkpt>
      <trkpt lat="45.06615" lon="2.6904">
        <ele>1348.5</ele>
        <time>2021-09-12T13:20:25.000Z</time>
      </trkpt>
      <trkpt lat="45.0661" lon="2.69033">
        <ele>1348.6</ele>
        <time>2021-09-12T13:20:32.000Z</time>
      </trkpt>
      <trkpt lat="45.06607" lon="2.69025">
        <ele>1348</ele>
        <time>2021-09-12T13:20:40.000Z</time>
      </trkpt>
      <trkpt lat="45.06605" lon="2.69016">
        <ele>1346.9</ele>
        <time>2021-09-12T13:20:48.000Z</time>
      </trkpt>
      <trkpt lat="45.066" lon="2.69009">
        <ele>1346.7</ele>
        <time>2021-09-12T13:20:55.000Z</time>
      </trkpt>
      <trkpt lat="45.06595" lon="2.69004">
        <ele>1346.7</ele>
        <time>2021-09-12T13:21:03.000Z</time>
      </trkpt>
      <trkpt lat="45.06593" lon="2.68995">
        <ele>1345.4</ele>
        <time>2021-09-12T13:21:10.000Z</time>
      </trkpt>
      <trkpt lat="45.06588" lon="2.68988">
        <ele>1344.9</ele>
        <time>2021-09-12T13:21:16.000Z</time>
      </trkpt>
      <trkpt lat="45.06582" lon="2.68985">
        <ele>1345.5</ele>
        <time>2021-09-12T13:21:22.000Z</time>
      </trkpt>
      <trkpt lat="45.06576" lon="2.68981">
        <ele>1346.6</ele>
        <time>2021-09-12T13:21:28.000Z</time>
      </trkpt>
      <trkpt lat="45.0657" lon="2.68975">
        <ele>1347.3</ele>
        <time>2021-09-12T13:21:35.000Z</time>
      </trkpt>
      <trkpt lat="45.06563" lon="2.68976">
        <ele>1349.6</ele>
        <time>2021-09-12T13:21:44.000Z</time>
      </trkpt>
      <trkpt lat="45.06556" lon="2.68979">
        <ele>1352.3</ele>
        <time>2021-09-12T13:21:52.000Z</time>
      </trkpt>
      <trkpt lat="45.0655" lon="2.68982">
        <ele>1354.6</ele>
        <time>2021-09-12T13:21:58.000Z</time>
      </trkpt>
      <trkpt lat="45.06543" lon="2.68989">
        <ele>1357.8</ele>
        <time>2021-09-12T13:22:03.000Z</time>
      </trkpt>
      <trkpt lat="45.06534" lon="2.68994">
        <ele>1361.3</ele>
        <time>2021-09-12T13:22:09.000Z</time>
      </trkpt>
      <trkpt lat="45.0652" lon="2.68995">
        <ele>1365.5</ele>
        <time>2021-09-12T13:22:15.000Z</time>
      </trkpt>
      <trkpt lat="45.06512" lon="2.68994">
        <ele>1367.7</ele>
        <time>2021-09-12T13:22:21.000Z</time>
      </trkpt>
      <trkpt lat="45.06506" lon="2.68997">
        <ele>1369.9</ele>
        <time>2021-09-12T13:22:31.000Z</time>
      </trkpt>
      <trkpt lat="45.06498" lon="2.68995">
        <ele>1372.1</ele>
        <time>2021-09-12T13:22:39.000Z</time>
      </trkpt>
      <trkpt lat="45.0649" lon="2.68995">
        <ele>1375.2</ele>
        <time>2021-09-12T13:22:45.000Z</time>
      </trkpt>
      <trkpt lat="45.06483" lon="2.68991">
        <ele>1377.4</ele>
        <time>2021-09-12T13:22:52.000Z</time>
      </trkpt>
      <trkpt lat="45.06478" lon="2.68986">
        <ele>1378.7</ele>
        <time>2021-09-12T13:22:58.000Z</time>
      </trkpt>
      <trkpt lat="45.06472" lon="2.68982">
        <ele>1380.6</ele>
        <time>2021-09-12T13:23:07.000Z</time>
      </trkpt>
      <trkpt lat="45.06465" lon="2.68976">
        <ele>1382.6</ele>
        <time>2021-09-12T13:23:23.000Z</time>
      </trkpt>
      <trkpt lat="45.06458" lon="2.68975">
        <ele>1385.3</ele>
        <time>2021-09-12T13:23:34.000Z</time>
      </trkpt>
      <trkpt lat="45.06452" lon="2.68971">
        <ele>1387.2</ele>
        <time>2021-09-12T13:23:46.000Z</time>
      </trkpt>
      <trkpt lat="45.06443" lon="2.68961">
        <ele>1389.7</ele>
        <time>2021-09-12T13:24:12.000Z</time>
      </trkpt>
      <trkpt lat="45.06436" lon="2.6896">
        <ele>1392.4</ele>
        <time>2021-09-12T13:24:23.000Z</time>
      </trkpt>
      <trkpt lat="45.06429" lon="2.68964">
        <ele>1395.6</ele>
        <time>2021-09-12T13:24:29.000Z</time>
      </trkpt>
      <trkpt lat="45.06422" lon="2.68968">
        <ele>1398.8</ele>
        <time>2021-09-12T13:24:34.000Z</time>
      </trkpt>
      <trkpt lat="45.06415" lon="2.6897">
        <ele>1401.5</ele>
        <time>2021-09-12T13:24:45.000Z</time>
      </trkpt>
      <trkpt lat="45.06408" lon="2.68974">
        <ele>1403.3</ele>
        <time>2021-09-12T13:24:54.000Z</time>
      </trkpt>
      <trkpt lat="45.06401" lon="2.6897">
        <ele>1404.3</ele>
        <time>2021-09-12T13:25:04.000Z</time>
      </trkpt>
      <trkpt lat="45.06395" lon="2.68964">
        <ele>1404.8</ele>
        <time>2021-09-12T13:25:27.000Z</time>
      </trkpt>
      <trkpt lat="45.06387" lon="2.68953">
        <ele>1405</ele>
        <time>2021-09-12T13:25:46.000Z</time>
      </trkpt>
      <trkpt lat="45.06379" lon="2.6894">
        <ele>1404.7</ele>
        <time>2021-09-12T13:26:21.000Z</time>
      </trkpt>
      <trkpt lat="45.06375" lon="2.68931">
        <ele>1404.1</ele>
        <time>2021-09-12T13:26:29.000Z</time>
      </trkpt>
      <trkpt lat="45.06371" lon="2.6892">
        <ele>1403.1</ele>
        <time>2021-09-12T13:26:35.000Z</time>
      </trkpt>
      <trkpt lat="45.06371" lon="2.6891">
        <ele>1401.9</ele>
        <time>2021-09-12T13:26:43.000Z</time>
      </trkpt>
      <trkpt lat="45.06366" lon="2.68891">
        <ele>1400.6</ele>
        <time>2021-09-12T13:26:57.000Z</time>
      </trkpt>
      <trkpt lat="45.06361" lon="2.68885">
        <ele>1400.5</ele>
        <time>2021-09-12T13:27:06.000Z</time>
      </trkpt>
      <trkpt lat="45.0637" lon="2.68881">
        <ele>1399.2</ele>
        <time>2021-09-12T13:27:20.000Z</time>
      </trkpt>
      <trkpt lat="45.06377" lon="2.6888">
        <ele>1398.5</ele>
        <time>2021-09-12T13:27:22.000Z</time>
      </trkpt>
      <trkpt lat="45.06391" lon="2.68877">
        <ele>1397.1</ele>
        <time>2021-09-12T13:27:27.000Z</time>
      </trkpt>
      <trkpt lat="45.06398" lon="2.68876">
        <ele>1396.5</ele>
        <time>2021-09-12T13:27:33.000Z</time>
      </trkpt>
      <trkpt lat="45.06405" lon="2.68871">
        <ele>1395.7</ele>
        <time>2021-09-12T13:27:39.000Z</time>
      </trkpt>
      <trkpt lat="45.06411" lon="2.68862">
        <ele>1395</ele>
        <time>2021-09-12T13:27:45.000Z</time>
      </trkpt>
      <trkpt lat="45.06415" lon="2.68854">
        <ele>1394.6</ele>
        <time>2021-09-12T13:28:03.000Z</time>
      </trkpt>
      <trkpt lat="45.06421" lon="2.68847">
        <ele>1392.6</ele>
        <time>2021-09-12T13:28:09.000Z</time>
      </trkpt>
      <trkpt lat="45.06425" lon="2.68839">
        <ele>1390.9</ele>
        <time>2021-09-12T13:28:25.000Z</time>
      </trkpt>
      <trkpt lat="45.06425" lon="2.6883">
        <ele>1390.5</ele>
        <time>2021-09-12T13:28:45.000Z</time>
      </trkpt>
      <trkpt lat="45.06426" lon="2.68819">
        <ele>1389.1</ele>
        <time>2021-09-12T13:28:53.000Z</time>
      </trkpt>
      <trkpt lat="45.06427" lon="2.6881">
        <ele>1387.9</ele>
        <time>2021-09-12T13:29:02.000Z</time>
      </trkpt>
      <trkpt lat="45.06427" lon="2.688">
        <ele>1387</ele>
        <time>2021-09-12T13:29:08.000Z</time>
      </trkpt>
      <trkpt lat="45.06426" lon="2.68791">
        <ele>1386.5</ele>
        <time>2021-09-12T13:29:14.000Z</time>
      </trkpt>
      <trkpt lat="45.06423" lon="2.68782">
        <ele>1386.8</ele>
        <time>2021-09-12T13:29:22.000Z</time>
      </trkpt>
      <trkpt lat="45.06419" lon="2.68775">
        <ele>1387.6</ele>
        <time>2021-09-12T13:29:33.000Z</time>
      </trkpt>
      <trkpt lat="45.06414" lon="2.68768">
        <ele>1387.6</ele>
        <time>2021-09-12T13:29:43.000Z</time>
      </trkpt>
      <trkpt lat="45.06408" lon="2.68764">
        <ele>1386.8</ele>
        <time>2021-09-12T13:30:05.000Z</time>
      </trkpt>
      <trkpt lat="45.06403" lon="2.68759">
        <ele>1385.9</ele>
        <time>2021-09-12T13:30:15.000Z</time>
      </trkpt>
      <trkpt lat="45.064" lon="2.68749">
        <ele>1384.4</ele>
        <time>2021-09-12T13:30:25.000Z</time>
      </trkpt>
      <trkpt lat="45.06398" lon="2.68735">
        <ele>1381.9</ele>
        <time>2021-09-12T13:30:41.000Z</time>
      </trkpt>
      <trkpt lat="45.06398" lon="2.68726">
        <ele>1380.4</ele>
        <time>2021-09-12T13:30:47.000Z</time>
      </trkpt>
      <trkpt lat="45.06399" lon="2.6871">
        <ele>1377.8</ele>
        <time>2021-09-12T13:30:58.000Z</time>
      </trkpt>
      <trkpt lat="45.06401" lon="2.68701">
        <ele>1376.6</ele>
        <time>2021-09-12T13:31:07.000Z</time>
      </trkpt>
      <trkpt lat="45.06403" lon="2.68679">
        <ele>1373.4</ele>
        <time>2021-09-12T13:31:19.000Z</time>
      </trkpt>
      <trkpt lat="45.06406" lon="2.68664">
        <ele>1371.4</ele>
        <time>2021-09-12T13:31:31.000Z</time>
      </trkpt>
      <trkpt lat="45.06409" lon="2.68648">
        <ele>1368.9</ele>
        <time>2021-09-12T13:31:55.000Z</time>
      </trkpt>
      <trkpt lat="45.06412" lon="2.68629">
        <ele>1365.8</ele>
        <time>2021-09-12T13:32:28.000Z</time>
      </trkpt>
      <trkpt lat="45.06403" lon="2.68617">
        <ele>1361.7</ele>
        <time>2021-09-12T13:32:45.000Z</time>
      </trkpt>
      <trkpt lat="45.06403" lon="2.68607">
        <ele>1359.8</ele>
        <time>2021-09-12T13:32:56.000Z</time>
      </trkpt>
      <trkpt lat="45.06398" lon="2.68601">
        <ele>1357.6</ele>
        <time>2021-09-12T13:33:03.000Z</time>
      </trkpt>
      <trkpt lat="45.06396" lon="2.68592">
        <ele>1355.5</ele>
        <time>2021-09-12T13:33:12.000Z</time>
      </trkpt>
      <trkpt lat="45.06392" lon="2.68584">
        <ele>1353.1</ele>
        <time>2021-09-12T13:33:21.000Z</time>
      </trkpt>
      <trkpt lat="45.0639" lon="2.68575">
        <ele>1351.8</ele>
        <time>2021-09-12T13:33:37.000Z</time>
      </trkpt>
      <trkpt lat="45.06389" lon="2.68559">
        <ele>1350.1</ele>
        <time>2021-09-12T13:34:05.000Z</time>
      </trkpt>
      <trkpt lat="45.06389" lon="2.68548">
        <ele>1349.1</ele>
        <time>2021-09-12T13:34:12.000Z</time>
      </trkpt>
      <trkpt lat="45.06388" lon="2.68539">
        <ele>1348.1</ele>
        <time>2021-09-12T13:34:17.000Z</time>
      </trkpt>
      <trkpt lat="45.06387" lon="2.68528">
        <ele>1347</ele>
        <time>2021-09-12T13:34:22.000Z</time>
      </trkpt>
      <trkpt lat="45.06385" lon="2.68516">
        <ele>1345.6</ele>
        <time>2021-09-12T13:34:27.000Z</time>
      </trkpt>
      <trkpt lat="45.06382" lon="2.68502">
        <ele>1344</ele>
        <time>2021-09-12T13:34:33.000Z</time>
      </trkpt>
      <trkpt lat="45.06383" lon="2.68488">
        <ele>1343.9</ele>
        <time>2021-09-12T13:34:39.000Z</time>
      </trkpt>
      <trkpt lat="45.06381" lon="2.68478">
        <ele>1343.6</ele>
        <time>2021-09-12T13:34:45.000Z</time>
      </trkpt>
      <trkpt lat="45.06379" lon="2.68468">
        <ele>1343.4</ele>
        <time>2021-09-12T13:34:53.000Z</time>
      </trkpt>
      <trkpt lat="45.06377" lon="2.68451">
        <ele>1343.2</ele>
        <time>2021-09-12T13:35:04.000Z</time>
      </trkpt>
      <trkpt lat="45.06375" lon="2.68434">
        <ele>1343</ele>
        <time>2021-09-12T13:35:21.000Z</time>
      </trkpt>
      <trkpt lat="45.0637" lon="2.68426">
        <ele>1342.6</ele>
        <time>2021-09-12T13:35:31.000Z</time>
      </trkpt>
      <trkpt lat="45.06368" lon="2.68417">
        <ele>1342.5</ele>
        <time>2021-09-12T13:35:36.000Z</time>
      </trkpt>
      <trkpt lat="45.06366" lon="2.68408">
        <ele>1342.5</ele>
        <time>2021-09-12T13:35:41.000Z</time>
      </trkpt>
      <trkpt lat="45.06362" lon="2.68399">
        <ele>1342.2</ele>
        <time>2021-09-12T13:35:47.000Z</time>
      </trkpt>
      <trkpt lat="45.06361" lon="2.68389">
        <ele>1342.2</ele>
        <time>2021-09-12T13:35:55.000Z</time>
      </trkpt>
      <trkpt lat="45.06362" lon="2.68379">
        <ele>1342.4</ele>
        <time>2021-09-12T13:36:02.000Z</time>
      </trkpt>
      <trkpt lat="45.06364" lon="2.68368">
        <ele>1342.7</ele>
        <time>2021-09-12T13:36:08.000Z</time>
      </trkpt>
      <trkpt lat="45.06359" lon="2.68362">
        <ele>1342.2</ele>
        <time>2021-09-12T13:36:13.000Z</time>
      </trkpt>
      <trkpt lat="45.06355" lon="2.68354">
        <ele>1341.8</ele>
        <time>2021-09-12T13:36:18.000Z</time>
      </trkpt>
      <trkpt lat="45.06352" lon="2.68344">
        <ele>1341.4</ele>
        <time>2021-09-12T13:36:23.000Z</time>
      </trkpt>
      <trkpt lat="45.06349" lon="2.68335">
        <ele>1341.1</ele>
        <time>2021-09-12T13:36:27.000Z</time>
      </trkpt>
      <trkpt lat="45.0634" lon="2.68323">
        <ele>1340.5</ele>
        <time>2021-09-12T13:36:33.000Z</time>
      </trkpt>
      <trkpt lat="45.06331" lon="2.68314">
        <ele>1339.6</ele>
        <time>2021-09-12T13:36:39.000Z</time>
      </trkpt>
      <trkpt lat="45.06323" lon="2.68305">
        <ele>1338.2</ele>
        <time>2021-09-12T13:36:45.000Z</time>
      </trkpt>
      <trkpt lat="45.06317" lon="2.68299">
        <ele>1337.1</ele>
        <time>2021-09-12T13:36:51.000Z</time>
      </trkpt>
      <trkpt lat="45.06312" lon="2.68291">
        <ele>1336.4</ele>
        <time>2021-09-12T13:36:58.000Z</time>
      </trkpt>
      <trkpt lat="45.06304" lon="2.68282">
        <ele>1335.1</ele>
        <time>2021-09-12T13:37:03.000Z</time>
      </trkpt>
      <trkpt lat="45.06297" lon="2.68271">
        <ele>1334.2</ele>
        <time>2021-09-12T13:37:09.000Z</time>
      </trkpt>
      <trkpt lat="45.06293" lon="2.6826">
        <ele>1334.1</ele>
        <time>2021-09-12T13:37:15.000Z</time>
      </trkpt>
      <trkpt lat="45.0629" lon="2.6825">
        <ele>1334.1</ele>
        <time>2021-09-12T13:37:22.000Z</time>
      </trkpt>
      <trkpt lat="45.06287" lon="2.68237">
        <ele>1335</ele>
        <time>2021-09-12T13:37:27.000Z</time>
      </trkpt>
      <trkpt lat="45.06286" lon="2.68221">
        <ele>1336.7</ele>
        <time>2021-09-12T13:37:33.000Z</time>
      </trkpt>
      <trkpt lat="45.0628" lon="2.68214">
        <ele>1336.3</ele>
        <time>2021-09-12T13:37:50.000Z</time>
      </trkpt>
      <trkpt lat="45.06276" lon="2.68205">
        <ele>1336.5</ele>
        <time>2021-09-12T13:37:55.000Z</time>
      </trkpt>
      <trkpt lat="45.06272" lon="2.68196">
        <ele>1336.8</ele>
        <time>2021-09-12T13:38:00.000Z</time>
      </trkpt>
      <trkpt lat="45.06268" lon="2.68186">
        <ele>1337.2</ele>
        <time>2021-09-12T13:38:05.000Z</time>
      </trkpt>
      <trkpt lat="45.06264" lon="2.68177">
        <ele>1337.5</ele>
        <time>2021-09-12T13:38:10.000Z</time>
      </trkpt>
      <trkpt lat="45.06262" lon="2.68167">
        <ele>1338.4</ele>
        <time>2021-09-12T13:38:15.000Z</time>
      </trkpt>
      <trkpt lat="45.0626" lon="2.68157">
        <ele>1338.2</ele>
        <time>2021-09-12T13:38:21.000Z</time>
      </trkpt>
      <trkpt lat="45.06259" lon="2.68147">
        <ele>1338</ele>
        <time>2021-09-12T13:38:27.000Z</time>
      </trkpt>
      <trkpt lat="45.06257" lon="2.68137">
        <ele>1337.7</ele>
        <time>2021-09-12T13:38:34.000Z</time>
      </trkpt>
      <trkpt lat="45.06255" lon="2.68128">
        <ele>1337.2</ele>
        <time>2021-09-12T13:38:42.000Z</time>
      </trkpt>
      <trkpt lat="45.06248" lon="2.68123">
        <ele>1335.3</ele>
        <time>2021-09-12T13:38:46.000Z</time>
      </trkpt>
      <trkpt lat="45.06241" lon="2.68113">
        <ele>1332.9</ele>
        <time>2021-09-12T13:38:51.000Z</time>
      </trkpt>
      <trkpt lat="45.06234" lon="2.68103">
        <ele>1330.3</ele>
        <time>2021-09-12T13:38:57.000Z</time>
      </trkpt>
      <trkpt lat="45.06226" lon="2.68092">
        <ele>1327.3</ele>
        <time>2021-09-12T13:39:03.000Z</time>
      </trkpt>
      <trkpt lat="45.06224" lon="2.68083">
        <ele>1326.3</ele>
        <time>2021-09-12T13:39:10.000Z</time>
      </trkpt>
      <trkpt lat="45.06224" lon="2.68071">
        <ele>1325.9</ele>
        <time>2021-09-12T13:39:15.000Z</time>
      </trkpt>
      <trkpt lat="45.0622" lon="2.6806">
        <ele>1324</ele>
        <time>2021-09-12T13:39:21.000Z</time>
      </trkpt>
      <trkpt lat="45.06215" lon="2.68055">
        <ele>1321.9</ele>
        <time>2021-09-12T13:39:37.000Z</time>
      </trkpt>
      <trkpt lat="45.06208" lon="2.68047">
        <ele>1318.8</ele>
        <time>2021-09-12T13:40:13.000Z</time>
      </trkpt>
      <trkpt lat="45.06212" lon="2.68037">
        <ele>1320</ele>
        <time>2021-09-12T13:40:29.000Z</time>
      </trkpt>
      <trkpt lat="45.06214" lon="2.68028">
        <ele>1320.4</ele>
        <time>2021-09-12T13:40:46.000Z</time>
      </trkpt>
      <trkpt lat="45.06211" lon="2.68019">
        <ele>1318.9</ele>
        <time>2021-09-12T13:41:24.000Z</time>
      </trkpt>
      <trkpt lat="45.06208" lon="2.68011">
        <ele>1317.3</ele>
        <time>2021-09-12T13:41:29.000Z</time>
      </trkpt>
      <trkpt lat="45.06206" lon="2.68002">
        <ele>1316.1</ele>
        <time>2021-09-12T13:41:33.000Z</time>
      </trkpt>
      <trkpt lat="45.06206" lon="2.67989">
        <ele>1317.9</ele>
        <time>2021-09-12T13:41:39.000Z</time>
      </trkpt>
      <trkpt lat="45.06204" lon="2.67979">
        <ele>1318.7</ele>
        <time>2021-09-12T13:41:46.000Z</time>
      </trkpt>
      <trkpt lat="45.06205" lon="2.6797">
        <ele>1320.6</ele>
        <time>2021-09-12T13:41:52.000Z</time>
      </trkpt>
      <trkpt lat="45.06206" lon="2.67959">
        <ele>1322.8</ele>
        <time>2021-09-12T13:41:58.000Z</time>
      </trkpt>
      <trkpt lat="45.06206" lon="2.6795">
        <ele>1324.3</ele>
        <time>2021-09-12T13:42:04.000Z</time>
      </trkpt>
      <trkpt lat="45.06205" lon="2.67937">
        <ele>1326.1</ele>
        <time>2021-09-12T13:42:09.000Z</time>
      </trkpt>
      <trkpt lat="45.06208" lon="2.67927">
        <ele>1328.7</ele>
        <time>2021-09-12T13:42:32.000Z</time>
      </trkpt>
      <trkpt lat="45.06205" lon="2.67918">
        <ele>1329.2</ele>
        <time>2021-09-12T13:42:42.000Z</time>
      </trkpt>
      <trkpt lat="45.06202" lon="2.67909">
        <ele>1330.2</ele>
        <time>2021-09-12T13:42:48.000Z</time>
      </trkpt>
      <trkpt lat="45.06199" lon="2.679">
        <ele>1331.3</ele>
        <time>2021-09-12T13:42:54.000Z</time>
      </trkpt>
      <trkpt lat="45.06195" lon="2.67891">
        <ele>1332</ele>
        <time>2021-09-12T13:43:01.000Z</time>
      </trkpt>
      <trkpt lat="45.06192" lon="2.67883">
        <ele>1332.9</ele>
        <time>2021-09-12T13:43:07.000Z</time>
      </trkpt>
      <trkpt lat="45.06188" lon="2.67873">
        <ele>1333.9</ele>
        <time>2021-09-12T13:43:13.000Z</time>
      </trkpt>
      <trkpt lat="45.06184" lon="2.67864">
        <ele>1334.6</ele>
        <time>2021-09-12T13:43:19.000Z</time>
      </trkpt>
      <trkpt lat="45.0618" lon="2.67855">
        <ele>1335.4</ele>
        <time>2021-09-12T13:43:23.000Z</time>
      </trkpt>
      <trkpt lat="45.06175" lon="2.67847">
        <ele>1335.6</ele>
        <time>2021-09-12T13:43:27.000Z</time>
      </trkpt>
      <trkpt lat="45.06168" lon="2.67837">
        <ele>1335.6</ele>
        <time>2021-09-12T13:43:33.000Z</time>
      </trkpt>
      <trkpt lat="45.06161" lon="2.67831">
        <ele>1334.2</ele>
        <time>2021-09-12T13:43:39.000Z</time>
      </trkpt>
      <trkpt lat="45.06153" lon="2.6783">
        <ele>1331.1</ele>
        <time>2021-09-12T13:43:45.000Z</time>
      </trkpt>
      <trkpt lat="45.06147" lon="2.67826">
        <ele>1329.7</ele>
        <time>2021-09-12T13:43:51.000Z</time>
      </trkpt>
      <trkpt lat="45.0614" lon="2.67819">
        <ele>1328.6</ele>
        <time>2021-09-12T13:43:57.000Z</time>
      </trkpt>
      <trkpt lat="45.06134" lon="2.67815">
        <ele>1327.2</ele>
        <time>2021-09-12T13:44:05.000Z</time>
      </trkpt>
      <trkpt lat="45.06127" lon="2.67811">
        <ele>1325.4</ele>
        <time>2021-09-12T13:44:12.000Z</time>
      </trkpt>
      <trkpt lat="45.06121" lon="2.67806">
        <ele>1324.2</ele>
        <time>2021-09-12T13:44:17.000Z</time>
      </trkpt>
      <trkpt lat="45.06115" lon="2.678">
        <ele>1323.4</ele>
        <time>2021-09-12T13:44:22.000Z</time>
      </trkpt>
      <trkpt lat="45.0611" lon="2.67792">
        <ele>1323.6</ele>
        <time>2021-09-12T13:44:28.000Z</time>
      </trkpt>
      <trkpt lat="45.06104" lon="2.67787">
        <ele>1322.6</ele>
        <time>2021-09-12T13:44:34.000Z</time>
      </trkpt>
      <trkpt lat="45.06098" lon="2.67782">
        <ele>1321.6</ele>
        <time>2021-09-12T13:44:40.000Z</time>
      </trkpt>
      <trkpt lat="45.06092" lon="2.67777">
        <ele>1320.7</ele>
        <time>2021-09-12T13:44:45.000Z</time>
      </trkpt>
      <trkpt lat="45.06085" lon="2.67769">
        <ele>1320.2</ele>
        <time>2021-09-12T13:44:51.000Z</time>
      </trkpt>
      <trkpt lat="45.06079" lon="2.67762">
        <ele>1319.3</ele>
        <time>2021-09-12T13:44:57.000Z</time>
      </trkpt>
      <trkpt lat="45.06073" lon="2.67757">
        <ele>1317.8</ele>
        <time>2021-09-12T13:45:04.000Z</time>
      </trkpt>
      <trkpt lat="45.06069" lon="2.67748">
        <ele>1318.1</ele>
        <time>2021-09-12T13:45:10.000Z</time>
      </trkpt>
      <trkpt lat="45.06065" lon="2.67742">
        <ele>1317.2</ele>
        <time>2021-09-12T13:45:16.000Z</time>
      </trkpt>
      <trkpt lat="45.06059" lon="2.67735">
        <ele>1315.6</ele>
        <time>2021-09-12T13:45:22.000Z</time>
      </trkpt>
      <trkpt lat="45.06055" lon="2.67727">
        <ele>1315.3</ele>
        <time>2021-09-12T13:45:27.000Z</time>
      </trkpt>
      <trkpt lat="45.06051" lon="2.67717">
        <ele>1315.6</ele>
        <time>2021-09-12T13:45:33.000Z</time>
      </trkpt>
      <trkpt lat="45.06047" lon="2.67706">
        <ele>1316.2</ele>
        <time>2021-09-12T13:45:39.000Z</time>
      </trkpt>
      <trkpt lat="45.06042" lon="2.67698">
        <ele>1316</ele>
        <time>2021-09-12T13:45:45.000Z</time>
      </trkpt>
      <trkpt lat="45.06038" lon="2.6769">
        <ele>1316.3</ele>
        <time>2021-09-12T13:45:53.000Z</time>
      </trkpt>
      <trkpt lat="45.06034" lon="2.67683">
        <ele>1316.4</ele>
        <time>2021-09-12T13:45:59.000Z</time>
      </trkpt>
      <trkpt lat="45.06031" lon="2.67674">
        <ele>1317.6</ele>
        <time>2021-09-12T13:46:05.000Z</time>
      </trkpt>
      <trkpt lat="45.06027" lon="2.67665">
        <ele>1318.1</ele>
        <time>2021-09-12T13:46:11.000Z</time>
      </trkpt>
      <trkpt lat="45.06024" lon="2.67656">
        <ele>1317.6</ele>
        <time>2021-09-12T13:46:16.000Z</time>
      </trkpt>
      <trkpt lat="45.06021" lon="2.67647">
        <ele>1317.1</ele>
        <time>2021-09-12T13:46:21.000Z</time>
      </trkpt>
      <trkpt lat="45.06018" lon="2.67629">
        <ele>1317.2</ele>
        <time>2021-09-12T13:46:27.000Z</time>
      </trkpt>
      <trkpt lat="45.06016" lon="2.67617">
        <ele>1317.4</ele>
        <time>2021-09-12T13:46:33.000Z</time>
      </trkpt>
      <trkpt lat="45.06013" lon="2.67608">
        <ele>1317.2</ele>
        <time>2021-09-12T13:46:41.000Z</time>
      </trkpt>
      <trkpt lat="45.06009" lon="2.676">
        <ele>1316.8</ele>
        <time>2021-09-12T13:46:52.000Z</time>
      </trkpt>
      <trkpt lat="45.06002" lon="2.67594">
        <ele>1315.6</ele>
        <time>2021-09-12T13:47:16.000Z</time>
      </trkpt>
      <trkpt lat="45.05998" lon="2.67582">
        <ele>1315.3</ele>
        <time>2021-09-12T13:47:21.000Z</time>
      </trkpt>
      <trkpt lat="45.05994" lon="2.67557">
        <ele>1313</ele>
        <time>2021-09-12T13:47:27.000Z</time>
      </trkpt>
      <trkpt lat="45.05987" lon="2.6756">
        <ele>1311.3</ele>
        <time>2021-09-12T13:47:33.000Z</time>
      </trkpt>
      <trkpt lat="45.05982" lon="2.67569">
        <ele>1310.1</ele>
        <time>2021-09-12T13:47:39.000Z</time>
      </trkpt>
      <trkpt lat="45.05976" lon="2.67567">
        <ele>1308.4</ele>
        <time>2021-09-12T13:47:46.000Z</time>
      </trkpt>
      <trkpt lat="45.0597" lon="2.67563">
        <ele>1306.9</ele>
        <time>2021-09-12T13:47:53.000Z</time>
      </trkpt>
      <trkpt lat="45.05963" lon="2.67559">
        <ele>1305.3</ele>
        <time>2021-09-12T13:47:59.000Z</time>
      </trkpt>
      <trkpt lat="45.05957" lon="2.67555">
        <ele>1304.1</ele>
        <time>2021-09-12T13:48:05.000Z</time>
      </trkpt>
      <trkpt lat="45.0595" lon="2.67554">
        <ele>1302.5</ele>
        <time>2021-09-12T13:48:10.000Z</time>
      </trkpt>
      <trkpt lat="45.05942" lon="2.67552">
        <ele>1300.8</ele>
        <time>2021-09-12T13:48:16.000Z</time>
      </trkpt>
      <trkpt lat="45.05936" lon="2.67546">
        <ele>1300.2</ele>
        <time>2021-09-12T13:48:22.000Z</time>
      </trkpt>
      <trkpt lat="45.05929" lon="2.67544">
        <ele>1299.1</ele>
        <time>2021-09-12T13:48:27.000Z</time>
      </trkpt>
      <trkpt lat="45.05923" lon="2.6754">
        <ele>1298.5</ele>
        <time>2021-09-12T13:48:33.000Z</time>
      </trkpt>
      <trkpt lat="45.05916" lon="2.67534">
        <ele>1298.3</ele>
        <time>2021-09-12T13:48:39.000Z</time>
      </trkpt>
      <trkpt lat="45.0591" lon="2.67532">
        <ele>1297.4</ele>
        <time>2021-09-12T13:48:46.000Z</time>
      </trkpt>
      <trkpt lat="45.05905" lon="2.67524">
        <ele>1297.9</ele>
        <time>2021-09-12T13:48:53.000Z</time>
      </trkpt>
      <trkpt lat="45.05902" lon="2.67516">
        <ele>1298.8</ele>
        <time>2021-09-12T13:48:59.000Z</time>
      </trkpt>
      <trkpt lat="45.05895" lon="2.67513">
        <ele>1297.8</ele>
        <time>2021-09-12T13:49:05.000Z</time>
      </trkpt>
      <trkpt lat="45.05889" lon="2.67513">
        <ele>1296.5</ele>
        <time>2021-09-12T13:49:09.000Z</time>
      </trkpt>
      <trkpt lat="45.05884" lon="2.67503">
        <ele>1297.4</ele>
        <time>2021-09-12T13:49:15.000Z</time>
      </trkpt>
      <trkpt lat="45.05879" lon="2.67495">
        <ele>1297.4</ele>
        <time>2021-09-12T13:49:21.000Z</time>
      </trkpt>
      <trkpt lat="45.05876" lon="2.67479">
        <ele>1298.7</ele>
        <time>2021-09-12T13:49:27.000Z</time>
      </trkpt>
      <trkpt lat="45.05871" lon="2.67468">
        <ele>1299.2</ele>
        <time>2021-09-12T13:49:33.000Z</time>
      </trkpt>
      <trkpt lat="45.05867" lon="2.67461">
        <ele>1299.4</ele>
        <time>2021-09-12T13:49:39.000Z</time>
      </trkpt>
      <trkpt lat="45.05863" lon="2.67451">
        <ele>1300.1</ele>
        <time>2021-09-12T13:49:45.000Z</time>
      </trkpt>
      <trkpt lat="45.05858" lon="2.67441">
        <ele>1300.9</ele>
        <time>2021-09-12T13:49:51.000Z</time>
      </trkpt>
      <trkpt lat="45.0585" lon="2.67433">
        <ele>1301.1</ele>
        <time>2021-09-12T13:49:57.000Z</time>
      </trkpt>
      <trkpt lat="45.05837" lon="2.6742">
        <ele>1301.8</ele>
        <time>2021-09-12T13:50:03.000Z</time>
      </trkpt>
      <trkpt lat="45.05827" lon="2.6741">
        <ele>1302.3</ele>
        <time>2021-09-12T13:50:09.000Z</time>
      </trkpt>
      <trkpt lat="45.05821" lon="2.67404">
        <ele>1302.7</ele>
        <time>2021-09-12T13:50:15.000Z</time>
      </trkpt>
      <trkpt lat="45.05816" lon="2.67412">
        <ele>1301.7</ele>
        <time>2021-09-12T13:50:21.000Z</time>
      </trkpt>
      <trkpt lat="45.05814" lon="2.67421">
        <ele>1300.2</ele>
        <time>2021-09-12T13:50:27.000Z</time>
      </trkpt>
      <trkpt lat="45.05814" lon="2.67431">
        <ele>1298.3</ele>
        <time>2021-09-12T13:50:34.000Z</time>
      </trkpt>
      <trkpt lat="45.05815" lon="2.67441">
        <ele>1296.4</ele>
        <time>2021-09-12T13:50:41.000Z</time>
      </trkpt>
      <trkpt lat="45.05817" lon="2.67451">
        <ele>1294.6</ele>
        <time>2021-09-12T13:50:47.000Z</time>
      </trkpt>
      <trkpt lat="45.05815" lon="2.6746">
        <ele>1292.6</ele>
        <time>2021-09-12T13:50:55.000Z</time>
      </trkpt>
      <trkpt lat="45.05815" lon="2.67471">
        <ele>1290.5</ele>
        <time>2021-09-12T13:51:01.000Z</time>
      </trkpt>
      <trkpt lat="45.05817" lon="2.67479">
        <ele>1289.1</ele>
        <time>2021-09-12T13:51:05.000Z</time>
      </trkpt>
      <trkpt lat="45.05819" lon="2.6749">
        <ele>1287.2</ele>
        <time>2021-09-12T13:51:09.000Z</time>
      </trkpt>
      <trkpt lat="45.05823" lon="2.675">
        <ele>1285.8</ele>
        <time>2021-09-12T13:51:15.000Z</time>
      </trkpt>
      <trkpt lat="45.05822" lon="2.6749">
        <ele>1287.5</ele>
        <time>2021-09-12T13:51:35.000Z</time>
      </trkpt>
      <trkpt lat="45.05821" lon="2.6748">
        <ele>1289.3</ele>
        <time>2021-09-12T13:51:44.000Z</time>
      </trkpt>
      <trkpt lat="45.05821" lon="2.6747">
        <ele>1291.2</ele>
        <time>2021-09-12T13:51:50.000Z</time>
      </trkpt>
      <trkpt lat="45.05821" lon="2.6746">
        <ele>1293.1</ele>
        <time>2021-09-12T13:51:55.000Z</time>
      </trkpt>
      <trkpt lat="45.05822" lon="2.6745">
        <ele>1295.1</ele>
        <time>2021-09-12T13:52:00.000Z</time>
      </trkpt>
      <trkpt lat="45.05818" lon="2.67442">
        <ele>1296.4</ele>
        <time>2021-09-12T13:52:05.000Z</time>
      </trkpt>
      <trkpt lat="45.05814" lon="2.67434">
        <ele>1297.7</ele>
        <time>2021-09-12T13:52:10.000Z</time>
      </trkpt>
      <trkpt lat="45.0581" lon="2.67426">
        <ele>1299</ele>
        <time>2021-09-12T13:52:16.000Z</time>
      </trkpt>
      <trkpt lat="45.05806" lon="2.67417">
        <ele>1300.6</ele>
        <time>2021-09-12T13:52:21.000Z</time>
      </trkpt>
      <trkpt lat="45.05805" lon="2.67404">
        <ele>1302.3</ele>
        <time>2021-09-12T13:52:27.000Z</time>
      </trkpt>
      <trkpt lat="45.05803" lon="2.67392">
        <ele>1303.8</ele>
        <time>2021-09-12T13:52:33.000Z</time>
      </trkpt>
      <trkpt lat="45.05805" lon="2.67379">
        <ele>1305.5</ele>
        <time>2021-09-12T13:52:39.000Z</time>
      </trkpt>
      <trkpt lat="45.05807" lon="2.67366">
        <ele>1307.1</ele>
        <time>2021-09-12T13:52:45.000Z</time>
      </trkpt>
      <trkpt lat="45.05807" lon="2.67355">
        <ele>1308.5</ele>
        <time>2021-09-12T13:52:51.000Z</time>
      </trkpt>
      <trkpt lat="45.058" lon="2.67349">
        <ele>1309.7</ele>
        <time>2021-09-12T13:52:57.000Z</time>
      </trkpt>
      <trkpt lat="45.05795" lon="2.67343">
        <ele>1310.8</ele>
        <time>2021-09-12T13:53:03.000Z</time>
      </trkpt>
      <trkpt lat="45.0579" lon="2.67336">
        <ele>1312.2</ele>
        <time>2021-09-12T13:53:14.000Z</time>
      </trkpt>
      <trkpt lat="45.05784" lon="2.67331">
        <ele>1313.3</ele>
        <time>2021-09-12T13:53:22.000Z</time>
      </trkpt>
      <trkpt lat="45.05778" lon="2.67328">
        <ele>1314.1</ele>
        <time>2021-09-12T13:53:27.000Z</time>
      </trkpt>
      <trkpt lat="45.0577" lon="2.67326">
        <ele>1314.9</ele>
        <time>2021-09-12T13:53:34.000Z</time>
      </trkpt>
      <trkpt lat="45.05763" lon="2.67324">
        <ele>1315.8</ele>
        <time>2021-09-12T13:53:40.000Z</time>
      </trkpt>
      <trkpt lat="45.05757" lon="2.67319">
        <ele>1316.8</ele>
        <time>2021-09-12T13:53:46.000Z</time>
      </trkpt>
      <trkpt lat="45.05757" lon="2.67308">
        <ele>1317.9</ele>
        <time>2021-09-12T13:54:13.000Z</time>
      </trkpt>
      <trkpt lat="45.05753" lon="2.67301">
        <ele>1319.1</ele>
        <time>2021-09-12T13:54:20.000Z</time>
      </trkpt>
      <trkpt lat="45.05747" lon="2.67296">
        <ele>1320.4</ele>
        <time>2021-09-12T13:54:29.000Z</time>
      </trkpt>
      <trkpt lat="45.05741" lon="2.67292">
        <ele>1321.7</ele>
        <time>2021-09-12T13:54:38.000Z</time>
      </trkpt>
      <trkpt lat="45.05735" lon="2.67288">
        <ele>1322.8</ele>
        <time>2021-09-12T13:54:46.000Z</time>
      </trkpt>
      <trkpt lat="45.05728" lon="2.67287">
        <ele>1323.8</ele>
        <time>2021-09-12T13:54:54.000Z</time>
      </trkpt>
      <trkpt lat="45.05721" lon="2.67286">
        <ele>1324.8</ele>
        <time>2021-09-12T13:55:15.000Z</time>
      </trkpt>
      <trkpt lat="45.05714" lon="2.67283">
        <ele>1326</ele>
        <time>2021-09-12T13:55:23.000Z</time>
      </trkpt>
      <trkpt lat="45.05708" lon="2.67278">
        <ele>1327.2</ele>
        <time>2021-09-12T13:55:30.000Z</time>
      </trkpt>
      <trkpt lat="45.05703" lon="2.67273">
        <ele>1328.2</ele>
        <time>2021-09-12T13:55:35.000Z</time>
      </trkpt>
      <trkpt lat="45.05696" lon="2.67268">
        <ele>1329.4</ele>
        <time>2021-09-12T13:55:42.000Z</time>
      </trkpt>
      <trkpt lat="45.05691" lon="2.6726">
        <ele>1330.6</ele>
        <time>2021-09-12T13:55:48.000Z</time>
      </trkpt>
      <trkpt lat="45.05686" lon="2.67253">
        <ele>1331.7</ele>
        <time>2021-09-12T13:55:53.000Z</time>
      </trkpt>
      <trkpt lat="45.0568" lon="2.6725">
        <ele>1332.6</ele>
        <time>2021-09-12T13:55:59.000Z</time>
      </trkpt>
      <trkpt lat="45.05674" lon="2.67245">
        <ele>1332.6</ele>
        <time>2021-09-12T13:56:05.000Z</time>
      </trkpt>
      <trkpt lat="45.05667" lon="2.67243">
        <ele>1333.1</ele>
        <time>2021-09-12T13:56:11.000Z</time>
      </trkpt>
      <trkpt lat="45.0566" lon="2.67243">
        <ele>1334.5</ele>
        <time>2021-09-12T13:56:17.000Z</time>
      </trkpt>
      <trkpt lat="45.05653" lon="2.67244">
        <ele>1336</ele>
        <time>2021-09-12T13:56:25.000Z</time>
      </trkpt>
      <trkpt lat="45.05646" lon="2.67244">
        <ele>1337.4</ele>
        <time>2021-09-12T13:56:32.000Z</time>
      </trkpt>
      <trkpt lat="45.0564" lon="2.67242">
        <ele>1338.4</ele>
        <time>2021-09-12T13:56:38.000Z</time>
      </trkpt>
      <trkpt lat="45.05632" lon="2.67238">
        <ele>1339.6</ele>
        <time>2021-09-12T13:56:44.000Z</time>
      </trkpt>
      <trkpt lat="45.05625" lon="2.67238">
        <ele>1341.1</ele>
        <time>2021-09-12T13:56:49.000Z</time>
      </trkpt>
      <trkpt lat="45.05618" lon="2.67237">
        <ele>1342.4</ele>
        <time>2021-09-12T13:56:54.000Z</time>
      </trkpt>
      <trkpt lat="45.05611" lon="2.67238">
        <ele>1343.9</ele>
        <time>2021-09-12T13:56:59.000Z</time>
      </trkpt>
      <trkpt lat="45.05604" lon="2.67237">
        <ele>1345.3</ele>
        <time>2021-09-12T13:57:04.000Z</time>
      </trkpt>
      <trkpt lat="45.05597" lon="2.67235">
        <ele>1346.6</ele>
        <time>2021-09-12T13:57:10.000Z</time>
      </trkpt>
      <trkpt lat="45.05592" lon="2.67228">
        <ele>1347.4</ele>
        <time>2021-09-12T13:57:29.000Z</time>
      </trkpt>
      <trkpt lat="45.05585" lon="2.6723">
        <ele>1348.9</ele>
        <time>2021-09-12T13:59:45.000Z</time>
      </trkpt>
      <trkpt lat="45.05582" lon="2.67221">
        <ele>1349</ele>
        <time>2021-09-12T13:59:55.000Z</time>
      </trkpt>
      <trkpt lat="45.05575" lon="2.67222">
        <ele>1349.5</ele>
        <time>2021-09-12T14:00:04.000Z</time>
      </trkpt>
      <trkpt lat="45.05564" lon="2.67223">
        <ele>1350.2</ele>
        <time>2021-09-12T14:00:09.000Z</time>
      </trkpt>
      <trkpt lat="45.05556" lon="2.67223">
        <ele>1350.7</ele>
        <time>2021-09-12T14:00:15.000Z</time>
      </trkpt>
      <trkpt lat="45.05549" lon="2.67224">
        <ele>1351.1</ele>
        <time>2021-09-12T14:00:30.000Z</time>
      </trkpt>
      <trkpt lat="45.05543" lon="2.67219">
        <ele>1351.8</ele>
        <time>2021-09-12T14:00:41.000Z</time>
      </trkpt>
      <trkpt lat="45.05536" lon="2.67216">
        <ele>1352.6</ele>
        <time>2021-09-12T14:00:48.000Z</time>
      </trkpt>
      <trkpt lat="45.05531" lon="2.6721">
        <ele>1353.7</ele>
        <time>2021-09-12T14:00:55.000Z</time>
      </trkpt>
      <trkpt lat="45.05526" lon="2.67203">
        <ele>1355</ele>
        <time>2021-09-12T14:01:02.000Z</time>
      </trkpt>
      <trkpt lat="45.05521" lon="2.67197">
        <ele>1356.4</ele>
        <time>2021-09-12T14:01:08.000Z</time>
      </trkpt>
      <trkpt lat="45.05508" lon="2.6719">
        <ele>1359.3</ele>
        <time>2021-09-12T14:02:04.000Z</time>
      </trkpt>
      <trkpt lat="45.05502" lon="2.67183">
        <ele>1361.5</ele>
        <time>2021-09-12T14:02:12.000Z</time>
      </trkpt>
      <trkpt lat="45.05496" lon="2.67179">
        <ele>1361.8</ele>
        <time>2021-09-12T14:02:22.000Z</time>
      </trkpt>
      <trkpt lat="45.05493" lon="2.67171">
        <ele>1362.8</ele>
        <time>2021-09-12T14:02:32.000Z</time>
      </trkpt>
      <trkpt lat="45.05487" lon="2.67166">
        <ele>1362.5</ele>
        <time>2021-09-12T14:02:41.000Z</time>
      </trkpt>
      <trkpt lat="45.05481" lon="2.67164">
        <ele>1361.5</ele>
        <time>2021-09-12T14:02:56.000Z</time>
      </trkpt>
      <trkpt lat="45.05476" lon="2.67157">
        <ele>1361.2</ele>
        <time>2021-09-12T14:03:12.000Z</time>
      </trkpt>
      <trkpt lat="45.05472" lon="2.6715">
        <ele>1361.3</ele>
        <time>2021-09-12T14:03:21.000Z</time>
      </trkpt>
      <trkpt lat="45.05471" lon="2.6714">
        <ele>1362.2</ele>
        <time>2021-09-12T14:03:34.000Z</time>
      </trkpt>
      <trkpt lat="45.05472" lon="2.67131">
        <ele>1363.2</ele>
        <time>2021-09-12T14:03:42.000Z</time>
      </trkpt>
      <trkpt lat="45.05471" lon="2.67119">
        <ele>1364.5</ele>
        <time>2021-09-12T14:03:51.000Z</time>
      </trkpt>
      <trkpt lat="45.05465" lon="2.67115">
        <ele>1365.1</ele>
        <time>2021-09-12T14:03:59.000Z</time>
      </trkpt>
      <trkpt lat="45.05458" lon="2.67111">
        <ele>1366</ele>
        <time>2021-09-12T14:04:07.000Z</time>
      </trkpt>
      <trkpt lat="45.05452" lon="2.67104">
        <ele>1367.7</ele>
        <time>2021-09-12T14:04:15.000Z</time>
      </trkpt>
      <trkpt lat="45.05445" lon="2.67102">
        <ele>1368.8</ele>
        <time>2021-09-12T14:04:23.000Z</time>
      </trkpt>
      <trkpt lat="45.05438" lon="2.67103">
        <ele>1369.2</ele>
        <time>2021-09-12T14:04:30.000Z</time>
      </trkpt>
      <trkpt lat="45.05432" lon="2.67101">
        <ele>1370.3</ele>
        <time>2021-09-12T14:04:37.000Z</time>
      </trkpt>
      <trkpt lat="45.05425" lon="2.67098">
        <ele>1371.9</ele>
        <time>2021-09-12T14:04:42.000Z</time>
      </trkpt>
      <trkpt lat="45.05418" lon="2.67095">
        <ele>1373.8</ele>
        <time>2021-09-12T14:04:48.000Z</time>
      </trkpt>
      <trkpt lat="45.05411" lon="2.67095">
        <ele>1373.3</ele>
        <time>2021-09-12T14:04:54.000Z</time>
      </trkpt>
      <trkpt lat="45.05404" lon="2.67094">
        <ele>1373</ele>
        <time>2021-09-12T14:05:00.000Z</time>
      </trkpt>
      <trkpt lat="45.05398" lon="2.6709">
        <ele>1373.8</ele>
        <time>2021-09-12T14:05:06.000Z</time>
      </trkpt>
      <trkpt lat="45.0539" lon="2.67089">
        <ele>1373.4</ele>
        <time>2021-09-12T14:05:12.000Z</time>
      </trkpt>
      <trkpt lat="45.05384" lon="2.67087">
        <ele>1373.5</ele>
        <time>2021-09-12T14:05:32.000Z</time>
      </trkpt>
      <trkpt lat="45.05378" lon="2.67083">
        <ele>1374.4</ele>
        <time>2021-09-12T14:05:47.000Z</time>
      </trkpt>
      <trkpt lat="45.05373" lon="2.67076">
        <ele>1375.9</ele>
        <time>2021-09-12T14:05:53.000Z</time>
      </trkpt>
      <trkpt lat="45.05363" lon="2.67062">
        <ele>1379.3</ele>
        <time>2021-09-12T14:06:40.000Z</time>
      </trkpt>
      <trkpt lat="45.05356" lon="2.6706">
        <ele>1379.6</ele>
        <time>2021-09-12T14:06:49.000Z</time>
      </trkpt>
      <trkpt lat="45.05357" lon="2.67051">
        <ele>1382.5</ele>
        <time>2021-09-12T14:06:59.000Z</time>
      </trkpt>
      <trkpt lat="45.0535" lon="2.67051">
        <ele>1382.2</ele>
        <time>2021-09-12T14:07:15.000Z</time>
      </trkpt>
      <trkpt lat="45.05343" lon="2.67045">
        <ele>1384</ele>
        <time>2021-09-12T14:07:26.000Z</time>
      </trkpt>
      <trkpt lat="45.05339" lon="2.67037">
        <ele>1386.7</ele>
        <time>2021-09-12T14:07:34.000Z</time>
      </trkpt>
      <trkpt lat="45.05334" lon="2.6703">
        <ele>1389.2</ele>
        <time>2021-09-12T14:07:40.000Z</time>
      </trkpt>
      <trkpt lat="45.05327" lon="2.67029">
        <ele>1387.9</ele>
        <time>2021-09-12T14:07:53.000Z</time>
      </trkpt>
      <trkpt lat="45.05319" lon="2.67023">
        <ele>1388</ele>
        <time>2021-09-12T14:08:20.000Z</time>
      </trkpt>
      <trkpt lat="45.05313" lon="2.67018">
        <ele>1388.3</ele>
        <time>2021-09-12T14:08:29.000Z</time>
      </trkpt>
      <trkpt lat="45.05309" lon="2.67009">
        <ele>1390.4</ele>
        <time>2021-09-12T14:08:35.000Z</time>
      </trkpt>
      <trkpt lat="45.05304" lon="2.67004">
        <ele>1390.8</ele>
        <time>2021-09-12T14:08:43.000Z</time>
      </trkpt>
      <trkpt lat="45.05297" lon="2.67001">
        <ele>1390.1</ele>
        <time>2021-09-12T14:08:49.000Z</time>
      </trkpt>
      <trkpt lat="45.05291" lon="2.66992">
        <ele>1391.6</ele>
        <time>2021-09-12T14:08:57.000Z</time>
      </trkpt>
      <trkpt lat="45.05285" lon="2.66987">
        <ele>1391.7</ele>
        <time>2021-09-12T14:09:02.000Z</time>
      </trkpt>
      <trkpt lat="45.0528" lon="2.6698">
        <ele>1392.7</ele>
        <time>2021-09-12T14:09:09.000Z</time>
      </trkpt>
      <trkpt lat="45.05273" lon="2.66978">
        <ele>1391.5</ele>
        <time>2021-09-12T14:09:17.000Z</time>
      </trkpt>
      <trkpt lat="45.0526" lon="2.66967">
        <ele>1391.5</ele>
        <time>2021-09-12T14:09:36.000Z</time>
      </trkpt>
      <trkpt lat="45.05253" lon="2.66963">
        <ele>1390.8</ele>
        <time>2021-09-12T14:09:43.000Z</time>
      </trkpt>
      <trkpt lat="45.05246" lon="2.66965">
        <ele>1388.3</ele>
        <time>2021-09-12T14:09:52.000Z</time>
      </trkpt>
      <trkpt lat="45.05238" lon="2.66967">
        <ele>1385.5</ele>
        <time>2021-09-12T14:10:00.000Z</time>
      </trkpt>
      <trkpt lat="45.05231" lon="2.66969">
        <ele>1382.9</ele>
        <time>2021-09-12T14:10:06.000Z</time>
      </trkpt>
      <trkpt lat="45.05224" lon="2.66966">
        <ele>1382</ele>
        <time>2021-09-12T14:10:14.000Z</time>
      </trkpt>
      <trkpt lat="45.0522" lon="2.66958">
        <ele>1383.7</ele>
        <time>2021-09-12T14:10:23.000Z</time>
      </trkpt>
      <trkpt lat="45.05215" lon="2.66947">
        <ele>1386.2</ele>
        <time>2021-09-12T14:10:56.000Z</time>
      </trkpt>
      <trkpt lat="45.05213" lon="2.66929">
        <ele>1391.9</ele>
        <time>2021-09-12T14:11:03.000Z</time>
      </trkpt>
      <trkpt lat="45.05212" lon="2.66919">
        <ele>1395.1</ele>
        <time>2021-09-12T14:11:07.000Z</time>
      </trkpt>
      <trkpt lat="45.05204" lon="2.66905">
        <ele>1398.4</ele>
        <time>2021-09-12T14:11:12.000Z</time>
      </trkpt>
      <trkpt lat="45.05198" lon="2.6689">
        <ele>1402.6</ele>
        <time>2021-09-12T14:11:18.000Z</time>
      </trkpt>
      <trkpt lat="45.05198" lon="2.66873">
        <ele>1409</ele>
        <time>2021-09-12T14:11:24.000Z</time>
      </trkpt>
      <trkpt lat="45.05197" lon="2.66856">
        <ele>1415.1</ele>
        <time>2021-09-12T14:11:30.000Z</time>
      </trkpt>
      <trkpt lat="45.05193" lon="2.66844">
        <ele>1418.6</ele>
        <time>2021-09-12T14:11:36.000Z</time>
      </trkpt>
      <trkpt lat="45.05182" lon="2.66839">
        <ele>1417.7</ele>
        <time>2021-09-12T14:11:42.000Z</time>
      </trkpt>
      <trkpt lat="45.0518" lon="2.66831">
        <ele>1420.1</ele>
        <time>2021-09-12T14:11:49.000Z</time>
      </trkpt>
      <trkpt lat="45.05171" lon="2.66826">
        <ele>1419.5</ele>
        <time>2021-09-12T14:11:55.000Z</time>
      </trkpt>
      <trkpt lat="45.05163" lon="2.66821">
        <ele>1420.1</ele>
        <time>2021-09-12T14:12:00.000Z</time>
      </trkpt>
      <trkpt lat="45.05155" lon="2.66816">
        <ele>1422</ele>
        <time>2021-09-12T14:12:06.000Z</time>
      </trkpt>
      <trkpt lat="45.0515" lon="2.66807">
        <ele>1425.1</ele>
        <time>2021-09-12T14:12:18.000Z</time>
      </trkpt>
      <trkpt lat="45.05159" lon="2.66792">
        <ele>1429.7</ele>
        <time>2021-09-12T14:12:33.000Z</time>
      </trkpt>
      <trkpt lat="45.05159" lon="2.66782">
        <ele>1432.9</ele>
        <time>2021-09-12T14:12:40.000Z</time>
      </trkpt>
      <trkpt lat="45.05154" lon="2.66775">
        <ele>1435.4</ele>
        <time>2021-09-12T14:12:45.000Z</time>
      </trkpt>
      <trkpt lat="45.0515" lon="2.66767">
        <ele>1438.2</ele>
        <time>2021-09-12T14:12:50.000Z</time>
      </trkpt>
      <trkpt lat="45.05151" lon="2.66757">
        <ele>1441.5</ele>
        <time>2021-09-12T14:12:55.000Z</time>
      </trkpt>
      <trkpt lat="45.05147" lon="2.66748">
        <ele>1444.7</ele>
        <time>2021-09-12T14:13:09.000Z</time>
      </trkpt>
      <trkpt lat="45.05138" lon="2.66749">
        <ele>1444.8</ele>
        <time>2021-09-12T14:13:14.000Z</time>
      </trkpt>
      <trkpt lat="45.05131" lon="2.66749">
        <ele>1445.1</ele>
        <time>2021-09-12T14:13:20.000Z</time>
      </trkpt>
      <trkpt lat="45.05125" lon="2.66747">
        <ele>1446.1</ele>
        <time>2021-09-12T14:13:25.000Z</time>
      </trkpt>
      <trkpt lat="45.05113" lon="2.66744">
        <ele>1447.8</ele>
        <time>2021-09-12T14:13:29.000Z</time>
      </trkpt>
      <trkpt lat="45.05103" lon="2.6674">
        <ele>1449.7</ele>
        <time>2021-09-12T14:14:17.000Z</time>
      </trkpt>
      <trkpt lat="45.05095" lon="2.66727">
        <ele>1454.6</ele>
        <time>2021-09-12T14:15:36.000Z</time>
      </trkpt>
      <trkpt lat="45.0509" lon="2.6672">
        <ele>1457.3</ele>
        <time>2021-09-12T14:15:49.000Z</time>
      </trkpt>
      <trkpt lat="45.05083" lon="2.66717">
        <ele>1458.5</ele>
        <time>2021-09-12T14:15:59.000Z</time>
      </trkpt>
      <trkpt lat="45.05077" lon="2.66708">
        <ele>1462.5</ele>
        <time>2021-09-12T14:16:33.000Z</time>
      </trkpt>
      <trkpt lat="45.05067" lon="2.667">
        <ele>1466.6</ele>
        <time>2021-09-12T14:17:14.000Z</time>
      </trkpt>
      <trkpt lat="45.0506" lon="2.66697">
        <ele>1468.5</ele>
        <time>2021-09-12T14:17:20.000Z</time>
      </trkpt>
      <trkpt lat="45.05055" lon="2.66691">
        <ele>1471.1</ele>
        <time>2021-09-12T14:17:30.000Z</time>
      </trkpt>
      <trkpt lat="45.05048" lon="2.6669">
        <ele>1472.3</ele>
        <time>2021-09-12T14:17:46.000Z</time>
      </trkpt>
      <trkpt lat="45.05037" lon="2.66691">
        <ele>1473.3</ele>
        <time>2021-09-12T14:18:20.000Z</time>
      </trkpt>
      <trkpt lat="45.05028" lon="2.66692">
        <ele>1474.2</ele>
        <time>2021-09-12T14:18:27.000Z</time>
      </trkpt>
      <trkpt lat="45.05013" lon="2.66685">
        <ele>1478.1</ele>
        <time>2021-09-12T14:18:33.000Z</time>
      </trkpt>
      <trkpt lat="45.05005" lon="2.66672">
        <ele>1482.9</ele>
        <time>2021-09-12T14:18:52.000Z</time>
      </trkpt>
      <trkpt lat="45.05004" lon="2.66684">
        <ele>1479.5</ele>
        <time>2021-09-12T14:19:07.000Z</time>
      </trkpt>
      <trkpt lat="45.05008" lon="2.66675">
        <ele>1481.7</ele>
        <time>2021-09-12T14:19:22.000Z</time>
      </trkpt>
      <trkpt lat="45.05009" lon="2.66663">
        <ele>1484.3</ele>
        <time>2021-09-12T14:19:47.000Z</time>
      </trkpt>
      <trkpt lat="45.05006" lon="2.66672">
        <ele>1482.8</ele>
        <time>2021-09-12T14:20:14.000Z</time>
      </trkpt>
      <trkpt lat="45.04998" lon="2.66673">
        <ele>1483.3</ele>
        <time>2021-09-12T14:20:16.000Z</time>
      </trkpt>
      <trkpt lat="45.04991" lon="2.66677">
        <ele>1482.6</ele>
        <time>2021-09-12T14:20:47.000Z</time>
      </trkpt>
      <trkpt lat="45.04984" lon="2.66664">
        <ele>1485.6</ele>
        <time>2021-09-12T14:22:07.000Z</time>
      </trkpt>
      <trkpt lat="45.04976" lon="2.6666">
        <ele>1485.8</ele>
        <time>2021-09-12T14:23:05.000Z</time>
      </trkpt>
      <trkpt lat="45.04969" lon="2.66664">
        <ele>1486</ele>
        <time>2021-09-12T14:23:29.000Z</time>
      </trkpt>
      <trkpt lat="45.04955" lon="2.66666">
        <ele>1486.6</ele>
        <time>2021-09-12T14:24:09.000Z</time>
      </trkpt>
      <trkpt lat="45.04948" lon="2.66663">
        <ele>1486.6</ele>
        <time>2021-09-12T14:24:16.000Z</time>
      </trkpt>
      <trkpt lat="45.04942" lon="2.66659">
        <ele>1486.3</ele>
        <time>2021-09-12T14:24:25.000Z</time>
      </trkpt>
      <trkpt lat="45.04944" lon="2.6665">
        <ele>1485.5</ele>
        <time>2021-09-12T14:24:32.000Z</time>
      </trkpt>
      <trkpt lat="45.04944" lon="2.66638">
        <ele>1484.3</ele>
        <time>2021-09-12T14:24:43.000Z</time>
      </trkpt>
      <trkpt lat="45.04945" lon="2.66628">
        <ele>1483.5</ele>
        <time>2021-09-12T14:24:51.000Z</time>
      </trkpt>
      <trkpt lat="45.04938" lon="2.66629">
        <ele>1483.1</ele>
        <time>2021-09-12T14:26:16.000Z</time>
      </trkpt>
      <trkpt lat="45.04932" lon="2.66631">
        <ele>1483</ele>
        <time>2021-09-12T14:26:27.000Z</time>
      </trkpt>
      <trkpt lat="45.04928" lon="2.66638">
        <ele>1483.7</ele>
        <time>2021-09-12T14:26:43.000Z</time>
      </trkpt>
      <trkpt lat="45.04923" lon="2.66645">
        <ele>1484.5</ele>
        <time>2021-09-12T14:26:53.000Z</time>
      </trkpt>
      <trkpt lat="45.0492" lon="2.66653">
        <ele>1485.7</ele>
        <time>2021-09-12T14:27:04.000Z</time>
      </trkpt>
      <trkpt lat="45.0491" lon="2.66651">
        <ele>1485.1</ele>
        <time>2021-09-12T14:28:14.000Z</time>
      </trkpt>
      <trkpt lat="45.04904" lon="2.66655">
        <ele>1485.6</ele>
        <time>2021-09-12T14:28:25.000Z</time>
      </trkpt>
      <trkpt lat="45.04897" lon="2.66659">
        <ele>1486.1</ele>
        <time>2021-09-12T14:28:30.000Z</time>
      </trkpt>
      <trkpt lat="45.04891" lon="2.66663">
        <ele>1486.7</ele>
        <time>2021-09-12T14:28:34.000Z</time>
      </trkpt>
      <trkpt lat="45.04884" lon="2.66668">
        <ele>1487.3</ele>
        <time>2021-09-12T14:28:39.000Z</time>
      </trkpt>
      <trkpt lat="45.04877" lon="2.6667">
        <ele>1487.2</ele>
        <time>2021-09-12T14:28:45.000Z</time>
      </trkpt>
      <trkpt lat="45.04871" lon="2.66676">
        <ele>1487.6</ele>
        <time>2021-09-12T14:28:52.000Z</time>
      </trkpt>
      <trkpt lat="45.04865" lon="2.66682">
        <ele>1488.1</ele>
        <time>2021-09-12T14:28:59.000Z</time>
      </trkpt>
      <trkpt lat="45.04859" lon="2.66687">
        <ele>1488.7</ele>
        <time>2021-09-12T14:29:12.000Z</time>
      </trkpt>
      <trkpt lat="45.04854" lon="2.66692">
        <ele>1489.4</ele>
        <time>2021-09-12T14:29:18.000Z</time>
      </trkpt>
      <trkpt lat="45.04849" lon="2.66699">
        <ele>1490.5</ele>
        <time>2021-09-12T14:29:24.000Z</time>
      </trkpt>
      <trkpt lat="45.04844" lon="2.66707">
        <ele>1491.9</ele>
        <time>2021-09-12T14:29:31.000Z</time>
      </trkpt>
      <trkpt lat="45.04838" lon="2.66712">
        <ele>1493.2</ele>
        <time>2021-09-12T14:29:38.000Z</time>
      </trkpt>
      <trkpt lat="45.04832" lon="2.66718">
        <ele>1494.7</ele>
        <time>2021-09-12T14:29:45.000Z</time>
      </trkpt>
      <trkpt lat="45.04827" lon="2.66725">
        <ele>1496.4</ele>
        <time>2021-09-12T14:29:51.000Z</time>
      </trkpt>
      <trkpt lat="45.04822" lon="2.66732">
        <ele>1498.1</ele>
        <time>2021-09-12T14:29:59.000Z</time>
      </trkpt>
      <trkpt lat="45.04816" lon="2.66737">
        <ele>1499.7</ele>
        <time>2021-09-12T14:30:06.000Z</time>
      </trkpt>
      <trkpt lat="45.04811" lon="2.66744">
        <ele>1501.5</ele>
        <time>2021-09-12T14:30:15.000Z</time>
      </trkpt>
      <trkpt lat="45.04805" lon="2.66749">
        <ele>1503.2</ele>
        <time>2021-09-12T14:30:22.000Z</time>
      </trkpt>
      <trkpt lat="45.04798" lon="2.66754">
        <ele>1504.2</ele>
        <time>2021-09-12T14:30:30.000Z</time>
      </trkpt>
      <trkpt lat="45.04792" lon="2.66756">
        <ele>1505</ele>
        <time>2021-09-12T14:30:38.000Z</time>
      </trkpt>
      <trkpt lat="45.04786" lon="2.66761">
        <ele>1505.9</ele>
        <time>2021-09-12T14:30:46.000Z</time>
      </trkpt>
      <trkpt lat="45.04779" lon="2.66768">
        <ele>1507.2</ele>
        <time>2021-09-12T14:30:51.000Z</time>
      </trkpt>
      <trkpt lat="45.04773" lon="2.66773">
        <ele>1508.5</ele>
        <time>2021-09-12T14:30:57.000Z</time>
      </trkpt>
      <trkpt lat="45.04766" lon="2.66776">
        <ele>1510</ele>
        <time>2021-09-12T14:31:06.000Z</time>
      </trkpt>
      <trkpt lat="45.04759" lon="2.66775">
        <ele>1511.3</ele>
        <time>2021-09-12T14:31:14.000Z</time>
      </trkpt>
      <trkpt lat="45.04753" lon="2.66775">
        <ele>1512.4</ele>
        <time>2021-09-12T14:31:22.000Z</time>
      </trkpt>
      <trkpt lat="45.04746" lon="2.66778">
        <ele>1513.4</ele>
        <time>2021-09-12T14:31:29.000Z</time>
      </trkpt>
      <trkpt lat="45.0474" lon="2.66781">
        <ele>1513.9</ele>
        <time>2021-09-12T14:31:37.000Z</time>
      </trkpt>
      <trkpt lat="45.04734" lon="2.66786">
        <ele>1514.7</ele>
        <time>2021-09-12T14:31:47.000Z</time>
      </trkpt>
      <trkpt lat="45.04729" lon="2.66792">
        <ele>1515.5</ele>
        <time>2021-09-12T14:32:02.000Z</time>
      </trkpt>
      <trkpt lat="45.04723" lon="2.66798">
        <ele>1516.5</ele>
        <time>2021-09-12T14:32:09.000Z</time>
      </trkpt>
      <trkpt lat="45.04716" lon="2.66802">
        <ele>1517.3</ele>
        <time>2021-09-12T14:32:16.000Z</time>
      </trkpt>
      <trkpt lat="45.04709" lon="2.668">
        <ele>1517.2</ele>
        <time>2021-09-12T14:32:53.000Z</time>
      </trkpt>
      <trkpt lat="45.04703" lon="2.66802">
        <ele>1517.6</ele>
        <time>2021-09-12T14:32:58.000Z</time>
      </trkpt>
      <trkpt lat="45.04696" lon="2.66804">
        <ele>1518.2</ele>
        <time>2021-09-12T14:33:04.000Z</time>
      </trkpt>
      <trkpt lat="45.04689" lon="2.66805">
        <ele>1518.5</ele>
        <time>2021-09-12T14:33:11.000Z</time>
      </trkpt>
      <trkpt lat="45.04683" lon="2.66808">
        <ele>1519.2</ele>
        <time>2021-09-12T14:33:21.000Z</time>
      </trkpt>
      <trkpt lat="45.04676" lon="2.6681">
        <ele>1519.8</ele>
        <time>2021-09-12T14:33:34.000Z</time>
      </trkpt>
      <trkpt lat="45.0467" lon="2.66807">
        <ele>1519.5</ele>
        <time>2021-09-12T14:33:44.000Z</time>
      </trkpt>
      <trkpt lat="45.04663" lon="2.66808">
        <ele>1519.7</ele>
        <time>2021-09-12T14:33:53.000Z</time>
      </trkpt>
      <trkpt lat="45.04657" lon="2.66813">
        <ele>1520.4</ele>
        <time>2021-09-12T14:34:07.000Z</time>
      </trkpt>
      <trkpt lat="45.0465" lon="2.66814">
        <ele>1520.5</ele>
        <time>2021-09-12T14:34:20.000Z</time>
      </trkpt>
      <trkpt lat="45.04647" lon="2.66823">
        <ele>1522</ele>
        <time>2021-09-12T14:34:35.000Z</time>
      </trkpt>
      <trkpt lat="45.04645" lon="2.66836">
        <ele>1523.3</ele>
        <time>2021-09-12T14:35:00.000Z</time>
      </trkpt>
      <trkpt lat="45.04643" lon="2.66846">
        <ele>1521.4</ele>
        <time>2021-09-12T14:35:13.000Z</time>
      </trkpt>
      <trkpt lat="45.04636" lon="2.6685">
        <ele>1520.5</ele>
        <time>2021-09-12T14:36:33.000Z</time>
      </trkpt>
      <trkpt lat="45.0463" lon="2.66853">
        <ele>1519.7</ele>
        <time>2021-09-12T14:36:43.000Z</time>
      </trkpt>
      <trkpt lat="45.04624" lon="2.6686">
        <ele>1518.2</ele>
        <time>2021-09-12T14:36:53.000Z</time>
      </trkpt>
      <trkpt lat="45.04617" lon="2.66862">
        <ele>1517.6</ele>
        <time>2021-09-12T14:37:00.000Z</time>
      </trkpt>
      <trkpt lat="45.0461" lon="2.6686">
        <ele>1517.8</ele>
        <time>2021-09-12T14:37:07.000Z</time>
      </trkpt>
      <trkpt lat="45.04603" lon="2.66858">
        <ele>1518</ele>
        <time>2021-09-12T14:37:13.000Z</time>
      </trkpt>
      <trkpt lat="45.04597" lon="2.66857">
        <ele>1518</ele>
        <time>2021-09-12T14:37:20.000Z</time>
      </trkpt>
      <trkpt lat="45.0459" lon="2.66856">
        <ele>1518</ele>
        <time>2021-09-12T14:37:27.000Z</time>
      </trkpt>
      <trkpt lat="45.04584" lon="2.66852">
        <ele>1518.8</ele>
        <time>2021-09-12T14:37:36.000Z</time>
      </trkpt>
      <trkpt lat="45.04578" lon="2.66847">
        <ele>1519.7</ele>
        <time>2021-09-12T14:37:44.000Z</time>
      </trkpt>
      <trkpt lat="45.04571" lon="2.66844">
        <ele>1520.3</ele>
        <time>2021-09-12T14:37:50.000Z</time>
      </trkpt>
      <trkpt lat="45.04565" lon="2.66839">
        <ele>1521.3</ele>
        <time>2021-09-12T14:38:02.000Z</time>
      </trkpt>
      <trkpt lat="45.04559" lon="2.66842">
        <ele>1520.4</ele>
        <time>2021-09-12T14:38:48.000Z</time>
      </trkpt>
      <trkpt lat="45.04552" lon="2.66843">
        <ele>1520</ele>
        <time>2021-09-12T14:39:01.000Z</time>
      </trkpt>
      <trkpt lat="45.04546" lon="2.6684">
        <ele>1520.5</ele>
        <time>2021-09-12T14:39:13.000Z</time>
      </trkpt>
      <trkpt lat="45.0454" lon="2.66835">
        <ele>1521.6</ele>
        <time>2021-09-12T14:39:27.000Z</time>
      </trkpt>
      <trkpt lat="45.04533" lon="2.66836">
        <ele>1521.2</ele>
        <time>2021-09-12T14:39:39.000Z</time>
      </trkpt>
      <trkpt lat="45.04527" lon="2.6683">
        <ele>1521.1</ele>
        <time>2021-09-12T14:40:36.000Z</time>
      </trkpt>
      <trkpt lat="45.04521" lon="2.66833">
        <ele>1521.4</ele>
        <time>2021-09-12T14:40:43.000Z</time>
      </trkpt>
      <trkpt lat="45.04515" lon="2.66835">
        <ele>1521</ele>
        <time>2021-09-12T14:41:16.000Z</time>
      </trkpt>
      <trkpt lat="45.04509" lon="2.66842">
        <ele>1519.1</ele>
        <time>2021-09-12T14:41:52.000Z</time>
      </trkpt>
      <trkpt lat="45.04502" lon="2.66844">
        <ele>1518.5</ele>
        <time>2021-09-12T14:41:58.000Z</time>
      </trkpt>
      <trkpt lat="45.04495" lon="2.66846">
        <ele>1517.4</ele>
        <time>2021-09-12T14:42:06.000Z</time>
      </trkpt>
      <trkpt lat="45.04489" lon="2.66848">
        <ele>1516.3</ele>
        <time>2021-09-12T14:42:12.000Z</time>
      </trkpt>
      <trkpt lat="45.04482" lon="2.66848">
        <ele>1515.5</ele>
        <time>2021-09-12T14:42:18.000Z</time>
      </trkpt>
      <trkpt lat="45.04475" lon="2.66848">
        <ele>1514.8</ele>
        <time>2021-09-12T14:42:31.000Z</time>
      </trkpt>
      <trkpt lat="45.04468" lon="2.66843">
        <ele>1515.2</ele>
        <time>2021-09-12T14:42:54.000Z</time>
      </trkpt>
      <trkpt lat="45.04462" lon="2.66845">
        <ele>1514.1</ele>
        <time>2021-09-12T14:43:05.000Z</time>
      </trkpt>
      <trkpt lat="45.04455" lon="2.66845">
        <ele>1513.3</ele>
        <time>2021-09-12T14:43:17.000Z</time>
      </trkpt>
      <trkpt lat="45.04448" lon="2.66846">
        <ele>1512.3</ele>
        <time>2021-09-12T14:43:28.000Z</time>
      </trkpt>
      <trkpt lat="45.04442" lon="2.66842">
        <ele>1512.7</ele>
        <time>2021-09-12T14:43:35.000Z</time>
      </trkpt>
      <trkpt lat="45.04435" lon="2.66839">
        <ele>1512.6</ele>
        <time>2021-09-12T14:43:42.000Z</time>
      </trkpt>
      <trkpt lat="45.04428" lon="2.66839">
        <ele>1511.9</ele>
        <time>2021-09-12T14:43:52.000Z</time>
      </trkpt>
      <trkpt lat="45.04422" lon="2.66837">
        <ele>1511.7</ele>
        <time>2021-09-12T14:43:58.000Z</time>
      </trkpt>
      <trkpt lat="45.04415" lon="2.66833">
        <ele>1511.8</ele>
        <time>2021-09-12T14:44:07.000Z</time>
      </trkpt>
      <trkpt lat="45.04409" lon="2.66828">
        <ele>1510.5</ele>
        <time>2021-09-12T14:44:15.000Z</time>
      </trkpt>
      <trkpt lat="45.04403" lon="2.66832">
        <ele>1510.2</ele>
        <time>2021-09-12T14:44:26.000Z</time>
      </trkpt>
      <trkpt lat="45.04397" lon="2.66835">
        <ele>1509.2</ele>
        <time>2021-09-12T14:44:32.000Z</time>
      </trkpt>
      <trkpt lat="45.04391" lon="2.6683">
        <ele>1508.6</ele>
        <time>2021-09-12T14:45:28.000Z</time>
      </trkpt>
      <trkpt lat="45.04384" lon="2.66828">
        <ele>1507.5</ele>
        <time>2021-09-12T14:45:36.000Z</time>
      </trkpt>
      <trkpt lat="45.0438" lon="2.66836">
        <ele>1507</ele>
        <time>2021-09-12T14:45:45.000Z</time>
      </trkpt>
      <trkpt lat="45.04373" lon="2.6684">
        <ele>1505.2</ele>
        <time>2021-09-12T14:45:55.000Z</time>
      </trkpt>
      <trkpt lat="45.04366" lon="2.66841">
        <ele>1504.1</ele>
        <time>2021-09-12T14:46:07.000Z</time>
      </trkpt>
      <trkpt lat="45.0436" lon="2.66845">
        <ele>1502.4</ele>
        <time>2021-09-12T14:46:43.000Z</time>
      </trkpt>
      <trkpt lat="45.04354" lon="2.66848">
        <ele>1501</ele>
        <time>2021-09-12T14:46:56.000Z</time>
      </trkpt>
      <trkpt lat="45.04348" lon="2.66851">
        <ele>1499.5</ele>
        <time>2021-09-12T14:47:02.000Z</time>
      </trkpt>
      <trkpt lat="45.04341" lon="2.66855">
        <ele>1497.7</ele>
        <time>2021-09-12T14:47:08.000Z</time>
      </trkpt>
      <trkpt lat="45.04335" lon="2.66856">
        <ele>1496.8</ele>
        <time>2021-09-12T14:47:14.000Z</time>
      </trkpt>
      <trkpt lat="45.04328" lon="2.66857">
        <ele>1496.1</ele>
        <time>2021-09-12T14:47:21.000Z</time>
      </trkpt>
      <trkpt lat="45.04322" lon="2.6686">
        <ele>1495.1</ele>
        <time>2021-09-12T14:47:33.000Z</time>
      </trkpt>
      <trkpt lat="45.04315" lon="2.66861">
        <ele>1494.6</ele>
        <time>2021-09-12T14:47:49.000Z</time>
      </trkpt>
      <trkpt lat="45.04308" lon="2.66862">
        <ele>1494</ele>
        <time>2021-09-12T14:47:57.000Z</time>
      </trkpt>
      <trkpt lat="45.04301" lon="2.66863">
        <ele>1493.5</ele>
        <time>2021-09-12T14:48:04.000Z</time>
      </trkpt>
      <trkpt lat="45.04291" lon="2.66861">
        <ele>1493.5</ele>
        <time>2021-09-12T14:48:09.000Z</time>
      </trkpt>
      <trkpt lat="45.04285" lon="2.66861">
        <ele>1493.2</ele>
        <time>2021-09-12T14:48:26.000Z</time>
      </trkpt>
      <trkpt lat="45.04278" lon="2.66862">
        <ele>1492.8</ele>
        <time>2021-09-12T14:48:32.000Z</time>
      </trkpt>
      <trkpt lat="45.04271" lon="2.66864">
        <ele>1492.2</ele>
        <time>2021-09-12T14:48:38.000Z</time>
      </trkpt>
      <trkpt lat="45.04263" lon="2.66862">
        <ele>1492.1</ele>
        <time>2021-09-12T14:48:43.000Z</time>
      </trkpt>
      <trkpt lat="45.04256" lon="2.66862">
        <ele>1491.8</ele>
        <time>2021-09-12T14:48:48.000Z</time>
      </trkpt>
      <trkpt lat="45.04249" lon="2.6686">
        <ele>1491.8</ele>
        <time>2021-09-12T14:48:54.000Z</time>
      </trkpt>
      <trkpt lat="45.04242" lon="2.66863">
        <ele>1491.5</ele>
        <time>2021-09-12T14:48:59.000Z</time>
      </trkpt>
      <trkpt lat="45.04235" lon="2.66865">
        <ele>1491.3</ele>
        <time>2021-09-12T14:49:04.000Z</time>
      </trkpt>
      <trkpt lat="45.04229" lon="2.66864">
        <ele>1491.4</ele>
        <time>2021-09-12T14:49:10.000Z</time>
      </trkpt>
      <trkpt lat="45.04221" lon="2.66867">
        <ele>1491.3</ele>
        <time>2021-09-12T14:49:16.000Z</time>
      </trkpt>
      <trkpt lat="45.04216" lon="2.66871">
        <ele>1491.1</ele>
        <time>2021-09-12T14:49:22.000Z</time>
      </trkpt>
      <trkpt lat="45.04209" lon="2.66875">
        <ele>1491</ele>
        <time>2021-09-12T14:49:30.000Z</time>
      </trkpt>
      <trkpt lat="45.04203" lon="2.66881">
        <ele>1490.9</ele>
        <time>2021-09-12T14:49:36.000Z</time>
      </trkpt>
      <trkpt lat="45.04196" lon="2.66882">
        <ele>1491.1</ele>
        <time>2021-09-12T14:49:41.000Z</time>
      </trkpt>
      <trkpt lat="45.0419" lon="2.66884">
        <ele>1491.3</ele>
        <time>2021-09-12T14:49:48.000Z</time>
      </trkpt>
      <trkpt lat="45.04183" lon="2.66882">
        <ele>1491.6</ele>
        <time>2021-09-12T14:49:54.000Z</time>
      </trkpt>
      <trkpt lat="45.04177" lon="2.66885">
        <ele>1491.8</ele>
        <time>2021-09-12T14:49:59.000Z</time>
      </trkpt>
      <trkpt lat="45.04171" lon="2.66889">
        <ele>1492.1</ele>
        <time>2021-09-12T14:50:05.000Z</time>
      </trkpt>
      <trkpt lat="45.04164" lon="2.66888">
        <ele>1492.2</ele>
        <time>2021-09-12T14:50:11.000Z</time>
      </trkpt>
      <trkpt lat="45.04156" lon="2.66888">
        <ele>1492</ele>
        <time>2021-09-12T14:50:17.000Z</time>
      </trkpt>
      <trkpt lat="45.0415" lon="2.66891">
        <ele>1491.9</ele>
        <time>2021-09-12T14:50:22.000Z</time>
      </trkpt>
      <trkpt lat="45.04143" lon="2.66894">
        <ele>1491.8</ele>
        <time>2021-09-12T14:50:27.000Z</time>
      </trkpt>
      <trkpt lat="45.04138" lon="2.66899">
        <ele>1491.9</ele>
        <time>2021-09-12T14:50:48.000Z</time>
      </trkpt>
      <trkpt lat="45.04131" lon="2.66901">
        <ele>1491.8</ele>
        <time>2021-09-12T14:51:03.000Z</time>
      </trkpt>
      <trkpt lat="45.04125" lon="2.66905">
        <ele>1491.9</ele>
        <time>2021-09-12T14:51:09.000Z</time>
      </trkpt>
      <trkpt lat="45.04119" lon="2.66909">
        <ele>1492</ele>
        <time>2021-09-12T14:51:15.000Z</time>
      </trkpt>
      <trkpt lat="45.04112" lon="2.66913">
        <ele>1492.1</ele>
        <time>2021-09-12T14:51:22.000Z</time>
      </trkpt>
      <trkpt lat="45.04106" lon="2.66918">
        <ele>1492.2</ele>
        <time>2021-09-12T14:51:29.000Z</time>
      </trkpt>
      <trkpt lat="45.04099" lon="2.66921">
        <ele>1491.9</ele>
        <time>2021-09-12T14:51:35.000Z</time>
      </trkpt>
      <trkpt lat="45.04093" lon="2.66925">
        <ele>1491.7</ele>
        <time>2021-09-12T14:51:39.000Z</time>
      </trkpt>
      <trkpt lat="45.04087" lon="2.66929">
        <ele>1491.6</ele>
        <time>2021-09-12T14:51:45.000Z</time>
      </trkpt>
      <trkpt lat="45.04081" lon="2.66934">
        <ele>1491.3</ele>
        <time>2021-09-12T14:51:51.000Z</time>
      </trkpt>
      <trkpt lat="45.04075" lon="2.66937">
        <ele>1490.6</ele>
        <time>2021-09-12T14:51:57.000Z</time>
      </trkpt>
      <trkpt lat="45.0407" lon="2.66942">
        <ele>1489.9</ele>
        <time>2021-09-12T14:52:03.000Z</time>
      </trkpt>
      <trkpt lat="45.04061" lon="2.6695">
        <ele>1488.8</ele>
        <time>2021-09-12T14:52:09.000Z</time>
      </trkpt>
      <trkpt lat="45.04056" lon="2.66957">
        <ele>1488.2</ele>
        <time>2021-09-12T14:52:15.000Z</time>
      </trkpt>
      <trkpt lat="45.04051" lon="2.66965">
        <ele>1487.6</ele>
        <time>2021-09-12T14:52:21.000Z</time>
      </trkpt>
      <trkpt lat="45.04045" lon="2.66973">
        <ele>1487</ele>
        <time>2021-09-12T14:52:27.000Z</time>
      </trkpt>
      <trkpt lat="45.0404" lon="2.66979">
        <ele>1486.5</ele>
        <time>2021-09-12T14:52:33.000Z</time>
      </trkpt>
      <trkpt lat="45.04036" lon="2.66987">
        <ele>1486.1</ele>
        <time>2021-09-12T14:52:39.000Z</time>
      </trkpt>
      <trkpt lat="45.04032" lon="2.66996">
        <ele>1485.7</ele>
        <time>2021-09-12T14:52:45.000Z</time>
      </trkpt>
      <trkpt lat="45.0403" lon="2.67005">
        <ele>1485</ele>
        <time>2021-09-12T14:52:51.000Z</time>
      </trkpt>
      <trkpt lat="45.04026" lon="2.67013">
        <ele>1483.9</ele>
        <time>2021-09-12T14:52:58.000Z</time>
      </trkpt>
      <trkpt lat="45.04021" lon="2.6702">
        <ele>1482.8</ele>
        <time>2021-09-12T14:53:06.000Z</time>
      </trkpt>
      <trkpt lat="45.04016" lon="2.67027">
        <ele>1481.9</ele>
        <time>2021-09-12T14:53:12.000Z</time>
      </trkpt>
      <trkpt lat="45.0401" lon="2.67034">
        <ele>1481</ele>
        <time>2021-09-12T14:53:18.000Z</time>
      </trkpt>
      <trkpt lat="45.04005" lon="2.67041">
        <ele>1480.2</ele>
        <time>2021-09-12T14:53:27.000Z</time>
      </trkpt>
      <trkpt lat="45.04001" lon="2.67047">
        <ele>1479.6</ele>
        <time>2021-09-12T14:53:34.000Z</time>
      </trkpt>
      <trkpt lat="45.03995" lon="2.67054">
        <ele>1477.6</ele>
        <time>2021-09-12T14:53:44.000Z</time>
      </trkpt>
      <trkpt lat="45.03989" lon="2.6706">
        <ele>1475.3</ele>
        <time>2021-09-12T14:53:51.000Z</time>
      </trkpt>
      <trkpt lat="45.03984" lon="2.67067">
        <ele>1473.1</ele>
        <time>2021-09-12T14:53:59.000Z</time>
      </trkpt>
      <trkpt lat="45.03978" lon="2.67073">
        <ele>1470.6</ele>
        <time>2021-09-12T14:54:05.000Z</time>
      </trkpt>
      <trkpt lat="45.03973" lon="2.6708">
        <ele>1468.3</ele>
        <time>2021-09-12T14:54:16.000Z</time>
      </trkpt>
      <trkpt lat="45.03967" lon="2.67086">
        <ele>1465.4</ele>
        <time>2021-09-12T14:54:23.000Z</time>
      </trkpt>
      <trkpt lat="45.03962" lon="2.67092">
        <ele>1462.6</ele>
        <time>2021-09-12T14:54:31.000Z</time>
      </trkpt>
      <trkpt lat="45.03957" lon="2.67098">
        <ele>1459.8</ele>
        <time>2021-09-12T14:54:38.000Z</time>
      </trkpt>
      <trkpt lat="45.0395" lon="2.67101">
        <ele>1457</ele>
        <time>2021-09-12T14:54:44.000Z</time>
      </trkpt>
      <trkpt lat="45.03944" lon="2.67104">
        <ele>1454.6</ele>
        <time>2021-09-12T14:54:51.000Z</time>
      </trkpt>
      <trkpt lat="45.03937" lon="2.67104">
        <ele>1452.3</ele>
        <time>2021-09-12T14:54:59.000Z</time>
      </trkpt>
      <trkpt lat="45.0393" lon="2.67104">
        <ele>1450.1</ele>
        <time>2021-09-12T14:55:08.000Z</time>
      </trkpt>
      <trkpt lat="45.03925" lon="2.67099">
        <ele>1449.3</ele>
        <time>2021-09-12T14:55:25.000Z</time>
      </trkpt>
      <trkpt lat="45.03919" lon="2.67092">
        <ele>1448.4</ele>
        <time>2021-09-12T14:55:31.000Z</time>
      </trkpt>
      <trkpt lat="45.03914" lon="2.67085">
        <ele>1447.7</ele>
        <time>2021-09-12T14:55:38.000Z</time>
      </trkpt>
      <trkpt lat="45.03909" lon="2.67081">
        <ele>1446.4</ele>
        <time>2021-09-12T14:55:47.000Z</time>
      </trkpt>
      <trkpt lat="45.03903" lon="2.67075">
        <ele>1445.1</ele>
        <time>2021-09-12T14:55:55.000Z</time>
      </trkpt>
      <trkpt lat="45.03898" lon="2.67069">
        <ele>1444.3</ele>
        <time>2021-09-12T14:56:01.000Z</time>
      </trkpt>
      <trkpt lat="45.03895" lon="2.6706">
        <ele>1444.9</ele>
        <time>2021-09-12T14:56:06.000Z</time>
      </trkpt>
      <trkpt lat="45.0389" lon="2.67052">
        <ele>1444.7</ele>
        <time>2021-09-12T14:56:12.000Z</time>
      </trkpt>
      <trkpt lat="45.03885" lon="2.67045">
        <ele>1444.3</ele>
        <time>2021-09-12T14:56:17.000Z</time>
      </trkpt>
      <trkpt lat="45.03878" lon="2.67039">
        <ele>1443.1</ele>
        <time>2021-09-12T14:56:23.000Z</time>
      </trkpt>
      <trkpt lat="45.03872" lon="2.67033">
        <ele>1442.4</ele>
        <time>2021-09-12T14:56:29.000Z</time>
      </trkpt>
      <trkpt lat="45.03866" lon="2.67029">
        <ele>1441.2</ele>
        <time>2021-09-12T14:56:45.000Z</time>
      </trkpt>
      <trkpt lat="45.03863" lon="2.6702">
        <ele>1442.3</ele>
        <time>2021-09-12T14:56:52.000Z</time>
      </trkpt>
      <trkpt lat="45.03857" lon="2.67014">
        <ele>1441.8</ele>
        <time>2021-09-12T14:56:58.000Z</time>
      </trkpt>
      <trkpt lat="45.03852" lon="2.67007">
        <ele>1441.9</ele>
        <time>2021-09-12T14:57:03.000Z</time>
      </trkpt>
      <trkpt lat="45.03845" lon="2.67">
        <ele>1441.5</ele>
        <time>2021-09-12T14:57:09.000Z</time>
      </trkpt>
      <trkpt lat="45.03838" lon="2.66994">
        <ele>1440.2</ele>
        <time>2021-09-12T14:57:15.000Z</time>
      </trkpt>
      <trkpt lat="45.03833" lon="2.66987">
        <ele>1439.8</ele>
        <time>2021-09-12T14:57:21.000Z</time>
      </trkpt>
      <trkpt lat="45.03829" lon="2.6698">
        <ele>1439.6</ele>
        <time>2021-09-12T14:57:27.000Z</time>
      </trkpt>
      <trkpt lat="45.03823" lon="2.66975">
        <ele>1438.6</ele>
        <time>2021-09-12T14:57:34.000Z</time>
      </trkpt>
      <trkpt lat="45.03816" lon="2.66976">
        <ele>1436.4</ele>
        <time>2021-09-12T14:57:45.000Z</time>
      </trkpt>
      <trkpt lat="45.03809" lon="2.66974">
        <ele>1434.7</ele>
        <time>2021-09-12T14:57:59.000Z</time>
      </trkpt>
      <trkpt lat="45.03803" lon="2.66968">
        <ele>1434</ele>
        <time>2021-09-12T14:58:07.000Z</time>
      </trkpt>
      <trkpt lat="45.03796" lon="2.66965">
        <ele>1432.5</ele>
        <time>2021-09-12T14:58:13.000Z</time>
      </trkpt>
      <trkpt lat="45.03789" lon="2.66961">
        <ele>1431.3</ele>
        <time>2021-09-12T14:58:22.000Z</time>
      </trkpt>
      <trkpt lat="45.03782" lon="2.66958">
        <ele>1429.9</ele>
        <time>2021-09-12T14:58:29.000Z</time>
      </trkpt>
      <trkpt lat="45.03776" lon="2.66955">
        <ele>1428.8</ele>
        <time>2021-09-12T14:58:34.000Z</time>
      </trkpt>
      <trkpt lat="45.03768" lon="2.66951">
        <ele>1427.4</ele>
        <time>2021-09-12T14:58:39.000Z</time>
      </trkpt>
      <trkpt lat="45.03761" lon="2.66946">
        <ele>1426.6</ele>
        <time>2021-09-12T14:58:45.000Z</time>
      </trkpt>
      <trkpt lat="45.03755" lon="2.66941">
        <ele>1426</ele>
        <time>2021-09-12T14:58:53.000Z</time>
      </trkpt>
      <trkpt lat="45.03748" lon="2.66939">
        <ele>1424.7</ele>
        <time>2021-09-12T14:58:59.000Z</time>
      </trkpt>
      <trkpt lat="45.03742" lon="2.66935">
        <ele>1424</ele>
        <time>2021-09-12T14:59:05.000Z</time>
      </trkpt>
      <trkpt lat="45.03735" lon="2.66934">
        <ele>1422.4</ele>
        <time>2021-09-12T14:59:12.000Z</time>
      </trkpt>
      <trkpt lat="45.03729" lon="2.66931">
        <ele>1421.5</ele>
        <time>2021-09-12T14:59:20.000Z</time>
      </trkpt>
      <trkpt lat="45.03724" lon="2.66925">
        <ele>1421.6</ele>
        <time>2021-09-12T14:59:27.000Z</time>
      </trkpt>
      <trkpt lat="45.03717" lon="2.66923">
        <ele>1420.2</ele>
        <time>2021-09-12T14:59:38.000Z</time>
      </trkpt>
      <trkpt lat="45.03711" lon="2.66919">
        <ele>1419.6</ele>
        <time>2021-09-12T14:59:44.000Z</time>
      </trkpt>
      <trkpt lat="45.03704" lon="2.66917">
        <ele>1418.3</ele>
        <time>2021-09-12T14:59:49.000Z</time>
      </trkpt>
      <trkpt lat="45.03697" lon="2.66914">
        <ele>1417</ele>
        <time>2021-09-12T14:59:55.000Z</time>
      </trkpt>
      <trkpt lat="45.03692" lon="2.66906">
        <ele>1416.7</ele>
        <time>2021-09-12T15:00:04.000Z</time>
      </trkpt>
      <trkpt lat="45.03685" lon="2.66894">
        <ele>1416.5</ele>
        <time>2021-09-12T15:00:09.000Z</time>
      </trkpt>
      <trkpt lat="45.03679" lon="2.66885">
        <ele>1416.2</ele>
        <time>2021-09-12T15:00:15.000Z</time>
      </trkpt>
      <trkpt lat="45.0368" lon="2.66875">
        <ele>1417.7</ele>
        <time>2021-09-12T15:00:22.000Z</time>
      </trkpt>
      <trkpt lat="45.03676" lon="2.66868">
        <ele>1417.6</ele>
        <time>2021-09-12T15:00:36.000Z</time>
      </trkpt>
      <trkpt lat="45.03672" lon="2.6686">
        <ele>1417.7</ele>
        <time>2021-09-12T15:00:43.000Z</time>
      </trkpt>
      <trkpt lat="45.03667" lon="2.66853">
        <ele>1417.5</ele>
        <time>2021-09-12T15:00:51.000Z</time>
      </trkpt>
      <trkpt lat="45.03666" lon="2.66843">
        <ele>1418.6</ele>
        <time>2021-09-12T15:01:03.000Z</time>
      </trkpt>
      <trkpt lat="45.03663" lon="2.66835">
        <ele>1419</ele>
        <time>2021-09-12T15:01:26.000Z</time>
      </trkpt>
      <trkpt lat="45.03662" lon="2.66845">
        <ele>1417.5</ele>
        <time>2021-09-12T15:01:41.000Z</time>
      </trkpt>
      <trkpt lat="45.0366" lon="2.66836">
        <ele>1418.2</ele>
        <time>2021-09-12T15:02:03.000Z</time>
      </trkpt>
      <trkpt lat="45.0366" lon="2.66826">
        <ele>1418.8</ele>
        <time>2021-09-12T15:02:10.000Z</time>
      </trkpt>
      <trkpt lat="45.03657" lon="2.66817">
        <ele>1418.4</ele>
        <time>2021-09-12T15:02:15.000Z</time>
      </trkpt>
      <trkpt lat="45.03652" lon="2.66808">
        <ele>1417.6</ele>
        <time>2021-09-12T15:02:21.000Z</time>
      </trkpt>
      <trkpt lat="45.03647" lon="2.66795">
        <ele>1416.8</ele>
        <time>2021-09-12T15:02:27.000Z</time>
      </trkpt>
      <trkpt lat="45.03642" lon="2.66784">
        <ele>1415.9</ele>
        <time>2021-09-12T15:02:33.000Z</time>
      </trkpt>
      <trkpt lat="45.03637" lon="2.66774">
        <ele>1415</ele>
        <time>2021-09-12T15:02:39.000Z</time>
      </trkpt>
      <trkpt lat="45.03631" lon="2.66764">
        <ele>1413.7</ele>
        <time>2021-09-12T15:02:45.000Z</time>
      </trkpt>
      <trkpt lat="45.03627" lon="2.66754">
        <ele>1412.9</ele>
        <time>2021-09-12T15:02:51.000Z</time>
      </trkpt>
      <trkpt lat="45.03624" lon="2.66745">
        <ele>1412</ele>
        <time>2021-09-12T15:02:57.000Z</time>
      </trkpt>
      <trkpt lat="45.03621" lon="2.66735">
        <ele>1410.8</ele>
        <time>2021-09-12T15:03:05.000Z</time>
      </trkpt>
      <trkpt lat="45.03618" lon="2.66727">
        <ele>1409.7</ele>
        <time>2021-09-12T15:03:10.000Z</time>
      </trkpt>
      <trkpt lat="45.03614" lon="2.66719">
        <ele>1408.3</ele>
        <time>2021-09-12T15:03:16.000Z</time>
      </trkpt>
      <trkpt lat="45.0361" lon="2.66711">
        <ele>1407</ele>
        <time>2021-09-12T15:03:22.000Z</time>
      </trkpt>
      <trkpt lat="45.03607" lon="2.66702">
        <ele>1405.9</ele>
        <time>2021-09-12T15:03:36.000Z</time>
      </trkpt>
      <trkpt lat="45.03603" lon="2.66694">
        <ele>1404.6</ele>
        <time>2021-09-12T15:03:42.000Z</time>
      </trkpt>
      <trkpt lat="45.03599" lon="2.66686">
        <ele>1403.4</ele>
        <time>2021-09-12T15:03:48.000Z</time>
      </trkpt>
      <trkpt lat="45.03595" lon="2.66678">
        <ele>1402.1</ele>
        <time>2021-09-12T15:03:54.000Z</time>
      </trkpt>
      <trkpt lat="45.0359" lon="2.66669">
        <ele>1400.6</ele>
        <time>2021-09-12T15:03:59.000Z</time>
      </trkpt>
      <trkpt lat="45.03587" lon="2.6666">
        <ele>1399.4</ele>
        <time>2021-09-12T15:04:05.000Z</time>
      </trkpt>
      <trkpt lat="45.03582" lon="2.66651">
        <ele>1397.7</ele>
        <time>2021-09-12T15:04:12.000Z</time>
      </trkpt>
      <trkpt lat="45.03579" lon="2.66641">
        <ele>1396.2</ele>
        <time>2021-09-12T15:04:18.000Z</time>
      </trkpt>
      <trkpt lat="45.03576" lon="2.66632">
        <ele>1394.8</ele>
        <time>2021-09-12T15:04:24.000Z</time>
      </trkpt>
      <trkpt lat="45.03573" lon="2.66624">
        <ele>1393.4</ele>
        <time>2021-09-12T15:04:29.000Z</time>
      </trkpt>
      <trkpt lat="45.03569" lon="2.66617">
        <ele>1391.8</ele>
        <time>2021-09-12T15:04:34.000Z</time>
      </trkpt>
      <trkpt lat="45.03566" lon="2.66608">
        <ele>1390.4</ele>
        <time>2021-09-12T15:04:39.000Z</time>
      </trkpt>
      <trkpt lat="45.03562" lon="2.66598">
        <ele>1388.7</ele>
        <time>2021-09-12T15:04:45.000Z</time>
      </trkpt>
      <trkpt lat="45.03557" lon="2.66587">
        <ele>1386.6</ele>
        <time>2021-09-12T15:04:51.000Z</time>
      </trkpt>
      <trkpt lat="45.03552" lon="2.66578">
        <ele>1384.8</ele>
        <time>2021-09-12T15:04:57.000Z</time>
      </trkpt>
      <trkpt lat="45.03547" lon="2.66569">
        <ele>1383.1</ele>
        <time>2021-09-12T15:05:03.000Z</time>
      </trkpt>
      <trkpt lat="45.03542" lon="2.66559">
        <ele>1381.5</ele>
        <time>2021-09-12T15:05:09.000Z</time>
      </trkpt>
      <trkpt lat="45.03538" lon="2.6655">
        <ele>1380.2</ele>
        <time>2021-09-12T15:05:15.000Z</time>
      </trkpt>
      <trkpt lat="45.03536" lon="2.6654">
        <ele>1379.5</ele>
        <time>2021-09-12T15:05:21.000Z</time>
      </trkpt>
      <trkpt lat="45.03534" lon="2.66529">
        <ele>1378.8</ele>
        <time>2021-09-12T15:05:27.000Z</time>
      </trkpt>
      <trkpt lat="45.03531" lon="2.66521">
        <ele>1378</ele>
        <time>2021-09-12T15:05:33.000Z</time>
      </trkpt>
      <trkpt lat="45.03524" lon="2.66513">
        <ele>1376.3</ele>
        <time>2021-09-12T15:05:39.000Z</time>
      </trkpt>
      <trkpt lat="45.03519" lon="2.66506">
        <ele>1375.1</ele>
        <time>2021-09-12T15:05:45.000Z</time>
      </trkpt>
      <trkpt lat="45.03513" lon="2.66495">
        <ele>1374</ele>
        <time>2021-09-12T15:05:51.000Z</time>
      </trkpt>
      <trkpt lat="45.03511" lon="2.66484">
        <ele>1374.1</ele>
        <time>2021-09-12T15:05:57.000Z</time>
      </trkpt>
      <trkpt lat="45.03507" lon="2.66474">
        <ele>1373.8</ele>
        <time>2021-09-12T15:06:03.000Z</time>
      </trkpt>
      <trkpt lat="45.03502" lon="2.66465">
        <ele>1373.4</ele>
        <time>2021-09-12T15:06:09.000Z</time>
      </trkpt>
      <trkpt lat="45.03498" lon="2.66457">
        <ele>1373.2</ele>
        <time>2021-09-12T15:06:15.000Z</time>
      </trkpt>
      <trkpt lat="45.03495" lon="2.66449">
        <ele>1373.2</ele>
        <time>2021-09-12T15:06:21.000Z</time>
      </trkpt>
      <trkpt lat="45.0349" lon="2.6644">
        <ele>1372.9</ele>
        <time>2021-09-12T15:06:27.000Z</time>
      </trkpt>
      <trkpt lat="45.03487" lon="2.6643">
        <ele>1373.2</ele>
        <time>2021-09-12T15:06:33.000Z</time>
      </trkpt>
      <trkpt lat="45.03483" lon="2.66422">
        <ele>1373.1</ele>
        <time>2021-09-12T15:06:40.000Z</time>
      </trkpt>
      <trkpt lat="45.03479" lon="2.66415">
        <ele>1373</ele>
        <time>2021-09-12T15:06:49.000Z</time>
      </trkpt>
      <trkpt lat="45.03472" lon="2.66415">
        <ele>1372</ele>
        <time>2021-09-12T15:07:12.000Z</time>
      </trkpt>
      <trkpt lat="45.03465" lon="2.66418">
        <ele>1370.8</ele>
        <time>2021-09-12T15:07:18.000Z</time>
      </trkpt>
      <trkpt lat="45.03459" lon="2.66418">
        <ele>1370</ele>
        <time>2021-09-12T15:07:46.000Z</time>
      </trkpt>
      <trkpt lat="45.03453" lon="2.66425">
        <ele>1368.3</ele>
        <time>2021-09-12T15:07:53.000Z</time>
      </trkpt>
      <trkpt lat="45.03447" lon="2.66431">
        <ele>1366.7</ele>
        <time>2021-09-12T15:07:57.000Z</time>
      </trkpt>
      <trkpt lat="45.03442" lon="2.6644">
        <ele>1364.9</ele>
        <time>2021-09-12T15:08:03.000Z</time>
      </trkpt>
      <trkpt lat="45.03437" lon="2.66447">
        <ele>1363.2</ele>
        <time>2021-09-12T15:08:23.000Z</time>
      </trkpt>
      <trkpt lat="45.03432" lon="2.66452">
        <ele>1361.7</ele>
        <time>2021-09-12T15:08:38.000Z</time>
      </trkpt>
      <trkpt lat="45.03427" lon="2.66459">
        <ele>1359.8</ele>
        <time>2021-09-12T15:09:26.000Z</time>
      </trkpt>
      <trkpt lat="45.03421" lon="2.66465">
        <ele>1357.9</ele>
        <time>2021-09-12T15:09:33.000Z</time>
      </trkpt>
      <trkpt lat="45.03415" lon="2.66472">
        <ele>1355.6</ele>
        <time>2021-09-12T15:09:39.000Z</time>
      </trkpt>
      <trkpt lat="45.03411" lon="2.6648">
        <ele>1353.4</ele>
        <time>2021-09-12T15:09:47.000Z</time>
      </trkpt>
      <trkpt lat="45.03406" lon="2.66486">
        <ele>1351.2</ele>
        <time>2021-09-12T15:10:03.000Z</time>
      </trkpt>
      <trkpt lat="45.03402" lon="2.66493">
        <ele>1349.3</ele>
        <time>2021-09-12T15:10:12.000Z</time>
      </trkpt>
      <trkpt lat="45.03397" lon="2.665">
        <ele>1347</ele>
        <time>2021-09-12T15:10:39.000Z</time>
      </trkpt>
      <trkpt lat="45.03393" lon="2.66508">
        <ele>1344.9</ele>
        <time>2021-09-12T15:10:45.000Z</time>
      </trkpt>
      <trkpt lat="45.03388" lon="2.66515">
        <ele>1342.5</ele>
        <time>2021-09-12T15:11:10.000Z</time>
      </trkpt>
      <trkpt lat="45.03387" lon="2.66525">
        <ele>1340.8</ele>
        <time>2021-09-12T15:11:18.000Z</time>
      </trkpt>
      <trkpt lat="45.03386" lon="2.66535">
        <ele>1339</ele>
        <time>2021-09-12T15:11:27.000Z</time>
      </trkpt>
      <trkpt lat="45.03385" lon="2.66545">
        <ele>1337.3</ele>
        <time>2021-09-12T15:11:39.000Z</time>
      </trkpt>
      <trkpt lat="45.0338" lon="2.66556">
        <ele>1334.2</ele>
        <time>2021-09-12T15:12:02.000Z</time>
      </trkpt>
      <trkpt lat="45.03378" lon="2.66565">
        <ele>1332.2</ele>
        <time>2021-09-12T15:12:08.000Z</time>
      </trkpt>
      <trkpt lat="45.03375" lon="2.66574">
        <ele>1330</ele>
        <time>2021-09-12T15:12:16.000Z</time>
      </trkpt>
      <trkpt lat="45.03372" lon="2.66582">
        <ele>1327.8</ele>
        <time>2021-09-12T15:12:24.000Z</time>
      </trkpt>
      <trkpt lat="45.03367" lon="2.66588">
        <ele>1326.2</ele>
        <time>2021-09-12T15:12:37.000Z</time>
      </trkpt>
      <trkpt lat="45.03361" lon="2.66595">
        <ele>1324.5</ele>
        <time>2021-09-12T15:12:45.000Z</time>
      </trkpt>
      <trkpt lat="45.03357" lon="2.66604">
        <ele>1323.5</ele>
        <time>2021-09-12T15:12:52.000Z</time>
      </trkpt>
      <trkpt lat="45.03351" lon="2.66609">
        <ele>1321.6</ele>
        <time>2021-09-12T15:13:02.000Z</time>
      </trkpt>
      <trkpt lat="45.03346" lon="2.66615">
        <ele>1320.1</ele>
        <time>2021-09-12T15:13:13.000Z</time>
      </trkpt>
      <trkpt lat="45.03341" lon="2.66621">
        <ele>1318.5</ele>
        <time>2021-09-12T15:13:24.000Z</time>
      </trkpt>
      <trkpt lat="45.03336" lon="2.66628">
        <ele>1316.9</ele>
        <time>2021-09-12T15:13:31.000Z</time>
      </trkpt>
      <trkpt lat="45.03331" lon="2.66635">
        <ele>1315.2</ele>
        <time>2021-09-12T15:13:46.000Z</time>
      </trkpt>
      <trkpt lat="45.03327" lon="2.66642">
        <ele>1313.8</ele>
        <time>2021-09-12T15:13:53.000Z</time>
      </trkpt>
      <trkpt lat="45.03321" lon="2.66649">
        <ele>1311.5</ele>
        <time>2021-09-12T15:14:01.000Z</time>
      </trkpt>
      <trkpt lat="45.03318" lon="2.66657">
        <ele>1310.2</ele>
        <time>2021-09-12T15:14:08.000Z</time>
      </trkpt>
      <trkpt lat="45.03314" lon="2.66665">
        <ele>1308.4</ele>
        <time>2021-09-12T15:14:14.000Z</time>
      </trkpt>
      <trkpt lat="45.03316" lon="2.66674">
        <ele>1309.5</ele>
        <time>2021-09-12T15:14:28.000Z</time>
      </trkpt>
      <trkpt lat="45.03311" lon="2.66682">
        <ele>1307.8</ele>
        <time>2021-09-12T15:14:38.000Z</time>
      </trkpt>
      <trkpt lat="45.03305" lon="2.66686">
        <ele>1305.6</ele>
        <time>2021-09-12T15:14:45.000Z</time>
      </trkpt>
      <trkpt lat="45.033" lon="2.66694">
        <ele>1303.8</ele>
        <time>2021-09-12T15:15:07.000Z</time>
      </trkpt>
      <trkpt lat="45.03294" lon="2.66699">
        <ele>1301.6</ele>
        <time>2021-09-12T15:15:33.000Z</time>
      </trkpt>
      <trkpt lat="45.03291" lon="2.66707">
        <ele>1300.7</ele>
        <time>2021-09-12T15:15:42.000Z</time>
      </trkpt>
      <trkpt lat="45.03287" lon="2.66716">
        <ele>1299.4</ele>
        <time>2021-09-12T15:15:49.000Z</time>
      </trkpt>
      <trkpt lat="45.03286" lon="2.66726">
        <ele>1299.3</ele>
        <time>2021-09-12T15:15:59.000Z</time>
      </trkpt>
      <trkpt lat="45.03284" lon="2.66735">
        <ele>1298.8</ele>
        <time>2021-09-12T15:16:05.000Z</time>
      </trkpt>
      <trkpt lat="45.03281" lon="2.66744">
        <ele>1297.8</ele>
        <time>2021-09-12T15:16:12.000Z</time>
      </trkpt>
      <trkpt lat="45.03275" lon="2.66752">
        <ele>1295.7</ele>
        <time>2021-09-12T15:16:27.000Z</time>
      </trkpt>
      <trkpt lat="45.03268" lon="2.66751">
        <ele>1292.7</ele>
        <time>2021-09-12T15:16:41.000Z</time>
      </trkpt>
      <trkpt lat="45.03275" lon="2.66761">
        <ele>1296.8</ele>
        <time>2021-09-12T15:17:11.000Z</time>
      </trkpt>
      <trkpt lat="45.03274" lon="2.6677">
        <ele>1297.4</ele>
        <time>2021-09-12T15:17:27.000Z</time>
      </trkpt>
      <trkpt lat="45.03269" lon="2.66778">
        <ele>1296.3</ele>
        <time>2021-09-12T15:17:36.000Z</time>
      </trkpt>
      <trkpt lat="45.03266" lon="2.66787">
        <ele>1296.2</ele>
        <time>2021-09-12T15:17:42.000Z</time>
      </trkpt>
      <trkpt lat="45.0326" lon="2.66793">
        <ele>1294.6</ele>
        <time>2021-09-12T15:17:50.000Z</time>
      </trkpt>
      <trkpt lat="45.03252" lon="2.66798">
        <ele>1292.1</ele>
        <time>2021-09-12T15:17:58.000Z</time>
      </trkpt>
      <trkpt lat="45.03246" lon="2.6681">
        <ele>1291.4</ele>
        <time>2021-09-12T15:18:03.000Z</time>
      </trkpt>
      <trkpt lat="45.03244" lon="2.6682">
        <ele>1292</ele>
        <time>2021-09-12T15:18:09.000Z</time>
      </trkpt>
      <trkpt lat="45.03242" lon="2.66829">
        <ele>1292.5</ele>
        <time>2021-09-12T15:18:19.000Z</time>
      </trkpt>
      <trkpt lat="45.03239" lon="2.6684">
        <ele>1293.1</ele>
        <time>2021-09-12T15:18:38.000Z</time>
      </trkpt>
      <trkpt lat="45.03238" lon="2.66852">
        <ele>1294.6</ele>
        <time>2021-09-12T15:18:43.000Z</time>
      </trkpt>
      <trkpt lat="45.03234" lon="2.66861">
        <ele>1294.7</ele>
        <time>2021-09-12T15:18:48.000Z</time>
      </trkpt>
      <trkpt lat="45.03231" lon="2.6687">
        <ele>1295.2</ele>
        <time>2021-09-12T15:18:53.000Z</time>
      </trkpt>
      <trkpt lat="45.03227" lon="2.6688">
        <ele>1295.7</ele>
        <time>2021-09-12T15:18:58.000Z</time>
      </trkpt>
      <trkpt lat="45.03225" lon="2.6689">
        <ele>1296.8</ele>
        <time>2021-09-12T15:19:04.000Z</time>
      </trkpt>
      <trkpt lat="45.03222" lon="2.66899">
        <ele>1297.5</ele>
        <time>2021-09-12T15:19:12.000Z</time>
      </trkpt>
      <trkpt lat="45.03221" lon="2.6691">
        <ele>1299.2</ele>
        <time>2021-09-12T15:19:19.000Z</time>
      </trkpt>
      <trkpt lat="45.03219" lon="2.66919">
        <ele>1300.1</ele>
        <time>2021-09-12T15:19:26.000Z</time>
      </trkpt>
      <trkpt lat="45.03215" lon="2.66927">
        <ele>1300.3</ele>
        <time>2021-09-12T15:19:33.000Z</time>
      </trkpt>
      <trkpt lat="45.0321" lon="2.66933">
        <ele>1299.9</ele>
        <time>2021-09-12T15:19:42.000Z</time>
      </trkpt>
      <trkpt lat="45.03204" lon="2.66939">
        <ele>1299.5</ele>
        <time>2021-09-12T15:19:48.000Z</time>
      </trkpt>
      <trkpt lat="45.03198" lon="2.66946">
        <ele>1299.3</ele>
        <time>2021-09-12T15:20:12.000Z</time>
      </trkpt>
      <trkpt lat="45.03204" lon="2.66949">
        <ele>1301.1</ele>
        <time>2021-09-12T15:20:25.000Z</time>
      </trkpt>
      <trkpt lat="45.03195" lon="2.66948">
        <ele>1299</ele>
        <time>2021-09-12T15:21:21.000Z</time>
      </trkpt>
      <trkpt lat="45.03191" lon="2.66956">
        <ele>1299.5</ele>
        <time>2021-09-12T15:21:34.000Z</time>
      </trkpt>
      <trkpt lat="45.0319" lon="2.66965">
        <ele>1301</ele>
        <time>2021-09-12T15:21:49.000Z</time>
      </trkpt>
      <trkpt lat="45.03191" lon="2.66976">
        <ele>1303.2</ele>
        <time>2021-09-12T15:21:58.000Z</time>
      </trkpt>
      <trkpt lat="45.03187" lon="2.66986">
        <ele>1304.3</ele>
        <time>2021-09-12T15:23:06.000Z</time>
      </trkpt>
      <trkpt lat="45.03185" lon="2.66995">
        <ele>1305.7</ele>
        <time>2021-09-12T15:23:13.000Z</time>
      </trkpt>
      <trkpt lat="45.03181" lon="2.67003">
        <ele>1305.9</ele>
        <time>2021-09-12T15:23:22.000Z</time>
      </trkpt>
      <trkpt lat="45.03175" lon="2.67009">
        <ele>1304.6</ele>
        <time>2021-09-12T15:23:28.000Z</time>
      </trkpt>
      <trkpt lat="45.03177" lon="2.67019">
        <ele>1304.2</ele>
        <time>2021-09-12T15:23:35.000Z</time>
      </trkpt>
      <trkpt lat="45.03175" lon="2.67028">
        <ele>1303.3</ele>
        <time>2021-09-12T15:23:42.000Z</time>
      </trkpt>
      <trkpt lat="45.03173" lon="2.67038">
        <ele>1302.3</ele>
        <time>2021-09-12T15:23:49.000Z</time>
      </trkpt>
      <trkpt lat="45.03169" lon="2.67046">
        <ele>1301.1</ele>
        <time>2021-09-12T15:23:56.000Z</time>
      </trkpt>
      <trkpt lat="45.03165" lon="2.67053">
        <ele>1299.7</ele>
        <time>2021-09-12T15:24:04.000Z</time>
      </trkpt>
      <trkpt lat="45.03158" lon="2.67057">
        <ele>1297.3</ele>
        <time>2021-09-12T15:24:11.000Z</time>
      </trkpt>
      <trkpt lat="45.03155" lon="2.67065">
        <ele>1295.9</ele>
        <time>2021-09-12T15:24:18.000Z</time>
      </trkpt>
      <trkpt lat="45.03151" lon="2.67074">
        <ele>1294</ele>
        <time>2021-09-12T15:24:26.000Z</time>
      </trkpt>
      <trkpt lat="45.03148" lon="2.67083">
        <ele>1292.4</ele>
        <time>2021-09-12T15:24:34.000Z</time>
      </trkpt>
      <trkpt lat="45.03146" lon="2.67093">
        <ele>1290.1</ele>
        <time>2021-09-12T15:24:42.000Z</time>
      </trkpt>
      <trkpt lat="45.03141" lon="2.67098">
        <ele>1287.7</ele>
        <time>2021-09-12T15:24:56.000Z</time>
      </trkpt>
      <trkpt lat="45.03141" lon="2.67107">
        <ele>1286.1</ele>
        <time>2021-09-12T15:25:10.000Z</time>
      </trkpt>
      <trkpt lat="45.03135" lon="2.67115">
        <ele>1282.9</ele>
        <time>2021-09-12T15:25:23.000Z</time>
      </trkpt>
      <trkpt lat="45.0313" lon="2.6712">
        <ele>1280.5</ele>
        <time>2021-09-12T15:25:31.000Z</time>
      </trkpt>
      <trkpt lat="45.03123" lon="2.67122">
        <ele>1277.9</ele>
        <time>2021-09-12T15:25:41.000Z</time>
      </trkpt>
      <trkpt lat="45.0312" lon="2.67113">
        <ele>1278.6</ele>
        <time>2021-09-12T15:25:53.000Z</time>
      </trkpt>
      <trkpt lat="45.03113" lon="2.67114">
        <ele>1276.3</ele>
        <time>2021-09-12T15:26:11.000Z</time>
      </trkpt>
      <trkpt lat="45.03107" lon="2.67112">
        <ele>1274.8</ele>
        <time>2021-09-12T15:26:28.000Z</time>
      </trkpt>
      <trkpt lat="45.03104" lon="2.67125">
        <ele>1271.4</ele>
        <time>2021-09-12T15:26:57.000Z</time>
      </trkpt>
      <trkpt lat="45.03098" lon="2.67125">
        <ele>1269.6</ele>
        <time>2021-09-12T15:27:10.000Z</time>
      </trkpt>
      <trkpt lat="45.0309" lon="2.67126">
        <ele>1266.9</ele>
        <time>2021-09-12T15:27:18.000Z</time>
      </trkpt>
      <trkpt lat="45.03084" lon="2.67124">
        <ele>1265.4</ele>
        <time>2021-09-12T15:27:24.000Z</time>
      </trkpt>
      <trkpt lat="45.03077" lon="2.67121">
        <ele>1264</ele>
        <time>2021-09-12T15:27:30.000Z</time>
      </trkpt>
      <trkpt lat="45.0307" lon="2.67119">
        <ele>1262.3</ele>
        <time>2021-09-12T15:27:35.000Z</time>
      </trkpt>
      <trkpt lat="45.03064" lon="2.67116">
        <ele>1261.1</ele>
        <time>2021-09-12T15:27:43.000Z</time>
      </trkpt>
      <trkpt lat="45.03057" lon="2.6712">
        <ele>1258.4</ele>
        <time>2021-09-12T15:28:00.000Z</time>
      </trkpt>
      <trkpt lat="45.0305" lon="2.67122">
        <ele>1256.1</ele>
        <time>2021-09-12T15:28:09.000Z</time>
      </trkpt>
      <trkpt lat="45.03043" lon="2.67123">
        <ele>1253.9</ele>
        <time>2021-09-12T15:28:20.000Z</time>
      </trkpt>
      <trkpt lat="45.03036" lon="2.67124">
        <ele>1251.8</ele>
        <time>2021-09-12T15:28:41.000Z</time>
      </trkpt>
      <trkpt lat="45.03029" lon="2.67125">
        <ele>1249.7</ele>
        <time>2021-09-12T15:28:49.000Z</time>
      </trkpt>
      <trkpt lat="45.03023" lon="2.67124">
        <ele>1248.1</ele>
        <time>2021-09-12T15:28:56.000Z</time>
      </trkpt>
      <trkpt lat="45.03016" lon="2.67124">
        <ele>1246.1</ele>
        <time>2021-09-12T15:29:04.000Z</time>
      </trkpt>
      <trkpt lat="45.03011" lon="2.6713">
        <ele>1244</ele>
        <time>2021-09-12T15:29:12.000Z</time>
      </trkpt>
      <trkpt lat="45.03005" lon="2.67136">
        <ele>1241.7</ele>
        <time>2021-09-12T15:29:28.000Z</time>
      </trkpt>
      <trkpt lat="45.02998" lon="2.67137">
        <ele>1240</ele>
        <time>2021-09-12T15:29:39.000Z</time>
      </trkpt>
      <trkpt lat="45.02991" lon="2.67133">
        <ele>1239.7</ele>
        <time>2021-09-12T15:29:45.000Z</time>
      </trkpt>
      <trkpt lat="45.02984" lon="2.67132">
        <ele>1239.1</ele>
        <time>2021-09-12T15:29:53.000Z</time>
      </trkpt>
      <trkpt lat="45.02978" lon="2.6713">
        <ele>1238.7</ele>
        <time>2021-09-12T15:30:00.000Z</time>
      </trkpt>
      <trkpt lat="45.02972" lon="2.67125">
        <ele>1238.6</ele>
        <time>2021-09-12T15:30:08.000Z</time>
      </trkpt>
      <trkpt lat="45.02965" lon="2.67121">
        <ele>1238.4</ele>
        <time>2021-09-12T15:30:14.000Z</time>
      </trkpt>
      <trkpt lat="45.02958" lon="2.67121">
        <ele>1237.7</ele>
        <time>2021-09-12T15:30:19.000Z</time>
      </trkpt>
      <trkpt lat="45.02951" lon="2.67118">
        <ele>1237.3</ele>
        <time>2021-09-12T15:30:25.000Z</time>
      </trkpt>
      <trkpt lat="45.02945" lon="2.67116">
        <ele>1236.9</ele>
        <time>2021-09-12T15:30:42.000Z</time>
      </trkpt>
      <trkpt lat="45.0294" lon="2.67123">
        <ele>1235.6</ele>
        <time>2021-09-12T15:30:48.000Z</time>
      </trkpt>
      <trkpt lat="45.02935" lon="2.67129">
        <ele>1234.4</ele>
        <time>2021-09-12T15:30:54.000Z</time>
      </trkpt>
      <trkpt lat="45.02929" lon="2.67136">
        <ele>1233</ele>
        <time>2021-09-12T15:31:00.000Z</time>
      </trkpt>
      <trkpt lat="45.02924" lon="2.67142">
        <ele>1231.7</ele>
        <time>2021-09-12T15:31:06.000Z</time>
      </trkpt>
      <trkpt lat="45.02918" lon="2.67149">
        <ele>1230.3</ele>
        <time>2021-09-12T15:31:14.000Z</time>
      </trkpt>
      <trkpt lat="45.02914" lon="2.67157">
        <ele>1228.9</ele>
        <time>2021-09-12T15:31:22.000Z</time>
      </trkpt>
      <trkpt lat="45.02907" lon="2.67159">
        <ele>1227.8</ele>
        <time>2021-09-12T15:31:34.000Z</time>
      </trkpt>
      <trkpt lat="45.02901" lon="2.67163">
        <ele>1226.7</ele>
        <time>2021-09-12T15:31:41.000Z</time>
      </trkpt>
      <trkpt lat="45.02895" lon="2.67162">
        <ele>1226.1</ele>
        <time>2021-09-12T15:31:48.000Z</time>
      </trkpt>
      <trkpt lat="45.02888" lon="2.6716">
        <ele>1225.6</ele>
        <time>2021-09-12T15:31:56.000Z</time>
      </trkpt>
      <trkpt lat="45.02881" lon="2.67157">
        <ele>1225.1</ele>
        <time>2021-09-12T15:32:02.000Z</time>
      </trkpt>
      <trkpt lat="45.02875" lon="2.67154">
        <ele>1224.6</ele>
        <time>2021-09-12T15:32:08.000Z</time>
      </trkpt>
      <trkpt lat="45.02868" lon="2.67153">
        <ele>1223.9</ele>
        <time>2021-09-12T15:32:17.000Z</time>
      </trkpt>
      <trkpt lat="45.02862" lon="2.67157">
        <ele>1222.9</ele>
        <time>2021-09-12T15:32:24.000Z</time>
      </trkpt>
      <trkpt lat="45.02859" lon="2.67165">
        <ele>1221.9</ele>
        <time>2021-09-12T15:32:29.000Z</time>
      </trkpt>
      <trkpt lat="45.02852" lon="2.67163">
        <ele>1221.3</ele>
        <time>2021-09-12T15:32:37.000Z</time>
      </trkpt>
      <trkpt lat="45.02846" lon="2.67163">
        <ele>1220.6</ele>
        <time>2021-09-12T15:34:48.000Z</time>
      </trkpt>
      <trkpt lat="45.02839" lon="2.6716">
        <ele>1220</ele>
        <time>2021-09-12T15:34:57.000Z</time>
      </trkpt>
      <trkpt lat="45.02832" lon="2.67159">
        <ele>1219.3</ele>
        <time>2021-09-12T15:35:03.000Z</time>
      </trkpt>
      <trkpt lat="45.02825" lon="2.6716">
        <ele>1218.6</ele>
        <time>2021-09-12T15:35:13.000Z</time>
      </trkpt>
      <trkpt lat="45.02817" lon="2.67163">
        <ele>1217.6</ele>
        <time>2021-09-12T15:35:18.000Z</time>
      </trkpt>
      <trkpt lat="45.0281" lon="2.67163">
        <ele>1216.9</ele>
        <time>2021-09-12T15:35:24.000Z</time>
      </trkpt>
      <trkpt lat="45.02803" lon="2.67161">
        <ele>1216.4</ele>
        <time>2021-09-12T15:35:30.000Z</time>
      </trkpt>
      <trkpt lat="45.02796" lon="2.67164">
        <ele>1215.5</ele>
        <time>2021-09-12T15:35:40.000Z</time>
      </trkpt>
      <trkpt lat="45.02789" lon="2.67167">
        <ele>1214.7</ele>
        <time>2021-09-12T15:35:46.000Z</time>
      </trkpt>
      <trkpt lat="45.02782" lon="2.67169">
        <ele>1213.5</ele>
        <time>2021-09-12T15:35:52.000Z</time>
      </trkpt>
      <trkpt lat="45.02775" lon="2.67168">
        <ele>1213.1</ele>
        <time>2021-09-12T15:35:59.000Z</time>
      </trkpt>
      <trkpt lat="45.02768" lon="2.67168">
        <ele>1212.4</ele>
        <time>2021-09-12T15:36:14.000Z</time>
      </trkpt>
      <trkpt lat="45.02761" lon="2.67168">
        <ele>1211.7</ele>
        <time>2021-09-12T15:36:21.000Z</time>
      </trkpt>
      <trkpt lat="45.02754" lon="2.67168">
        <ele>1211.1</ele>
        <time>2021-09-12T15:36:28.000Z</time>
      </trkpt>
      <trkpt lat="45.02747" lon="2.67167">
        <ele>1210.2</ele>
        <time>2021-09-12T15:36:35.000Z</time>
      </trkpt>
      <trkpt lat="45.0274" lon="2.67166">
        <ele>1208.7</ele>
        <time>2021-09-12T15:36:42.000Z</time>
      </trkpt>
      <trkpt lat="45.02733" lon="2.67163">
        <ele>1207.3</ele>
        <time>2021-09-12T15:36:49.000Z</time>
      </trkpt>
      <trkpt lat="45.02726" lon="2.67162">
        <ele>1205.7</ele>
        <time>2021-09-12T15:36:54.000Z</time>
      </trkpt>
      <trkpt lat="45.0272" lon="2.67165">
        <ele>1204.2</ele>
        <time>2021-09-12T15:37:01.000Z</time>
      </trkpt>
      <trkpt lat="45.02713" lon="2.67167">
        <ele>1202.5</ele>
        <time>2021-09-12T15:37:08.000Z</time>
      </trkpt>
      <trkpt lat="45.02706" lon="2.67168">
        <ele>1200.7</ele>
        <time>2021-09-12T15:37:15.000Z</time>
      </trkpt>
      <trkpt lat="45.027" lon="2.67162">
        <ele>1199.9</ele>
        <time>2021-09-12T15:37:25.000Z</time>
      </trkpt>
      <trkpt lat="45.02694" lon="2.67157">
        <ele>1198.9</ele>
        <time>2021-09-12T15:37:45.000Z</time>
      </trkpt>
      <trkpt lat="45.02687" lon="2.67155">
        <ele>1197.6</ele>
        <time>2021-09-12T15:37:53.000Z</time>
      </trkpt>
      <trkpt lat="45.0268" lon="2.67152">
        <ele>1196.3</ele>
        <time>2021-09-12T15:37:57.000Z</time>
      </trkpt>
      <trkpt lat="45.0267" lon="2.67148">
        <ele>1194.5</ele>
        <time>2021-09-12T15:38:03.000Z</time>
      </trkpt>
      <trkpt lat="45.02661" lon="2.67146">
        <ele>1191.7</ele>
        <time>2021-09-12T15:38:09.000Z</time>
      </trkpt>
      <trkpt lat="45.02654" lon="2.67144">
        <ele>1189</ele>
        <time>2021-09-12T15:38:30.000Z</time>
      </trkpt>
      <trkpt lat="45.02647" lon="2.67141">
        <ele>1186.5</ele>
        <time>2021-09-12T15:38:38.000Z</time>
      </trkpt>
      <trkpt lat="45.0264" lon="2.67139">
        <ele>1183.9</ele>
        <time>2021-09-12T15:38:42.000Z</time>
      </trkpt>
      <trkpt lat="45.02633" lon="2.6714">
        <ele>1181</ele>
        <time>2021-09-12T15:38:46.000Z</time>
      </trkpt>
      <trkpt lat="45.02626" lon="2.6714">
        <ele>1178.1</ele>
        <time>2021-09-12T15:38:51.000Z</time>
      </trkpt>
      <trkpt lat="45.02619" lon="2.6714">
        <ele>1175.3</ele>
        <time>2021-09-12T15:38:57.000Z</time>
      </trkpt>
      <trkpt lat="45.02612" lon="2.67137">
        <ele>1172.8</ele>
        <time>2021-09-12T15:39:03.000Z</time>
      </trkpt>
      <trkpt lat="45.02606" lon="2.67133">
        <ele>1170.8</ele>
        <time>2021-09-12T15:39:09.000Z</time>
      </trkpt>
      <trkpt lat="45.026" lon="2.67127">
        <ele>1169</ele>
        <time>2021-09-12T15:39:15.000Z</time>
      </trkpt>
      <trkpt lat="45.02597" lon="2.67117">
        <ele>1168.8</ele>
        <time>2021-09-12T15:39:22.000Z</time>
      </trkpt>
      <trkpt lat="45.02594" lon="2.67109">
        <ele>1168.5</ele>
        <time>2021-09-12T15:39:29.000Z</time>
      </trkpt>
      <trkpt lat="45.02589" lon="2.67101">
        <ele>1167.4</ele>
        <time>2021-09-12T15:39:35.000Z</time>
      </trkpt>
      <trkpt lat="45.02586" lon="2.67093">
        <ele>1167</ele>
        <time>2021-09-12T15:39:40.000Z</time>
      </trkpt>
      <trkpt lat="45.02581" lon="2.67086">
        <ele>1165.5</ele>
        <time>2021-09-12T15:39:45.000Z</time>
      </trkpt>
      <trkpt lat="45.02575" lon="2.6708">
        <ele>1163.2</ele>
        <time>2021-09-12T15:39:51.000Z</time>
      </trkpt>
      <trkpt lat="45.0257" lon="2.67073">
        <ele>1161.7</ele>
        <time>2021-09-12T15:39:57.000Z</time>
      </trkpt>
      <trkpt lat="45.02564" lon="2.67066">
        <ele>1159.7</ele>
        <time>2021-09-12T15:40:03.000Z</time>
      </trkpt>
      <trkpt lat="45.02558" lon="2.67057">
        <ele>1158</ele>
        <time>2021-09-12T15:40:09.000Z</time>
      </trkpt>
      <trkpt lat="45.02551" lon="2.67052">
        <ele>1155.2</ele>
        <time>2021-09-12T15:40:16.000Z</time>
      </trkpt>
      <trkpt lat="45.02544" lon="2.6705">
        <ele>1151.9</ele>
        <time>2021-09-12T15:40:23.000Z</time>
      </trkpt>
      <trkpt lat="45.02537" lon="2.67048">
        <ele>1148.6</ele>
        <time>2021-09-12T15:40:31.000Z</time>
      </trkpt>
      <trkpt lat="45.02531" lon="2.67044">
        <ele>1146.1</ele>
        <time>2021-09-12T15:40:37.000Z</time>
      </trkpt>
      <trkpt lat="45.02526" lon="2.67037">
        <ele>1144.6</ele>
        <time>2021-09-12T15:40:43.000Z</time>
      </trkpt>
      <trkpt lat="45.02521" lon="2.6703">
        <ele>1143.2</ele>
        <time>2021-09-12T15:40:49.000Z</time>
      </trkpt>
      <trkpt lat="45.02515" lon="2.67026">
        <ele>1140.7</ele>
        <time>2021-09-12T15:40:53.000Z</time>
      </trkpt>
      <trkpt lat="45.02509" lon="2.67023">
        <ele>1138.1</ele>
        <time>2021-09-12T15:41:10.000Z</time>
      </trkpt>
      <trkpt lat="45.02504" lon="2.67016">
        <ele>1136.6</ele>
        <time>2021-09-12T15:41:16.000Z</time>
      </trkpt>
      <trkpt lat="45.02499" lon="2.67008">
        <ele>1135.2</ele>
        <time>2021-09-12T15:41:22.000Z</time>
      </trkpt>
      <trkpt lat="45.02497" lon="2.66999">
        <ele>1135.4</ele>
        <time>2021-09-12T15:41:29.000Z</time>
      </trkpt>
      <trkpt lat="45.02497" lon="2.66989">
        <ele>1136.8</ele>
        <time>2021-09-12T15:42:00.000Z</time>
      </trkpt>
      <trkpt lat="45.02494" lon="2.66979">
        <ele>1136.5</ele>
        <time>2021-09-12T15:42:05.000Z</time>
      </trkpt>
      <trkpt lat="45.02492" lon="2.66967">
        <ele>1137</ele>
        <time>2021-09-12T15:42:10.000Z</time>
      </trkpt>
      <trkpt lat="45.0249" lon="2.66956">
        <ele>1137.5</ele>
        <time>2021-09-12T15:42:15.000Z</time>
      </trkpt>
      <trkpt lat="45.02486" lon="2.66944">
        <ele>1137.1</ele>
        <time>2021-09-12T15:42:21.000Z</time>
      </trkpt>
      <trkpt lat="45.02482" lon="2.66934">
        <ele>1136.4</ele>
        <time>2021-09-12T15:42:27.000Z</time>
      </trkpt>
      <trkpt lat="45.02478" lon="2.66925">
        <ele>1135.7</ele>
        <time>2021-09-12T15:42:33.000Z</time>
      </trkpt>
      <trkpt lat="45.02475" lon="2.66914">
        <ele>1135.9</ele>
        <time>2021-09-12T15:42:39.000Z</time>
      </trkpt>
      <trkpt lat="45.02472" lon="2.66905">
        <ele>1136.1</ele>
        <time>2021-09-12T15:42:45.000Z</time>
      </trkpt>
      <trkpt lat="45.02468" lon="2.66896">
        <ele>1136.1</ele>
        <time>2021-09-12T15:42:51.000Z</time>
      </trkpt>
      <trkpt lat="45.02464" lon="2.66889">
        <ele>1135.8</ele>
        <time>2021-09-12T15:42:57.000Z</time>
      </trkpt>
      <trkpt lat="45.02459" lon="2.66881">
        <ele>1135.4</ele>
        <time>2021-09-12T15:43:03.000Z</time>
      </trkpt>
      <trkpt lat="45.02455" lon="2.66873">
        <ele>1135.7</ele>
        <time>2021-09-12T15:43:09.000Z</time>
      </trkpt>
      <trkpt lat="45.02451" lon="2.66865">
        <ele>1136.1</ele>
        <time>2021-09-12T15:43:15.000Z</time>
      </trkpt>
      <trkpt lat="45.02447" lon="2.66856">
        <ele>1136.9</ele>
        <time>2021-09-12T15:43:21.000Z</time>
      </trkpt>
      <trkpt lat="45.02444" lon="2.66847">
        <ele>1138.2</ele>
        <time>2021-09-12T15:43:27.000Z</time>
      </trkpt>
      <trkpt lat="45.02442" lon="2.66837">
        <ele>1140.3</ele>
        <time>2021-09-12T15:43:34.000Z</time>
      </trkpt>
      <trkpt lat="45.02436" lon="2.6683">
        <ele>1139.9</ele>
        <time>2021-09-12T15:43:41.000Z</time>
      </trkpt>
      <trkpt lat="45.02432" lon="2.66821">
        <ele>1139.9</ele>
        <time>2021-09-12T15:43:49.000Z</time>
      </trkpt>
      <trkpt lat="45.02428" lon="2.66813">
        <ele>1139.9</ele>
        <time>2021-09-12T15:43:57.000Z</time>
      </trkpt>
      <trkpt lat="45.02423" lon="2.66806">
        <ele>1139.9</ele>
        <time>2021-09-12T15:44:05.000Z</time>
      </trkpt>
      <trkpt lat="45.02416" lon="2.66804">
        <ele>1138.7</ele>
        <time>2021-09-12T15:44:14.000Z</time>
      </trkpt>
      <trkpt lat="45.02413" lon="2.66795">
        <ele>1139.1</ele>
        <time>2021-09-12T15:44:25.000Z</time>
      </trkpt>
      <trkpt lat="45.02413" lon="2.66785">
        <ele>1140.8</ele>
        <time>2021-09-12T15:44:36.000Z</time>
      </trkpt>
      <trkpt lat="45.02409" lon="2.66777">
        <ele>1140.8</ele>
        <time>2021-09-12T15:44:44.000Z</time>
      </trkpt>
      <trkpt lat="45.02405" lon="2.66769">
        <ele>1140.8</ele>
        <time>2021-09-12T15:44:51.000Z</time>
      </trkpt>
      <trkpt lat="45.02401" lon="2.66762">
        <ele>1140.7</ele>
        <time>2021-09-12T15:44:57.000Z</time>
      </trkpt>
      <trkpt lat="45.02395" lon="2.66757">
        <ele>1139.7</ele>
        <time>2021-09-12T15:45:05.000Z</time>
      </trkpt>
      <trkpt lat="45.02389" lon="2.66751">
        <ele>1138.8</ele>
        <time>2021-09-12T15:45:12.000Z</time>
      </trkpt>
      <trkpt lat="45.02382" lon="2.66746">
        <ele>1136.5</ele>
        <time>2021-09-12T15:45:19.000Z</time>
      </trkpt>
      <trkpt lat="45.02377" lon="2.6674">
        <ele>1134.6</ele>
        <time>2021-09-12T15:45:28.000Z</time>
      </trkpt>
      <trkpt lat="45.02372" lon="2.66734">
        <ele>1132.7</ele>
        <time>2021-09-12T15:45:41.000Z</time>
      </trkpt>
      <trkpt lat="45.02365" lon="2.66731">
        <ele>1130.5</ele>
        <time>2021-09-12T15:45:48.000Z</time>
      </trkpt>
      <trkpt lat="45.02359" lon="2.66728">
        <ele>1128.7</ele>
        <time>2021-09-12T15:45:54.000Z</time>
      </trkpt>
      <trkpt lat="45.02352" lon="2.66727">
        <ele>1126.6</ele>
        <time>2021-09-12T15:46:01.000Z</time>
      </trkpt>
      <trkpt lat="45.02345" lon="2.66727">
        <ele>1124.6</ele>
        <time>2021-09-12T15:46:08.000Z</time>
      </trkpt>
      <trkpt lat="45.02339" lon="2.66726">
        <ele>1122.9</ele>
        <time>2021-09-12T15:46:15.000Z</time>
      </trkpt>
      <trkpt lat="45.02332" lon="2.66725">
        <ele>1120.9</ele>
        <time>2021-09-12T15:46:32.000Z</time>
      </trkpt>
      <trkpt lat="45.02325" lon="2.66726">
        <ele>1118.8</ele>
        <time>2021-09-12T15:46:39.000Z</time>
      </trkpt>
      <trkpt lat="45.0232" lon="2.66733">
        <ele>1117.3</ele>
        <time>2021-09-12T15:46:49.000Z</time>
      </trkpt>
      <trkpt lat="45.02314" lon="2.66737">
        <ele>1115.4</ele>
        <time>2021-09-12T15:46:55.000Z</time>
      </trkpt>
      <trkpt lat="45.02308" lon="2.66741">
        <ele>1113.6</ele>
        <time>2021-09-12T15:47:01.000Z</time>
      </trkpt>
      <trkpt lat="45.02301" lon="2.66743">
        <ele>1111.4</ele>
        <time>2021-09-12T15:47:07.000Z</time>
      </trkpt>
      <trkpt lat="45.02295" lon="2.66744">
        <ele>1109.6</ele>
        <time>2021-09-12T15:47:14.000Z</time>
      </trkpt>
      <trkpt lat="45.02288" lon="2.66744">
        <ele>1107.6</ele>
        <time>2021-09-12T15:47:25.000Z</time>
      </trkpt>
      <trkpt lat="45.02283" lon="2.6675">
        <ele>1105.9</ele>
        <time>2021-09-12T15:47:40.000Z</time>
      </trkpt>
      <trkpt lat="45.02283" lon="2.66759">
        <ele>1104.1</ele>
        <time>2021-09-12T15:48:09.000Z</time>
      </trkpt>
      <trkpt lat="45.02289" lon="2.66765">
        <ele>1104.7</ele>
        <time>2021-09-12T15:48:15.000Z</time>
      </trkpt>
      <trkpt lat="45.02294" lon="2.66772">
        <ele>1104.7</ele>
        <time>2021-09-12T15:48:23.000Z</time>
      </trkpt>
      <trkpt lat="45.02298" lon="2.66779">
        <ele>1104.3</ele>
        <time>2021-09-12T15:48:33.000Z</time>
      </trkpt>
      <trkpt lat="45.02301" lon="2.66788">
        <ele>1103.2</ele>
        <time>2021-09-12T15:48:46.000Z</time>
      </trkpt>
      <trkpt lat="45.02303" lon="2.66797">
        <ele>1101.9</ele>
        <time>2021-09-12T15:48:57.000Z</time>
      </trkpt>
      <trkpt lat="45.02306" lon="2.66806">
        <ele>1100.7</ele>
        <time>2021-09-12T15:49:07.000Z</time>
      </trkpt>
      <trkpt lat="45.02312" lon="2.66812">
        <ele>1100.9</ele>
        <time>2021-09-12T15:49:13.000Z</time>
      </trkpt>
      <trkpt lat="45.02319" lon="2.66816">
        <ele>1101.7</ele>
        <time>2021-09-12T15:49:18.000Z</time>
      </trkpt>
      <trkpt lat="45.02324" lon="2.66822">
        <ele>1101.5</ele>
        <time>2021-09-12T15:49:49.000Z</time>
      </trkpt>
      <trkpt lat="45.02317" lon="2.66816">
        <ele>1101.2</ele>
        <time>2021-09-12T15:50:46.000Z</time>
      </trkpt>
      <trkpt lat="45.02313" lon="2.66809">
        <ele>1101.8</ele>
        <time>2021-09-12T15:50:54.000Z</time>
      </trkpt>
      <trkpt lat="45.02306" lon="2.66808">
        <ele>1100.2</ele>
        <time>2021-09-12T15:51:01.000Z</time>
      </trkpt>
      <trkpt lat="45.023" lon="2.66803">
        <ele>1099.8</ele>
        <time>2021-09-12T15:51:12.000Z</time>
      </trkpt>
      <trkpt lat="45.02293" lon="2.66799">
        <ele>1098.8</ele>
        <time>2021-09-12T15:51:20.000Z</time>
      </trkpt>
      <trkpt lat="45.02286" lon="2.66801">
        <ele>1096.6</ele>
        <time>2021-09-12T15:51:27.000Z</time>
      </trkpt>
      <trkpt lat="45.0228" lon="2.66798">
        <ele>1095.7</ele>
        <time>2021-09-12T15:51:34.000Z</time>
      </trkpt>
      <trkpt lat="45.02271" lon="2.66794">
        <ele>1094.1</ele>
        <time>2021-09-12T15:51:39.000Z</time>
      </trkpt>
      <trkpt lat="45.02265" lon="2.66789">
        <ele>1093.4</ele>
        <time>2021-09-12T15:51:45.000Z</time>
      </trkpt>
      <trkpt lat="45.02258" lon="2.66786">
        <ele>1092.1</ele>
        <time>2021-09-12T15:51:52.000Z</time>
      </trkpt>
      <trkpt lat="45.02251" lon="2.66783">
        <ele>1090.7</ele>
        <time>2021-09-12T15:51:57.000Z</time>
      </trkpt>
      <trkpt lat="45.02243" lon="2.66778">
        <ele>1089.7</ele>
        <time>2021-09-12T15:52:03.000Z</time>
      </trkpt>
      <trkpt lat="45.02236" lon="2.66774">
        <ele>1088.8</ele>
        <time>2021-09-12T15:52:09.000Z</time>
      </trkpt>
      <trkpt lat="45.02231" lon="2.66767">
        <ele>1088.7</ele>
        <time>2021-09-12T15:52:16.000Z</time>
      </trkpt>
      <trkpt lat="45.02227" lon="2.6676">
        <ele>1088.9</ele>
        <time>2021-09-12T15:52:25.000Z</time>
      </trkpt>
      <trkpt lat="45.02226" lon="2.66749">
        <ele>1090.3</ele>
        <time>2021-09-12T15:52:56.000Z</time>
      </trkpt>
      <trkpt lat="45.02225" lon="2.66739">
        <ele>1090.3</ele>
        <time>2021-09-12T15:53:01.000Z</time>
      </trkpt>
      <trkpt lat="45.02224" lon="2.6673">
        <ele>1090.3</ele>
        <time>2021-09-12T15:53:07.000Z</time>
      </trkpt>
      <trkpt lat="45.02221" lon="2.66738">
        <ele>1089.4</ele>
        <time>2021-09-12T15:53:20.000Z</time>
      </trkpt>
      <trkpt lat="45.02225" lon="2.66729">
        <ele>1090.6</ele>
        <time>2021-09-12T15:55:09.000Z</time>
      </trkpt>
      <trkpt lat="45.02218" lon="2.66727">
        <ele>1088.9</ele>
        <time>2021-09-12T15:55:28.000Z</time>
      </trkpt>
      <trkpt lat="45.02214" lon="2.66718">
        <ele>1088.2</ele>
        <time>2021-09-12T15:55:36.000Z</time>
      </trkpt>
      <trkpt lat="45.02213" lon="2.66708">
        <ele>1088.2</ele>
        <time>2021-09-12T15:55:42.000Z</time>
      </trkpt>
      <trkpt lat="45.02205" lon="2.66696">
        <ele>1086.4</ele>
        <time>2021-09-12T15:56:51.000Z</time>
      </trkpt>
      <trkpt lat="45.022" lon="2.66701">
        <ele>1085.1</ele>
        <time>2021-09-12T15:57:05.000Z</time>
      </trkpt>
      <trkpt lat="45.02193" lon="2.66698">
        <ele>1083.3</ele>
        <time>2021-09-12T15:57:15.000Z</time>
      </trkpt>
      <trkpt lat="45.02187" lon="2.66688">
        <ele>1082</ele>
        <time>2021-09-12T15:57:21.000Z</time>
      </trkpt>
      <trkpt lat="45.02181" lon="2.66683">
        <ele>1080.5</ele>
        <time>2021-09-12T15:57:27.000Z</time>
      </trkpt>
      <trkpt lat="45.02175" lon="2.66675">
        <ele>1079.1</ele>
        <time>2021-09-12T15:57:33.000Z</time>
      </trkpt>
      <trkpt lat="45.02167" lon="2.66677">
        <ele>1077</ele>
        <time>2021-09-12T15:57:41.000Z</time>
      </trkpt>
      <trkpt lat="45.02161" lon="2.6668">
        <ele>1074.7</ele>
        <time>2021-09-12T15:57:48.000Z</time>
      </trkpt>
      <trkpt lat="45.02154" lon="2.66684">
        <ele>1072.1</ele>
        <time>2021-09-12T15:57:52.000Z</time>
      </trkpt>
      <trkpt lat="45.02151" lon="2.66693">
        <ele>1071.1</ele>
        <time>2021-09-12T15:58:01.000Z</time>
      </trkpt>
      <trkpt lat="45.0215" lon="2.66703">
        <ele>1071</ele>
        <time>2021-09-12T15:58:05.000Z</time>
      </trkpt>
      <trkpt lat="45.02151" lon="2.66714">
        <ele>1071.5</ele>
        <time>2021-09-12T15:58:10.000Z</time>
      </trkpt>
      <trkpt lat="45.02152" lon="2.66725">
        <ele>1072</ele>
        <time>2021-09-12T15:58:15.000Z</time>
      </trkpt>
      <trkpt lat="45.02154" lon="2.66735">
        <ele>1072.8</ele>
        <time>2021-09-12T15:58:22.000Z</time>
      </trkpt>
      <trkpt lat="45.02159" lon="2.66741">
        <ele>1074.1</ele>
        <time>2021-09-12T15:58:27.000Z</time>
      </trkpt>
      <trkpt lat="45.02163" lon="2.66749">
        <ele>1075.1</ele>
        <time>2021-09-12T15:58:34.000Z</time>
      </trkpt>
      <trkpt lat="45.02169" lon="2.66759">
        <ele>1075.4</ele>
        <time>2021-09-12T15:58:39.000Z</time>
      </trkpt>
      <trkpt lat="45.02173" lon="2.66765">
        <ele>1075.5</ele>
        <time>2021-09-12T15:58:45.000Z</time>
      </trkpt>
      <trkpt lat="45.02178" lon="2.66773">
        <ele>1075.6</ele>
        <time>2021-09-12T15:58:53.000Z</time>
      </trkpt>
      <trkpt lat="45.02182" lon="2.66781">
        <ele>1075.4</ele>
        <time>2021-09-12T15:59:00.000Z</time>
      </trkpt>
      <trkpt lat="45.02186" lon="2.66789">
        <ele>1075.2</ele>
        <time>2021-09-12T15:59:12.000Z</time>
      </trkpt>
      <trkpt lat="45.02187" lon="2.668">
        <ele>1073.8</ele>
        <time>2021-09-12T15:59:19.000Z</time>
      </trkpt>
      <trkpt lat="45.02187" lon="2.6681">
        <ele>1072.4</ele>
        <time>2021-09-12T15:59:25.000Z</time>
      </trkpt>
      <trkpt lat="45.02193" lon="2.66814">
        <ele>1073.1</ele>
        <time>2021-09-12T15:59:43.000Z</time>
      </trkpt>
      <trkpt lat="45.02187" lon="2.66814">
        <ele>1071.9</ele>
        <time>2021-09-12T16:00:42.000Z</time>
      </trkpt>
      <trkpt lat="45.0218" lon="2.66814">
        <ele>1070.4</ele>
        <time>2021-09-12T16:00:49.000Z</time>
      </trkpt>
      <trkpt lat="45.02173" lon="2.66813">
        <ele>1069</ele>
        <time>2021-09-12T16:00:55.000Z</time>
      </trkpt>
      <trkpt lat="45.02166" lon="2.66811">
        <ele>1067.8</ele>
        <time>2021-09-12T16:01:01.000Z</time>
      </trkpt>
      <trkpt lat="45.02159" lon="2.6681">
        <ele>1066.4</ele>
        <time>2021-09-12T16:01:06.000Z</time>
      </trkpt>
      <trkpt lat="45.02152" lon="2.66813">
        <ele>1064.6</ele>
        <time>2021-09-12T16:01:13.000Z</time>
      </trkpt>
      <trkpt lat="45.02145" lon="2.66814">
        <ele>1063</ele>
        <time>2021-09-12T16:01:18.000Z</time>
      </trkpt>
      <trkpt lat="45.02138" lon="2.66816">
        <ele>1061.2</ele>
        <time>2021-09-12T16:01:23.000Z</time>
      </trkpt>
      <trkpt lat="45.02132" lon="2.66818">
        <ele>1059.7</ele>
        <time>2021-09-12T16:01:29.000Z</time>
      </trkpt>
      <trkpt lat="45.02125" lon="2.66816">
        <ele>1058.5</ele>
        <time>2021-09-12T16:01:35.000Z</time>
      </trkpt>
      <trkpt lat="45.02117" lon="2.66815">
        <ele>1056.9</ele>
        <time>2021-09-12T16:01:41.000Z</time>
      </trkpt>
      <trkpt lat="45.0211" lon="2.66816">
        <ele>1055.3</ele>
        <time>2021-09-12T16:01:47.000Z</time>
      </trkpt>
      <trkpt lat="45.02103" lon="2.66817">
        <ele>1053.7</ele>
        <time>2021-09-12T16:01:53.000Z</time>
      </trkpt>
      <trkpt lat="45.02097" lon="2.66813">
        <ele>1052.9</ele>
        <time>2021-09-12T16:02:00.000Z</time>
      </trkpt>
      <trkpt lat="45.0209" lon="2.6681">
        <ele>1051.7</ele>
        <time>2021-09-12T16:02:21.000Z</time>
      </trkpt>
      <trkpt lat="45.02083" lon="2.66809">
        <ele>1050.2</ele>
        <time>2021-09-12T16:02:26.000Z</time>
      </trkpt>
      <trkpt lat="45.02076" lon="2.66805">
        <ele>1047.5</ele>
        <time>2021-09-12T16:02:32.000Z</time>
      </trkpt>
      <trkpt lat="45.0207" lon="2.66808">
        <ele>1044.7</ele>
        <time>2021-09-12T16:02:39.000Z</time>
      </trkpt>
      <trkpt lat="45.02062" lon="2.66806">
        <ele>1041.3</ele>
        <time>2021-09-12T16:02:47.000Z</time>
      </trkpt>
      <trkpt lat="45.02055" lon="2.66805">
        <ele>1038.3</ele>
        <time>2021-09-12T16:02:53.000Z</time>
      </trkpt>
      <trkpt lat="45.02049" lon="2.66802">
        <ele>1035.7</ele>
        <time>2021-09-12T16:03:00.000Z</time>
      </trkpt>
      <trkpt lat="45.02041" lon="2.66801">
        <ele>1032.1</ele>
        <time>2021-09-12T16:03:05.000Z</time>
      </trkpt>
      <trkpt lat="45.02034" lon="2.66802">
        <ele>1029</ele>
        <time>2021-09-12T16:03:11.000Z</time>
      </trkpt>
      <trkpt lat="45.02027" lon="2.66803">
        <ele>1026</ele>
        <time>2021-09-12T16:03:17.000Z</time>
      </trkpt>
      <trkpt lat="45.02021" lon="2.66804">
        <ele>1023.4</ele>
        <time>2021-09-12T16:03:23.000Z</time>
      </trkpt>
      <trkpt lat="45.02014" lon="2.66804">
        <ele>1020.3</ele>
        <time>2021-09-12T16:03:30.000Z</time>
      </trkpt>
      <trkpt lat="45.02007" lon="2.66806">
        <ele>1017.4</ele>
        <time>2021-09-12T16:03:37.000Z</time>
      </trkpt>
      <trkpt lat="45.02001" lon="2.66808">
        <ele>1015.1</ele>
        <time>2021-09-12T16:03:44.000Z</time>
      </trkpt>
      <trkpt lat="45.01994" lon="2.66808">
        <ele>1011.4</ele>
        <time>2021-09-12T16:03:53.000Z</time>
      </trkpt>
      <trkpt lat="45.01988" lon="2.6681">
        <ele>1008.3</ele>
        <time>2021-09-12T16:04:02.000Z</time>
      </trkpt>
      <trkpt lat="45.01981" lon="2.66813">
        <ele>1004.9</ele>
        <time>2021-09-12T16:04:11.000Z</time>
      </trkpt>
      <trkpt lat="45.01976" lon="2.66819">
        <ele>1002.9</ele>
        <time>2021-09-12T16:04:19.000Z</time>
      </trkpt>
      <trkpt lat="45.01969" lon="2.66817">
        <ele>998.8</ele>
        <time>2021-09-12T16:05:05.000Z</time>
      </trkpt>
      <trkpt lat="45.01963" lon="2.66827">
        <ele>996.8</ele>
        <time>2021-09-12T16:05:41.000Z</time>
      </trkpt>
      <trkpt lat="45.01971" lon="2.66822">
        <ele>1000.5</ele>
        <time>2021-09-12T16:05:52.000Z</time>
      </trkpt>
      <trkpt lat="45.01965" lon="2.66827">
        <ele>997.9</ele>
        <time>2021-09-12T16:06:03.000Z</time>
      </trkpt>
      <trkpt lat="45.01951" lon="2.66822">
        <ele>989.5</ele>
        <time>2021-09-12T16:06:09.000Z</time>
      </trkpt>
      <trkpt lat="45.01941" lon="2.66816">
        <ele>983.3</ele>
        <time>2021-09-12T16:06:15.000Z</time>
      </trkpt>
      <trkpt lat="45.01943" lon="2.66826">
        <ele>985.6</ele>
        <time>2021-09-12T16:06:26.000Z</time>
      </trkpt>
      <trkpt lat="45.01945" lon="2.66835">
        <ele>987.3</ele>
        <time>2021-09-12T16:06:35.000Z</time>
      </trkpt>
      <trkpt lat="45.01951" lon="2.66835">
        <ele>990.6</ele>
        <time>2021-09-12T16:06:56.000Z</time>
      </trkpt>
      <trkpt lat="45.01948" lon="2.66843">
        <ele>987.4</ele>
        <time>2021-09-12T16:07:12.000Z</time>
      </trkpt>
      <trkpt lat="45.01941" lon="2.66846">
        <ele>983</ele>
        <time>2021-09-12T16:07:31.000Z</time>
      </trkpt>
      <trkpt lat="45.01934" lon="2.66848">
        <ele>978.8</ele>
        <time>2021-09-12T16:08:07.000Z</time>
      </trkpt>
      <trkpt lat="45.01928" lon="2.66851">
        <ele>974.9</ele>
        <time>2021-09-12T16:08:15.000Z</time>
      </trkpt>
      <trkpt lat="45.01921" lon="2.66851">
        <ele>971</ele>
        <time>2021-09-12T16:08:21.000Z</time>
      </trkpt>
      <trkpt lat="45.01914" lon="2.66848">
        <ele>967.5</ele>
        <time>2021-09-12T16:09:00.000Z</time>
      </trkpt>
      <trkpt lat="45.01907" lon="2.6684">
        <ele>964.5</ele>
        <time>2021-09-12T16:09:09.000Z</time>
      </trkpt>
      <trkpt lat="45.01912" lon="2.66832">
        <ele>968.8</ele>
        <time>2021-09-12T16:09:26.000Z</time>
      </trkpt>
      <trkpt lat="45.01915" lon="2.66841">
        <ele>969.5</ele>
        <time>2021-09-12T16:09:34.000Z</time>
      </trkpt>
      <trkpt lat="45.01915" lon="2.66851">
        <ele>967.5</ele>
        <time>2021-09-12T16:09:43.000Z</time>
      </trkpt>
      <trkpt lat="45.01916" lon="2.6686">
        <ele>966.5</ele>
        <time>2021-09-12T16:09:52.000Z</time>
      </trkpt>
      <trkpt lat="45.01917" lon="2.66869">
        <ele>965.3</ele>
        <time>2021-09-12T16:10:00.000Z</time>
      </trkpt>
      <trkpt lat="45.01914" lon="2.66879">
        <ele>961.6</ele>
        <time>2021-09-12T16:10:04.000Z</time>
      </trkpt>
      <trkpt lat="45.01906" lon="2.66878">
        <ele>956.7</ele>
        <time>2021-09-12T16:10:30.000Z</time>
      </trkpt>
      <trkpt lat="45.01899" lon="2.66877">
        <ele>952.5</ele>
        <time>2021-09-12T16:10:36.000Z</time>
      </trkpt>
      <trkpt lat="45.01893" lon="2.66872">
        <ele>949.6</ele>
        <time>2021-09-12T16:10:43.000Z</time>
      </trkpt>
      <trkpt lat="45.01887" lon="2.66864">
        <ele>947.3</ele>
        <time>2021-09-12T16:10:50.000Z</time>
      </trkpt>
      <trkpt lat="45.01881" lon="2.6686">
        <ele>944.2</ele>
        <time>2021-09-12T16:10:55.000Z</time>
      </trkpt>
      <trkpt lat="45.01875" lon="2.66854">
        <ele>941.4</ele>
        <time>2021-09-12T16:11:02.000Z</time>
      </trkpt>
      <trkpt lat="45.01871" lon="2.66846">
        <ele>940.2</ele>
        <time>2021-09-12T16:11:14.000Z</time>
      </trkpt>
      <trkpt lat="45.01867" lon="2.66839">
        <ele>938.8</ele>
        <time>2021-09-12T16:11:22.000Z</time>
      </trkpt>
      <trkpt lat="45.01861" lon="2.66833">
        <ele>935.9</ele>
        <time>2021-09-12T16:11:43.000Z</time>
      </trkpt>
      <trkpt lat="45.01856" lon="2.66828">
        <ele>932.6</ele>
        <time>2021-09-12T16:11:54.000Z</time>
      </trkpt>
      <trkpt lat="45.01854" lon="2.66819">
        <ele>931.1</ele>
        <time>2021-09-12T16:12:03.000Z</time>
      </trkpt>
      <trkpt lat="45.01857" lon="2.6681">
        <ele>932.7</ele>
        <time>2021-09-12T16:12:13.000Z</time>
      </trkpt>
      <trkpt lat="45.01861" lon="2.66803">
        <ele>935</ele>
        <time>2021-09-12T16:12:19.000Z</time>
      </trkpt>
      <trkpt lat="45.01863" lon="2.66793">
        <ele>935.8</ele>
        <time>2021-09-12T16:12:32.000Z</time>
      </trkpt>
      <trkpt lat="45.01863" lon="2.66784">
        <ele>935.5</ele>
        <time>2021-09-12T16:12:44.000Z</time>
      </trkpt>
      <trkpt lat="45.01869" lon="2.66777">
        <ele>938.6</ele>
        <time>2021-09-12T16:12:52.000Z</time>
      </trkpt>
      <trkpt lat="45.01869" lon="2.66767">
        <ele>938.2</ele>
        <time>2021-09-12T16:13:01.000Z</time>
      </trkpt>
      <trkpt lat="45.01866" lon="2.66759">
        <ele>936.2</ele>
        <time>2021-09-12T16:13:17.000Z</time>
      </trkpt>
      <trkpt lat="45.01866" lon="2.66769">
        <ele>936.6</ele>
        <time>2021-09-12T16:13:29.000Z</time>
      </trkpt>
      <trkpt lat="45.01859" lon="2.66771">
        <ele>932.8</ele>
        <time>2021-09-12T16:13:49.000Z</time>
      </trkpt>
      <trkpt lat="45.01853" lon="2.66774">
        <ele>929.6</ele>
        <time>2021-09-12T16:13:54.000Z</time>
      </trkpt>
      <trkpt lat="45.01845" lon="2.66776">
        <ele>925.2</ele>
        <time>2021-09-12T16:14:00.000Z</time>
      </trkpt>
      <trkpt lat="45.01839" lon="2.66777">
        <ele>921.8</ele>
        <time>2021-09-12T16:14:18.000Z</time>
      </trkpt>
      <trkpt lat="45.01834" lon="2.66767">
        <ele>919.2</ele>
        <time>2021-09-12T16:14:23.000Z</time>
      </trkpt>
      <trkpt lat="45.01826" lon="2.66757">
        <ele>914.7</ele>
        <time>2021-09-12T16:14:29.000Z</time>
      </trkpt>
      <trkpt lat="45.01823" lon="2.66748">
        <ele>912.6</ele>
        <time>2021-09-12T16:14:39.000Z</time>
      </trkpt>
      <trkpt lat="45.01819" lon="2.66739">
        <ele>908.4</ele>
        <time>2021-09-12T16:14:46.000Z</time>
      </trkpt>
      <trkpt lat="45.01812" lon="2.66734">
        <ele>903.5</ele>
        <time>2021-09-12T16:14:53.000Z</time>
      </trkpt>
      <trkpt lat="45.01805" lon="2.66735">
        <ele>899.8</ele>
        <time>2021-09-12T16:15:06.000Z</time>
      </trkpt>
      <trkpt lat="45.01801" lon="2.66724">
        <ele>895.5</ele>
        <time>2021-09-12T16:15:20.000Z</time>
      </trkpt>
      <trkpt lat="45.01794" lon="2.66726">
        <ele>892.1</ele>
        <time>2021-09-12T16:15:33.000Z</time>
      </trkpt>
      <trkpt lat="45.01798" lon="2.66735">
        <ele>895.9</ele>
        <time>2021-09-12T16:15:42.000Z</time>
      </trkpt>
      <trkpt lat="45.01794" lon="2.66727">
        <ele>892.3</ele>
        <time>2021-09-12T16:15:53.000Z</time>
      </trkpt>
      <trkpt lat="45.01787" lon="2.66727">
        <ele>888.4</ele>
        <time>2021-09-12T16:15:58.000Z</time>
      </trkpt>
      <trkpt lat="45.0178" lon="2.66727">
        <ele>884.6</ele>
        <time>2021-09-12T16:16:04.000Z</time>
      </trkpt>
      <trkpt lat="45.01773" lon="2.66727">
        <ele>880.8</ele>
        <time>2021-09-12T16:16:11.000Z</time>
      </trkpt>
      <trkpt lat="45.01766" lon="2.66733">
        <ele>877.8</ele>
        <time>2021-09-12T16:17:11.000Z</time>
      </trkpt>
      <trkpt lat="45.01761" lon="2.66726">
        <ele>874.1</ele>
        <time>2021-09-12T16:17:22.000Z</time>
      </trkpt>
      <trkpt lat="45.01759" lon="2.66718">
        <ele>872</ele>
        <time>2021-09-12T16:17:56.000Z</time>
      </trkpt>
      <trkpt lat="45.01755" lon="2.66726">
        <ele>870.8</ele>
        <time>2021-09-12T16:18:27.000Z</time>
      </trkpt>
      <trkpt lat="45.0176" lon="2.66731">
        <ele>874.2</ele>
        <time>2021-09-12T16:18:34.000Z</time>
      </trkpt>
      <trkpt lat="45.01766" lon="2.66735">
        <ele>878.1</ele>
        <time>2021-09-12T16:18:49.000Z</time>
      </trkpt>
      <trkpt lat="45.01772" lon="2.66731">
        <ele>880.9</ele>
        <time>2021-09-12T16:19:58.000Z</time>
      </trkpt>
      <trkpt lat="45.01766" lon="2.66732">
        <ele>877.7</ele>
        <time>2021-09-12T16:20:25.000Z</time>
      </trkpt>
      <trkpt lat="45.0176" lon="2.66727">
        <ele>873.7</ele>
        <time>2021-09-12T16:20:34.000Z</time>
      </trkpt>
      <trkpt lat="45.01757" lon="2.66718">
        <ele>870.9</ele>
        <time>2021-09-12T16:20:48.000Z</time>
      </trkpt>
      <trkpt lat="45.01758" lon="2.66702">
        <ele>869.4</ele>
        <time>2021-09-12T16:21:27.000Z</time>
      </trkpt>
      <trkpt lat="45.01761" lon="2.66691">
        <ele>869.4</ele>
        <time>2021-09-12T16:21:56.000Z</time>
      </trkpt>
      <trkpt lat="45.01759" lon="2.6668">
        <ele>867</ele>
        <time>2021-09-12T16:22:28.000Z</time>
      </trkpt>
      <trkpt lat="45.01758" lon="2.6669">
        <ele>867.8</ele>
        <time>2021-09-12T16:23:18.000Z</time>
      </trkpt>
      <trkpt lat="45.01757" lon="2.66699">
        <ele>868.4</ele>
        <time>2021-09-12T16:23:34.000Z</time>
      </trkpt>
      <trkpt lat="45.01747" lon="2.66706">
        <ele>864.4</ele>
        <time>2021-09-12T16:24:04.000Z</time>
      </trkpt>
      <trkpt lat="45.01743" lon="2.66716">
        <ele>863.7</ele>
        <time>2021-09-12T16:24:48.000Z</time>
      </trkpt>
      <trkpt lat="45.0174" lon="2.66725">
        <ele>863.3</ele>
        <time>2021-09-12T16:24:53.000Z</time>
      </trkpt>
      <trkpt lat="45.01746" lon="2.66719">
        <ele>865.4</ele>
        <time>2021-09-12T16:25:19.000Z</time>
      </trkpt>
      <trkpt lat="45.01745" lon="2.66729">
        <ele>866.1</ele>
        <time>2021-09-12T16:26:18.000Z</time>
      </trkpt>
      <trkpt lat="45.01747" lon="2.6672">
        <ele>866</ele>
        <time>2021-09-12T16:26:27.000Z</time>
      </trkpt>
      <trkpt lat="45.01743" lon="2.66712">
        <ele>863.3</ele>
        <time>2021-09-12T16:26:33.000Z</time>
      </trkpt>
      <trkpt lat="45.01737" lon="2.66712">
        <ele>860.6</ele>
        <time>2021-09-12T16:27:07.000Z</time>
      </trkpt>
      <trkpt lat="45.01729" lon="2.66719">
        <ele>857.6</ele>
        <time>2021-09-12T16:27:16.000Z</time>
      </trkpt>
      <trkpt lat="45.01726" lon="2.66728">
        <ele>856.9</ele>
        <time>2021-09-12T16:27:47.000Z</time>
      </trkpt>
      <trkpt lat="45.0172" lon="2.66732">
        <ele>854.3</ele>
        <time>2021-09-12T16:27:55.000Z</time>
      </trkpt>
      <trkpt lat="45.01715" lon="2.66739">
        <ele>852.3</ele>
        <time>2021-09-12T16:28:08.000Z</time>
      </trkpt>
      <trkpt lat="45.01711" lon="2.66746">
        <ele>850.7</ele>
        <time>2021-09-12T16:28:15.000Z</time>
      </trkpt>
      <trkpt lat="45.01702" lon="2.66755">
        <ele>846.2</ele>
        <time>2021-09-12T16:28:44.000Z</time>
      </trkpt>
      <trkpt lat="45.01696" lon="2.66762">
        <ele>843</ele>
        <time>2021-09-12T16:28:51.000Z</time>
      </trkpt>
      <trkpt lat="45.01692" lon="2.66772">
        <ele>840.7</ele>
        <time>2021-09-12T16:28:57.000Z</time>
      </trkpt>
      <trkpt lat="45.01687" lon="2.66779">
        <ele>837.9</ele>
        <time>2021-09-12T16:29:03.000Z</time>
      </trkpt>
      <trkpt lat="45.01681" lon="2.66784">
        <ele>834.4</ele>
        <time>2021-09-12T16:29:09.000Z</time>
      </trkpt>
      <trkpt lat="45.01678" lon="2.66794">
        <ele>832.4</ele>
        <time>2021-09-12T16:29:15.000Z</time>
      </trkpt>
      <trkpt lat="45.01679" lon="2.66809">
        <ele>832.5</ele>
        <time>2021-09-12T16:29:42.000Z</time>
      </trkpt>
      <trkpt lat="45.01689" lon="2.66795">
        <ele>838.7</ele>
        <time>2021-09-12T16:30:41.000Z</time>
      </trkpt>
    </trkseg>
  </trk>
</gpx>